<?xml version="1.0" encoding="UTF-8" standalone="no" ?>
<gpx xmlns="http://www.topografix.com/GPX/1/1" xmlns:xsi="http://www.w3.org/2001/XMLSchema-instance" xsi:schemaLocation="http://www.topografix.com/GPX/1/1 http://www.topografix.com/GPX/1/1/gpx.xsd" version="1.1" creator="VisuGPX - https://www.visugpx.com">
  <metadata>
    <name>Tour d'Europe: étape 087</name>
    <desc><![CDATA[Étape 087]]></desc>
  </metadata>
  <trk>
    <name><![CDATA[Tour d'Europe: étape 087]]></name>
    <trkseg>
      <trkpt lat="65.82904" lon="21.67032">
        <ele>28.283529</ele>
        <time>2020-09-23T09:13:17.192Z</time>
      </trkpt>
      <trkpt lat="65.82913" lon="21.67048">
        <ele>28.283529</ele>
        <time>2020-09-23T09:13:19.158Z</time>
      </trkpt>
      <trkpt lat="65.82938" lon="21.6704">
        <ele>28.283529</ele>
        <time>2020-09-23T09:16:06.457Z</time>
      </trkpt>
      <trkpt lat="65.82946" lon="21.67052">
        <ele>28.283529</ele>
        <time>2020-09-23T09:16:09.455Z</time>
      </trkpt>
      <trkpt lat="65.82949" lon="21.67074">
        <ele>28.283529</ele>
        <time>2020-09-23T09:16:12.458Z</time>
      </trkpt>
      <trkpt lat="65.82946" lon="21.67096">
        <ele>28.283529</ele>
        <time>2020-09-23T09:16:15.450Z</time>
      </trkpt>
      <trkpt lat="65.82944" lon="21.67117">
        <ele>28.283529</ele>
        <time>2020-09-23T09:16:18.451Z</time>
      </trkpt>
      <trkpt lat="65.82941" lon="21.67145">
        <ele>28.283529</ele>
        <time>2020-09-23T09:16:22.469Z</time>
      </trkpt>
      <trkpt lat="65.82938" lon="21.67173">
        <ele>28.480982</ele>
        <time>2020-09-23T09:16:26.481Z</time>
      </trkpt>
      <trkpt lat="65.82936" lon="21.67195">
        <ele>28.736932</ele>
        <time>2020-09-23T09:16:29.467Z</time>
      </trkpt>
      <trkpt lat="65.82935" lon="21.67218">
        <ele>28.995392</ele>
        <time>2020-09-23T09:16:32.458Z</time>
      </trkpt>
      <trkpt lat="65.82933" lon="21.67247">
        <ele>29.318193</ele>
        <time>2020-09-23T09:16:36.460Z</time>
      </trkpt>
      <trkpt lat="65.82931" lon="21.67269">
        <ele>29.567188</ele>
        <time>2020-09-23T09:16:39.493Z</time>
      </trkpt>
      <trkpt lat="65.82929" lon="21.6729">
        <ele>29.813463</ele>
        <time>2020-09-23T09:16:42.466Z</time>
      </trkpt>
      <trkpt lat="65.82928" lon="21.67319">
        <ele>30.132837</ele>
        <time>2020-09-23T09:16:46.467Z</time>
      </trkpt>
      <trkpt lat="65.82928" lon="21.67347">
        <ele>30.450546</ele>
        <time>2020-09-23T09:16:50.459Z</time>
      </trkpt>
      <trkpt lat="65.82928" lon="21.67376">
        <ele>30.763833</ele>
        <time>2020-09-23T09:16:54.448Z</time>
      </trkpt>
      <trkpt lat="65.82928" lon="21.674">
        <ele>31.040407</ele>
        <time>2020-09-23T09:16:58.453Z</time>
      </trkpt>
      <trkpt lat="65.82929" lon="21.67427">
        <ele>31.342612</ele>
        <time>2020-09-23T09:17:02.460Z</time>
      </trkpt>
      <trkpt lat="65.82928" lon="21.67452">
        <ele>31.61625</ele>
        <time>2020-09-23T09:17:06.463Z</time>
      </trkpt>
      <trkpt lat="65.82927" lon="21.67477">
        <ele>31.897909</ele>
        <time>2020-09-23T09:17:11.493Z</time>
      </trkpt>
      <trkpt lat="65.82924" lon="21.6752">
        <ele>32.385362</ele>
        <time>2020-09-23T09:21:18.452Z</time>
      </trkpt>
      <trkpt lat="65.82919" lon="21.67542">
        <ele>32.666603</ele>
        <time>2020-09-23T09:21:22.446Z</time>
      </trkpt>
      <trkpt lat="65.8291" lon="21.67552">
        <ele>32.941915</ele>
        <time>2020-09-23T09:21:26.456Z</time>
      </trkpt>
      <trkpt lat="65.82901" lon="21.6756">
        <ele>33.223639</ele>
        <time>2020-09-23T09:21:31.468Z</time>
      </trkpt>
      <trkpt lat="65.82892" lon="21.67573">
        <ele>33.681938</ele>
        <time>2020-09-23T09:21:36.460Z</time>
      </trkpt>
      <trkpt lat="65.82883" lon="21.67582">
        <ele>34.119436</ele>
        <time>2020-09-23T09:21:40.480Z</time>
      </trkpt>
      <trkpt lat="65.82874" lon="21.67592">
        <ele>34.538294</ele>
        <time>2020-09-23T09:21:43.458Z</time>
      </trkpt>
      <trkpt lat="65.82864" lon="21.67604">
        <ele>35.055625</ele>
        <time>2020-09-23T09:21:47.459Z</time>
      </trkpt>
      <trkpt lat="65.82854" lon="21.67617">
        <ele>35.565813</ele>
        <time>2020-09-23T09:21:51.459Z</time>
      </trkpt>
      <trkpt lat="65.82845" lon="21.67627">
        <ele>35.979043</ele>
        <time>2020-09-23T09:21:55.447Z</time>
      </trkpt>
      <trkpt lat="65.82837" lon="21.67639">
        <ele>36.406093</ele>
        <time>2020-09-23T09:21:59.480Z</time>
      </trkpt>
      <trkpt lat="65.82829" lon="21.6765">
        <ele>36.818834</ele>
        <time>2020-09-23T09:22:03.455Z</time>
      </trkpt>
      <trkpt lat="65.8282" lon="21.67661">
        <ele>37.287338</ele>
        <time>2020-09-23T09:22:07.483Z</time>
      </trkpt>
      <trkpt lat="65.82811" lon="21.6767">
        <ele>37.689826</ele>
        <time>2020-09-23T09:22:10.446Z</time>
      </trkpt>
      <trkpt lat="65.82804" lon="21.67682">
        <ele>38.093943</ele>
        <time>2020-09-23T09:22:13.468Z</time>
      </trkpt>
      <trkpt lat="65.82796" lon="21.677">
        <ele>38.567665</ele>
        <time>2020-09-23T09:22:17.502Z</time>
      </trkpt>
      <trkpt lat="65.82791" lon="21.67719">
        <ele>38.996034</ele>
        <time>2020-09-23T09:22:21.472Z</time>
      </trkpt>
      <trkpt lat="65.82786" lon="21.67743">
        <ele>39.473592</ele>
        <time>2020-09-23T09:22:25.446Z</time>
      </trkpt>
      <trkpt lat="65.8278" lon="21.67765">
        <ele>39.960912</ele>
        <time>2020-09-23T09:22:29.449Z</time>
      </trkpt>
      <trkpt lat="65.82772" lon="21.67782">
        <ele>40.419938</ele>
        <time>2020-09-23T09:22:33.481Z</time>
      </trkpt>
      <trkpt lat="65.82763" lon="21.67787">
        <ele>40.866068</ele>
        <time>2020-09-23T09:22:36.438Z</time>
      </trkpt>
      <trkpt lat="65.82754" lon="21.67797">
        <ele>41.210316</ele>
        <time>2020-09-23T09:22:40.463Z</time>
      </trkpt>
      <trkpt lat="65.82745" lon="21.6781">
        <ele>41.27003</ele>
        <time>2020-09-23T09:22:44.477Z</time>
      </trkpt>
      <trkpt lat="65.82734" lon="21.67821">
        <ele>41.340281</ele>
        <time>2020-09-23T09:22:48.458Z</time>
      </trkpt>
      <trkpt lat="65.82725" lon="21.6783">
        <ele>41.396774</ele>
        <time>2020-09-23T09:22:51.442Z</time>
      </trkpt>
      <trkpt lat="65.82716" lon="21.67838">
        <ele>41.458392</ele>
        <time>2020-09-23T09:22:54.468Z</time>
      </trkpt>
      <trkpt lat="65.82706" lon="21.67845">
        <ele>41.519949</ele>
        <time>2020-09-23T09:22:57.467Z</time>
      </trkpt>
      <trkpt lat="65.82696" lon="21.67852">
        <ele>41.580731</ele>
        <time>2020-09-23T09:23:00.462Z</time>
      </trkpt>
      <trkpt lat="65.82686" lon="21.67857">
        <ele>41.640965</ele>
        <time>2020-09-23T09:23:03.445Z</time>
      </trkpt>
      <trkpt lat="65.82676" lon="21.67861">
        <ele>41.703249</ele>
        <time>2020-09-23T09:23:06.472Z</time>
      </trkpt>
      <trkpt lat="65.82665" lon="21.67863">
        <ele>41.769763</ele>
        <time>2020-09-23T09:23:09.476Z</time>
      </trkpt>
      <trkpt lat="65.82654" lon="21.67863">
        <ele>41.83195</ele>
        <time>2020-09-23T09:23:12.460Z</time>
      </trkpt>
      <trkpt lat="65.82644" lon="21.67866">
        <ele>41.893438</ele>
        <time>2020-09-23T09:23:15.458Z</time>
      </trkpt>
      <trkpt lat="65.82634" lon="21.67871">
        <ele>41.952971</ele>
        <time>2020-09-23T09:23:18.451Z</time>
      </trkpt>
      <trkpt lat="65.82623" lon="21.67874">
        <ele>42.019207</ele>
        <time>2020-09-23T09:23:21.437Z</time>
      </trkpt>
      <trkpt lat="65.82612" lon="21.67877">
        <ele>42.086095</ele>
        <time>2020-09-23T09:23:24.447Z</time>
      </trkpt>
      <trkpt lat="65.82601" lon="21.6788">
        <ele>42.155744</ele>
        <time>2020-09-23T09:23:27.451Z</time>
      </trkpt>
      <trkpt lat="65.8259" lon="21.67884">
        <ele>42.222761</ele>
        <time>2020-09-23T09:23:30.493Z</time>
      </trkpt>
      <trkpt lat="65.82579" lon="21.67887">
        <ele>42.26621</ele>
        <time>2020-09-23T09:23:33.438Z</time>
      </trkpt>
      <trkpt lat="65.8257" lon="21.67892">
        <ele>42.246725</ele>
        <time>2020-09-23T09:23:36.539Z</time>
      </trkpt>
      <trkpt lat="65.82558" lon="21.67899">
        <ele>42.224271</ele>
        <time>2020-09-23T09:23:40.469Z</time>
      </trkpt>
      <trkpt lat="65.82554" lon="21.67919">
        <ele>42.205486</ele>
        <time>2020-09-23T09:23:44.461Z</time>
      </trkpt>
      <trkpt lat="65.82552" lon="21.67942">
        <ele>42.186394</ele>
        <time>2020-09-23T09:23:49.489Z</time>
      </trkpt>
      <trkpt lat="65.82542" lon="21.67954">
        <ele>42.164832</ele>
        <time>2020-09-23T09:23:54.464Z</time>
      </trkpt>
      <trkpt lat="65.82542" lon="21.67977">
        <ele>42.146294</ele>
        <time>2020-09-23T09:23:58.452Z</time>
      </trkpt>
      <trkpt lat="65.82545" lon="21.67999">
        <ele>42.127357</ele>
        <time>2020-09-23T09:24:01.466Z</time>
      </trkpt>
      <trkpt lat="65.82548" lon="21.68024">
        <ele>42.106498</ele>
        <time>2020-09-23T09:24:04.469Z</time>
      </trkpt>
      <trkpt lat="65.82552" lon="21.68048">
        <ele>42.085813</ele>
        <time>2020-09-23T09:24:07.483Z</time>
      </trkpt>
      <trkpt lat="65.82555" lon="21.68071">
        <ele>42.067002</ele>
        <time>2020-09-23T09:24:10.460Z</time>
      </trkpt>
      <trkpt lat="65.82555" lon="21.68095">
        <ele>42.04705</ele>
        <time>2020-09-23T09:24:13.444Z</time>
      </trkpt>
      <trkpt lat="65.82549" lon="21.68116">
        <ele>42.026574</ele>
        <time>2020-09-23T09:24:17.469Z</time>
      </trkpt>
      <trkpt lat="65.8254" lon="21.68122">
        <ele>42.00775</ele>
        <time>2020-09-23T09:24:20.462Z</time>
      </trkpt>
      <trkpt lat="65.82531" lon="21.68128">
        <ele>41.989325</ele>
        <time>2020-09-23T09:24:23.451Z</time>
      </trkpt>
      <trkpt lat="65.82522" lon="21.68139">
        <ele>41.969928</ele>
        <time>2020-09-23T09:24:26.451Z</time>
      </trkpt>
      <trkpt lat="65.82517" lon="21.68158">
        <ele>41.951393</ele>
        <time>2020-09-23T09:24:29.464Z</time>
      </trkpt>
      <trkpt lat="65.82514" lon="21.68183">
        <ele>41.93092</ele>
        <time>2020-09-23T09:24:32.455Z</time>
      </trkpt>
      <trkpt lat="65.82509" lon="21.68209">
        <ele>41.975592</ele>
        <time>2020-09-23T09:24:35.457Z</time>
      </trkpt>
      <trkpt lat="65.82504" lon="21.68234">
        <ele>42.098562</ele>
        <time>2020-09-23T09:24:38.461Z</time>
      </trkpt>
      <trkpt lat="65.82499" lon="21.68259">
        <ele>42.221863</ele>
        <time>2020-09-23T09:24:41.477Z</time>
      </trkpt>
      <trkpt lat="65.82495" lon="21.68284">
        <ele>42.33897</ele>
        <time>2020-09-23T09:24:44.454Z</time>
      </trkpt>
      <trkpt lat="65.82492" lon="21.68309">
        <ele>42.455409</ele>
        <time>2020-09-23T09:24:47.449Z</time>
      </trkpt>
      <trkpt lat="65.82488" lon="21.68334">
        <ele>42.567978</ele>
        <time>2020-09-23T09:24:50.450Z</time>
      </trkpt>
      <trkpt lat="65.82486" lon="21.68359">
        <ele>42.679955</ele>
        <time>2020-09-23T09:24:53.451Z</time>
      </trkpt>
      <trkpt lat="65.82485" lon="21.68385">
        <ele>42.795141</ele>
        <time>2020-09-23T09:24:56.456Z</time>
      </trkpt>
      <trkpt lat="65.82484" lon="21.68412">
        <ele>42.914595</ele>
        <time>2020-09-23T09:24:59.478Z</time>
      </trkpt>
      <trkpt lat="65.82484" lon="21.68439">
        <ele>43.033229</ele>
        <time>2020-09-23T09:25:02.485Z</time>
      </trkpt>
      <trkpt lat="65.82485" lon="21.6847">
        <ele>43.167605</ele>
        <time>2020-09-23T09:25:05.466Z</time>
      </trkpt>
      <trkpt lat="65.82486" lon="21.68497">
        <ele>43.284534</ele>
        <time>2020-09-23T09:25:08.500Z</time>
      </trkpt>
      <trkpt lat="65.82488" lon="21.68524">
        <ele>43.405278</ele>
        <time>2020-09-23T09:25:11.474Z</time>
      </trkpt>
      <trkpt lat="65.8249" lon="21.6855">
        <ele>43.523808</ele>
        <time>2020-09-23T09:25:14.438Z</time>
      </trkpt>
      <trkpt lat="65.82493" lon="21.68577">
        <ele>43.645409</ele>
        <time>2020-09-23T09:25:17.480Z</time>
      </trkpt>
      <trkpt lat="65.82494" lon="21.68601">
        <ele>43.751881</ele>
        <time>2020-09-23T09:25:20.481Z</time>
      </trkpt>
      <trkpt lat="65.82494" lon="21.68626">
        <ele>44.004837</ele>
        <time>2020-09-23T09:25:23.445Z</time>
      </trkpt>
      <trkpt lat="65.82494" lon="21.68653">
        <ele>45.016605</ele>
        <time>2020-09-23T09:25:26.464Z</time>
      </trkpt>
      <trkpt lat="65.82496" lon="21.6868">
        <ele>46.035097</ele>
        <time>2020-09-23T09:25:29.450Z</time>
      </trkpt>
      <trkpt lat="65.825" lon="21.68708">
        <ele>47.145723</ele>
        <time>2020-09-23T09:25:32.447Z</time>
      </trkpt>
      <trkpt lat="65.82503" lon="21.68729">
        <ele>47.98223</ele>
        <time>2020-09-23T09:25:34.467Z</time>
      </trkpt>
      <trkpt lat="65.82506" lon="21.6876">
        <ele>49.147536</ele>
        <time>2020-09-23T09:25:37.449Z</time>
      </trkpt>
      <trkpt lat="65.82509" lon="21.68787">
        <ele>50.213777</ele>
        <time>2020-09-23T09:25:40.475Z</time>
      </trkpt>
      <trkpt lat="65.82514" lon="21.68813">
        <ele>51.290031</ele>
        <time>2020-09-23T09:25:43.470Z</time>
      </trkpt>
      <trkpt lat="65.82516" lon="21.6884">
        <ele>52.3107</ele>
        <time>2020-09-23T09:25:46.456Z</time>
      </trkpt>
      <trkpt lat="65.82513" lon="21.68865">
        <ele>53.280739</ele>
        <time>2020-09-23T09:25:49.462Z</time>
      </trkpt>
      <trkpt lat="65.82506" lon="21.6888">
        <ele>54.134177</ele>
        <time>2020-09-23T09:25:51.458Z</time>
      </trkpt>
      <trkpt lat="65.82497" lon="21.68888">
        <ele>55.010928</ele>
        <time>2020-09-23T09:25:53.479Z</time>
      </trkpt>
      <trkpt lat="65.82485" lon="21.68893">
        <ele>56.097816</ele>
        <time>2020-09-23T09:25:56.467Z</time>
      </trkpt>
      <trkpt lat="65.82476" lon="21.68898">
        <ele>56.955435</ele>
        <time>2020-09-23T09:25:58.457Z</time>
      </trkpt>
      <trkpt lat="65.82466" lon="21.68905">
        <ele>57.957445</ele>
        <time>2020-09-23T09:26:01.475Z</time>
      </trkpt>
      <trkpt lat="65.82455" lon="21.68906">
        <ele>58.970173</ele>
        <time>2020-09-23T09:26:04.447Z</time>
      </trkpt>
      <trkpt lat="65.82446" lon="21.68918">
        <ele>59.840138</ele>
        <time>2020-09-23T09:26:07.462Z</time>
      </trkpt>
      <trkpt lat="65.82437" lon="21.6893">
        <ele>59.837403</ele>
        <time>2020-09-23T09:26:10.491Z</time>
      </trkpt>
      <trkpt lat="65.82426" lon="21.68937">
        <ele>59.095033</ele>
        <time>2020-09-23T09:26:13.458Z</time>
      </trkpt>
      <trkpt lat="65.82414" lon="21.68945">
        <ele>58.340973</ele>
        <time>2020-09-23T09:26:16.461Z</time>
      </trkpt>
      <trkpt lat="65.82405" lon="21.68948">
        <ele>57.759433</ele>
        <time>2020-09-23T09:26:18.451Z</time>
      </trkpt>
      <trkpt lat="65.82396" lon="21.68954">
        <ele>57.145175</ele>
        <time>2020-09-23T09:26:20.467Z</time>
      </trkpt>
      <trkpt lat="65.82387" lon="21.68959">
        <ele>56.535319</ele>
        <time>2020-09-23T09:26:22.458Z</time>
      </trkpt>
      <trkpt lat="65.82377" lon="21.68964">
        <ele>55.929712</ele>
        <time>2020-09-23T09:26:24.447Z</time>
      </trkpt>
      <trkpt lat="65.82367" lon="21.68969">
        <ele>55.229554</ele>
        <time>2020-09-23T09:26:26.506Z</time>
      </trkpt>
      <trkpt lat="65.82355" lon="21.68977">
        <ele>54.449406</ele>
        <time>2020-09-23T09:26:28.494Z</time>
      </trkpt>
      <trkpt lat="65.8234" lon="21.68981">
        <ele>53.477887</ele>
        <time>2020-09-23T09:26:30.454Z</time>
      </trkpt>
      <trkpt lat="65.82324" lon="21.68987">
        <ele>52.477043</ele>
        <time>2020-09-23T09:26:32.483Z</time>
      </trkpt>
      <trkpt lat="65.82311" lon="21.68996">
        <ele>51.598727</ele>
        <time>2020-09-23T09:26:34.462Z</time>
      </trkpt>
      <trkpt lat="65.82302" lon="21.69003">
        <ele>50.963061</ele>
        <time>2020-09-23T09:26:36.471Z</time>
      </trkpt>
      <trkpt lat="65.82291" lon="21.69011">
        <ele>50.220302</ele>
        <time>2020-09-23T09:26:40.464Z</time>
      </trkpt>
      <trkpt lat="65.8228" lon="21.69014">
        <ele>49.568323</ele>
        <time>2020-09-23T09:26:43.478Z</time>
      </trkpt>
      <trkpt lat="65.82271" lon="21.69016">
        <ele>48.958458</ele>
        <time>2020-09-23T09:26:46.466Z</time>
      </trkpt>
      <trkpt lat="65.82265" lon="21.69037">
        <ele>48.476809</ele>
        <time>2020-09-23T09:26:49.445Z</time>
      </trkpt>
      <trkpt lat="65.82256" lon="21.69056">
        <ele>48.064017</ele>
        <time>2020-09-23T09:26:52.450Z</time>
      </trkpt>
      <trkpt lat="65.82247" lon="21.69061">
        <ele>47.737719</ele>
        <time>2020-09-23T09:26:55.445Z</time>
      </trkpt>
      <trkpt lat="65.82235" lon="21.69059">
        <ele>47.341461</ele>
        <time>2020-09-23T09:26:59.463Z</time>
      </trkpt>
      <trkpt lat="65.82226" lon="21.69057">
        <ele>47.019305</ele>
        <time>2020-09-23T09:27:03.463Z</time>
      </trkpt>
      <trkpt lat="65.82216" lon="21.69057">
        <ele>46.656144</ele>
        <time>2020-09-23T09:27:07.467Z</time>
      </trkpt>
      <trkpt lat="65.82206" lon="21.69059">
        <ele>46.299327</ele>
        <time>2020-09-23T09:27:11.457Z</time>
      </trkpt>
      <trkpt lat="65.82195" lon="21.69062">
        <ele>45.909823</ele>
        <time>2020-09-23T09:27:16.463Z</time>
      </trkpt>
      <trkpt lat="65.82183" lon="21.69062">
        <ele>45.507824</ele>
        <time>2020-09-23T09:27:20.447Z</time>
      </trkpt>
      <trkpt lat="65.82173" lon="21.69063">
        <ele>45.140995</ele>
        <time>2020-09-23T09:27:23.465Z</time>
      </trkpt>
      <trkpt lat="65.82164" lon="21.69067">
        <ele>44.813263</ele>
        <time>2020-09-23T09:27:25.478Z</time>
      </trkpt>
      <trkpt lat="65.82154" lon="21.69068">
        <ele>44.453026</ele>
        <time>2020-09-23T09:27:27.463Z</time>
      </trkpt>
      <trkpt lat="65.82143" lon="21.69072">
        <ele>44.073089</ele>
        <time>2020-09-23T09:27:29.475Z</time>
      </trkpt>
      <trkpt lat="65.82133" lon="21.69074">
        <ele>43.704627</ele>
        <time>2020-09-23T09:27:31.446Z</time>
      </trkpt>
      <trkpt lat="65.82123" lon="21.69076">
        <ele>43.350879</ele>
        <time>2020-09-23T09:27:33.451Z</time>
      </trkpt>
      <trkpt lat="65.82111" lon="21.69083">
        <ele>42.933158</ele>
        <time>2020-09-23T09:27:35.450Z</time>
      </trkpt>
      <trkpt lat="65.821" lon="21.69093">
        <ele>42.528313</ele>
        <time>2020-09-23T09:27:37.472Z</time>
      </trkpt>
      <trkpt lat="65.82091" lon="21.69103">
        <ele>42.607096</ele>
        <time>2020-09-23T09:27:39.487Z</time>
      </trkpt>
      <trkpt lat="65.82079" lon="21.69111">
        <ele>43.039401</ele>
        <time>2020-09-23T09:27:42.463Z</time>
      </trkpt>
      <trkpt lat="65.8207" lon="21.69117">
        <ele>43.393401</ele>
        <time>2020-09-23T09:27:45.480Z</time>
      </trkpt>
      <trkpt lat="65.8206" lon="21.69122">
        <ele>43.762253</ele>
        <time>2020-09-23T09:27:49.492Z</time>
      </trkpt>
      <trkpt lat="65.8205" lon="21.69127">
        <ele>44.114012</ele>
        <time>2020-09-23T09:27:53.478Z</time>
      </trkpt>
      <trkpt lat="65.82041" lon="21.69132">
        <ele>44.44151</ele>
        <time>2020-09-23T09:27:57.503Z</time>
      </trkpt>
      <trkpt lat="65.82031" lon="21.69138">
        <ele>44.79385</ele>
        <time>2020-09-23T09:28:01.460Z</time>
      </trkpt>
      <trkpt lat="65.8202" lon="21.69138">
        <ele>45.209008</ele>
        <time>2020-09-23T09:28:05.492Z</time>
      </trkpt>
      <trkpt lat="65.82008" lon="21.69141">
        <ele>45.636098</ele>
        <time>2020-09-23T09:28:09.478Z</time>
      </trkpt>
      <trkpt lat="65.81998" lon="21.69142">
        <ele>45.966617</ele>
        <time>2020-09-23T09:28:12.481Z</time>
      </trkpt>
      <trkpt lat="65.81987" lon="21.69146">
        <ele>46.361221</ele>
        <time>2020-09-23T09:28:16.454Z</time>
      </trkpt>
      <trkpt lat="65.81976" lon="21.69146">
        <ele>46.762174</ele>
        <time>2020-09-23T09:28:20.475Z</time>
      </trkpt>
      <trkpt lat="65.81965" lon="21.69151">
        <ele>47.157676</ele>
        <time>2020-09-23T09:28:24.471Z</time>
      </trkpt>
      <trkpt lat="65.81954" lon="21.69161">
        <ele>47.568552</ele>
        <time>2020-09-23T09:28:28.470Z</time>
      </trkpt>
      <trkpt lat="65.81944" lon="21.69178">
        <ele>47.994783</ele>
        <time>2020-09-23T09:28:32.446Z</time>
      </trkpt>
      <trkpt lat="65.81935" lon="21.69174">
        <ele>48.323938</ele>
        <time>2020-09-23T09:28:35.467Z</time>
      </trkpt>
      <trkpt lat="65.81926" lon="21.69173">
        <ele>48.664812</ele>
        <time>2020-09-23T09:28:38.446Z</time>
      </trkpt>
      <trkpt lat="65.81915" lon="21.69176">
        <ele>48.659735</ele>
        <time>2020-09-23T09:28:41.521Z</time>
      </trkpt>
      <trkpt lat="65.81905" lon="21.69181">
        <ele>48.511695</ele>
        <time>2020-09-23T09:28:44.459Z</time>
      </trkpt>
      <trkpt lat="65.81894" lon="21.69185">
        <ele>48.359464</ele>
        <time>2020-09-23T09:28:47.444Z</time>
      </trkpt>
      <trkpt lat="65.81885" lon="21.6919">
        <ele>48.22642</ele>
        <time>2020-09-23T09:28:50.469Z</time>
      </trkpt>
      <trkpt lat="65.81874" lon="21.69195">
        <ele>48.077411</ele>
        <time>2020-09-23T09:28:53.458Z</time>
      </trkpt>
      <trkpt lat="65.81863" lon="21.692">
        <ele>47.914394</ele>
        <time>2020-09-23T09:28:56.452Z</time>
      </trkpt>
      <trkpt lat="65.81853" lon="21.69205">
        <ele>47.761868</ele>
        <time>2020-09-23T09:28:59.470Z</time>
      </trkpt>
      <trkpt lat="65.81842" lon="21.69209">
        <ele>47.611129</ele>
        <time>2020-09-23T09:29:02.488Z</time>
      </trkpt>
      <trkpt lat="65.81832" lon="21.69214">
        <ele>47.459109</ele>
        <time>2020-09-23T09:29:05.480Z</time>
      </trkpt>
      <trkpt lat="65.81821" lon="21.69219">
        <ele>47.309051</ele>
        <time>2020-09-23T09:29:08.476Z</time>
      </trkpt>
      <trkpt lat="65.8181" lon="21.69225">
        <ele>47.152632</ele>
        <time>2020-09-23T09:29:11.484Z</time>
      </trkpt>
      <trkpt lat="65.81799" lon="21.69231">
        <ele>46.994584</ele>
        <time>2020-09-23T09:29:14.474Z</time>
      </trkpt>
      <trkpt lat="65.81788" lon="21.69238">
        <ele>46.827614</ele>
        <time>2020-09-23T09:29:17.457Z</time>
      </trkpt>
      <trkpt lat="65.81776" lon="21.69242">
        <ele>46.651968</ele>
        <time>2020-09-23T09:29:20.476Z</time>
      </trkpt>
      <trkpt lat="65.81763" lon="21.69246">
        <ele>46.464385</ele>
        <time>2020-09-23T09:29:23.449Z</time>
      </trkpt>
      <trkpt lat="65.81751" lon="21.69252">
        <ele>46.293624</ele>
        <time>2020-09-23T09:29:26.446Z</time>
      </trkpt>
      <trkpt lat="65.8174" lon="21.69258">
        <ele>46.420419</ele>
        <time>2020-09-23T09:29:29.501Z</time>
      </trkpt>
      <trkpt lat="65.81728" lon="21.69264">
        <ele>46.76859</ele>
        <time>2020-09-23T09:29:32.449Z</time>
      </trkpt>
      <trkpt lat="65.81717" lon="21.6927">
        <ele>47.12261</ele>
        <time>2020-09-23T09:29:35.479Z</time>
      </trkpt>
      <trkpt lat="65.81705" lon="21.69275">
        <ele>47.46845</ele>
        <time>2020-09-23T09:29:38.472Z</time>
      </trkpt>
      <trkpt lat="65.81694" lon="21.69282">
        <ele>47.825167</ele>
        <time>2020-09-23T09:29:41.455Z</time>
      </trkpt>
      <trkpt lat="65.81683" lon="21.6929">
        <ele>48.165231</ele>
        <time>2020-09-23T09:29:44.443Z</time>
      </trkpt>
      <trkpt lat="65.81673" lon="21.69298">
        <ele>48.46066</ele>
        <time>2020-09-23T09:29:47.467Z</time>
      </trkpt>
      <trkpt lat="65.81664" lon="21.69313">
        <ele>48.805043</ele>
        <time>2020-09-23T09:29:51.459Z</time>
      </trkpt>
      <trkpt lat="65.81661" lon="21.69338">
        <ele>49.125417</ele>
        <time>2020-09-23T09:29:56.461Z</time>
      </trkpt>
      <trkpt lat="65.81664" lon="21.6936">
        <ele>49.400799</ele>
        <time>2020-09-23T09:30:00.453Z</time>
      </trkpt>
      <trkpt lat="65.81665" lon="21.69387">
        <ele>49.733147</ele>
        <time>2020-09-23T09:30:04.483Z</time>
      </trkpt>
      <trkpt lat="65.81666" lon="21.6941">
        <ele>50.02643</ele>
        <time>2020-09-23T09:30:08.458Z</time>
      </trkpt>
      <trkpt lat="65.81669" lon="21.69435">
        <ele>50.336195</ele>
        <time>2020-09-23T09:30:12.501Z</time>
      </trkpt>
      <trkpt lat="65.81669" lon="21.69459">
        <ele>50.628961</ele>
        <time>2020-09-23T09:30:15.462Z</time>
      </trkpt>
      <trkpt lat="65.81662" lon="21.69438">
        <ele>50.961324</ele>
        <time>2020-09-23T09:30:20.468Z</time>
      </trkpt>
      <trkpt lat="65.81662" lon="21.6941">
        <ele>51.298121</ele>
        <time>2020-09-23T09:30:23.454Z</time>
      </trkpt>
      <trkpt lat="65.8166" lon="21.69383">
        <ele>51.590982</ele>
        <time>2020-09-23T09:30:26.461Z</time>
      </trkpt>
      <trkpt lat="65.81659" lon="21.69354">
        <ele>51.526833</ele>
        <time>2020-09-23T09:30:29.455Z</time>
      </trkpt>
      <trkpt lat="65.81658" lon="21.69326">
        <ele>51.464321</ele>
        <time>2020-09-23T09:30:32.486Z</time>
      </trkpt>
      <trkpt lat="65.81657" lon="21.69298">
        <ele>51.400071</ele>
        <time>2020-09-23T09:30:35.471Z</time>
      </trkpt>
      <trkpt lat="65.81651" lon="21.69271">
        <ele>51.332298</ele>
        <time>2020-09-23T09:30:38.489Z</time>
      </trkpt>
      <trkpt lat="65.81643" lon="21.69244">
        <ele>51.259394</ele>
        <time>2020-09-23T09:30:41.473Z</time>
      </trkpt>
      <trkpt lat="65.81637" lon="21.69216">
        <ele>51.189398</ele>
        <time>2020-09-23T09:30:44.460Z</time>
      </trkpt>
      <trkpt lat="65.81633" lon="21.6919">
        <ele>51.126124</ele>
        <time>2020-09-23T09:30:47.481Z</time>
      </trkpt>
      <trkpt lat="65.81629" lon="21.69163">
        <ele>51.063035</ele>
        <time>2020-09-23T09:30:50.468Z</time>
      </trkpt>
      <trkpt lat="65.81625" lon="21.69137">
        <ele>51.001369</ele>
        <time>2020-09-23T09:30:53.444Z</time>
      </trkpt>
      <trkpt lat="65.81622" lon="21.69109">
        <ele>50.937521</ele>
        <time>2020-09-23T09:30:56.475Z</time>
      </trkpt>
      <trkpt lat="65.81618" lon="21.69083">
        <ele>50.874204</ele>
        <time>2020-09-23T09:30:59.474Z</time>
      </trkpt>
      <trkpt lat="65.81612" lon="21.69055">
        <ele>50.804869</ele>
        <time>2020-09-23T09:31:02.479Z</time>
      </trkpt>
      <trkpt lat="65.81607" lon="21.69026">
        <ele>50.733548</ele>
        <time>2020-09-23T09:31:05.462Z</time>
      </trkpt>
      <trkpt lat="65.81603" lon="21.68997">
        <ele>50.664296</ele>
        <time>2020-09-23T09:31:08.466Z</time>
      </trkpt>
      <trkpt lat="65.81598" lon="21.68968">
        <ele>50.642843</ele>
        <time>2020-09-23T09:31:11.455Z</time>
      </trkpt>
      <trkpt lat="65.81593" lon="21.6894">
        <ele>50.704802</ele>
        <time>2020-09-23T09:31:14.466Z</time>
      </trkpt>
      <trkpt lat="65.81588" lon="21.6891">
        <ele>50.769383</ele>
        <time>2020-09-23T09:31:17.442Z</time>
      </trkpt>
      <trkpt lat="65.81584" lon="21.68881">
        <ele>50.833031</ele>
        <time>2020-09-23T09:31:20.448Z</time>
      </trkpt>
      <trkpt lat="65.81579" lon="21.68853">
        <ele>50.893526</ele>
        <time>2020-09-23T09:31:23.453Z</time>
      </trkpt>
      <trkpt lat="65.81575" lon="21.68824">
        <ele>50.955762</ele>
        <time>2020-09-23T09:31:26.478Z</time>
      </trkpt>
      <trkpt lat="65.81571" lon="21.68794">
        <ele>51.020233</ele>
        <time>2020-09-23T09:31:29.462Z</time>
      </trkpt>
      <trkpt lat="65.81567" lon="21.68764">
        <ele>51.083916</ele>
        <time>2020-09-23T09:31:32.494Z</time>
      </trkpt>
      <trkpt lat="65.81562" lon="21.68734">
        <ele>51.149458</ele>
        <time>2020-09-23T09:31:35.462Z</time>
      </trkpt>
      <trkpt lat="65.81557" lon="21.68704">
        <ele>51.215148</ele>
        <time>2020-09-23T09:31:38.457Z</time>
      </trkpt>
      <trkpt lat="65.81554" lon="21.68674">
        <ele>51.277385</ele>
        <time>2020-09-23T09:31:41.502Z</time>
      </trkpt>
      <trkpt lat="65.8155" lon="21.68644">
        <ele>51.339639</ele>
        <time>2020-09-23T09:31:44.498Z</time>
      </trkpt>
      <trkpt lat="65.81546" lon="21.68615">
        <ele>51.402868</ele>
        <time>2020-09-23T09:31:47.480Z</time>
      </trkpt>
      <trkpt lat="65.81541" lon="21.68586">
        <ele>51.465751</ele>
        <time>2020-09-23T09:31:50.451Z</time>
      </trkpt>
      <trkpt lat="65.81537" lon="21.68555">
        <ele>51.503555</ele>
        <time>2020-09-23T09:31:53.454Z</time>
      </trkpt>
      <trkpt lat="65.81534" lon="21.68534">
        <ele>51.493502</ele>
        <time>2020-09-23T09:31:55.485Z</time>
      </trkpt>
      <trkpt lat="65.8153" lon="21.68513">
        <ele>51.48357</ele>
        <time>2020-09-23T09:31:57.479Z</time>
      </trkpt>
      <trkpt lat="65.81527" lon="21.68492">
        <ele>51.473833</ele>
        <time>2020-09-23T09:31:59.455Z</time>
      </trkpt>
      <trkpt lat="65.81524" lon="21.68471">
        <ele>51.464132</ele>
        <time>2020-09-23T09:32:01.449Z</time>
      </trkpt>
      <trkpt lat="65.81521" lon="21.6845">
        <ele>51.454403</ele>
        <time>2020-09-23T09:32:03.466Z</time>
      </trkpt>
      <trkpt lat="65.81517" lon="21.68429">
        <ele>51.444634</ele>
        <time>2020-09-23T09:32:05.446Z</time>
      </trkpt>
      <trkpt lat="65.81514" lon="21.68407">
        <ele>51.434345</ele>
        <time>2020-09-23T09:32:07.456Z</time>
      </trkpt>
      <trkpt lat="65.81511" lon="21.68385">
        <ele>51.424272</ele>
        <time>2020-09-23T09:32:09.479Z</time>
      </trkpt>
      <trkpt lat="65.81508" lon="21.68364">
        <ele>51.414576</ele>
        <time>2020-09-23T09:32:11.496Z</time>
      </trkpt>
      <trkpt lat="65.81504" lon="21.68339">
        <ele>51.402458</ele>
        <time>2020-09-23T09:32:14.444Z</time>
      </trkpt>
      <trkpt lat="65.815" lon="21.68311">
        <ele>51.389665</ele>
        <time>2020-09-23T09:32:17.484Z</time>
      </trkpt>
      <trkpt lat="65.81496" lon="21.68288">
        <ele>51.378966</ele>
        <time>2020-09-23T09:32:19.486Z</time>
      </trkpt>
      <trkpt lat="65.81492" lon="21.68265">
        <ele>51.367901</ele>
        <time>2020-09-23T09:32:21.463Z</time>
      </trkpt>
      <trkpt lat="65.81488" lon="21.68243">
        <ele>51.357556</ele>
        <time>2020-09-23T09:32:23.477Z</time>
      </trkpt>
      <trkpt lat="65.81484" lon="21.68222">
        <ele>51.347414</ele>
        <time>2020-09-23T09:32:25.455Z</time>
      </trkpt>
      <trkpt lat="65.8148" lon="21.68201">
        <ele>51.337323</ele>
        <time>2020-09-23T09:32:27.486Z</time>
      </trkpt>
      <trkpt lat="65.81476" lon="21.6818">
        <ele>51.327354</ele>
        <time>2020-09-23T09:32:29.486Z</time>
      </trkpt>
      <trkpt lat="65.8147" lon="21.68153">
        <ele>51.24639</ele>
        <time>2020-09-23T09:32:32.458Z</time>
      </trkpt>
      <trkpt lat="65.81464" lon="21.68124">
        <ele>50.913168</ele>
        <time>2020-09-23T09:32:35.452Z</time>
      </trkpt>
      <trkpt lat="65.81458" lon="21.68104">
        <ele>50.674921</ele>
        <time>2020-09-23T09:32:37.503Z</time>
      </trkpt>
      <trkpt lat="65.81453" lon="21.68086">
        <ele>50.447283</ele>
        <time>2020-09-23T09:32:39.460Z</time>
      </trkpt>
      <trkpt lat="65.81448" lon="21.68068">
        <ele>50.221678</ele>
        <time>2020-09-23T09:32:41.485Z</time>
      </trkpt>
      <trkpt lat="65.81442" lon="21.6805">
        <ele>49.987369</ele>
        <time>2020-09-23T09:32:43.460Z</time>
      </trkpt>
      <trkpt lat="65.81436" lon="21.68033">
        <ele>49.757401</ele>
        <time>2020-09-23T09:32:45.497Z</time>
      </trkpt>
      <trkpt lat="65.8143" lon="21.68016">
        <ele>49.530154</ele>
        <time>2020-09-23T09:32:47.467Z</time>
      </trkpt>
      <trkpt lat="65.81424" lon="21.67997">
        <ele>49.297143</ele>
        <time>2020-09-23T09:32:49.485Z</time>
      </trkpt>
      <trkpt lat="65.81419" lon="21.67978">
        <ele>49.058893</ele>
        <time>2020-09-23T09:32:51.474Z</time>
      </trkpt>
      <trkpt lat="65.81413" lon="21.67958">
        <ele>48.822973</ele>
        <time>2020-09-23T09:32:53.533Z</time>
      </trkpt>
      <trkpt lat="65.81408" lon="21.67939">
        <ele>48.586761</ele>
        <time>2020-09-23T09:32:55.484Z</time>
      </trkpt>
      <trkpt lat="65.81403" lon="21.67919">
        <ele>48.351562</ele>
        <time>2020-09-23T09:32:57.463Z</time>
      </trkpt>
      <trkpt lat="65.81398" lon="21.67899">
        <ele>48.108664</ele>
        <time>2020-09-23T09:32:59.462Z</time>
      </trkpt>
      <trkpt lat="65.81391" lon="21.6788">
        <ele>47.857132</ele>
        <time>2020-09-23T09:33:01.476Z</time>
      </trkpt>
      <trkpt lat="65.81385" lon="21.67863">
        <ele>47.621755</ele>
        <time>2020-09-23T09:33:03.472Z</time>
      </trkpt>
      <trkpt lat="65.81376" lon="21.67839">
        <ele>47.297123</ele>
        <time>2020-09-23T09:33:06.450Z</time>
      </trkpt>
      <trkpt lat="65.81365" lon="21.67825">
        <ele>46.99523</ele>
        <time>2020-09-23T09:33:09.483Z</time>
      </trkpt>
      <trkpt lat="65.81354" lon="21.67813">
        <ele>46.902925</ele>
        <time>2020-09-23T09:33:12.487Z</time>
      </trkpt>
      <trkpt lat="65.81342" lon="21.67799">
        <ele>46.961881</ele>
        <time>2020-09-23T09:33:15.502Z</time>
      </trkpt>
      <trkpt lat="65.8133" lon="21.67786">
        <ele>47.020529</ele>
        <time>2020-09-23T09:33:18.470Z</time>
      </trkpt>
      <trkpt lat="65.81318" lon="21.67775">
        <ele>47.077754</ele>
        <time>2020-09-23T09:33:21.457Z</time>
      </trkpt>
      <trkpt lat="65.81307" lon="21.67764">
        <ele>47.133515</ele>
        <time>2020-09-23T09:33:24.460Z</time>
      </trkpt>
      <trkpt lat="65.81295" lon="21.67752">
        <ele>47.188376</ele>
        <time>2020-09-23T09:33:27.468Z</time>
      </trkpt>
      <trkpt lat="65.81287" lon="21.67743">
        <ele>47.228793</ele>
        <time>2020-09-23T09:33:29.446Z</time>
      </trkpt>
      <trkpt lat="65.81274" lon="21.67732">
        <ele>47.28865</ele>
        <time>2020-09-23T09:33:32.463Z</time>
      </trkpt>
      <trkpt lat="65.81262" lon="21.67723">
        <ele>47.348732</ele>
        <time>2020-09-23T09:33:35.452Z</time>
      </trkpt>
      <trkpt lat="65.8125" lon="21.67714">
        <ele>47.404693</ele>
        <time>2020-09-23T09:33:38.467Z</time>
      </trkpt>
      <trkpt lat="65.81237" lon="21.67708">
        <ele>47.462438</ele>
        <time>2020-09-23T09:33:41.470Z</time>
      </trkpt>
      <trkpt lat="65.81225" lon="21.67703">
        <ele>47.516648</ele>
        <time>2020-09-23T09:33:44.468Z</time>
      </trkpt>
      <trkpt lat="65.81214" lon="21.67699">
        <ele>47.568717</ele>
        <time>2020-09-23T09:33:47.492Z</time>
      </trkpt>
      <trkpt lat="65.81202" lon="21.67697">
        <ele>47.623131</ele>
        <time>2020-09-23T09:33:50.466Z</time>
      </trkpt>
      <trkpt lat="65.81189" lon="21.67696">
        <ele>47.677349</ele>
        <time>2020-09-23T09:33:53.479Z</time>
      </trkpt>
      <trkpt lat="65.81178" lon="21.67694">
        <ele>47.701558</ele>
        <time>2020-09-23T09:33:56.458Z</time>
      </trkpt>
      <trkpt lat="65.81166" lon="21.67695">
        <ele>47.725518</ele>
        <time>2020-09-23T09:33:59.466Z</time>
      </trkpt>
      <trkpt lat="65.81154" lon="21.67695">
        <ele>47.749686</ele>
        <time>2020-09-23T09:34:02.478Z</time>
      </trkpt>
      <trkpt lat="65.81143" lon="21.67698">
        <ele>47.773129</ele>
        <time>2020-09-23T09:34:05.479Z</time>
      </trkpt>
      <trkpt lat="65.81132" lon="21.67701">
        <ele>47.796851</ele>
        <time>2020-09-23T09:34:08.458Z</time>
      </trkpt>
      <trkpt lat="65.81121" lon="21.67703">
        <ele>47.81925</ele>
        <time>2020-09-23T09:34:11.465Z</time>
      </trkpt>
      <trkpt lat="65.81111" lon="21.67705">
        <ele>47.840347</ele>
        <time>2020-09-23T09:34:14.479Z</time>
      </trkpt>
      <trkpt lat="65.81101" lon="21.67707">
        <ele>47.860698</ele>
        <time>2020-09-23T09:34:17.467Z</time>
      </trkpt>
      <trkpt lat="65.81091" lon="21.6771">
        <ele>47.881856</ele>
        <time>2020-09-23T09:34:20.466Z</time>
      </trkpt>
      <trkpt lat="65.8108" lon="21.67714">
        <ele>47.90389</ele>
        <time>2020-09-23T09:34:23.475Z</time>
      </trkpt>
      <trkpt lat="65.81071" lon="21.67716">
        <ele>47.923403</ele>
        <time>2020-09-23T09:34:26.493Z</time>
      </trkpt>
      <trkpt lat="65.81059" lon="21.67718">
        <ele>47.94759</ele>
        <time>2020-09-23T09:34:30.455Z</time>
      </trkpt>
      <trkpt lat="65.8105" lon="21.67719">
        <ele>47.966228</ele>
        <time>2020-09-23T09:34:33.455Z</time>
      </trkpt>
      <trkpt lat="65.81038" lon="21.6772">
        <ele>47.990815</ele>
        <time>2020-09-23T09:34:37.479Z</time>
      </trkpt>
      <trkpt lat="65.81028" lon="21.67718">
        <ele>48.011319</ele>
        <time>2020-09-23T09:34:40.456Z</time>
      </trkpt>
      <trkpt lat="65.81019" lon="21.67718">
        <ele>48.030116</ele>
        <time>2020-09-23T09:34:43.477Z</time>
      </trkpt>
      <trkpt lat="65.8101" lon="21.67718">
        <ele>48.039556</ele>
        <time>2020-09-23T09:34:46.479Z</time>
      </trkpt>
      <trkpt lat="65.81" lon="21.67716">
        <ele>47.943789</ele>
        <time>2020-09-23T09:34:49.477Z</time>
      </trkpt>
      <trkpt lat="65.8099" lon="21.67716">
        <ele>47.849121</ele>
        <time>2020-09-23T09:34:52.458Z</time>
      </trkpt>
      <trkpt lat="65.80981" lon="21.67715">
        <ele>47.753436</ele>
        <time>2020-09-23T09:34:55.450Z</time>
      </trkpt>
      <trkpt lat="65.80971" lon="21.67715">
        <ele>47.657772</ele>
        <time>2020-09-23T09:34:58.458Z</time>
      </trkpt>
      <trkpt lat="65.80962" lon="21.67712">
        <ele>47.561296</ele>
        <time>2020-09-23T09:35:01.475Z</time>
      </trkpt>
      <trkpt lat="65.80952" lon="21.67708">
        <ele>47.466682</ele>
        <time>2020-09-23T09:35:04.476Z</time>
      </trkpt>
      <trkpt lat="65.80943" lon="21.67703">
        <ele>47.369945</ele>
        <time>2020-09-23T09:35:07.464Z</time>
      </trkpt>
      <trkpt lat="65.80933" lon="21.67699">
        <ele>47.27142</ele>
        <time>2020-09-23T09:35:10.448Z</time>
      </trkpt>
      <trkpt lat="65.80923" lon="21.67695">
        <ele>47.170714</ele>
        <time>2020-09-23T09:35:13.486Z</time>
      </trkpt>
      <trkpt lat="65.80913" lon="21.67691">
        <ele>47.067855</ele>
        <time>2020-09-23T09:35:16.473Z</time>
      </trkpt>
      <trkpt lat="65.80904" lon="21.67689">
        <ele>46.97587</ele>
        <time>2020-09-23T09:35:19.452Z</time>
      </trkpt>
      <trkpt lat="65.80894" lon="21.67686">
        <ele>46.878458</ele>
        <time>2020-09-23T09:35:22.519Z</time>
      </trkpt>
      <trkpt lat="65.80884" lon="21.67684">
        <ele>46.783495</ele>
        <time>2020-09-23T09:35:25.447Z</time>
      </trkpt>
      <trkpt lat="65.80876" lon="21.67681">
        <ele>46.694531</ele>
        <time>2020-09-23T09:35:28.447Z</time>
      </trkpt>
      <trkpt lat="65.80866" lon="21.67679">
        <ele>46.60272</ele>
        <time>2020-09-23T09:35:31.469Z</time>
      </trkpt>
      <trkpt lat="65.80856" lon="21.67678">
        <ele>46.502972</ele>
        <time>2020-09-23T09:35:34.460Z</time>
      </trkpt>
      <trkpt lat="65.80846" lon="21.67676">
        <ele>46.402864</ele>
        <time>2020-09-23T09:35:37.456Z</time>
      </trkpt>
      <trkpt lat="65.80837" lon="21.67671">
        <ele>46.307186</ele>
        <time>2020-09-23T09:35:40.492Z</time>
      </trkpt>
      <trkpt lat="65.80828" lon="21.67668">
        <ele>46.531147</ele>
        <time>2020-09-23T09:35:43.488Z</time>
      </trkpt>
      <trkpt lat="65.80818" lon="21.67665">
        <ele>47.24279</ele>
        <time>2020-09-23T09:35:46.437Z</time>
      </trkpt>
      <trkpt lat="65.80808" lon="21.67659">
        <ele>48.012164</ele>
        <time>2020-09-23T09:35:49.458Z</time>
      </trkpt>
      <trkpt lat="65.80796" lon="21.67657">
        <ele>48.8229</ele>
        <time>2020-09-23T09:35:52.445Z</time>
      </trkpt>
      <trkpt lat="65.80786" lon="21.67655">
        <ele>49.595323</ele>
        <time>2020-09-23T09:35:55.468Z</time>
      </trkpt>
      <trkpt lat="65.80777" lon="21.67653">
        <ele>50.239892</ele>
        <time>2020-09-23T09:35:58.459Z</time>
      </trkpt>
      <trkpt lat="65.80768" lon="21.67648">
        <ele>50.898982</ele>
        <time>2020-09-23T09:36:01.458Z</time>
      </trkpt>
      <trkpt lat="65.80758" lon="21.67641">
        <ele>51.635035</ele>
        <time>2020-09-23T09:36:04.462Z</time>
      </trkpt>
      <trkpt lat="65.80748" lon="21.67632">
        <ele>52.376719</ele>
        <time>2020-09-23T09:36:07.462Z</time>
      </trkpt>
      <trkpt lat="65.80737" lon="21.67626">
        <ele>53.168948</ele>
        <time>2020-09-23T09:36:10.472Z</time>
      </trkpt>
      <trkpt lat="65.80727" lon="21.67622">
        <ele>53.877045</ele>
        <time>2020-09-23T09:36:13.456Z</time>
      </trkpt>
      <trkpt lat="65.80718" lon="21.67615">
        <ele>54.609553</ele>
        <time>2020-09-23T09:36:16.505Z</time>
      </trkpt>
      <trkpt lat="65.80709" lon="21.676">
        <ele>55.358027</ele>
        <time>2020-09-23T09:36:19.459Z</time>
      </trkpt>
      <trkpt lat="65.80704" lon="21.67581">
        <ele>56.027442</ele>
        <time>2020-09-23T09:36:22.462Z</time>
      </trkpt>
      <trkpt lat="65.80698" lon="21.67556">
        <ele>56.877755</ele>
        <time>2020-09-23T09:36:26.461Z</time>
      </trkpt>
      <trkpt lat="65.8069" lon="21.67534">
        <ele>57.706401</ele>
        <time>2020-09-23T09:36:30.478Z</time>
      </trkpt>
      <trkpt lat="65.80681" lon="21.67519">
        <ele>58.498108</ele>
        <time>2020-09-23T09:36:34.455Z</time>
      </trkpt>
      <trkpt lat="65.80673" lon="21.67506">
        <ele>59.129332</ele>
        <time>2020-09-23T09:36:37.448Z</time>
      </trkpt>
      <trkpt lat="65.80665" lon="21.67494">
        <ele>59.307522</ele>
        <time>2020-09-23T09:36:40.460Z</time>
      </trkpt>
      <trkpt lat="65.80657" lon="21.67485">
        <ele>59.485768</ele>
        <time>2020-09-23T09:36:43.501Z</time>
      </trkpt>
      <trkpt lat="65.80648" lon="21.6747">
        <ele>59.692478</ele>
        <time>2020-09-23T09:36:46.488Z</time>
      </trkpt>
      <trkpt lat="65.80639" lon="21.67457">
        <ele>59.902133</ele>
        <time>2020-09-23T09:36:49.471Z</time>
      </trkpt>
      <trkpt lat="65.80629" lon="21.67445">
        <ele>60.112439</ele>
        <time>2020-09-23T09:36:52.445Z</time>
      </trkpt>
      <trkpt lat="65.80621" lon="21.67433">
        <ele>60.30487</ele>
        <time>2020-09-23T09:36:55.470Z</time>
      </trkpt>
      <trkpt lat="65.80613" lon="21.67414">
        <ele>60.523408</ele>
        <time>2020-09-23T09:36:58.457Z</time>
      </trkpt>
      <trkpt lat="65.80606" lon="21.67395">
        <ele>60.730257</ele>
        <time>2020-09-23T09:37:00.519Z</time>
      </trkpt>
      <trkpt lat="65.80597" lon="21.67375">
        <ele>60.963965</ele>
        <time>2020-09-23T09:37:02.482Z</time>
      </trkpt>
      <trkpt lat="65.80587" lon="21.67357">
        <ele>61.19914</ele>
        <time>2020-09-23T09:37:04.458Z</time>
      </trkpt>
      <trkpt lat="65.80578" lon="21.67341">
        <ele>61.424219</ele>
        <time>2020-09-23T09:37:06.485Z</time>
      </trkpt>
      <trkpt lat="65.80568" lon="21.67326">
        <ele>61.652607</ele>
        <time>2020-09-23T09:37:08.519Z</time>
      </trkpt>
      <trkpt lat="65.80559" lon="21.67314">
        <ele>61.864903</ele>
        <time>2020-09-23T09:37:10.448Z</time>
      </trkpt>
      <trkpt lat="65.80549" lon="21.67303">
        <ele>62.076651</ele>
        <time>2020-09-23T09:37:12.483Z</time>
      </trkpt>
      <trkpt lat="65.8054" lon="21.67294">
        <ele>62.271207</ele>
        <time>2020-09-23T09:37:14.451Z</time>
      </trkpt>
      <trkpt lat="65.80531" lon="21.67285">
        <ele>62.458517</ele>
        <time>2020-09-23T09:37:16.497Z</time>
      </trkpt>
      <trkpt lat="65.80522" lon="21.67276">
        <ele>62.558787</ele>
        <time>2020-09-23T09:37:18.454Z</time>
      </trkpt>
      <trkpt lat="65.80512" lon="21.67268">
        <ele>62.071927</ele>
        <time>2020-09-23T09:37:20.442Z</time>
      </trkpt>
      <trkpt lat="65.80503" lon="21.67261">
        <ele>61.623514</ele>
        <time>2020-09-23T09:37:22.471Z</time>
      </trkpt>
      <trkpt lat="65.80491" lon="21.67252">
        <ele>60.994903</ele>
        <time>2020-09-23T09:37:25.502Z</time>
      </trkpt>
      <trkpt lat="65.8048" lon="21.67245">
        <ele>60.426313</ele>
        <time>2020-09-23T09:37:28.448Z</time>
      </trkpt>
      <trkpt lat="65.80468" lon="21.67236">
        <ele>59.823955</ele>
        <time>2020-09-23T09:37:31.482Z</time>
      </trkpt>
      <trkpt lat="65.8046" lon="21.67227">
        <ele>59.376526</ele>
        <time>2020-09-23T09:37:33.474Z</time>
      </trkpt>
      <trkpt lat="65.80451" lon="21.67219">
        <ele>58.936021</ele>
        <time>2020-09-23T09:37:35.448Z</time>
      </trkpt>
      <trkpt lat="65.80443" lon="21.67211">
        <ele>58.493278</ele>
        <time>2020-09-23T09:37:37.486Z</time>
      </trkpt>
      <trkpt lat="65.80431" lon="21.672">
        <ele>57.868093</ele>
        <time>2020-09-23T09:37:40.452Z</time>
      </trkpt>
      <trkpt lat="65.80419" lon="21.67189">
        <ele>57.260792</ele>
        <time>2020-09-23T09:37:43.499Z</time>
      </trkpt>
      <trkpt lat="65.80407" lon="21.67179">
        <ele>56.64364</ele>
        <time>2020-09-23T09:37:46.460Z</time>
      </trkpt>
      <trkpt lat="65.80395" lon="21.67169">
        <ele>56.003311</ele>
        <time>2020-09-23T09:37:49.455Z</time>
      </trkpt>
      <trkpt lat="65.80382" lon="21.67158">
        <ele>55.365772</ele>
        <time>2020-09-23T09:37:52.456Z</time>
      </trkpt>
      <trkpt lat="65.80374" lon="21.67149">
        <ele>54.922199</ele>
        <time>2020-09-23T09:37:54.481Z</time>
      </trkpt>
      <trkpt lat="65.80362" lon="21.67136">
        <ele>54.301658</ele>
        <time>2020-09-23T09:37:57.515Z</time>
      </trkpt>
      <trkpt lat="65.8035" lon="21.67128">
        <ele>53.615083</ele>
        <time>2020-09-23T09:38:00.481Z</time>
      </trkpt>
      <trkpt lat="65.80337" lon="21.67127">
        <ele>52.790555</ele>
        <time>2020-09-23T09:38:03.459Z</time>
      </trkpt>
      <trkpt lat="65.80328" lon="21.6713">
        <ele>52.197784</ele>
        <time>2020-09-23T09:38:05.445Z</time>
      </trkpt>
      <trkpt lat="65.80318" lon="21.67133">
        <ele>51.583702</ele>
        <time>2020-09-23T09:38:07.458Z</time>
      </trkpt>
      <trkpt lat="65.80308" lon="21.67138">
        <ele>50.96175</ele>
        <time>2020-09-23T09:38:09.519Z</time>
      </trkpt>
      <trkpt lat="65.80299" lon="21.67144">
        <ele>50.348279</ele>
        <time>2020-09-23T09:38:11.458Z</time>
      </trkpt>
      <trkpt lat="65.80287" lon="21.67159">
        <ele>49.49341</ele>
        <time>2020-09-23T09:38:14.475Z</time>
      </trkpt>
      <trkpt lat="65.80275" lon="21.67175">
        <ele>48.645821</ele>
        <time>2020-09-23T09:38:17.447Z</time>
      </trkpt>
      <trkpt lat="65.80265" lon="21.67191">
        <ele>47.855371</ele>
        <time>2020-09-23T09:38:20.458Z</time>
      </trkpt>
      <trkpt lat="65.80254" lon="21.67205">
        <ele>47.048883</ele>
        <time>2020-09-23T09:38:23.462Z</time>
      </trkpt>
      <trkpt lat="65.80243" lon="21.6722">
        <ele>46.287991</ele>
        <time>2020-09-23T09:38:26.476Z</time>
      </trkpt>
      <trkpt lat="65.80235" lon="21.67229">
        <ele>45.697252</ele>
        <time>2020-09-23T09:38:29.462Z</time>
      </trkpt>
      <trkpt lat="65.80226" lon="21.67241">
        <ele>45.051778</ele>
        <time>2020-09-23T09:38:34.461Z</time>
      </trkpt>
      <trkpt lat="65.80217" lon="21.67231">
        <ele>44.463553</ele>
        <time>2020-09-23T09:38:38.482Z</time>
      </trkpt>
      <trkpt lat="65.80211" lon="21.67204">
        <ele>43.658383</ele>
        <time>2020-09-23T09:38:41.460Z</time>
      </trkpt>
      <trkpt lat="65.80206" lon="21.67183">
        <ele>43.029541</ele>
        <time>2020-09-23T09:38:43.496Z</time>
      </trkpt>
      <trkpt lat="65.80199" lon="21.67161">
        <ele>42.386921</ele>
        <time>2020-09-23T09:38:45.467Z</time>
      </trkpt>
      <trkpt lat="65.80192" lon="21.67137">
        <ele>42.05991</ele>
        <time>2020-09-23T09:38:47.475Z</time>
      </trkpt>
      <trkpt lat="65.80184" lon="21.67111">
        <ele>41.721522</ele>
        <time>2020-09-23T09:38:49.463Z</time>
      </trkpt>
      <trkpt lat="65.80176" lon="21.67083">
        <ele>41.340253</ele>
        <time>2020-09-23T09:38:51.462Z</time>
      </trkpt>
      <trkpt lat="65.80166" lon="21.67053">
        <ele>40.925893</ele>
        <time>2020-09-23T09:38:53.452Z</time>
      </trkpt>
      <trkpt lat="65.80156" lon="21.67022">
        <ele>40.497203</ele>
        <time>2020-09-23T09:38:55.464Z</time>
      </trkpt>
      <trkpt lat="65.80146" lon="21.66992">
        <ele>40.074483</ele>
        <time>2020-09-23T09:38:57.475Z</time>
      </trkpt>
      <trkpt lat="65.80137" lon="21.66963">
        <ele>39.685724</ele>
        <time>2020-09-23T09:38:59.446Z</time>
      </trkpt>
      <trkpt lat="65.80129" lon="21.66936">
        <ele>39.332179</ele>
        <time>2020-09-23T09:39:01.485Z</time>
      </trkpt>
      <trkpt lat="65.80122" lon="21.66911">
        <ele>39.010419</ele>
        <time>2020-09-23T09:39:03.488Z</time>
      </trkpt>
      <trkpt lat="65.80116" lon="21.66888">
        <ele>38.708011</ele>
        <time>2020-09-23T09:39:05.454Z</time>
      </trkpt>
      <trkpt lat="65.8011" lon="21.66867">
        <ele>38.427038</ele>
        <time>2020-09-23T09:39:07.468Z</time>
      </trkpt>
      <trkpt lat="65.80102" lon="21.66842">
        <ele>38.093919</ele>
        <time>2020-09-23T09:39:10.506Z</time>
      </trkpt>
      <trkpt lat="65.80096" lon="21.6682">
        <ele>37.799409</ele>
        <time>2020-09-23T09:39:13.473Z</time>
      </trkpt>
      <trkpt lat="65.8009" lon="21.66799">
        <ele>38.222338</ele>
        <time>2020-09-23T09:39:16.464Z</time>
      </trkpt>
      <trkpt lat="65.80084" lon="21.66778">
        <ele>38.988419</ele>
        <time>2020-09-23T09:39:19.471Z</time>
      </trkpt>
      <trkpt lat="65.80077" lon="21.66754">
        <ele>39.865711</ele>
        <time>2020-09-23T09:39:22.458Z</time>
      </trkpt>
      <trkpt lat="65.80069" lon="21.66729">
        <ele>40.787786</ele>
        <time>2020-09-23T09:39:25.464Z</time>
      </trkpt>
      <trkpt lat="65.80063" lon="21.66705">
        <ele>41.674235</ele>
        <time>2020-09-23T09:39:28.456Z</time>
      </trkpt>
      <trkpt lat="65.80055" lon="21.66682">
        <ele>42.537661</ele>
        <time>2020-09-23T09:39:31.457Z</time>
      </trkpt>
      <trkpt lat="65.80048" lon="21.66656">
        <ele>43.47316</ele>
        <time>2020-09-23T09:39:34.458Z</time>
      </trkpt>
      <trkpt lat="65.80044" lon="21.66638">
        <ele>44.134619</ele>
        <time>2020-09-23T09:39:36.503Z</time>
      </trkpt>
      <trkpt lat="65.80037" lon="21.66613">
        <ele>45.035966</ele>
        <time>2020-09-23T09:39:39.493Z</time>
      </trkpt>
      <trkpt lat="65.80029" lon="21.66588">
        <ele>45.972117</ele>
        <time>2020-09-23T09:39:42.448Z</time>
      </trkpt>
      <trkpt lat="65.80022" lon="21.66562">
        <ele>46.923443</ele>
        <time>2020-09-23T09:39:45.477Z</time>
      </trkpt>
      <trkpt lat="65.80016" lon="21.6654">
        <ele>47.73262</ele>
        <time>2020-09-23T09:39:48.495Z</time>
      </trkpt>
      <trkpt lat="65.8001" lon="21.6652">
        <ele>48.450598</ele>
        <time>2020-09-23T09:39:51.461Z</time>
      </trkpt>
      <trkpt lat="65.80004" lon="21.66499">
        <ele>49.237287</ele>
        <time>2020-09-23T09:39:55.466Z</time>
      </trkpt>
      <trkpt lat="65.79997" lon="21.66481">
        <ele>49.972047</ele>
        <time>2020-09-23T09:40:00.474Z</time>
      </trkpt>
      <trkpt lat="65.79992" lon="21.66463">
        <ele>50.65533</ele>
        <time>2020-09-23T09:40:05.507Z</time>
      </trkpt>
      <trkpt lat="65.79987" lon="21.66441">
        <ele>51.769056</ele>
        <time>2020-09-23T09:40:11.483Z</time>
      </trkpt>
      <trkpt lat="65.79982" lon="21.6642">
        <ele>53.049738</ele>
        <time>2020-09-23T09:40:17.466Z</time>
      </trkpt>
      <trkpt lat="65.79978" lon="21.66399">
        <ele>54.303226</ele>
        <time>2020-09-23T09:40:24.496Z</time>
      </trkpt>
      <trkpt lat="65.79971" lon="21.66381">
        <ele>55.574109</ele>
        <time>2020-09-23T09:40:30.448Z</time>
      </trkpt>
      <trkpt lat="65.79964" lon="21.66365">
        <ele>56.751202</ele>
        <time>2020-09-23T09:40:37.509Z</time>
      </trkpt>
      <trkpt lat="65.79959" lon="21.66344">
        <ele>58.038648</ele>
        <time>2020-09-23T09:40:43.463Z</time>
      </trkpt>
      <trkpt lat="65.79953" lon="21.66328">
        <ele>59.201333</ele>
        <time>2020-09-23T09:40:48.471Z</time>
      </trkpt>
      <trkpt lat="65.79948" lon="21.66308">
        <ele>60.41025</ele>
        <time>2020-09-23T09:40:55.463Z</time>
      </trkpt>
      <trkpt lat="65.79944" lon="21.66287">
        <ele>61.670925</ele>
        <time>2020-09-23T09:41:03.520Z</time>
      </trkpt>
      <trkpt lat="65.79939" lon="21.66265">
        <ele>62.987067</ele>
        <time>2020-09-23T09:41:08.459Z</time>
      </trkpt>
      <trkpt lat="65.79933" lon="21.66244">
        <ele>64.295383</ele>
        <time>2020-09-23T09:41:15.465Z</time>
      </trkpt>
      <trkpt lat="65.79929" lon="21.66224">
        <ele>65.478783</ele>
        <time>2020-09-23T09:41:21.483Z</time>
      </trkpt>
      <trkpt lat="65.79926" lon="21.66202">
        <ele>66.75274</ele>
        <time>2020-09-23T09:41:27.472Z</time>
      </trkpt>
      <trkpt lat="65.79921" lon="21.6618">
        <ele>68.02341</ele>
        <time>2020-09-23T09:41:34.461Z</time>
      </trkpt>
      <trkpt lat="65.79919" lon="21.66159">
        <ele>69.178301</ele>
        <time>2020-09-23T09:41:41.449Z</time>
      </trkpt>
      <trkpt lat="65.79914" lon="21.66136">
        <ele>70.511036</ele>
        <time>2020-09-23T09:41:47.474Z</time>
      </trkpt>
      <trkpt lat="65.79912" lon="21.66114">
        <ele>71.702281</ele>
        <time>2020-09-23T09:41:53.471Z</time>
      </trkpt>
      <trkpt lat="65.79908" lon="21.66094">
        <ele>72.859388</ele>
        <time>2020-09-23T09:42:00.504Z</time>
      </trkpt>
      <trkpt lat="65.79905" lon="21.66073">
        <ele>74.034351</ele>
        <time>2020-09-23T09:42:06.458Z</time>
      </trkpt>
      <trkpt lat="65.79901" lon="21.66054">
        <ele>73.782795</ele>
        <time>2020-09-23T09:42:12.456Z</time>
      </trkpt>
      <trkpt lat="65.79896" lon="21.66033">
        <ele>73.433394</ele>
        <time>2020-09-23T09:42:18.466Z</time>
      </trkpt>
      <trkpt lat="65.79886" lon="21.66022">
        <ele>73.060023</ele>
        <time>2020-09-23T09:42:23.460Z</time>
      </trkpt>
      <trkpt lat="65.79876" lon="21.6603">
        <ele>72.69238</ele>
        <time>2020-09-23T09:42:28.454Z</time>
      </trkpt>
      <trkpt lat="65.79866" lon="21.66042">
        <ele>72.310258</ele>
        <time>2020-09-23T09:42:33.519Z</time>
      </trkpt>
      <trkpt lat="65.79857" lon="21.66055">
        <ele>71.932286</ele>
        <time>2020-09-23T09:42:37.477Z</time>
      </trkpt>
      <trkpt lat="65.79848" lon="21.66069">
        <ele>71.570391</ele>
        <time>2020-09-23T09:42:41.444Z</time>
      </trkpt>
      <trkpt lat="65.7984" lon="21.66084">
        <ele>71.208937</ele>
        <time>2020-09-23T09:42:45.451Z</time>
      </trkpt>
      <trkpt lat="65.79831" lon="21.66098">
        <ele>70.844371</ele>
        <time>2020-09-23T09:42:49.464Z</time>
      </trkpt>
      <trkpt lat="65.79821" lon="21.66114">
        <ele>70.430631</ele>
        <time>2020-09-23T09:42:53.443Z</time>
      </trkpt>
      <trkpt lat="65.79814" lon="21.66128">
        <ele>70.106147</ele>
        <time>2020-09-23T09:42:56.476Z</time>
      </trkpt>
      <trkpt lat="65.79804" lon="21.66146">
        <ele>69.691296</ele>
        <time>2020-09-23T09:43:00.515Z</time>
      </trkpt>
      <trkpt lat="65.79797" lon="21.66159">
        <ele>69.376325</ele>
        <time>2020-09-23T09:43:03.446Z</time>
      </trkpt>
      <trkpt lat="65.7979" lon="21.66172">
        <ele>69.062454</ele>
        <time>2020-09-23T09:43:06.466Z</time>
      </trkpt>
      <trkpt lat="65.79782" lon="21.66185">
        <ele>68.741827</ele>
        <time>2020-09-23T09:43:09.467Z</time>
      </trkpt>
      <trkpt lat="65.79775" lon="21.662">
        <ele>68.414506</ele>
        <time>2020-09-23T09:43:12.489Z</time>
      </trkpt>
      <trkpt lat="65.79768" lon="21.66216">
        <ele>68.083415</ele>
        <time>2020-09-23T09:43:15.505Z</time>
      </trkpt>
      <trkpt lat="65.79761" lon="21.6623">
        <ele>67.779888</ele>
        <time>2020-09-23T09:43:18.458Z</time>
      </trkpt>
      <trkpt lat="65.79754" lon="21.66247">
        <ele>67.590912</ele>
        <time>2020-09-23T09:43:21.446Z</time>
      </trkpt>
      <trkpt lat="65.79747" lon="21.66265">
        <ele>67.39612</ele>
        <time>2020-09-23T09:43:24.442Z</time>
      </trkpt>
      <trkpt lat="65.7974" lon="21.66281">
        <ele>67.20408</ele>
        <time>2020-09-23T09:43:27.464Z</time>
      </trkpt>
      <trkpt lat="65.79732" lon="21.663">
        <ele>66.992505</ele>
        <time>2020-09-23T09:43:30.451Z</time>
      </trkpt>
      <trkpt lat="65.79724" lon="21.66319">
        <ele>66.773318</ele>
        <time>2020-09-23T09:43:33.469Z</time>
      </trkpt>
      <trkpt lat="65.79716" lon="21.66338">
        <ele>66.558132</ele>
        <time>2020-09-23T09:43:36.468Z</time>
      </trkpt>
      <trkpt lat="65.79708" lon="21.66355">
        <ele>66.353116</ele>
        <time>2020-09-23T09:43:39.473Z</time>
      </trkpt>
      <trkpt lat="65.797" lon="21.66373">
        <ele>66.13395</ele>
        <time>2020-09-23T09:43:42.463Z</time>
      </trkpt>
      <trkpt lat="65.79691" lon="21.66394">
        <ele>65.894808</ele>
        <time>2020-09-23T09:43:45.454Z</time>
      </trkpt>
      <trkpt lat="65.79681" lon="21.66414">
        <ele>65.644525</ele>
        <time>2020-09-23T09:43:48.475Z</time>
      </trkpt>
      <trkpt lat="65.79672" lon="21.66434">
        <ele>65.40365</ele>
        <time>2020-09-23T09:43:51.459Z</time>
      </trkpt>
      <trkpt lat="65.79662" lon="21.66453">
        <ele>65.161902</ele>
        <time>2020-09-23T09:43:54.468Z</time>
      </trkpt>
      <trkpt lat="65.79653" lon="21.66473">
        <ele>64.918605</ele>
        <time>2020-09-23T09:43:57.475Z</time>
      </trkpt>
      <trkpt lat="65.79644" lon="21.66493">
        <ele>64.679038</ele>
        <time>2020-09-23T09:44:00.457Z</time>
      </trkpt>
      <trkpt lat="65.79634" lon="21.66512">
        <ele>64.437802</ele>
        <time>2020-09-23T09:44:03.460Z</time>
      </trkpt>
      <trkpt lat="65.79625" lon="21.66533">
        <ele>64.31902</ele>
        <time>2020-09-23T09:44:06.486Z</time>
      </trkpt>
      <trkpt lat="65.79615" lon="21.66552">
        <ele>64.329844</ele>
        <time>2020-09-23T09:44:09.479Z</time>
      </trkpt>
      <trkpt lat="65.79606" lon="21.6657">
        <ele>64.340554</ele>
        <time>2020-09-23T09:44:12.458Z</time>
      </trkpt>
      <trkpt lat="65.79596" lon="21.66589">
        <ele>64.351421</ele>
        <time>2020-09-23T09:44:15.478Z</time>
      </trkpt>
      <trkpt lat="65.79587" lon="21.66609">
        <ele>64.361927</ele>
        <time>2020-09-23T09:44:18.459Z</time>
      </trkpt>
      <trkpt lat="65.79578" lon="21.6663">
        <ele>64.372788</ele>
        <time>2020-09-23T09:44:21.450Z</time>
      </trkpt>
      <trkpt lat="65.79569" lon="21.6665">
        <ele>64.383595</ele>
        <time>2020-09-23T09:44:24.463Z</time>
      </trkpt>
      <trkpt lat="65.79559" lon="21.6667">
        <ele>64.394787</ele>
        <time>2020-09-23T09:44:27.470Z</time>
      </trkpt>
      <trkpt lat="65.79549" lon="21.66689">
        <ele>64.405751</ele>
        <time>2020-09-23T09:44:30.449Z</time>
      </trkpt>
      <trkpt lat="65.79539" lon="21.66707">
        <ele>64.416419</ele>
        <time>2020-09-23T09:44:33.481Z</time>
      </trkpt>
      <trkpt lat="65.79529" lon="21.66724">
        <ele>64.427179</ele>
        <time>2020-09-23T09:44:36.491Z</time>
      </trkpt>
      <trkpt lat="65.79519" lon="21.66743">
        <ele>64.438255</ele>
        <time>2020-09-23T09:44:39.451Z</time>
      </trkpt>
      <trkpt lat="65.79509" lon="21.66761">
        <ele>64.44892</ele>
        <time>2020-09-23T09:44:42.474Z</time>
      </trkpt>
      <trkpt lat="65.795" lon="21.66779">
        <ele>64.459664</ele>
        <time>2020-09-23T09:44:45.467Z</time>
      </trkpt>
      <trkpt lat="65.7949" lon="21.66798">
        <ele>64.470614</ele>
        <time>2020-09-23T09:44:48.496Z</time>
      </trkpt>
      <trkpt lat="65.79479" lon="21.66816">
        <ele>64.399595</ele>
        <time>2020-09-23T09:44:51.459Z</time>
      </trkpt>
      <trkpt lat="65.79471" lon="21.66829">
        <ele>64.349169</ele>
        <time>2020-09-23T09:44:53.473Z</time>
      </trkpt>
      <trkpt lat="65.79463" lon="21.66842">
        <ele>64.295882</ele>
        <time>2020-09-23T09:44:55.496Z</time>
      </trkpt>
      <trkpt lat="65.79456" lon="21.66855">
        <ele>64.24442</ele>
        <time>2020-09-23T09:44:57.449Z</time>
      </trkpt>
      <trkpt lat="65.79448" lon="21.66868">
        <ele>64.192963</ele>
        <time>2020-09-23T09:44:59.477Z</time>
      </trkpt>
      <trkpt lat="65.7944" lon="21.66881">
        <ele>64.141704</ele>
        <time>2020-09-23T09:45:01.466Z</time>
      </trkpt>
      <trkpt lat="65.79432" lon="21.66893">
        <ele>64.089477</ele>
        <time>2020-09-23T09:45:03.475Z</time>
      </trkpt>
      <trkpt lat="65.79424" lon="21.66906">
        <ele>64.037385</ele>
        <time>2020-09-23T09:45:05.446Z</time>
      </trkpt>
      <trkpt lat="65.79416" lon="21.66919">
        <ele>63.986127</ele>
        <time>2020-09-23T09:45:07.496Z</time>
      </trkpt>
      <trkpt lat="65.79408" lon="21.66931">
        <ele>63.9339</ele>
        <time>2020-09-23T09:45:09.469Z</time>
      </trkpt>
      <trkpt lat="65.794" lon="21.66944">
        <ele>63.878502</ele>
        <time>2020-09-23T09:45:11.497Z</time>
      </trkpt>
      <trkpt lat="65.79391" lon="21.66958">
        <ele>63.822644</ele>
        <time>2020-09-23T09:45:13.454Z</time>
      </trkpt>
      <trkpt lat="65.79382" lon="21.66969">
        <ele>63.767442</ele>
        <time>2020-09-23T09:45:15.469Z</time>
      </trkpt>
      <trkpt lat="65.79373" lon="21.6698">
        <ele>63.711549</ele>
        <time>2020-09-23T09:45:17.459Z</time>
      </trkpt>
      <trkpt lat="65.79364" lon="21.66992">
        <ele>63.654549</ele>
        <time>2020-09-23T09:45:19.494Z</time>
      </trkpt>
      <trkpt lat="65.79354" lon="21.67005">
        <ele>63.595989</ele>
        <time>2020-09-23T09:45:21.460Z</time>
      </trkpt>
      <trkpt lat="65.79345" lon="21.67019">
        <ele>63.536169</ele>
        <time>2020-09-23T09:45:23.442Z</time>
      </trkpt>
      <trkpt lat="65.79336" lon="21.67033">
        <ele>63.401828</ele>
        <time>2020-09-23T09:45:25.448Z</time>
      </trkpt>
      <trkpt lat="65.79327" lon="21.67048">
        <ele>62.864233</ele>
        <time>2020-09-23T09:45:27.451Z</time>
      </trkpt>
      <trkpt lat="65.79318" lon="21.67063">
        <ele>62.317681</ele>
        <time>2020-09-23T09:45:29.494Z</time>
      </trkpt>
      <trkpt lat="65.79308" lon="21.67077">
        <ele>61.762914</ele>
        <time>2020-09-23T09:45:31.505Z</time>
      </trkpt>
      <trkpt lat="65.79298" lon="21.6709">
        <ele>61.210309</ele>
        <time>2020-09-23T09:45:33.481Z</time>
      </trkpt>
      <trkpt lat="65.79288" lon="21.67101">
        <ele>60.676625</ele>
        <time>2020-09-23T09:45:35.485Z</time>
      </trkpt>
      <trkpt lat="65.79279" lon="21.67112">
        <ele>60.141768</ele>
        <time>2020-09-23T09:45:37.455Z</time>
      </trkpt>
      <trkpt lat="65.79269" lon="21.67124">
        <ele>59.619612</ele>
        <time>2020-09-23T09:45:39.463Z</time>
      </trkpt>
      <trkpt lat="65.79259" lon="21.67133">
        <ele>59.106367</ele>
        <time>2020-09-23T09:45:41.494Z</time>
      </trkpt>
      <trkpt lat="65.7925" lon="21.67145">
        <ele>58.604578</ele>
        <time>2020-09-23T09:45:43.449Z</time>
      </trkpt>
      <trkpt lat="65.79241" lon="21.67155">
        <ele>58.111504</ele>
        <time>2020-09-23T09:45:45.449Z</time>
      </trkpt>
      <trkpt lat="65.79232" lon="21.67165">
        <ele>57.605238</ele>
        <time>2020-09-23T09:45:47.505Z</time>
      </trkpt>
      <trkpt lat="65.79222" lon="21.67176">
        <ele>57.077674</ele>
        <time>2020-09-23T09:45:49.455Z</time>
      </trkpt>
      <trkpt lat="65.79213" lon="21.67187">
        <ele>56.558797</ele>
        <time>2020-09-23T09:45:51.459Z</time>
      </trkpt>
      <trkpt lat="65.79203" lon="21.67197">
        <ele>56.05303</ele>
        <time>2020-09-23T09:45:53.464Z</time>
      </trkpt>
      <trkpt lat="65.79193" lon="21.67207">
        <ele>55.515289</ele>
        <time>2020-09-23T09:45:55.464Z</time>
      </trkpt>
      <trkpt lat="65.79183" lon="21.67218">
        <ele>54.973021</ele>
        <time>2020-09-23T09:45:57.464Z</time>
      </trkpt>
      <trkpt lat="65.79173" lon="21.67228">
        <ele>54.523862</ele>
        <time>2020-09-23T09:45:59.486Z</time>
      </trkpt>
      <trkpt lat="65.79164" lon="21.67237">
        <ele>54.257864</ele>
        <time>2020-09-23T09:46:01.467Z</time>
      </trkpt>
      <trkpt lat="65.79154" lon="21.67246">
        <ele>53.997397</ele>
        <time>2020-09-23T09:46:03.453Z</time>
      </trkpt>
      <trkpt lat="65.79144" lon="21.67255">
        <ele>53.72685</ele>
        <time>2020-09-23T09:46:05.444Z</time>
      </trkpt>
      <trkpt lat="65.79134" lon="21.67262">
        <ele>53.445891</ele>
        <time>2020-09-23T09:46:07.461Z</time>
      </trkpt>
      <trkpt lat="65.79124" lon="21.67271">
        <ele>53.161736</ele>
        <time>2020-09-23T09:46:09.487Z</time>
      </trkpt>
      <trkpt lat="65.79113" lon="21.6728">
        <ele>52.878999</ele>
        <time>2020-09-23T09:46:11.461Z</time>
      </trkpt>
      <trkpt lat="65.79104" lon="21.67289">
        <ele>52.608199</ele>
        <time>2020-09-23T09:46:13.478Z</time>
      </trkpt>
      <trkpt lat="65.79094" lon="21.67298">
        <ele>52.344932</ele>
        <time>2020-09-23T09:46:15.499Z</time>
      </trkpt>
      <trkpt lat="65.79085" lon="21.67305">
        <ele>52.086893</ele>
        <time>2020-09-23T09:46:17.467Z</time>
      </trkpt>
      <trkpt lat="65.79076" lon="21.67314">
        <ele>51.832892</ele>
        <time>2020-09-23T09:46:19.454Z</time>
      </trkpt>
      <trkpt lat="65.79067" lon="21.67324">
        <ele>51.579472</ele>
        <time>2020-09-23T09:46:21.507Z</time>
      </trkpt>
      <trkpt lat="65.79058" lon="21.67333">
        <ele>51.324267</ele>
        <time>2020-09-23T09:46:23.502Z</time>
      </trkpt>
      <trkpt lat="65.79048" lon="21.67341">
        <ele>51.060324</ele>
        <time>2020-09-23T09:46:25.489Z</time>
      </trkpt>
      <trkpt lat="65.79038" lon="21.67347">
        <ele>50.806874</ele>
        <time>2020-09-23T09:46:27.489Z</time>
      </trkpt>
      <trkpt lat="65.7903" lon="21.67353">
        <ele>50.569574</ele>
        <time>2020-09-23T09:46:29.450Z</time>
      </trkpt>
      <trkpt lat="65.7902" lon="21.67359">
        <ele>50.322859</ele>
        <time>2020-09-23T09:46:31.478Z</time>
      </trkpt>
      <trkpt lat="65.79012" lon="21.67365">
        <ele>50.087442</ele>
        <time>2020-09-23T09:46:33.457Z</time>
      </trkpt>
      <trkpt lat="65.79003" lon="21.67373">
        <ele>50.069655</ele>
        <time>2020-09-23T09:46:35.466Z</time>
      </trkpt>
      <trkpt lat="65.78994" lon="21.67381">
        <ele>50.308702</ele>
        <time>2020-09-23T09:46:37.500Z</time>
      </trkpt>
      <trkpt lat="65.78986" lon="21.67389">
        <ele>50.552521</ele>
        <time>2020-09-23T09:46:39.462Z</time>
      </trkpt>
      <trkpt lat="65.78977" lon="21.67396">
        <ele>50.801872</ele>
        <time>2020-09-23T09:46:41.450Z</time>
      </trkpt>
      <trkpt lat="65.78968" lon="21.67404">
        <ele>51.057665</ele>
        <time>2020-09-23T09:46:43.463Z</time>
      </trkpt>
      <trkpt lat="65.78955" lon="21.67415">
        <ele>51.410047</ele>
        <time>2020-09-23T09:46:46.455Z</time>
      </trkpt>
      <trkpt lat="65.78942" lon="21.67425">
        <ele>51.765857</ele>
        <time>2020-09-23T09:46:49.462Z</time>
      </trkpt>
      <trkpt lat="65.7893" lon="21.67433">
        <ele>52.100881</ele>
        <time>2020-09-23T09:46:52.453Z</time>
      </trkpt>
      <trkpt lat="65.78921" lon="21.67436">
        <ele>52.343065</ele>
        <time>2020-09-23T09:46:54.477Z</time>
      </trkpt>
      <trkpt lat="65.78912" lon="21.67439">
        <ele>52.593982</ele>
        <time>2020-09-23T09:46:56.473Z</time>
      </trkpt>
      <trkpt lat="65.78899" lon="21.67447">
        <ele>52.943166</ele>
        <time>2020-09-23T09:46:59.455Z</time>
      </trkpt>
      <trkpt lat="65.78886" lon="21.67455">
        <ele>53.277312</ele>
        <time>2020-09-23T09:47:02.440Z</time>
      </trkpt>
      <trkpt lat="65.78878" lon="21.67459">
        <ele>53.517309</ele>
        <time>2020-09-23T09:47:04.475Z</time>
      </trkpt>
      <trkpt lat="65.78868" lon="21.67462">
        <ele>53.762537</ele>
        <time>2020-09-23T09:47:06.479Z</time>
      </trkpt>
      <trkpt lat="65.78859" lon="21.67465">
        <ele>54.01221</ele>
        <time>2020-09-23T09:47:08.454Z</time>
      </trkpt>
      <trkpt lat="65.7885" lon="21.67469">
        <ele>54.259552</ele>
        <time>2020-09-23T09:47:10.456Z</time>
      </trkpt>
      <trkpt lat="65.7884" lon="21.67473">
        <ele>54.514482</ele>
        <time>2020-09-23T09:47:12.465Z</time>
      </trkpt>
      <trkpt lat="65.78831" lon="21.67477">
        <ele>54.776326</ele>
        <time>2020-09-23T09:47:14.484Z</time>
      </trkpt>
      <trkpt lat="65.78821" lon="21.67482">
        <ele>55.047992</ele>
        <time>2020-09-23T09:47:16.458Z</time>
      </trkpt>
      <trkpt lat="65.78812" lon="21.67486">
        <ele>55.306569</ele>
        <time>2020-09-23T09:47:18.460Z</time>
      </trkpt>
      <trkpt lat="65.788" lon="21.67493">
        <ele>55.671572</ele>
        <time>2020-09-23T09:47:21.456Z</time>
      </trkpt>
      <trkpt lat="65.78791" lon="21.67496">
        <ele>55.936259</ele>
        <time>2020-09-23T09:47:23.453Z</time>
      </trkpt>
      <trkpt lat="65.78781" lon="21.675">
        <ele>56.205196</ele>
        <time>2020-09-23T09:47:25.454Z</time>
      </trkpt>
      <trkpt lat="65.78773" lon="21.67504">
        <ele>56.462502</ele>
        <time>2020-09-23T09:47:27.460Z</time>
      </trkpt>
      <trkpt lat="65.7876" lon="21.6751">
        <ele>56.828836</ele>
        <time>2020-09-23T09:47:30.463Z</time>
      </trkpt>
      <trkpt lat="65.78747" lon="21.67514">
        <ele>57.213725</ele>
        <time>2020-09-23T09:47:33.505Z</time>
      </trkpt>
      <trkpt lat="65.78734" lon="21.67519">
        <ele>57.579142</ele>
        <time>2020-09-23T09:47:36.480Z</time>
      </trkpt>
      <trkpt lat="65.78721" lon="21.67523">
        <ele>57.950049</ele>
        <time>2020-09-23T09:47:39.458Z</time>
      </trkpt>
      <trkpt lat="65.78708" lon="21.67527">
        <ele>58.315466</ele>
        <time>2020-09-23T09:47:42.496Z</time>
      </trkpt>
      <trkpt lat="65.78696" lon="21.67533">
        <ele>58.683281</ele>
        <time>2020-09-23T09:47:45.465Z</time>
      </trkpt>
      <trkpt lat="65.78683" lon="21.67537">
        <ele>59.052017</ele>
        <time>2020-09-23T09:47:48.466Z</time>
      </trkpt>
      <trkpt lat="65.7867" lon="21.6754">
        <ele>59.424166</ele>
        <time>2020-09-23T09:47:51.458Z</time>
      </trkpt>
      <trkpt lat="65.78657" lon="21.67543">
        <ele>59.784857</ele>
        <time>2020-09-23T09:47:54.460Z</time>
      </trkpt>
      <trkpt lat="65.78644" lon="21.67545">
        <ele>59.794473</ele>
        <time>2020-09-23T09:47:57.462Z</time>
      </trkpt>
      <trkpt lat="65.78632" lon="21.6755">
        <ele>59.754016</ele>
        <time>2020-09-23T09:48:00.455Z</time>
      </trkpt>
      <trkpt lat="65.78619" lon="21.67554">
        <ele>59.712814</ele>
        <time>2020-09-23T09:48:03.472Z</time>
      </trkpt>
      <trkpt lat="65.78606" lon="21.67556">
        <ele>59.670893</ele>
        <time>2020-09-23T09:48:06.498Z</time>
      </trkpt>
      <trkpt lat="65.78597" lon="21.67557">
        <ele>59.641893</ele>
        <time>2020-09-23T09:48:08.460Z</time>
      </trkpt>
      <trkpt lat="65.78588" lon="21.67558">
        <ele>59.612893</ele>
        <time>2020-09-23T09:48:10.458Z</time>
      </trkpt>
      <trkpt lat="65.78575" lon="21.6756">
        <ele>59.570616</ele>
        <time>2020-09-23T09:48:13.469Z</time>
      </trkpt>
      <trkpt lat="65.78561" lon="21.67564">
        <ele>59.526553</ele>
        <time>2020-09-23T09:48:16.466Z</time>
      </trkpt>
      <trkpt lat="65.78552" lon="21.67567">
        <ele>59.496639</ele>
        <time>2020-09-23T09:48:18.460Z</time>
      </trkpt>
      <trkpt lat="65.78539" lon="21.67572">
        <ele>59.454655</ele>
        <time>2020-09-23T09:48:21.498Z</time>
      </trkpt>
      <trkpt lat="65.78526" lon="21.67577">
        <ele>59.412455</ele>
        <time>2020-09-23T09:48:24.476Z</time>
      </trkpt>
      <trkpt lat="65.78513" lon="21.6758">
        <ele>59.370409</ele>
        <time>2020-09-23T09:48:27.462Z</time>
      </trkpt>
      <trkpt lat="65.785" lon="21.67584">
        <ele>59.328248</ele>
        <time>2020-09-23T09:48:30.465Z</time>
      </trkpt>
      <trkpt lat="65.78488" lon="21.67587">
        <ele>59.287164</ele>
        <time>2020-09-23T09:48:33.461Z</time>
      </trkpt>
      <trkpt lat="65.78475" lon="21.67592">
        <ele>59.219914</ele>
        <time>2020-09-23T09:48:36.458Z</time>
      </trkpt>
      <trkpt lat="65.78462" lon="21.67596">
        <ele>59.036818</ele>
        <time>2020-09-23T09:48:39.457Z</time>
      </trkpt>
      <trkpt lat="65.78452" lon="21.67599">
        <ele>58.90785</ele>
        <time>2020-09-23T09:48:41.461Z</time>
      </trkpt>
      <trkpt lat="65.78443" lon="21.67602">
        <ele>58.782828</ele>
        <time>2020-09-23T09:48:43.452Z</time>
      </trkpt>
      <trkpt lat="65.78435" lon="21.67605">
        <ele>58.656946</ele>
        <time>2020-09-23T09:48:45.460Z</time>
      </trkpt>
      <trkpt lat="65.78425" lon="21.67608">
        <ele>58.529486</ele>
        <time>2020-09-23T09:48:47.497Z</time>
      </trkpt>
      <trkpt lat="65.78412" lon="21.67612">
        <ele>58.346933</ele>
        <time>2020-09-23T09:48:50.486Z</time>
      </trkpt>
      <trkpt lat="65.784" lon="21.67615">
        <ele>58.1665</ele>
        <time>2020-09-23T09:48:53.519Z</time>
      </trkpt>
      <trkpt lat="65.78387" lon="21.67618">
        <ele>57.985907</ele>
        <time>2020-09-23T09:48:56.456Z</time>
      </trkpt>
      <trkpt lat="65.78374" lon="21.67622">
        <ele>57.80597</ele>
        <time>2020-09-23T09:48:59.493Z</time>
      </trkpt>
      <trkpt lat="65.78365" lon="21.67625">
        <ele>57.678254</ele>
        <time>2020-09-23T09:49:01.491Z</time>
      </trkpt>
      <trkpt lat="65.78355" lon="21.67625">
        <ele>57.548655</ele>
        <time>2020-09-23T09:49:03.455Z</time>
      </trkpt>
      <trkpt lat="65.78342" lon="21.67628">
        <ele>57.365343</ele>
        <time>2020-09-23T09:49:06.456Z</time>
      </trkpt>
      <trkpt lat="65.7833" lon="21.67629">
        <ele>57.186922</ele>
        <time>2020-09-23T09:49:09.460Z</time>
      </trkpt>
      <trkpt lat="65.78316" lon="21.67634">
        <ele>56.99806</ele>
        <time>2020-09-23T09:49:12.454Z</time>
      </trkpt>
      <trkpt lat="65.78307" lon="21.67638">
        <ele>56.870902</ele>
        <time>2020-09-23T09:49:14.473Z</time>
      </trkpt>
      <trkpt lat="65.78294" lon="21.67642">
        <ele>56.68472</ele>
        <time>2020-09-23T09:49:17.464Z</time>
      </trkpt>
      <trkpt lat="65.78281" lon="21.67645">
        <ele>56.504907</ele>
        <time>2020-09-23T09:49:20.466Z</time>
      </trkpt>
      <trkpt lat="65.78272" lon="21.67646">
        <ele>56.378166</ele>
        <time>2020-09-23T09:49:22.494Z</time>
      </trkpt>
      <trkpt lat="65.78263" lon="21.67649">
        <ele>56.248723</ele>
        <time>2020-09-23T09:49:24.466Z</time>
      </trkpt>
      <trkpt lat="65.78254" lon="21.67653">
        <ele>56.121803</ele>
        <time>2020-09-23T09:49:26.477Z</time>
      </trkpt>
      <trkpt lat="65.78245" lon="21.67657">
        <ele>55.995668</ele>
        <time>2020-09-23T09:49:28.456Z</time>
      </trkpt>
      <trkpt lat="65.78232" lon="21.67662">
        <ele>55.808807</ele>
        <time>2020-09-23T09:49:31.479Z</time>
      </trkpt>
      <trkpt lat="65.78219" lon="21.67666">
        <ele>55.619765</ele>
        <time>2020-09-23T09:49:34.462Z</time>
      </trkpt>
      <trkpt lat="65.7821" lon="21.6767">
        <ele>55.485618</ele>
        <time>2020-09-23T09:49:36.473Z</time>
      </trkpt>
      <trkpt lat="65.782" lon="21.67675">
        <ele>55.35086</ele>
        <time>2020-09-23T09:49:38.457Z</time>
      </trkpt>
      <trkpt lat="65.78191" lon="21.67678">
        <ele>55.212809</ele>
        <time>2020-09-23T09:49:40.455Z</time>
      </trkpt>
      <trkpt lat="65.78181" lon="21.67682">
        <ele>55.075883</ele>
        <time>2020-09-23T09:49:42.481Z</time>
      </trkpt>
      <trkpt lat="65.78172" lon="21.67687">
        <ele>54.940429</ele>
        <time>2020-09-23T09:49:44.457Z</time>
      </trkpt>
      <trkpt lat="65.78162" lon="21.67692">
        <ele>54.805561</ele>
        <time>2020-09-23T09:49:46.465Z</time>
      </trkpt>
      <trkpt lat="65.78153" lon="21.67698">
        <ele>54.66659</ele>
        <time>2020-09-23T09:49:48.464Z</time>
      </trkpt>
      <trkpt lat="65.78142" lon="21.67702">
        <ele>54.519369</ele>
        <time>2020-09-23T09:49:50.463Z</time>
      </trkpt>
      <trkpt lat="65.78132" lon="21.67707">
        <ele>54.366501</ele>
        <time>2020-09-23T09:49:52.459Z</time>
      </trkpt>
      <trkpt lat="65.78121" lon="21.67712">
        <ele>54.205076</ele>
        <time>2020-09-23T09:49:54.458Z</time>
      </trkpt>
      <trkpt lat="65.78109" lon="21.67716">
        <ele>53.976827</ele>
        <time>2020-09-23T09:49:56.469Z</time>
      </trkpt>
      <trkpt lat="65.78097" lon="21.67723">
        <ele>53.744803</ele>
        <time>2020-09-23T09:49:58.476Z</time>
      </trkpt>
      <trkpt lat="65.78085" lon="21.6773">
        <ele>53.506782</ele>
        <time>2020-09-23T09:50:00.451Z</time>
      </trkpt>
      <trkpt lat="65.78073" lon="21.67736">
        <ele>53.261468</ele>
        <time>2020-09-23T09:50:02.476Z</time>
      </trkpt>
      <trkpt lat="65.7806" lon="21.67741">
        <ele>53.018339</ele>
        <time>2020-09-23T09:50:04.507Z</time>
      </trkpt>
      <trkpt lat="65.78047" lon="21.67748">
        <ele>52.766281</ele>
        <time>2020-09-23T09:50:06.457Z</time>
      </trkpt>
      <trkpt lat="65.78035" lon="21.67756">
        <ele>52.51531</ele>
        <time>2020-09-23T09:50:08.494Z</time>
      </trkpt>
      <trkpt lat="65.78022" lon="21.67763">
        <ele>52.252149</ele>
        <time>2020-09-23T09:50:10.457Z</time>
      </trkpt>
      <trkpt lat="65.78008" lon="21.6777">
        <ele>51.978349</ele>
        <time>2020-09-23T09:50:12.456Z</time>
      </trkpt>
      <trkpt lat="65.77994" lon="21.67778">
        <ele>51.704157</ele>
        <time>2020-09-23T09:50:14.476Z</time>
      </trkpt>
      <trkpt lat="65.7798" lon="21.67787">
        <ele>51.42838</ele>
        <time>2020-09-23T09:50:16.470Z</time>
      </trkpt>
      <trkpt lat="65.77966" lon="21.67797">
        <ele>51.154044</ele>
        <time>2020-09-23T09:50:18.467Z</time>
      </trkpt>
      <trkpt lat="65.77952" lon="21.67805">
        <ele>50.873275</ele>
        <time>2020-09-23T09:50:20.481Z</time>
      </trkpt>
      <trkpt lat="65.77938" lon="21.67815">
        <ele>50.588557</ele>
        <time>2020-09-23T09:50:22.472Z</time>
      </trkpt>
      <trkpt lat="65.77924" lon="21.67824">
        <ele>50.285914</ele>
        <time>2020-09-23T09:50:24.453Z</time>
      </trkpt>
      <trkpt lat="65.7791" lon="21.67833">
        <ele>49.995173</ele>
        <time>2020-09-23T09:50:26.459Z</time>
      </trkpt>
      <trkpt lat="65.77896" lon="21.67841">
        <ele>49.706205</ele>
        <time>2020-09-23T09:50:28.479Z</time>
      </trkpt>
      <trkpt lat="65.77882" lon="21.6785">
        <ele>49.410302</ele>
        <time>2020-09-23T09:50:30.460Z</time>
      </trkpt>
      <trkpt lat="65.77868" lon="21.67859">
        <ele>49.116574</ele>
        <time>2020-09-23T09:50:32.487Z</time>
      </trkpt>
      <trkpt lat="65.77855" lon="21.67868">
        <ele>48.827654</ele>
        <time>2020-09-23T09:50:34.463Z</time>
      </trkpt>
      <trkpt lat="65.77841" lon="21.67878">
        <ele>48.534372</ele>
        <time>2020-09-23T09:50:36.476Z</time>
      </trkpt>
      <trkpt lat="65.77827" lon="21.67887">
        <ele>48.245452</ele>
        <time>2020-09-23T09:50:38.476Z</time>
      </trkpt>
      <trkpt lat="65.77814" lon="21.67895">
        <ele>47.968503</ele>
        <time>2020-09-23T09:50:40.498Z</time>
      </trkpt>
      <trkpt lat="65.77801" lon="21.67902">
        <ele>47.707559</ele>
        <time>2020-09-23T09:50:42.466Z</time>
      </trkpt>
      <trkpt lat="65.7779" lon="21.6791">
        <ele>47.46723</ele>
        <time>2020-09-23T09:50:44.449Z</time>
      </trkpt>
      <trkpt lat="65.77779" lon="21.67918">
        <ele>47.243981</ele>
        <time>2020-09-23T09:50:46.450Z</time>
      </trkpt>
      <trkpt lat="65.77769" lon="21.67926">
        <ele>47.01533</ele>
        <time>2020-09-23T09:50:48.478Z</time>
      </trkpt>
      <trkpt lat="65.77759" lon="21.67933">
        <ele>46.732884</ele>
        <time>2020-09-23T09:50:50.483Z</time>
      </trkpt>
      <trkpt lat="65.77748" lon="21.6794">
        <ele>46.455514</ele>
        <time>2020-09-23T09:50:52.459Z</time>
      </trkpt>
      <trkpt lat="65.77738" lon="21.67949">
        <ele>46.185935</ele>
        <time>2020-09-23T09:50:54.460Z</time>
      </trkpt>
      <trkpt lat="65.77729" lon="21.67956">
        <ele>45.933206</ele>
        <time>2020-09-23T09:50:56.447Z</time>
      </trkpt>
      <trkpt lat="65.7772" lon="21.67964">
        <ele>45.682561</ele>
        <time>2020-09-23T09:50:58.447Z</time>
      </trkpt>
      <trkpt lat="65.7771" lon="21.67971">
        <ele>45.432583</ele>
        <time>2020-09-23T09:51:00.499Z</time>
      </trkpt>
      <trkpt lat="65.77701" lon="21.67979">
        <ele>45.193282</ele>
        <time>2020-09-23T09:51:02.495Z</time>
      </trkpt>
      <trkpt lat="65.77693" lon="21.67987">
        <ele>44.952864</ele>
        <time>2020-09-23T09:51:04.464Z</time>
      </trkpt>
      <trkpt lat="65.77684" lon="21.67995">
        <ele>44.711307</ele>
        <time>2020-09-23T09:51:06.464Z</time>
      </trkpt>
      <trkpt lat="65.77675" lon="21.68004">
        <ele>44.459859</ele>
        <time>2020-09-23T09:51:08.449Z</time>
      </trkpt>
      <trkpt lat="65.77665" lon="21.68011">
        <ele>44.208728</ele>
        <time>2020-09-23T09:51:10.460Z</time>
      </trkpt>
      <trkpt lat="65.77655" lon="21.68019">
        <ele>43.946604</ele>
        <time>2020-09-23T09:51:12.512Z</time>
      </trkpt>
      <trkpt lat="65.77646" lon="21.68027">
        <ele>43.688715</ele>
        <time>2020-09-23T09:51:14.455Z</time>
      </trkpt>
      <trkpt lat="65.77636" lon="21.68035">
        <ele>43.433937</ele>
        <time>2020-09-23T09:51:16.487Z</time>
      </trkpt>
      <trkpt lat="65.77627" lon="21.68044">
        <ele>43.178972</ele>
        <time>2020-09-23T09:51:18.473Z</time>
      </trkpt>
      <trkpt lat="65.77618" lon="21.68053">
        <ele>42.92992</ele>
        <time>2020-09-23T09:51:20.472Z</time>
      </trkpt>
      <trkpt lat="65.7761" lon="21.68062">
        <ele>42.691083</ele>
        <time>2020-09-23T09:51:22.453Z</time>
      </trkpt>
      <trkpt lat="65.77601" lon="21.68072">
        <ele>42.490206</ele>
        <time>2020-09-23T09:51:24.461Z</time>
      </trkpt>
      <trkpt lat="65.77592" lon="21.6808">
        <ele>42.440901</ele>
        <time>2020-09-23T09:51:26.462Z</time>
      </trkpt>
      <trkpt lat="65.77583" lon="21.68089">
        <ele>42.392035</ele>
        <time>2020-09-23T09:51:28.518Z</time>
      </trkpt>
      <trkpt lat="65.77574" lon="21.68097">
        <ele>42.341147</ele>
        <time>2020-09-23T09:51:30.489Z</time>
      </trkpt>
      <trkpt lat="65.77564" lon="21.68106">
        <ele>42.2911</ele>
        <time>2020-09-23T09:51:32.460Z</time>
      </trkpt>
      <trkpt lat="65.77556" lon="21.68115">
        <ele>42.242227</ele>
        <time>2020-09-23T09:51:34.514Z</time>
      </trkpt>
      <trkpt lat="65.77547" lon="21.68124">
        <ele>42.193354</ele>
        <time>2020-09-23T09:51:36.486Z</time>
      </trkpt>
      <trkpt lat="65.77538" lon="21.68133">
        <ele>42.144962</ele>
        <time>2020-09-23T09:51:38.467Z</time>
      </trkpt>
      <trkpt lat="65.77529" lon="21.68142">
        <ele>42.096557</ele>
        <time>2020-09-23T09:51:40.465Z</time>
      </trkpt>
      <trkpt lat="65.7752" lon="21.68152">
        <ele>42.046329</ele>
        <time>2020-09-23T09:51:42.464Z</time>
      </trkpt>
      <trkpt lat="65.77511" lon="21.68161">
        <ele>41.997068</ele>
        <time>2020-09-23T09:51:44.472Z</time>
      </trkpt>
      <trkpt lat="65.77503" lon="21.68171">
        <ele>41.947241</ele>
        <time>2020-09-23T09:51:46.466Z</time>
      </trkpt>
      <trkpt lat="65.77494" lon="21.68181">
        <ele>41.897771</ele>
        <time>2020-09-23T09:51:48.479Z</time>
      </trkpt>
      <trkpt lat="65.77485" lon="21.68191">
        <ele>41.846992</ele>
        <time>2020-09-23T09:51:50.467Z</time>
      </trkpt>
      <trkpt lat="65.77476" lon="21.68202">
        <ele>41.795696</ele>
        <time>2020-09-23T09:51:52.480Z</time>
      </trkpt>
      <trkpt lat="65.77467" lon="21.68213">
        <ele>41.746177</ele>
        <time>2020-09-23T09:51:54.471Z</time>
      </trkpt>
      <trkpt lat="65.77459" lon="21.68224">
        <ele>41.696857</ele>
        <time>2020-09-23T09:51:56.460Z</time>
      </trkpt>
      <trkpt lat="65.7745" lon="21.68234">
        <ele>41.646659</ele>
        <time>2020-09-23T09:51:58.491Z</time>
      </trkpt>
      <trkpt lat="65.77441" lon="21.68245">
        <ele>41.596832</ele>
        <time>2020-09-23T09:52:00.478Z</time>
      </trkpt>
      <trkpt lat="65.77433" lon="21.68255">
        <ele>41.534641</ele>
        <time>2020-09-23T09:52:02.476Z</time>
      </trkpt>
      <trkpt lat="65.77424" lon="21.68264">
        <ele>41.469483</ele>
        <time>2020-09-23T09:52:04.478Z</time>
      </trkpt>
      <trkpt lat="65.77412" lon="21.68278">
        <ele>41.373567</ele>
        <time>2020-09-23T09:52:07.469Z</time>
      </trkpt>
      <trkpt lat="65.77404" lon="21.68287">
        <ele>41.307217</ele>
        <time>2020-09-23T09:52:09.460Z</time>
      </trkpt>
      <trkpt lat="65.77395" lon="21.68297">
        <ele>41.239158</ele>
        <time>2020-09-23T09:52:11.463Z</time>
      </trkpt>
      <trkpt lat="65.77387" lon="21.68307">
        <ele>41.17228</ele>
        <time>2020-09-23T09:52:13.502Z</time>
      </trkpt>
      <trkpt lat="65.77378" lon="21.68317">
        <ele>41.103881</ele>
        <time>2020-09-23T09:52:15.465Z</time>
      </trkpt>
      <trkpt lat="65.77369" lon="21.68328">
        <ele>41.031744</ele>
        <time>2020-09-23T09:52:17.484Z</time>
      </trkpt>
      <trkpt lat="65.7736" lon="21.68341">
        <ele>40.956841</ele>
        <time>2020-09-23T09:52:19.487Z</time>
      </trkpt>
      <trkpt lat="65.77351" lon="21.68352">
        <ele>40.883163</ele>
        <time>2020-09-23T09:52:21.462Z</time>
      </trkpt>
      <trkpt lat="65.77341" lon="21.68363">
        <ele>40.806774</ele>
        <time>2020-09-23T09:52:23.470Z</time>
      </trkpt>
      <trkpt lat="65.77332" lon="21.68374">
        <ele>40.734638</ele>
        <time>2020-09-23T09:52:25.475Z</time>
      </trkpt>
      <trkpt lat="65.77323" lon="21.68385">
        <ele>40.664625</ele>
        <time>2020-09-23T09:52:27.477Z</time>
      </trkpt>
      <trkpt lat="65.77315" lon="21.68396">
        <ele>40.596917</ele>
        <time>2020-09-23T09:52:29.467Z</time>
      </trkpt>
      <trkpt lat="65.77307" lon="21.68408">
        <ele>40.528198</ele>
        <time>2020-09-23T09:52:31.499Z</time>
      </trkpt>
      <trkpt lat="65.77298" lon="21.68419">
        <ele>40.46077</ele>
        <time>2020-09-23T09:52:33.469Z</time>
      </trkpt>
      <trkpt lat="65.7729" lon="21.6843">
        <ele>40.394026</ele>
        <time>2020-09-23T09:52:35.471Z</time>
      </trkpt>
      <trkpt lat="65.77282" lon="21.6844">
        <ele>40.328136</ele>
        <time>2020-09-23T09:52:37.465Z</time>
      </trkpt>
      <trkpt lat="65.7727" lon="21.68453">
        <ele>40.349006</ele>
        <time>2020-09-23T09:52:40.452Z</time>
      </trkpt>
      <trkpt lat="65.77258" lon="21.68468">
        <ele>40.432631</ele>
        <time>2020-09-23T09:52:43.461Z</time>
      </trkpt>
      <trkpt lat="65.77249" lon="21.68479">
        <ele>40.492184</ele>
        <time>2020-09-23T09:52:45.479Z</time>
      </trkpt>
      <trkpt lat="65.77241" lon="21.68489">
        <ele>40.552182</ele>
        <time>2020-09-23T09:52:47.466Z</time>
      </trkpt>
      <trkpt lat="65.77232" lon="21.685">
        <ele>40.610532</ele>
        <time>2020-09-23T09:52:49.470Z</time>
      </trkpt>
      <trkpt lat="65.77224" lon="21.68512">
        <ele>40.671914</ele>
        <time>2020-09-23T09:52:51.457Z</time>
      </trkpt>
      <trkpt lat="65.77215" lon="21.68524">
        <ele>40.732546</ele>
        <time>2020-09-23T09:52:53.442Z</time>
      </trkpt>
      <trkpt lat="65.77207" lon="21.68535">
        <ele>40.791692</ele>
        <time>2020-09-23T09:52:55.485Z</time>
      </trkpt>
      <trkpt lat="65.77199" lon="21.68547">
        <ele>40.849925</ele>
        <time>2020-09-23T09:52:57.482Z</time>
      </trkpt>
      <trkpt lat="65.7719" lon="21.68557">
        <ele>40.907265</ele>
        <time>2020-09-23T09:52:59.452Z</time>
      </trkpt>
      <trkpt lat="65.77182" lon="21.68567">
        <ele>40.966818</ele>
        <time>2020-09-23T09:53:01.471Z</time>
      </trkpt>
      <trkpt lat="65.77173" lon="21.68577">
        <ele>41.024272</ele>
        <time>2020-09-23T09:53:03.488Z</time>
      </trkpt>
      <trkpt lat="65.77165" lon="21.68588">
        <ele>41.08427</ele>
        <time>2020-09-23T09:53:05.450Z</time>
      </trkpt>
      <trkpt lat="65.77156" lon="21.68599">
        <ele>41.145627</ele>
        <time>2020-09-23T09:53:07.473Z</time>
      </trkpt>
      <trkpt lat="65.77147" lon="21.68611">
        <ele>41.207293</ele>
        <time>2020-09-23T09:53:09.458Z</time>
      </trkpt>
      <trkpt lat="65.77138" lon="21.68623">
        <ele>41.268466</ele>
        <time>2020-09-23T09:53:11.486Z</time>
      </trkpt>
      <trkpt lat="65.7713" lon="21.68634">
        <ele>41.329589</ele>
        <time>2020-09-23T09:53:13.490Z</time>
      </trkpt>
      <trkpt lat="65.77121" lon="21.68646">
        <ele>41.389251</ele>
        <time>2020-09-23T09:53:15.456Z</time>
      </trkpt>
      <trkpt lat="65.77113" lon="21.68658">
        <ele>41.331806</ele>
        <time>2020-09-23T09:53:17.462Z</time>
      </trkpt>
      <trkpt lat="65.77106" lon="21.68669">
        <ele>41.228183</ele>
        <time>2020-09-23T09:53:19.474Z</time>
      </trkpt>
      <trkpt lat="65.77098" lon="21.68681">
        <ele>41.124084</ele>
        <time>2020-09-23T09:53:21.523Z</time>
      </trkpt>
      <trkpt lat="65.77089" lon="21.68692">
        <ele>41.016308</ele>
        <time>2020-09-23T09:53:23.460Z</time>
      </trkpt>
      <trkpt lat="65.77081" lon="21.68703">
        <ele>40.905004</ele>
        <time>2020-09-23T09:53:25.489Z</time>
      </trkpt>
      <trkpt lat="65.77072" lon="21.68716">
        <ele>40.795116</ele>
        <time>2020-09-23T09:53:27.501Z</time>
      </trkpt>
      <trkpt lat="65.77063" lon="21.68726">
        <ele>40.680197</ele>
        <time>2020-09-23T09:53:29.474Z</time>
      </trkpt>
      <trkpt lat="65.77054" lon="21.68737">
        <ele>40.565278</ele>
        <time>2020-09-23T09:53:31.477Z</time>
      </trkpt>
      <trkpt lat="65.77045" lon="21.68748">
        <ele>40.453187</ele>
        <time>2020-09-23T09:53:33.482Z</time>
      </trkpt>
      <trkpt lat="65.77037" lon="21.68759">
        <ele>40.342662</ele>
        <time>2020-09-23T09:53:35.461Z</time>
      </trkpt>
      <trkpt lat="65.77028" lon="21.6877">
        <ele>40.233792</ele>
        <time>2020-09-23T09:53:37.481Z</time>
      </trkpt>
      <trkpt lat="65.77019" lon="21.68781">
        <ele>40.122334</ele>
        <time>2020-09-23T09:53:39.455Z</time>
      </trkpt>
      <trkpt lat="65.77011" lon="21.68791">
        <ele>40.012919</ele>
        <time>2020-09-23T09:53:41.459Z</time>
      </trkpt>
      <trkpt lat="65.77001" lon="21.68801">
        <ele>39.898583</ele>
        <time>2020-09-23T09:53:43.457Z</time>
      </trkpt>
      <trkpt lat="65.76992" lon="21.68811">
        <ele>39.784691</ele>
        <time>2020-09-23T09:53:45.467Z</time>
      </trkpt>
      <trkpt lat="65.76984" lon="21.6882">
        <ele>39.677686</ele>
        <time>2020-09-23T09:53:47.462Z</time>
      </trkpt>
      <trkpt lat="65.76975" lon="21.68831">
        <ele>39.569462</ele>
        <time>2020-09-23T09:53:49.494Z</time>
      </trkpt>
      <trkpt lat="65.76967" lon="21.68842">
        <ele>39.463799</ele>
        <time>2020-09-23T09:53:51.459Z</time>
      </trkpt>
      <trkpt lat="65.76959" lon="21.68853">
        <ele>39.35152</ele>
        <time>2020-09-23T09:53:53.472Z</time>
      </trkpt>
      <trkpt lat="65.76951" lon="21.68864">
        <ele>39.143747</ele>
        <time>2020-09-23T09:53:55.463Z</time>
      </trkpt>
      <trkpt lat="65.76942" lon="21.68875">
        <ele>38.933341</ele>
        <time>2020-09-23T09:53:57.461Z</time>
      </trkpt>
      <trkpt lat="65.76933" lon="21.68885">
        <ele>38.722548</ele>
        <time>2020-09-23T09:53:59.479Z</time>
      </trkpt>
      <trkpt lat="65.76924" lon="21.68895">
        <ele>38.507464</ele>
        <time>2020-09-23T09:54:01.470Z</time>
      </trkpt>
      <trkpt lat="65.76915" lon="21.68906">
        <ele>38.298235</ele>
        <time>2020-09-23T09:54:03.464Z</time>
      </trkpt>
      <trkpt lat="65.76907" lon="21.68916">
        <ele>38.094445</ele>
        <time>2020-09-23T09:54:05.459Z</time>
      </trkpt>
      <trkpt lat="65.76898" lon="21.68924">
        <ele>37.887342</ele>
        <time>2020-09-23T09:54:07.469Z</time>
      </trkpt>
      <trkpt lat="65.76889" lon="21.68933">
        <ele>37.686925</ele>
        <time>2020-09-23T09:54:09.489Z</time>
      </trkpt>
      <trkpt lat="65.76881" lon="21.68942">
        <ele>37.488433</ele>
        <time>2020-09-23T09:54:11.485Z</time>
      </trkpt>
      <trkpt lat="65.76872" lon="21.68949">
        <ele>37.290849</ele>
        <time>2020-09-23T09:54:13.459Z</time>
      </trkpt>
      <trkpt lat="65.76863" lon="21.68958">
        <ele>37.082376</ele>
        <time>2020-09-23T09:54:15.458Z</time>
      </trkpt>
      <trkpt lat="65.76854" lon="21.68965">
        <ele>36.870194</ele>
        <time>2020-09-23T09:54:17.471Z</time>
      </trkpt>
      <trkpt lat="65.76845" lon="21.68972">
        <ele>36.655249</ele>
        <time>2020-09-23T09:54:19.455Z</time>
      </trkpt>
      <trkpt lat="65.76835" lon="21.6898">
        <ele>36.444246</ele>
        <time>2020-09-23T09:54:21.466Z</time>
      </trkpt>
      <trkpt lat="65.76826" lon="21.68988">
        <ele>36.237319</ele>
        <time>2020-09-23T09:54:23.484Z</time>
      </trkpt>
      <trkpt lat="65.76817" lon="21.68995">
        <ele>36.033755</ele>
        <time>2020-09-23T09:54:25.462Z</time>
      </trkpt>
      <trkpt lat="65.76808" lon="21.69001">
        <ele>35.824005</ele>
        <time>2020-09-23T09:54:27.463Z</time>
      </trkpt>
      <trkpt lat="65.76798" lon="21.69007">
        <ele>35.611493</ele>
        <time>2020-09-23T09:54:29.464Z</time>
      </trkpt>
      <trkpt lat="65.76789" lon="21.69012">
        <ele>35.512849</ele>
        <time>2020-09-23T09:54:31.487Z</time>
      </trkpt>
      <trkpt lat="65.76779" lon="21.69017">
        <ele>35.593459</ele>
        <time>2020-09-23T09:54:33.458Z</time>
      </trkpt>
      <trkpt lat="65.76771" lon="21.69022">
        <ele>35.670393</ele>
        <time>2020-09-23T09:54:35.474Z</time>
      </trkpt>
      <trkpt lat="65.76761" lon="21.69027">
        <ele>35.748965</ele>
        <time>2020-09-23T09:54:37.458Z</time>
      </trkpt>
      <trkpt lat="65.76748" lon="21.69034">
        <ele>35.861744</ele>
        <time>2020-09-23T09:54:40.494Z</time>
      </trkpt>
      <trkpt lat="65.76736" lon="21.69042">
        <ele>35.970886</ele>
        <time>2020-09-23T09:54:43.461Z</time>
      </trkpt>
      <trkpt lat="65.76723" lon="21.69049">
        <ele>36.077834</ele>
        <time>2020-09-23T09:54:46.490Z</time>
      </trkpt>
      <trkpt lat="65.76711" lon="21.69056">
        <ele>36.182325</ele>
        <time>2020-09-23T09:54:49.477Z</time>
      </trkpt>
      <trkpt lat="65.76699" lon="21.69061">
        <ele>36.287037</ele>
        <time>2020-09-23T09:54:52.508Z</time>
      </trkpt>
      <trkpt lat="65.76687" lon="21.69065">
        <ele>36.393169</ele>
        <time>2020-09-23T09:54:55.498Z</time>
      </trkpt>
      <trkpt lat="65.76674" lon="21.69071">
        <ele>36.501199</ele>
        <time>2020-09-23T09:54:58.478Z</time>
      </trkpt>
      <trkpt lat="65.76661" lon="21.69077">
        <ele>36.60923</ele>
        <time>2020-09-23T09:55:01.456Z</time>
      </trkpt>
      <trkpt lat="65.76652" lon="21.69078">
        <ele>36.686818</ele>
        <time>2020-09-23T09:55:03.466Z</time>
      </trkpt>
      <trkpt lat="65.76639" lon="21.69085">
        <ele>36.799936</ele>
        <time>2020-09-23T09:55:06.487Z</time>
      </trkpt>
      <trkpt lat="65.76626" lon="21.6909">
        <ele>36.911083</ele>
        <time>2020-09-23T09:55:09.494Z</time>
      </trkpt>
      <trkpt lat="65.76614" lon="21.69094">
        <ele>36.939585</ele>
        <time>2020-09-23T09:55:12.469Z</time>
      </trkpt>
      <trkpt lat="65.76602" lon="21.69099">
        <ele>36.692025</ele>
        <time>2020-09-23T09:55:15.450Z</time>
      </trkpt>
      <trkpt lat="65.76589" lon="21.69104">
        <ele>36.432548</ele>
        <time>2020-09-23T09:55:18.453Z</time>
      </trkpt>
      <trkpt lat="65.76577" lon="21.69109">
        <ele>36.173603</ele>
        <time>2020-09-23T09:55:21.522Z</time>
      </trkpt>
      <trkpt lat="65.76564" lon="21.69113">
        <ele>35.909123</ele>
        <time>2020-09-23T09:55:24.477Z</time>
      </trkpt>
      <trkpt lat="65.76552" lon="21.69118">
        <ele>35.652089</ele>
        <time>2020-09-23T09:55:27.461Z</time>
      </trkpt>
      <trkpt lat="65.76541" lon="21.69123">
        <ele>35.414834</ele>
        <time>2020-09-23T09:55:30.455Z</time>
      </trkpt>
      <trkpt lat="65.76529" lon="21.69132">
        <ele>35.162042</ele>
        <time>2020-09-23T09:55:33.451Z</time>
      </trkpt>
      <trkpt lat="65.76516" lon="21.69141">
        <ele>34.890689</ele>
        <time>2020-09-23T09:55:36.489Z</time>
      </trkpt>
      <trkpt lat="65.76508" lon="21.69147">
        <ele>34.70292</ele>
        <time>2020-09-23T09:55:38.467Z</time>
      </trkpt>
      <trkpt lat="65.76496" lon="21.69155">
        <ele>34.44916</ele>
        <time>2020-09-23T09:55:41.453Z</time>
      </trkpt>
      <trkpt lat="65.76484" lon="21.69163">
        <ele>34.196295</ele>
        <time>2020-09-23T09:55:44.475Z</time>
      </trkpt>
      <trkpt lat="65.76472" lon="21.69172">
        <ele>33.937768</ele>
        <time>2020-09-23T09:55:47.471Z</time>
      </trkpt>
      <trkpt lat="65.7646" lon="21.69183">
        <ele>33.668135</ele>
        <time>2020-09-23T09:55:50.460Z</time>
      </trkpt>
      <trkpt lat="65.76451" lon="21.69191">
        <ele>33.481314</ele>
        <time>2020-09-23T09:55:52.478Z</time>
      </trkpt>
      <trkpt lat="65.76439" lon="21.69202">
        <ele>33.498374</ele>
        <time>2020-09-23T09:55:55.458Z</time>
      </trkpt>
      <trkpt lat="65.76427" lon="21.69214">
        <ele>34.374668</ele>
        <time>2020-09-23T09:55:58.487Z</time>
      </trkpt>
      <trkpt lat="65.76415" lon="21.69226">
        <ele>35.242752</ele>
        <time>2020-09-23T09:56:01.468Z</time>
      </trkpt>
      <trkpt lat="65.76403" lon="21.6924">
        <ele>36.122718</ele>
        <time>2020-09-23T09:56:04.452Z</time>
      </trkpt>
      <trkpt lat="65.76395" lon="21.69249">
        <ele>36.718649</ele>
        <time>2020-09-23T09:56:06.474Z</time>
      </trkpt>
      <trkpt lat="65.76386" lon="21.6926">
        <ele>37.350831</ele>
        <time>2020-09-23T09:56:08.489Z</time>
      </trkpt>
      <trkpt lat="65.76378" lon="21.69272">
        <ele>38.012237</ele>
        <time>2020-09-23T09:56:10.484Z</time>
      </trkpt>
      <trkpt lat="65.76369" lon="21.69285">
        <ele>38.664738</ele>
        <time>2020-09-23T09:56:12.511Z</time>
      </trkpt>
      <trkpt lat="65.76361" lon="21.69298">
        <ele>39.325898</ele>
        <time>2020-09-23T09:56:14.466Z</time>
      </trkpt>
      <trkpt lat="65.76353" lon="21.69311">
        <ele>39.977428</ele>
        <time>2020-09-23T09:56:16.459Z</time>
      </trkpt>
      <trkpt lat="65.76345" lon="21.69325">
        <ele>40.624551</ele>
        <time>2020-09-23T09:56:18.456Z</time>
      </trkpt>
      <trkpt lat="65.76337" lon="21.69338">
        <ele>41.252582</ele>
        <time>2020-09-23T09:56:20.477Z</time>
      </trkpt>
      <trkpt lat="65.76329" lon="21.69348">
        <ele>41.850896</ele>
        <time>2020-09-23T09:56:22.486Z</time>
      </trkpt>
      <trkpt lat="65.76318" lon="21.69364">
        <ele>42.696018</ele>
        <time>2020-09-23T09:56:25.482Z</time>
      </trkpt>
      <trkpt lat="65.76308" lon="21.69381">
        <ele>43.517716</ele>
        <time>2020-09-23T09:56:28.466Z</time>
      </trkpt>
      <trkpt lat="65.76298" lon="21.69396">
        <ele>44.270168</ele>
        <time>2020-09-23T09:56:31.463Z</time>
      </trkpt>
      <trkpt lat="65.7629" lon="21.69413">
        <ele>44.995844</ele>
        <time>2020-09-23T09:56:34.477Z</time>
      </trkpt>
      <trkpt lat="65.76281" lon="21.6943">
        <ele>45.77824</ele>
        <time>2020-09-23T09:56:37.483Z</time>
      </trkpt>
      <trkpt lat="65.76272" lon="21.69445">
        <ele>46.546527</ele>
        <time>2020-09-23T09:56:40.503Z</time>
      </trkpt>
      <trkpt lat="65.76263" lon="21.69461">
        <ele>47.323953</ele>
        <time>2020-09-23T09:56:43.463Z</time>
      </trkpt>
      <trkpt lat="65.76255" lon="21.6948">
        <ele>48.132959</ele>
        <time>2020-09-23T09:56:46.499Z</time>
      </trkpt>
      <trkpt lat="65.76247" lon="21.69498">
        <ele>48.881981</ele>
        <time>2020-09-23T09:56:49.462Z</time>
      </trkpt>
      <trkpt lat="65.7624" lon="21.69516">
        <ele>49.62448</ele>
        <time>2020-09-23T09:56:52.494Z</time>
      </trkpt>
      <trkpt lat="65.76233" lon="21.69538">
        <ele>50.388769</ele>
        <time>2020-09-23T09:56:55.461Z</time>
      </trkpt>
      <trkpt lat="65.76226" lon="21.69558">
        <ele>51.18379</ele>
        <time>2020-09-23T09:56:58.461Z</time>
      </trkpt>
      <trkpt lat="65.76218" lon="21.69577">
        <ele>51.965151</ele>
        <time>2020-09-23T09:57:01.458Z</time>
      </trkpt>
      <trkpt lat="65.7621" lon="21.69596">
        <ele>52.786562</ele>
        <time>2020-09-23T09:57:04.478Z</time>
      </trkpt>
      <trkpt lat="65.76202" lon="21.69618">
        <ele>53.608137</ele>
        <time>2020-09-23T09:57:07.483Z</time>
      </trkpt>
      <trkpt lat="65.76196" lon="21.69641">
        <ele>54.392116</ele>
        <time>2020-09-23T09:57:10.456Z</time>
      </trkpt>
      <trkpt lat="65.7619" lon="21.69664">
        <ele>55.182539</ele>
        <time>2020-09-23T09:57:13.464Z</time>
      </trkpt>
      <trkpt lat="65.76184" lon="21.69685">
        <ele>55.954478</ele>
        <time>2020-09-23T09:57:16.463Z</time>
      </trkpt>
      <trkpt lat="65.76178" lon="21.69709">
        <ele>56.744751</ele>
        <time>2020-09-23T09:57:19.479Z</time>
      </trkpt>
      <trkpt lat="65.76172" lon="21.69731">
        <ele>57.545025</ele>
        <time>2020-09-23T09:57:22.468Z</time>
      </trkpt>
      <trkpt lat="65.76165" lon="21.69754">
        <ele>57.547434</ele>
        <time>2020-09-23T09:57:25.475Z</time>
      </trkpt>
      <trkpt lat="65.76159" lon="21.6978">
        <ele>56.802872</ele>
        <time>2020-09-23T09:57:28.475Z</time>
      </trkpt>
      <trkpt lat="65.76153" lon="21.69802">
        <ele>56.149772</ele>
        <time>2020-09-23T09:57:31.516Z</time>
      </trkpt>
      <trkpt lat="65.76146" lon="21.69821">
        <ele>55.508426</ele>
        <time>2020-09-23T09:57:34.472Z</time>
      </trkpt>
      <trkpt lat="65.76141" lon="21.69843">
        <ele>54.845349</ele>
        <time>2020-09-23T09:57:37.476Z</time>
      </trkpt>
      <trkpt lat="65.76134" lon="21.69865">
        <ele>54.15076</ele>
        <time>2020-09-23T09:57:40.451Z</time>
      </trkpt>
      <trkpt lat="65.76128" lon="21.69889">
        <ele>53.451084</ele>
        <time>2020-09-23T09:57:43.461Z</time>
      </trkpt>
      <trkpt lat="65.7612" lon="21.69912">
        <ele>52.67916</ele>
        <time>2020-09-23T09:57:46.467Z</time>
      </trkpt>
      <trkpt lat="65.76113" lon="21.69935">
        <ele>51.936107</ele>
        <time>2020-09-23T09:57:49.481Z</time>
      </trkpt>
      <trkpt lat="65.76106" lon="21.69959">
        <ele>51.207859</ele>
        <time>2020-09-23T09:57:52.476Z</time>
      </trkpt>
      <trkpt lat="65.76099" lon="21.6998">
        <ele>50.512147</ele>
        <time>2020-09-23T09:57:55.468Z</time>
      </trkpt>
      <trkpt lat="65.76092" lon="21.70002">
        <ele>49.813477</ele>
        <time>2020-09-23T09:57:58.477Z</time>
      </trkpt>
      <trkpt lat="65.76085" lon="21.70027">
        <ele>49.061566</ele>
        <time>2020-09-23T09:58:01.462Z</time>
      </trkpt>
      <trkpt lat="65.76078" lon="21.70051">
        <ele>48.3187</ele>
        <time>2020-09-23T09:58:04.463Z</time>
      </trkpt>
      <trkpt lat="65.76071" lon="21.70073">
        <ele>47.609348</ele>
        <time>2020-09-23T09:58:07.486Z</time>
      </trkpt>
      <trkpt lat="65.76063" lon="21.70095">
        <ele>46.858071</ele>
        <time>2020-09-23T09:58:10.495Z</time>
      </trkpt>
      <trkpt lat="65.76054" lon="21.70117">
        <ele>46.682811</ele>
        <time>2020-09-23T09:58:13.470Z</time>
      </trkpt>
      <trkpt lat="65.76046" lon="21.70138">
        <ele>46.522573</ele>
        <time>2020-09-23T09:58:16.457Z</time>
      </trkpt>
      <trkpt lat="65.76039" lon="21.70159">
        <ele>46.368544</ele>
        <time>2020-09-23T09:58:19.459Z</time>
      </trkpt>
      <trkpt lat="65.76031" lon="21.70181">
        <ele>46.209835</ele>
        <time>2020-09-23T09:58:22.488Z</time>
      </trkpt>
      <trkpt lat="65.76024" lon="21.70202">
        <ele>46.050277</ele>
        <time>2020-09-23T09:58:25.498Z</time>
      </trkpt>
      <trkpt lat="65.76016" lon="21.70225">
        <ele>45.886425</ele>
        <time>2020-09-23T09:58:28.457Z</time>
      </trkpt>
      <trkpt lat="65.76008" lon="21.70247">
        <ele>45.720702</ele>
        <time>2020-09-23T09:58:31.459Z</time>
      </trkpt>
      <trkpt lat="65.75999" lon="21.70268">
        <ele>45.55228</ele>
        <time>2020-09-23T09:58:34.453Z</time>
      </trkpt>
      <trkpt lat="65.7599" lon="21.70289">
        <ele>45.382695</ele>
        <time>2020-09-23T09:58:37.464Z</time>
      </trkpt>
      <trkpt lat="65.75981" lon="21.7031">
        <ele>45.209821</ele>
        <time>2020-09-23T09:58:40.458Z</time>
      </trkpt>
      <trkpt lat="65.75972" lon="21.70333">
        <ele>45.034415</ele>
        <time>2020-09-23T09:58:43.459Z</time>
      </trkpt>
      <trkpt lat="65.75964" lon="21.70357">
        <ele>44.862803</ele>
        <time>2020-09-23T09:58:46.466Z</time>
      </trkpt>
      <trkpt lat="65.75955" lon="21.7038">
        <ele>44.690221</ele>
        <time>2020-09-23T09:58:49.503Z</time>
      </trkpt>
      <trkpt lat="65.75947" lon="21.70403">
        <ele>44.522844</ele>
        <time>2020-09-23T09:58:52.490Z</time>
      </trkpt>
      <trkpt lat="65.75938" lon="21.70424">
        <ele>44.380028</ele>
        <time>2020-09-23T09:58:55.475Z</time>
      </trkpt>
      <trkpt lat="65.75929" lon="21.70446">
        <ele>44.292176</ele>
        <time>2020-09-23T09:58:58.510Z</time>
      </trkpt>
      <trkpt lat="65.75921" lon="21.70467">
        <ele>44.207993</ele>
        <time>2020-09-23T09:59:01.472Z</time>
      </trkpt>
      <trkpt lat="65.75913" lon="21.70489">
        <ele>44.122068</ele>
        <time>2020-09-23T09:59:04.483Z</time>
      </trkpt>
      <trkpt lat="65.75904" lon="21.70513">
        <ele>44.03355</ele>
        <time>2020-09-23T09:59:07.481Z</time>
      </trkpt>
      <trkpt lat="65.75896" lon="21.70535">
        <ele>43.946946</ele>
        <time>2020-09-23T09:59:10.466Z</time>
      </trkpt>
      <trkpt lat="65.75887" lon="21.70556">
        <ele>43.859989</ele>
        <time>2020-09-23T09:59:13.463Z</time>
      </trkpt>
      <trkpt lat="65.75879" lon="21.70579">
        <ele>43.775269</ele>
        <time>2020-09-23T09:59:16.465Z</time>
      </trkpt>
      <trkpt lat="65.75871" lon="21.706">
        <ele>43.691776</ele>
        <time>2020-09-23T09:59:19.452Z</time>
      </trkpt>
      <trkpt lat="65.75862" lon="21.70619">
        <ele>43.611875</ele>
        <time>2020-09-23T09:59:22.517Z</time>
      </trkpt>
      <trkpt lat="65.75853" lon="21.70639">
        <ele>43.526458</ele>
        <time>2020-09-23T09:59:25.495Z</time>
      </trkpt>
      <trkpt lat="65.75845" lon="21.70661">
        <ele>43.439792</ele>
        <time>2020-09-23T09:59:28.472Z</time>
      </trkpt>
      <trkpt lat="65.75836" lon="21.70683">
        <ele>43.351904</ele>
        <time>2020-09-23T09:59:31.463Z</time>
      </trkpt>
      <trkpt lat="65.75827" lon="21.70706">
        <ele>43.261741</ele>
        <time>2020-09-23T09:59:34.479Z</time>
      </trkpt>
      <trkpt lat="65.7582" lon="21.70722">
        <ele>43.198099</ele>
        <time>2020-09-23T09:59:36.475Z</time>
      </trkpt>
      <trkpt lat="65.75812" lon="21.70745">
        <ele>43.117666</ele>
        <time>2020-09-23T09:59:39.504Z</time>
      </trkpt>
      <trkpt lat="65.75803" lon="21.70769">
        <ele>43.045435</ele>
        <time>2020-09-23T09:59:42.492Z</time>
      </trkpt>
      <trkpt lat="65.75794" lon="21.70791">
        <ele>42.976089</ele>
        <time>2020-09-23T09:59:45.490Z</time>
      </trkpt>
      <trkpt lat="65.75786" lon="21.70811">
        <ele>42.909574</ele>
        <time>2020-09-23T09:59:48.474Z</time>
      </trkpt>
      <trkpt lat="65.75777" lon="21.70834">
        <ele>42.838139</ele>
        <time>2020-09-23T09:59:51.449Z</time>
      </trkpt>
      <trkpt lat="65.75767" lon="21.70853">
        <ele>42.77065</ele>
        <time>2020-09-23T09:59:54.472Z</time>
      </trkpt>
      <trkpt lat="65.75758" lon="21.70872">
        <ele>42.704048</ele>
        <time>2020-09-23T09:59:57.463Z</time>
      </trkpt>
      <trkpt lat="65.75749" lon="21.70889">
        <ele>42.639123</ele>
        <time>2020-09-23T10:00:00.483Z</time>
      </trkpt>
      <trkpt lat="65.75739" lon="21.70908">
        <ele>42.572531</ele>
        <time>2020-09-23T10:00:03.503Z</time>
      </trkpt>
      <trkpt lat="65.7573" lon="21.70925">
        <ele>42.507911</ele>
        <time>2020-09-23T10:00:06.463Z</time>
      </trkpt>
      <trkpt lat="65.75721" lon="21.70942">
        <ele>42.443314</ele>
        <time>2020-09-23T10:00:09.479Z</time>
      </trkpt>
      <trkpt lat="65.75711" lon="21.70959">
        <ele>42.379327</ele>
        <time>2020-09-23T10:00:12.444Z</time>
      </trkpt>
      <trkpt lat="65.75702" lon="21.70975">
        <ele>42.314498</ele>
        <time>2020-09-23T10:00:15.465Z</time>
      </trkpt>
      <trkpt lat="65.75692" lon="21.70991">
        <ele>42.247912</ele>
        <time>2020-09-23T10:00:18.465Z</time>
      </trkpt>
      <trkpt lat="65.75681" lon="21.71003">
        <ele>42.18411</ele>
        <time>2020-09-23T10:00:21.480Z</time>
      </trkpt>
      <trkpt lat="65.75671" lon="21.71015">
        <ele>42.150262</ele>
        <time>2020-09-23T10:00:24.517Z</time>
      </trkpt>
      <trkpt lat="65.75662" lon="21.7103">
        <ele>42.132554</ele>
        <time>2020-09-23T10:00:27.495Z</time>
      </trkpt>
      <trkpt lat="65.75653" lon="21.71045">
        <ele>42.114909</ele>
        <time>2020-09-23T10:00:30.476Z</time>
      </trkpt>
      <trkpt lat="65.75643" lon="21.71059">
        <ele>42.096623</ele>
        <time>2020-09-23T10:00:33.463Z</time>
      </trkpt>
      <trkpt lat="65.75633" lon="21.71073">
        <ele>42.077855</ele>
        <time>2020-09-23T10:00:36.449Z</time>
      </trkpt>
      <trkpt lat="65.75623" lon="21.71086">
        <ele>42.060422</ele>
        <time>2020-09-23T10:00:39.458Z</time>
      </trkpt>
      <trkpt lat="65.75614" lon="21.71101">
        <ele>42.04292</ele>
        <time>2020-09-23T10:00:42.481Z</time>
      </trkpt>
      <trkpt lat="65.75604" lon="21.71113">
        <ele>42.02533</ele>
        <time>2020-09-23T10:00:45.462Z</time>
      </trkpt>
      <trkpt lat="65.75595" lon="21.71124">
        <ele>42.007857</ele>
        <time>2020-09-23T10:00:48.461Z</time>
      </trkpt>
      <trkpt lat="65.75585" lon="21.71137">
        <ele>41.990899</ele>
        <time>2020-09-23T10:00:51.460Z</time>
      </trkpt>
      <trkpt lat="65.75576" lon="21.7115">
        <ele>41.973638</ele>
        <time>2020-09-23T10:00:54.451Z</time>
      </trkpt>
      <trkpt lat="65.75567" lon="21.71163">
        <ele>41.95699</ele>
        <time>2020-09-23T10:00:57.459Z</time>
      </trkpt>
      <trkpt lat="65.75558" lon="21.71175">
        <ele>41.940097</ele>
        <time>2020-09-23T10:01:00.473Z</time>
      </trkpt>
      <trkpt lat="65.75549" lon="21.71189">
        <ele>41.922835</ele>
        <time>2020-09-23T10:01:03.538Z</time>
      </trkpt>
      <trkpt lat="65.75539" lon="21.71205">
        <ele>41.904706</ele>
        <time>2020-09-23T10:01:06.476Z</time>
      </trkpt>
      <trkpt lat="65.7553" lon="21.71219">
        <ele>41.886863</ele>
        <time>2020-09-23T10:01:09.493Z</time>
      </trkpt>
      <trkpt lat="65.75521" lon="21.71233">
        <ele>41.87387</ele>
        <time>2020-09-23T10:01:12.474Z</time>
      </trkpt>
      <trkpt lat="65.75512" lon="21.71248">
        <ele>41.875365</ele>
        <time>2020-09-23T10:01:15.468Z</time>
      </trkpt>
      <trkpt lat="65.75503" lon="21.71262">
        <ele>41.876785</ele>
        <time>2020-09-23T10:01:18.471Z</time>
      </trkpt>
      <trkpt lat="65.75493" lon="21.71274">
        <ele>41.878211</ele>
        <time>2020-09-23T10:01:21.489Z</time>
      </trkpt>
      <trkpt lat="65.75483" lon="21.71287">
        <ele>41.879712</ele>
        <time>2020-09-23T10:01:24.462Z</time>
      </trkpt>
      <trkpt lat="65.75473" lon="21.713">
        <ele>41.881218</ele>
        <time>2020-09-23T10:01:27.475Z</time>
      </trkpt>
      <trkpt lat="65.75465" lon="21.71314">
        <ele>41.882574</ele>
        <time>2020-09-23T10:01:30.478Z</time>
      </trkpt>
      <trkpt lat="65.75456" lon="21.71326">
        <ele>41.883951</ele>
        <time>2020-09-23T10:01:33.485Z</time>
      </trkpt>
      <trkpt lat="65.75447" lon="21.7134">
        <ele>41.885383</ele>
        <time>2020-09-23T10:01:36.492Z</time>
      </trkpt>
      <trkpt lat="65.75438" lon="21.71353">
        <ele>41.886789</ele>
        <time>2020-09-23T10:01:39.463Z</time>
      </trkpt>
      <trkpt lat="65.75429" lon="21.71366">
        <ele>41.888177</ele>
        <time>2020-09-23T10:01:42.475Z</time>
      </trkpt>
      <trkpt lat="65.75419" lon="21.71379">
        <ele>41.88968</ele>
        <time>2020-09-23T10:01:45.459Z</time>
      </trkpt>
      <trkpt lat="65.7541" lon="21.71392">
        <ele>41.891134</ele>
        <time>2020-09-23T10:01:48.467Z</time>
      </trkpt>
      <trkpt lat="65.75401" lon="21.71405">
        <ele>41.892593</ele>
        <time>2020-09-23T10:01:51.468Z</time>
      </trkpt>
      <trkpt lat="65.75391" lon="21.71418">
        <ele>41.894031</ele>
        <time>2020-09-23T10:01:54.481Z</time>
      </trkpt>
      <trkpt lat="65.75382" lon="21.7143">
        <ele>41.895385</ele>
        <time>2020-09-23T10:01:57.468Z</time>
      </trkpt>
      <trkpt lat="65.75374" lon="21.71443">
        <ele>41.896699</ele>
        <time>2020-09-23T10:02:00.516Z</time>
      </trkpt>
      <trkpt lat="65.75365" lon="21.71456">
        <ele>41.899885</ele>
        <time>2020-09-23T10:02:03.482Z</time>
      </trkpt>
      <trkpt lat="65.75356" lon="21.71468">
        <ele>41.907318</ele>
        <time>2020-09-23T10:02:06.455Z</time>
      </trkpt>
      <trkpt lat="65.75347" lon="21.71481">
        <ele>41.914933</ele>
        <time>2020-09-23T10:02:09.460Z</time>
      </trkpt>
      <trkpt lat="65.75338" lon="21.71494">
        <ele>41.922848</ele>
        <time>2020-09-23T10:02:12.446Z</time>
      </trkpt>
      <trkpt lat="65.75329" lon="21.71506">
        <ele>41.92998</ele>
        <time>2020-09-23T10:02:15.458Z</time>
      </trkpt>
      <trkpt lat="65.7532" lon="21.71517">
        <ele>41.937225</ele>
        <time>2020-09-23T10:02:18.475Z</time>
      </trkpt>
      <trkpt lat="65.75311" lon="21.71529">
        <ele>41.94412</ele>
        <time>2020-09-23T10:02:21.468Z</time>
      </trkpt>
      <trkpt lat="65.75303" lon="21.7154">
        <ele>41.951183</ele>
        <time>2020-09-23T10:02:24.461Z</time>
      </trkpt>
      <trkpt lat="65.75294" lon="21.71551">
        <ele>41.958272</ele>
        <time>2020-09-23T10:02:27.470Z</time>
      </trkpt>
      <trkpt lat="65.75284" lon="21.71563">
        <ele>41.966392</ele>
        <time>2020-09-23T10:02:31.470Z</time>
      </trkpt>
      <trkpt lat="65.75276" lon="21.71578">
        <ele>41.9733</ele>
        <time>2020-09-23T10:02:34.472Z</time>
      </trkpt>
      <trkpt lat="65.75269" lon="21.71593">
        <ele>41.980208</ele>
        <time>2020-09-23T10:02:37.479Z</time>
      </trkpt>
      <trkpt lat="65.75261" lon="21.71607">
        <ele>41.987084</ele>
        <time>2020-09-23T10:02:40.474Z</time>
      </trkpt>
      <trkpt lat="65.75253" lon="21.7162">
        <ele>41.99415</ele>
        <time>2020-09-23T10:02:43.466Z</time>
      </trkpt>
      <trkpt lat="65.75242" lon="21.71633">
        <ele>42.002941</ele>
        <time>2020-09-23T10:02:47.496Z</time>
      </trkpt>
      <trkpt lat="65.75233" lon="21.71642">
        <ele>42.009683</ele>
        <time>2020-09-23T10:02:50.471Z</time>
      </trkpt>
      <trkpt lat="65.75225" lon="21.71655">
        <ele>42.016421</ele>
        <time>2020-09-23T10:02:53.487Z</time>
      </trkpt>
      <trkpt lat="65.75217" lon="21.71667">
        <ele>42.023404</ele>
        <time>2020-09-23T10:02:56.484Z</time>
      </trkpt>
      <trkpt lat="65.75209" lon="21.71678">
        <ele>42.114511</ele>
        <time>2020-09-23T10:02:59.503Z</time>
      </trkpt>
      <trkpt lat="65.75201" lon="21.7169">
        <ele>42.282397</ele>
        <time>2020-09-23T10:03:02.477Z</time>
      </trkpt>
      <trkpt lat="65.75193" lon="21.71701">
        <ele>42.446113</ele>
        <time>2020-09-23T10:03:05.466Z</time>
      </trkpt>
      <trkpt lat="65.75184" lon="21.71712">
        <ele>42.613483</ele>
        <time>2020-09-23T10:03:08.459Z</time>
      </trkpt>
      <trkpt lat="65.75176" lon="21.71723">
        <ele>42.778489</ele>
        <time>2020-09-23T10:03:11.475Z</time>
      </trkpt>
      <trkpt lat="65.75168" lon="21.71735">
        <ele>42.953556</ele>
        <time>2020-09-23T10:03:14.475Z</time>
      </trkpt>
      <trkpt lat="65.75159" lon="21.71749">
        <ele>43.129842</ele>
        <time>2020-09-23T10:03:17.482Z</time>
      </trkpt>
      <trkpt lat="65.75151" lon="21.71762">
        <ele>43.306813</ele>
        <time>2020-09-23T10:03:20.511Z</time>
      </trkpt>
      <trkpt lat="65.75143" lon="21.71773">
        <ele>43.470788</ele>
        <time>2020-09-23T10:03:23.460Z</time>
      </trkpt>
      <trkpt lat="65.75133" lon="21.71788">
        <ele>43.676351</ele>
        <time>2020-09-23T10:03:27.480Z</time>
      </trkpt>
      <trkpt lat="65.75123" lon="21.71805">
        <ele>43.886435</ele>
        <time>2020-09-23T10:03:31.484Z</time>
      </trkpt>
      <trkpt lat="65.75116" lon="21.71819">
        <ele>44.055734</ele>
        <time>2020-09-23T10:03:34.487Z</time>
      </trkpt>
      <trkpt lat="65.75108" lon="21.71832">
        <ele>44.223617</ele>
        <time>2020-09-23T10:03:37.456Z</time>
      </trkpt>
      <trkpt lat="65.751" lon="21.71844">
        <ele>44.386183</ele>
        <time>2020-09-23T10:03:40.464Z</time>
      </trkpt>
      <trkpt lat="65.75092" lon="21.71855">
        <ele>44.554642</ele>
        <time>2020-09-23T10:03:43.465Z</time>
      </trkpt>
      <trkpt lat="65.75083" lon="21.71866">
        <ele>44.722246</ele>
        <time>2020-09-23T10:03:46.476Z</time>
      </trkpt>
      <trkpt lat="65.75075" lon="21.71878">
        <ele>44.891596</ele>
        <time>2020-09-23T10:03:49.477Z</time>
      </trkpt>
      <trkpt lat="65.75067" lon="21.71892">
        <ele>45.063926</ele>
        <time>2020-09-23T10:03:52.486Z</time>
      </trkpt>
      <trkpt lat="65.75059" lon="21.71906">
        <ele>45.279197</ele>
        <time>2020-09-23T10:03:55.477Z</time>
      </trkpt>
      <trkpt lat="65.75051" lon="21.71921">
        <ele>45.627485</ele>
        <time>2020-09-23T10:03:58.471Z</time>
      </trkpt>
      <trkpt lat="65.75043" lon="21.71933">
        <ele>45.933488</ele>
        <time>2020-09-23T10:04:01.465Z</time>
      </trkpt>
      <trkpt lat="65.75035" lon="21.71945">
        <ele>46.25228</ele>
        <time>2020-09-23T10:04:04.482Z</time>
      </trkpt>
      <trkpt lat="65.75025" lon="21.71958">
        <ele>46.64355</ele>
        <time>2020-09-23T10:04:08.487Z</time>
      </trkpt>
      <trkpt lat="65.75015" lon="21.71974">
        <ele>47.031527</ele>
        <time>2020-09-23T10:04:12.468Z</time>
      </trkpt>
      <trkpt lat="65.75005" lon="21.71988">
        <ele>47.412708</ele>
        <time>2020-09-23T10:04:16.459Z</time>
      </trkpt>
      <trkpt lat="65.74997" lon="21.72">
        <ele>47.728669</ele>
        <time>2020-09-23T10:04:19.461Z</time>
      </trkpt>
      <trkpt lat="65.7499" lon="21.72013">
        <ele>48.033916</ele>
        <time>2020-09-23T10:04:22.466Z</time>
      </trkpt>
      <trkpt lat="65.74982" lon="21.72026">
        <ele>48.337941</ele>
        <time>2020-09-23T10:04:25.475Z</time>
      </trkpt>
      <trkpt lat="65.74974" lon="21.72036">
        <ele>48.642147</ele>
        <time>2020-09-23T10:04:28.498Z</time>
      </trkpt>
      <trkpt lat="65.74964" lon="21.7205">
        <ele>49.04556</ele>
        <time>2020-09-23T10:04:32.497Z</time>
      </trkpt>
      <trkpt lat="65.74956" lon="21.72063">
        <ele>49.365332</ele>
        <time>2020-09-23T10:04:35.504Z</time>
      </trkpt>
      <trkpt lat="65.74948" lon="21.72077">
        <ele>49.70439</ele>
        <time>2020-09-23T10:04:38.486Z</time>
      </trkpt>
      <trkpt lat="65.7494" lon="21.72089">
        <ele>50.018812</ele>
        <time>2020-09-23T10:04:41.460Z</time>
      </trkpt>
      <trkpt lat="65.74931" lon="21.72099">
        <ele>50.35386</ele>
        <time>2020-09-23T10:04:44.465Z</time>
      </trkpt>
      <trkpt lat="65.74923" lon="21.72109">
        <ele>50.661043</ele>
        <time>2020-09-23T10:04:47.470Z</time>
      </trkpt>
      <trkpt lat="65.74915" lon="21.72122">
        <ele>50.966571</ele>
        <time>2020-09-23T10:04:50.455Z</time>
      </trkpt>
      <trkpt lat="65.74908" lon="21.72134">
        <ele>51.261991</ele>
        <time>2020-09-23T10:04:53.484Z</time>
      </trkpt>
      <trkpt lat="65.749" lon="21.72147">
        <ele>51.467404</ele>
        <time>2020-09-23T10:04:56.481Z</time>
      </trkpt>
      <trkpt lat="65.74893" lon="21.72163">
        <ele>51.690674</ele>
        <time>2020-09-23T10:04:59.480Z</time>
      </trkpt>
      <trkpt lat="65.74885" lon="21.72178">
        <ele>51.904152</ele>
        <time>2020-09-23T10:05:02.485Z</time>
      </trkpt>
      <trkpt lat="65.74877" lon="21.72192">
        <ele>52.119426</ele>
        <time>2020-09-23T10:05:05.466Z</time>
      </trkpt>
      <trkpt lat="65.74871" lon="21.72208">
        <ele>52.316899</ele>
        <time>2020-09-23T10:05:08.480Z</time>
      </trkpt>
      <trkpt lat="65.74863" lon="21.72228">
        <ele>52.577726</ele>
        <time>2020-09-23T10:05:12.478Z</time>
      </trkpt>
      <trkpt lat="65.74855" lon="21.7224">
        <ele>52.778464</ele>
        <time>2020-09-23T10:05:15.495Z</time>
      </trkpt>
      <trkpt lat="65.74848" lon="21.72254">
        <ele>52.981859</ele>
        <time>2020-09-23T10:05:18.516Z</time>
      </trkpt>
      <trkpt lat="65.7484" lon="21.72268">
        <ele>53.193714</ele>
        <time>2020-09-23T10:05:21.469Z</time>
      </trkpt>
      <trkpt lat="65.74831" lon="21.72277">
        <ele>53.409543</ele>
        <time>2020-09-23T10:05:24.455Z</time>
      </trkpt>
      <trkpt lat="65.74823" lon="21.72289">
        <ele>53.625021</ele>
        <time>2020-09-23T10:05:27.475Z</time>
      </trkpt>
      <trkpt lat="65.74814" lon="21.72301">
        <ele>53.847769</ele>
        <time>2020-09-23T10:05:30.458Z</time>
      </trkpt>
      <trkpt lat="65.74807" lon="21.72315">
        <ele>54.059074</ele>
        <time>2020-09-23T10:05:33.458Z</time>
      </trkpt>
      <trkpt lat="65.74799" lon="21.72329">
        <ele>54.272322</ele>
        <time>2020-09-23T10:05:36.498Z</time>
      </trkpt>
      <trkpt lat="65.74791" lon="21.72344">
        <ele>54.492688</ele>
        <time>2020-09-23T10:05:39.468Z</time>
      </trkpt>
      <trkpt lat="65.74784" lon="21.72359">
        <ele>54.702917</ele>
        <time>2020-09-23T10:05:42.465Z</time>
      </trkpt>
      <trkpt lat="65.74777" lon="21.72374">
        <ele>54.907287</ele>
        <time>2020-09-23T10:05:45.473Z</time>
      </trkpt>
      <trkpt lat="65.74769" lon="21.72384">
        <ele>55.110323</ele>
        <time>2020-09-23T10:05:48.478Z</time>
      </trkpt>
      <trkpt lat="65.74761" lon="21.72398">
        <ele>55.206924</ele>
        <time>2020-09-23T10:05:51.467Z</time>
      </trkpt>
      <trkpt lat="65.74753" lon="21.72411">
        <ele>55.131048</ele>
        <time>2020-09-23T10:05:54.521Z</time>
      </trkpt>
      <trkpt lat="65.74744" lon="21.72422">
        <ele>55.056708</ele>
        <time>2020-09-23T10:05:57.466Z</time>
      </trkpt>
      <trkpt lat="65.74733" lon="21.72433">
        <ele>54.964967</ele>
        <time>2020-09-23T10:06:01.477Z</time>
      </trkpt>
      <trkpt lat="65.74723" lon="21.72445">
        <ele>54.877192</ele>
        <time>2020-09-23T10:06:05.473Z</time>
      </trkpt>
      <trkpt lat="65.74712" lon="21.72456">
        <ele>54.78666</ele>
        <time>2020-09-23T10:06:09.472Z</time>
      </trkpt>
      <trkpt lat="65.74704" lon="21.72464">
        <ele>54.715675</ele>
        <time>2020-09-23T10:06:12.475Z</time>
      </trkpt>
      <trkpt lat="65.74693" lon="21.72474">
        <ele>54.6275</ele>
        <time>2020-09-23T10:06:16.462Z</time>
      </trkpt>
      <trkpt lat="65.74682" lon="21.72482">
        <ele>54.540775</ele>
        <time>2020-09-23T10:06:20.457Z</time>
      </trkpt>
      <trkpt lat="65.74673" lon="21.72487">
        <ele>54.465277</ele>
        <time>2020-09-23T10:06:23.464Z</time>
      </trkpt>
      <trkpt lat="65.74664" lon="21.72492">
        <ele>54.394667</ele>
        <time>2020-09-23T10:06:26.466Z</time>
      </trkpt>
      <trkpt lat="65.74655" lon="21.72498">
        <ele>54.323433</ele>
        <time>2020-09-23T10:06:29.473Z</time>
      </trkpt>
      <trkpt lat="65.74644" lon="21.72507">
        <ele>54.233403</ele>
        <time>2020-09-23T10:06:33.479Z</time>
      </trkpt>
      <trkpt lat="65.74635" lon="21.72512">
        <ele>54.162251</ele>
        <time>2020-09-23T10:06:36.459Z</time>
      </trkpt>
      <trkpt lat="65.74626" lon="21.72518">
        <ele>54.089754</ele>
        <time>2020-09-23T10:06:39.465Z</time>
      </trkpt>
      <trkpt lat="65.74615" lon="21.72529">
        <ele>54.001731</ele>
        <time>2020-09-23T10:06:43.476Z</time>
      </trkpt>
      <trkpt lat="65.74604" lon="21.72538">
        <ele>53.912845</ele>
        <time>2020-09-23T10:06:47.483Z</time>
      </trkpt>
      <trkpt lat="65.74593" lon="21.72546">
        <ele>53.965389</ele>
        <time>2020-09-23T10:06:51.453Z</time>
      </trkpt>
      <trkpt lat="65.74582" lon="21.72555">
        <ele>54.339628</ele>
        <time>2020-09-23T10:06:55.466Z</time>
      </trkpt>
      <trkpt lat="65.74571" lon="21.72562">
        <ele>54.695018</ele>
        <time>2020-09-23T10:06:59.469Z</time>
      </trkpt>
      <trkpt lat="65.74562" lon="21.72566">
        <ele>54.986336</ele>
        <time>2020-09-23T10:07:02.466Z</time>
      </trkpt>
      <trkpt lat="65.74551" lon="21.72574">
        <ele>55.355564</ele>
        <time>2020-09-23T10:07:06.476Z</time>
      </trkpt>
      <trkpt lat="65.7454" lon="21.72582">
        <ele>55.721331</ele>
        <time>2020-09-23T10:07:10.467Z</time>
      </trkpt>
      <trkpt lat="65.7453" lon="21.72591">
        <ele>56.080236</ele>
        <time>2020-09-23T10:07:14.460Z</time>
      </trkpt>
      <trkpt lat="65.74519" lon="21.72599">
        <ele>56.439086</ele>
        <time>2020-09-23T10:07:18.466Z</time>
      </trkpt>
      <trkpt lat="65.7451" lon="21.72604">
        <ele>56.729714</ele>
        <time>2020-09-23T10:07:21.561Z</time>
      </trkpt>
      <trkpt lat="65.74499" lon="21.7261">
        <ele>57.102549</ele>
        <time>2020-09-23T10:07:25.462Z</time>
      </trkpt>
      <trkpt lat="65.7449" lon="21.7262">
        <ele>57.433364</ele>
        <time>2020-09-23T10:07:29.477Z</time>
      </trkpt>
      <trkpt lat="65.7448" lon="21.7263">
        <ele>57.762764</ele>
        <time>2020-09-23T10:07:33.456Z</time>
      </trkpt>
      <trkpt lat="65.74471" lon="21.72635">
        <ele>58.07564</ele>
        <time>2020-09-23T10:07:36.456Z</time>
      </trkpt>
      <trkpt lat="65.74461" lon="21.72641">
        <ele>58.386465</ele>
        <time>2020-09-23T10:07:39.466Z</time>
      </trkpt>
      <trkpt lat="65.74453" lon="21.72648">
        <ele>58.686471</ele>
        <time>2020-09-23T10:07:42.480Z</time>
      </trkpt>
      <trkpt lat="65.74441" lon="21.72658">
        <ele>59.077095</ele>
        <time>2020-09-23T10:07:46.488Z</time>
      </trkpt>
      <trkpt lat="65.74431" lon="21.72666">
        <ele>59.419101</ele>
        <time>2020-09-23T10:07:49.474Z</time>
      </trkpt>
      <trkpt lat="65.74421" lon="21.72673">
        <ele>59.745321</ele>
        <time>2020-09-23T10:07:52.496Z</time>
      </trkpt>
      <trkpt lat="65.74411" lon="21.72679">
        <ele>60.046485</ele>
        <time>2020-09-23T10:07:55.495Z</time>
      </trkpt>
      <trkpt lat="65.74401" lon="21.72687">
        <ele>60.337838</ele>
        <time>2020-09-23T10:07:58.473Z</time>
      </trkpt>
      <trkpt lat="65.7439" lon="21.72692">
        <ele>60.637717</ele>
        <time>2020-09-23T10:08:01.466Z</time>
      </trkpt>
      <trkpt lat="65.74381" lon="21.72699">
        <ele>60.92197</ele>
        <time>2020-09-23T10:08:04.494Z</time>
      </trkpt>
      <trkpt lat="65.74372" lon="21.72706">
        <ele>61.198855</ele>
        <time>2020-09-23T10:08:07.470Z</time>
      </trkpt>
      <trkpt lat="65.74362" lon="21.72713">
        <ele>61.484209</ele>
        <time>2020-09-23T10:08:10.530Z</time>
      </trkpt>
      <trkpt lat="65.74352" lon="21.72721">
        <ele>61.782728</ele>
        <time>2020-09-23T10:08:13.478Z</time>
      </trkpt>
      <trkpt lat="65.74342" lon="21.72728">
        <ele>62.078244</ele>
        <time>2020-09-23T10:08:16.468Z</time>
      </trkpt>
      <trkpt lat="65.74333" lon="21.72735">
        <ele>62.351561</ele>
        <time>2020-09-23T10:08:19.463Z</time>
      </trkpt>
      <trkpt lat="65.74324" lon="21.72743">
        <ele>62.627611</ele>
        <time>2020-09-23T10:08:22.463Z</time>
      </trkpt>
      <trkpt lat="65.74313" lon="21.72749">
        <ele>62.948201</ele>
        <time>2020-09-23T10:08:25.530Z</time>
      </trkpt>
      <trkpt lat="65.74302" lon="21.72755">
        <ele>63.25414</ele>
        <time>2020-09-23T10:08:28.473Z</time>
      </trkpt>
      <trkpt lat="65.74292" lon="21.72763">
        <ele>63.566257</ele>
        <time>2020-09-23T10:08:31.471Z</time>
      </trkpt>
      <trkpt lat="65.74281" lon="21.72771">
        <ele>63.890627</ele>
        <time>2020-09-23T10:08:34.467Z</time>
      </trkpt>
      <trkpt lat="65.74271" lon="21.72781">
        <ele>64.210636</ele>
        <time>2020-09-23T10:08:37.471Z</time>
      </trkpt>
      <trkpt lat="65.7426" lon="21.7279">
        <ele>64.530937</ele>
        <time>2020-09-23T10:08:40.457Z</time>
      </trkpt>
      <trkpt lat="65.74249" lon="21.72799">
        <ele>64.632262</ele>
        <time>2020-09-23T10:08:43.500Z</time>
      </trkpt>
      <trkpt lat="65.74237" lon="21.72807">
        <ele>64.259989</ele>
        <time>2020-09-23T10:08:46.456Z</time>
      </trkpt>
      <trkpt lat="65.74225" lon="21.72816">
        <ele>63.884285</ele>
        <time>2020-09-23T10:08:49.499Z</time>
      </trkpt>
      <trkpt lat="65.74214" lon="21.72824">
        <ele>63.523988</ele>
        <time>2020-09-23T10:08:52.490Z</time>
      </trkpt>
      <trkpt lat="65.74203" lon="21.72832">
        <ele>63.16148</ele>
        <time>2020-09-23T10:08:55.489Z</time>
      </trkpt>
      <trkpt lat="65.74192" lon="21.72842">
        <ele>62.821059</ele>
        <time>2020-09-23T10:08:58.465Z</time>
      </trkpt>
      <trkpt lat="65.7418" lon="21.72849">
        <ele>62.44822</ele>
        <time>2020-09-23T10:09:01.458Z</time>
      </trkpt>
      <trkpt lat="65.74169" lon="21.72856">
        <ele>62.086674</ele>
        <time>2020-09-23T10:09:04.463Z</time>
      </trkpt>
      <trkpt lat="65.74159" lon="21.72865">
        <ele>61.771118</ele>
        <time>2020-09-23T10:09:07.482Z</time>
      </trkpt>
      <trkpt lat="65.74148" lon="21.72872">
        <ele>61.421102</ele>
        <time>2020-09-23T10:09:10.460Z</time>
      </trkpt>
      <trkpt lat="65.74136" lon="21.72878">
        <ele>61.038775</ele>
        <time>2020-09-23T10:09:13.455Z</time>
      </trkpt>
      <trkpt lat="65.74124" lon="21.72886">
        <ele>60.675995</ele>
        <time>2020-09-23T10:09:16.496Z</time>
      </trkpt>
      <trkpt lat="65.74113" lon="21.72894">
        <ele>60.308641</ele>
        <time>2020-09-23T10:09:19.479Z</time>
      </trkpt>
      <trkpt lat="65.74101" lon="21.72903">
        <ele>59.935441</ele>
        <time>2020-09-23T10:09:22.456Z</time>
      </trkpt>
      <trkpt lat="65.7409" lon="21.72915">
        <ele>59.570264</ele>
        <time>2020-09-23T10:09:25.467Z</time>
      </trkpt>
      <trkpt lat="65.7408" lon="21.72928">
        <ele>59.245727</ele>
        <time>2020-09-23T10:09:28.467Z</time>
      </trkpt>
      <trkpt lat="65.74069" lon="21.7294">
        <ele>59.132031</ele>
        <time>2020-09-23T10:09:31.473Z</time>
      </trkpt>
      <trkpt lat="65.74057" lon="21.72953">
        <ele>59.011965</ele>
        <time>2020-09-23T10:09:34.501Z</time>
      </trkpt>
      <trkpt lat="65.74047" lon="21.72969">
        <ele>58.892863</ele>
        <time>2020-09-23T10:09:37.484Z</time>
      </trkpt>
      <trkpt lat="65.74036" lon="21.72986">
        <ele>58.7721</ele>
        <time>2020-09-23T10:09:40.509Z</time>
      </trkpt>
      <trkpt lat="65.74024" lon="21.73001">
        <ele>58.646381</ele>
        <time>2020-09-23T10:09:43.482Z</time>
      </trkpt>
      <trkpt lat="65.74013" lon="21.73017">
        <ele>58.521183</ele>
        <time>2020-09-23T10:09:46.485Z</time>
      </trkpt>
      <trkpt lat="65.74002" lon="21.73036">
        <ele>58.395566</ele>
        <time>2020-09-23T10:09:49.509Z</time>
      </trkpt>
      <trkpt lat="65.73995" lon="21.73049">
        <ele>58.310309</ele>
        <time>2020-09-23T10:09:51.466Z</time>
      </trkpt>
      <trkpt lat="65.73987" lon="21.73061">
        <ele>58.223096</ele>
        <time>2020-09-23T10:09:53.475Z</time>
      </trkpt>
      <trkpt lat="65.7398" lon="21.73073">
        <ele>58.137972</ele>
        <time>2020-09-23T10:09:55.479Z</time>
      </trkpt>
      <trkpt lat="65.73972" lon="21.73086">
        <ele>58.05019</ele>
        <time>2020-09-23T10:09:57.466Z</time>
      </trkpt>
      <trkpt lat="65.73964" lon="21.73098">
        <ele>57.963413</ele>
        <time>2020-09-23T10:09:59.450Z</time>
      </trkpt>
      <trkpt lat="65.73957" lon="21.73112">
        <ele>57.876224</ele>
        <time>2020-09-23T10:10:01.470Z</time>
      </trkpt>
      <trkpt lat="65.7395" lon="21.73125">
        <ele>57.789973</ele>
        <time>2020-09-23T10:10:03.465Z</time>
      </trkpt>
      <trkpt lat="65.73943" lon="21.73138">
        <ele>57.70487</ele>
        <time>2020-09-23T10:10:05.483Z</time>
      </trkpt>
      <trkpt lat="65.73931" lon="21.73156">
        <ele>57.577058</ele>
        <time>2020-09-23T10:10:08.459Z</time>
      </trkpt>
      <trkpt lat="65.73924" lon="21.73169">
        <ele>57.585749</ele>
        <time>2020-09-23T10:10:10.468Z</time>
      </trkpt>
      <trkpt lat="65.73916" lon="21.73179">
        <ele>57.625133</ele>
        <time>2020-09-23T10:10:12.474Z</time>
      </trkpt>
      <trkpt lat="65.73908" lon="21.73191">
        <ele>57.665714</ele>
        <time>2020-09-23T10:10:14.488Z</time>
      </trkpt>
      <trkpt lat="65.739" lon="21.73203">
        <ele>57.70796</ele>
        <time>2020-09-23T10:10:16.505Z</time>
      </trkpt>
      <trkpt lat="65.73891" lon="21.73217">
        <ele>57.751153</ele>
        <time>2020-09-23T10:10:18.459Z</time>
      </trkpt>
      <trkpt lat="65.73883" lon="21.73229">
        <ele>57.793855</ele>
        <time>2020-09-23T10:10:20.468Z</time>
      </trkpt>
      <trkpt lat="65.73875" lon="21.73242">
        <ele>57.83665</ele>
        <time>2020-09-23T10:10:22.495Z</time>
      </trkpt>
      <trkpt lat="65.73866" lon="21.73254">
        <ele>57.878993</ele>
        <time>2020-09-23T10:10:24.487Z</time>
      </trkpt>
      <trkpt lat="65.73859" lon="21.73268">
        <ele>57.920594</ele>
        <time>2020-09-23T10:10:26.479Z</time>
      </trkpt>
      <trkpt lat="65.7385" lon="21.73281">
        <ele>57.963625</ele>
        <time>2020-09-23T10:10:28.479Z</time>
      </trkpt>
      <trkpt lat="65.73843" lon="21.73296">
        <ele>58.006286</ele>
        <time>2020-09-23T10:10:30.475Z</time>
      </trkpt>
      <trkpt lat="65.73834" lon="21.7331">
        <ele>58.050337</ele>
        <time>2020-09-23T10:10:32.483Z</time>
      </trkpt>
      <trkpt lat="65.73826" lon="21.73323">
        <ele>58.091688</ele>
        <time>2020-09-23T10:10:34.476Z</time>
      </trkpt>
      <trkpt lat="65.73818" lon="21.73337">
        <ele>58.135955</ele>
        <time>2020-09-23T10:10:36.464Z</time>
      </trkpt>
      <trkpt lat="65.73809" lon="21.73351">
        <ele>58.180898</ele>
        <time>2020-09-23T10:10:38.475Z</time>
      </trkpt>
      <trkpt lat="65.73801" lon="21.73364">
        <ele>58.225746</ele>
        <time>2020-09-23T10:10:40.482Z</time>
      </trkpt>
      <trkpt lat="65.73791" lon="21.73379">
        <ele>58.27368</ele>
        <time>2020-09-23T10:10:42.483Z</time>
      </trkpt>
      <trkpt lat="65.73782" lon="21.73394">
        <ele>58.324463</ele>
        <time>2020-09-23T10:10:44.478Z</time>
      </trkpt>
      <trkpt lat="65.73771" lon="21.73411">
        <ele>58.248558</ele>
        <time>2020-09-23T10:10:46.477Z</time>
      </trkpt>
      <trkpt lat="65.73761" lon="21.73427">
        <ele>58.130186</ele>
        <time>2020-09-23T10:10:48.460Z</time>
      </trkpt>
      <trkpt lat="65.73751" lon="21.73445">
        <ele>58.012167</ele>
        <time>2020-09-23T10:10:50.514Z</time>
      </trkpt>
      <trkpt lat="65.73741" lon="21.73464">
        <ele>57.888727</ele>
        <time>2020-09-23T10:10:52.461Z</time>
      </trkpt>
      <trkpt lat="65.7373" lon="21.73483">
        <ele>57.763368</ele>
        <time>2020-09-23T10:10:54.460Z</time>
      </trkpt>
      <trkpt lat="65.73719" lon="21.73502">
        <ele>57.634406</ele>
        <time>2020-09-23T10:10:56.459Z</time>
      </trkpt>
      <trkpt lat="65.73707" lon="21.73519">
        <ele>57.502321</ele>
        <time>2020-09-23T10:10:58.485Z</time>
      </trkpt>
      <trkpt lat="65.73695" lon="21.73535">
        <ele>57.371302</ele>
        <time>2020-09-23T10:11:00.458Z</time>
      </trkpt>
      <trkpt lat="65.73683" lon="21.73552">
        <ele>57.239411</ele>
        <time>2020-09-23T10:11:02.474Z</time>
      </trkpt>
      <trkpt lat="65.73672" lon="21.73571">
        <ele>57.10706</ele>
        <time>2020-09-23T10:11:04.480Z</time>
      </trkpt>
      <trkpt lat="65.73661" lon="21.73591">
        <ele>56.97643</ele>
        <time>2020-09-23T10:11:06.467Z</time>
      </trkpt>
      <trkpt lat="65.73649" lon="21.73608">
        <ele>56.845628</ele>
        <time>2020-09-23T10:11:08.481Z</time>
      </trkpt>
      <trkpt lat="65.73638" lon="21.73623">
        <ele>56.723942</ele>
        <time>2020-09-23T10:11:10.524Z</time>
      </trkpt>
      <trkpt lat="65.73628" lon="21.73639">
        <ele>56.584933</ele>
        <time>2020-09-23T10:11:12.498Z</time>
      </trkpt>
      <trkpt lat="65.73617" lon="21.73655">
        <ele>56.25874</ele>
        <time>2020-09-23T10:11:14.475Z</time>
      </trkpt>
      <trkpt lat="65.73606" lon="21.73669">
        <ele>55.935076</ele>
        <time>2020-09-23T10:11:16.497Z</time>
      </trkpt>
      <trkpt lat="65.73594" lon="21.73681">
        <ele>55.621502</ele>
        <time>2020-09-23T10:11:18.467Z</time>
      </trkpt>
      <trkpt lat="65.73583" lon="21.73693">
        <ele>55.300563</ele>
        <time>2020-09-23T10:11:20.471Z</time>
      </trkpt>
      <trkpt lat="65.73571" lon="21.73703">
        <ele>54.976008</ele>
        <time>2020-09-23T10:11:22.497Z</time>
      </trkpt>
      <trkpt lat="65.73559" lon="21.73711">
        <ele>54.647817</ele>
        <time>2020-09-23T10:11:24.455Z</time>
      </trkpt>
      <trkpt lat="65.73547" lon="21.7372">
        <ele>54.346688</ele>
        <time>2020-09-23T10:11:26.477Z</time>
      </trkpt>
      <trkpt lat="65.73536" lon="21.73727">
        <ele>54.033919</ele>
        <time>2020-09-23T10:11:28.461Z</time>
      </trkpt>
      <trkpt lat="65.73523" lon="21.73732">
        <ele>53.711132</ele>
        <time>2020-09-23T10:11:30.458Z</time>
      </trkpt>
      <trkpt lat="65.73511" lon="21.73739">
        <ele>53.391019</ele>
        <time>2020-09-23T10:11:32.462Z</time>
      </trkpt>
      <trkpt lat="65.73499" lon="21.73744">
        <ele>53.070401</ele>
        <time>2020-09-23T10:11:34.456Z</time>
      </trkpt>
      <trkpt lat="65.73485" lon="21.73746">
        <ele>52.720557</ele>
        <time>2020-09-23T10:11:36.460Z</time>
      </trkpt>
      <trkpt lat="65.73471" lon="21.73748">
        <ele>52.36822</ele>
        <time>2020-09-23T10:11:38.472Z</time>
      </trkpt>
      <trkpt lat="65.73459" lon="21.73753">
        <ele>52.040195</ele>
        <time>2020-09-23T10:11:40.477Z</time>
      </trkpt>
      <trkpt lat="65.73446" lon="21.73757">
        <ele>51.858285</ele>
        <time>2020-09-23T10:11:42.507Z</time>
      </trkpt>
      <trkpt lat="65.73433" lon="21.73759">
        <ele>51.696332</ele>
        <time>2020-09-23T10:11:44.464Z</time>
      </trkpt>
      <trkpt lat="65.7342" lon="21.73762">
        <ele>51.534892</ele>
        <time>2020-09-23T10:11:46.466Z</time>
      </trkpt>
      <trkpt lat="65.73408" lon="21.73766">
        <ele>51.379414</ele>
        <time>2020-09-23T10:11:48.455Z</time>
      </trkpt>
      <trkpt lat="65.73397" lon="21.73771">
        <ele>51.234715</ele>
        <time>2020-09-23T10:11:50.470Z</time>
      </trkpt>
      <trkpt lat="65.73386" lon="21.73778">
        <ele>51.100011</ele>
        <time>2020-09-23T10:11:52.491Z</time>
      </trkpt>
      <trkpt lat="65.73375" lon="21.73782">
        <ele>50.952121</ele>
        <time>2020-09-23T10:11:54.481Z</time>
      </trkpt>
      <trkpt lat="65.73363" lon="21.73785">
        <ele>50.803625</ele>
        <time>2020-09-23T10:11:56.464Z</time>
      </trkpt>
      <trkpt lat="65.73352" lon="21.73787">
        <ele>50.663909</ele>
        <time>2020-09-23T10:11:58.485Z</time>
      </trkpt>
      <trkpt lat="65.7334" lon="21.73789">
        <ele>50.523278</ele>
        <time>2020-09-23T10:12:00.522Z</time>
      </trkpt>
      <trkpt lat="65.7333" lon="21.73794">
        <ele>50.396046</ele>
        <time>2020-09-23T10:12:02.479Z</time>
      </trkpt>
      <trkpt lat="65.73321" lon="21.73799">
        <ele>50.279396</ele>
        <time>2020-09-23T10:12:04.462Z</time>
      </trkpt>
      <trkpt lat="65.73313" lon="21.73807">
        <ele>50.1624</ele>
        <time>2020-09-23T10:12:06.480Z</time>
      </trkpt>
      <trkpt lat="65.73304" lon="21.73813">
        <ele>50.045346</ele>
        <time>2020-09-23T10:12:08.471Z</time>
      </trkpt>
      <trkpt lat="65.73291" lon="21.73822">
        <ele>49.879108</ele>
        <time>2020-09-23T10:12:11.471Z</time>
      </trkpt>
      <trkpt lat="65.73282" lon="21.73823">
        <ele>49.764757</ele>
        <time>2020-09-23T10:12:13.500Z</time>
      </trkpt>
      <trkpt lat="65.73269" lon="21.73827">
        <ele>49.704374</ele>
        <time>2020-09-23T10:12:16.493Z</time>
      </trkpt>
      <trkpt lat="65.73257" lon="21.73834">
        <ele>49.660936</ele>
        <time>2020-09-23T10:12:19.476Z</time>
      </trkpt>
      <trkpt lat="65.73245" lon="21.7384">
        <ele>49.616831</ele>
        <time>2020-09-23T10:12:22.459Z</time>
      </trkpt>
      <trkpt lat="65.73232" lon="21.73843">
        <ele>49.572063</ele>
        <time>2020-09-23T10:12:25.463Z</time>
      </trkpt>
      <trkpt lat="65.73223" lon="21.73845">
        <ele>49.539359</ele>
        <time>2020-09-23T10:12:27.499Z</time>
      </trkpt>
      <trkpt lat="65.73214" lon="21.73845">
        <ele>49.50635</ele>
        <time>2020-09-23T10:12:29.478Z</time>
      </trkpt>
      <trkpt lat="65.73205" lon="21.73846">
        <ele>49.4726</ele>
        <time>2020-09-23T10:12:31.463Z</time>
      </trkpt>
      <trkpt lat="65.73193" lon="21.73853">
        <ele>49.428846</ele>
        <time>2020-09-23T10:12:34.488Z</time>
      </trkpt>
      <trkpt lat="65.73181" lon="21.73862">
        <ele>49.383662</ele>
        <time>2020-09-23T10:12:37.493Z</time>
      </trkpt>
      <trkpt lat="65.73172" lon="21.73866">
        <ele>49.351137</ele>
        <time>2020-09-23T10:12:39.473Z</time>
      </trkpt>
      <trkpt lat="65.73163" lon="21.7387">
        <ele>49.318391</ele>
        <time>2020-09-23T10:12:41.491Z</time>
      </trkpt>
      <trkpt lat="65.73153" lon="21.73873">
        <ele>49.283587</ele>
        <time>2020-09-23T10:12:43.466Z</time>
      </trkpt>
      <trkpt lat="65.73144" lon="21.73877">
        <ele>49.250202</ele>
        <time>2020-09-23T10:12:45.502Z</time>
      </trkpt>
      <trkpt lat="65.73135" lon="21.73881">
        <ele>49.217325</ele>
        <time>2020-09-23T10:12:47.495Z</time>
      </trkpt>
      <trkpt lat="65.73126" lon="21.73882">
        <ele>49.183519</ele>
        <time>2020-09-23T10:12:49.453Z</time>
      </trkpt>
      <trkpt lat="65.73116" lon="21.73883">
        <ele>49.149433</ele>
        <time>2020-09-23T10:12:51.507Z</time>
      </trkpt>
      <trkpt lat="65.73107" lon="21.73884">
        <ele>49.116746</ele>
        <time>2020-09-23T10:12:53.484Z</time>
      </trkpt>
      <trkpt lat="65.73094" lon="21.73888">
        <ele>48.936895</ele>
        <time>2020-09-23T10:12:56.478Z</time>
      </trkpt>
      <trkpt lat="65.73082" lon="21.73892">
        <ele>48.68966</ele>
        <time>2020-09-23T10:12:59.468Z</time>
      </trkpt>
      <trkpt lat="65.73069" lon="21.73899">
        <ele>48.433579</ele>
        <time>2020-09-23T10:13:02.479Z</time>
      </trkpt>
      <trkpt lat="65.73057" lon="21.73907">
        <ele>48.192647</ele>
        <time>2020-09-23T10:13:05.459Z</time>
      </trkpt>
      <trkpt lat="65.73045" lon="21.73916">
        <ele>47.957125</ele>
        <time>2020-09-23T10:13:08.468Z</time>
      </trkpt>
      <trkpt lat="65.73033" lon="21.73927">
        <ele>47.703694</ele>
        <time>2020-09-23T10:13:11.461Z</time>
      </trkpt>
      <trkpt lat="65.73021" lon="21.73939">
        <ele>47.445203</ele>
        <time>2020-09-23T10:13:14.487Z</time>
      </trkpt>
      <trkpt lat="65.73012" lon="21.73947">
        <ele>47.270936</ele>
        <time>2020-09-23T10:13:16.478Z</time>
      </trkpt>
      <trkpt lat="65.73" lon="21.73961">
        <ele>47.005881</ele>
        <time>2020-09-23T10:13:19.489Z</time>
      </trkpt>
      <trkpt lat="65.72992" lon="21.73971">
        <ele>46.827807</ele>
        <time>2020-09-23T10:13:21.466Z</time>
      </trkpt>
      <trkpt lat="65.72984" lon="21.73982">
        <ele>46.648218</ele>
        <time>2020-09-23T10:13:23.455Z</time>
      </trkpt>
      <trkpt lat="65.72973" lon="21.73998">
        <ele>46.399829</ele>
        <time>2020-09-23T10:13:26.469Z</time>
      </trkpt>
      <trkpt lat="65.72962" lon="21.74016">
        <ele>46.151581</ele>
        <time>2020-09-23T10:13:29.484Z</time>
      </trkpt>
      <trkpt lat="65.72952" lon="21.74035">
        <ele>45.894065</ele>
        <time>2020-09-23T10:13:32.487Z</time>
      </trkpt>
      <trkpt lat="65.72944" lon="21.74049">
        <ele>45.715564</ele>
        <time>2020-09-23T10:13:34.477Z</time>
      </trkpt>
      <trkpt lat="65.72937" lon="21.74063">
        <ele>45.594592</ele>
        <time>2020-09-23T10:13:36.495Z</time>
      </trkpt>
      <trkpt lat="65.7293" lon="21.74077">
        <ele>45.560857</ele>
        <time>2020-09-23T10:13:38.466Z</time>
      </trkpt>
      <trkpt lat="65.72923" lon="21.74091">
        <ele>45.527796</ele>
        <time>2020-09-23T10:13:40.497Z</time>
      </trkpt>
      <trkpt lat="65.72916" lon="21.74105">
        <ele>45.494454</ele>
        <time>2020-09-23T10:13:42.461Z</time>
      </trkpt>
      <trkpt lat="65.72906" lon="21.74127">
        <ele>45.447753</ele>
        <time>2020-09-23T10:13:45.485Z</time>
      </trkpt>
      <trkpt lat="65.72897" lon="21.74147">
        <ele>45.401268</ele>
        <time>2020-09-23T10:13:48.519Z</time>
      </trkpt>
      <trkpt lat="65.72889" lon="21.7416">
        <ele>45.368467</ele>
        <time>2020-09-23T10:13:50.516Z</time>
      </trkpt>
      <trkpt lat="65.7288" lon="21.74179">
        <ele>45.322843</ele>
        <time>2020-09-23T10:13:53.471Z</time>
      </trkpt>
      <trkpt lat="65.72869" lon="21.74198">
        <ele>45.275701</ele>
        <time>2020-09-23T10:13:56.473Z</time>
      </trkpt>
      <trkpt lat="65.7286" lon="21.74219">
        <ele>45.227827</ele>
        <time>2020-09-23T10:13:59.512Z</time>
      </trkpt>
      <trkpt lat="65.72853" lon="21.74235">
        <ele>45.194709</ele>
        <time>2020-09-23T10:14:01.453Z</time>
      </trkpt>
      <trkpt lat="65.72844" lon="21.74256">
        <ele>45.147182</ele>
        <time>2020-09-23T10:14:04.475Z</time>
      </trkpt>
      <trkpt lat="65.72835" lon="21.74278">
        <ele>45.102891</ele>
        <time>2020-09-23T10:14:07.466Z</time>
      </trkpt>
      <trkpt lat="65.72825" lon="21.74297">
        <ele>45.05584</ele>
        <time>2020-09-23T10:14:10.491Z</time>
      </trkpt>
      <trkpt lat="65.72814" lon="21.74316">
        <ele>45.006838</ele>
        <time>2020-09-23T10:14:13.485Z</time>
      </trkpt>
      <trkpt lat="65.72804" lon="21.74337">
        <ele>44.958366</ele>
        <time>2020-09-23T10:14:16.474Z</time>
      </trkpt>
      <trkpt lat="65.72798" lon="21.74352">
        <ele>45.020752</ele>
        <time>2020-09-23T10:14:18.482Z</time>
      </trkpt>
      <trkpt lat="65.72789" lon="21.74375">
        <ele>45.13645</ele>
        <time>2020-09-23T10:14:21.501Z</time>
      </trkpt>
      <trkpt lat="65.72783" lon="21.74391">
        <ele>45.216334</ele>
        <time>2020-09-23T10:14:23.462Z</time>
      </trkpt>
      <trkpt lat="65.72776" lon="21.74408">
        <ele>45.299148</ele>
        <time>2020-09-23T10:14:25.455Z</time>
      </trkpt>
      <trkpt lat="65.72769" lon="21.74421">
        <ele>45.37954</ele>
        <time>2020-09-23T10:14:27.475Z</time>
      </trkpt>
      <trkpt lat="65.72758" lon="21.74438">
        <ele>45.494404</ele>
        <time>2020-09-23T10:14:30.460Z</time>
      </trkpt>
      <trkpt lat="65.72749" lon="21.74458">
        <ele>45.6059</ele>
        <time>2020-09-23T10:14:33.460Z</time>
      </trkpt>
      <trkpt lat="65.72739" lon="21.74478">
        <ele>45.721336</ele>
        <time>2020-09-23T10:14:36.462Z</time>
      </trkpt>
      <trkpt lat="65.72732" lon="21.74491">
        <ele>45.803762</ele>
        <time>2020-09-23T10:14:38.492Z</time>
      </trkpt>
      <trkpt lat="65.72724" lon="21.74504">
        <ele>45.887547</ele>
        <time>2020-09-23T10:14:40.450Z</time>
      </trkpt>
      <trkpt lat="65.72717" lon="21.74518">
        <ele>45.971122</ele>
        <time>2020-09-23T10:14:42.470Z</time>
      </trkpt>
      <trkpt lat="65.72709" lon="21.74533">
        <ele>46.057235</ele>
        <time>2020-09-23T10:14:44.498Z</time>
      </trkpt>
      <trkpt lat="65.72702" lon="21.74547">
        <ele>46.138044</ele>
        <time>2020-09-23T10:14:46.501Z</time>
      </trkpt>
      <trkpt lat="65.72695" lon="21.74562">
        <ele>46.223235</ele>
        <time>2020-09-23T10:14:48.480Z</time>
      </trkpt>
      <trkpt lat="65.72688" lon="21.74578">
        <ele>46.308249</ele>
        <time>2020-09-23T10:14:50.482Z</time>
      </trkpt>
      <trkpt lat="65.7268" lon="21.74592">
        <ele>46.39252</ele>
        <time>2020-09-23T10:14:52.472Z</time>
      </trkpt>
      <trkpt lat="65.72673" lon="21.74606">
        <ele>46.475442</ele>
        <time>2020-09-23T10:14:54.467Z</time>
      </trkpt>
      <trkpt lat="65.72666" lon="21.74621">
        <ele>46.556214</ele>
        <time>2020-09-23T10:14:56.508Z</time>
      </trkpt>
      <trkpt lat="65.72659" lon="21.74634">
        <ele>46.292547</ele>
        <time>2020-09-23T10:14:58.471Z</time>
      </trkpt>
      <trkpt lat="65.72652" lon="21.74649">
        <ele>46.027439</ele>
        <time>2020-09-23T10:15:00.465Z</time>
      </trkpt>
      <trkpt lat="65.72642" lon="21.74672">
        <ele>45.641828</ele>
        <time>2020-09-23T10:15:03.466Z</time>
      </trkpt>
      <trkpt lat="65.72635" lon="21.74686">
        <ele>45.361185</ele>
        <time>2020-09-23T10:15:05.461Z</time>
      </trkpt>
      <trkpt lat="65.72626" lon="21.747">
        <ele>45.07636</ele>
        <time>2020-09-23T10:15:07.476Z</time>
      </trkpt>
      <trkpt lat="65.72619" lon="21.74714">
        <ele>44.79482</ele>
        <time>2020-09-23T10:15:09.503Z</time>
      </trkpt>
      <trkpt lat="65.7261" lon="21.74727">
        <ele>44.512287</ele>
        <time>2020-09-23T10:15:11.470Z</time>
      </trkpt>
      <trkpt lat="65.72604" lon="21.74743">
        <ele>44.252396</ele>
        <time>2020-09-23T10:15:13.473Z</time>
      </trkpt>
      <trkpt lat="65.72597" lon="21.74758">
        <ele>43.986499</ele>
        <time>2020-09-23T10:15:15.468Z</time>
      </trkpt>
      <trkpt lat="65.7259" lon="21.74775">
        <ele>43.705474</ele>
        <time>2020-09-23T10:15:17.474Z</time>
      </trkpt>
      <trkpt lat="65.72583" lon="21.74792">
        <ele>43.420045</ele>
        <time>2020-09-23T10:15:19.490Z</time>
      </trkpt>
      <trkpt lat="65.72576" lon="21.74808">
        <ele>43.138233</ele>
        <time>2020-09-23T10:15:21.474Z</time>
      </trkpt>
      <trkpt lat="65.72568" lon="21.74823">
        <ele>42.853157</ele>
        <time>2020-09-23T10:15:23.467Z</time>
      </trkpt>
      <trkpt lat="65.7256" lon="21.74836">
        <ele>42.565977</ele>
        <time>2020-09-23T10:15:25.471Z</time>
      </trkpt>
      <trkpt lat="65.72551" lon="21.74848">
        <ele>42.283591</ele>
        <time>2020-09-23T10:15:27.480Z</time>
      </trkpt>
      <trkpt lat="65.72543" lon="21.74861">
        <ele>42.00715</ele>
        <time>2020-09-23T10:15:29.478Z</time>
      </trkpt>
      <trkpt lat="65.72535" lon="21.74874">
        <ele>41.731363</ele>
        <time>2020-09-23T10:15:31.476Z</time>
      </trkpt>
      <trkpt lat="65.72527" lon="21.74889">
        <ele>41.435076</ele>
        <time>2020-09-23T10:15:33.462Z</time>
      </trkpt>
      <trkpt lat="65.72518" lon="21.74903">
        <ele>41.287497</ele>
        <time>2020-09-23T10:15:35.476Z</time>
      </trkpt>
      <trkpt lat="65.7251" lon="21.74917">
        <ele>41.166601</ele>
        <time>2020-09-23T10:15:37.487Z</time>
      </trkpt>
      <trkpt lat="65.72501" lon="21.74931">
        <ele>41.047292</ele>
        <time>2020-09-23T10:15:39.466Z</time>
      </trkpt>
      <trkpt lat="65.72492" lon="21.74944">
        <ele>40.929278</ele>
        <time>2020-09-23T10:15:41.470Z</time>
      </trkpt>
      <trkpt lat="65.72484" lon="21.74958">
        <ele>40.809612</ele>
        <time>2020-09-23T10:15:43.461Z</time>
      </trkpt>
      <trkpt lat="65.72475" lon="21.74972">
        <ele>40.684883</ele>
        <time>2020-09-23T10:15:45.472Z</time>
      </trkpt>
      <trkpt lat="65.72465" lon="21.74985">
        <ele>40.555371</ele>
        <time>2020-09-23T10:15:47.467Z</time>
      </trkpt>
      <trkpt lat="65.72456" lon="21.74999">
        <ele>40.427145</ele>
        <time>2020-09-23T10:15:49.500Z</time>
      </trkpt>
      <trkpt lat="65.72447" lon="21.75013">
        <ele>40.304384</ele>
        <time>2020-09-23T10:15:51.524Z</time>
      </trkpt>
      <trkpt lat="65.72439" lon="21.75026">
        <ele>40.191316</ele>
        <time>2020-09-23T10:15:53.464Z</time>
      </trkpt>
      <trkpt lat="65.7243" lon="21.7504">
        <ele>40.071897</ele>
        <time>2020-09-23T10:15:55.462Z</time>
      </trkpt>
      <trkpt lat="65.72422" lon="21.75055">
        <ele>39.954542</ele>
        <time>2020-09-23T10:15:57.456Z</time>
      </trkpt>
      <trkpt lat="65.72414" lon="21.75066">
        <ele>39.840164</ele>
        <time>2020-09-23T10:15:59.473Z</time>
      </trkpt>
      <trkpt lat="65.72404" lon="21.75077">
        <ele>39.721759</ele>
        <time>2020-09-23T10:16:01.514Z</time>
      </trkpt>
      <trkpt lat="65.72395" lon="21.75092">
        <ele>39.59373</ele>
        <time>2020-09-23T10:16:03.479Z</time>
      </trkpt>
      <trkpt lat="65.72386" lon="21.75108">
        <ele>39.459179</ele>
        <time>2020-09-23T10:16:05.479Z</time>
      </trkpt>
      <trkpt lat="65.72376" lon="21.75124">
        <ele>39.322732</ele>
        <time>2020-09-23T10:16:07.482Z</time>
      </trkpt>
      <trkpt lat="65.72367" lon="21.75141">
        <ele>38.964566</ele>
        <time>2020-09-23T10:16:09.457Z</time>
      </trkpt>
      <trkpt lat="65.72358" lon="21.75158">
        <ele>38.563623</ele>
        <time>2020-09-23T10:16:11.505Z</time>
      </trkpt>
      <trkpt lat="65.72348" lon="21.75177">
        <ele>38.121255</ele>
        <time>2020-09-23T10:16:13.485Z</time>
      </trkpt>
      <trkpt lat="65.72338" lon="21.75199">
        <ele>37.661361</ele>
        <time>2020-09-23T10:16:15.479Z</time>
      </trkpt>
      <trkpt lat="65.72328" lon="21.75219">
        <ele>37.215696</ele>
        <time>2020-09-23T10:16:17.486Z</time>
      </trkpt>
      <trkpt lat="65.7232" lon="21.75239">
        <ele>36.811349</ele>
        <time>2020-09-23T10:16:19.498Z</time>
      </trkpt>
      <trkpt lat="65.72313" lon="21.7526">
        <ele>36.416038</ele>
        <time>2020-09-23T10:16:21.472Z</time>
      </trkpt>
      <trkpt lat="65.72305" lon="21.75283">
        <ele>36.002912</ele>
        <time>2020-09-23T10:16:23.486Z</time>
      </trkpt>
      <trkpt lat="65.72297" lon="21.75306">
        <ele>35.562057</ele>
        <time>2020-09-23T10:16:25.476Z</time>
      </trkpt>
      <trkpt lat="65.72289" lon="21.7533">
        <ele>35.116942</ele>
        <time>2020-09-23T10:16:27.461Z</time>
      </trkpt>
      <trkpt lat="65.72282" lon="21.75353">
        <ele>34.693748</ele>
        <time>2020-09-23T10:16:29.480Z</time>
      </trkpt>
      <trkpt lat="65.72274" lon="21.75375">
        <ele>34.287386</ele>
        <time>2020-09-23T10:16:31.512Z</time>
      </trkpt>
      <trkpt lat="65.72267" lon="21.75398">
        <ele>33.877636</ele>
        <time>2020-09-23T10:16:33.484Z</time>
      </trkpt>
      <trkpt lat="65.72259" lon="21.7542">
        <ele>33.464628</ele>
        <time>2020-09-23T10:16:35.478Z</time>
      </trkpt>
      <trkpt lat="65.72252" lon="21.75443">
        <ele>33.046082</ele>
        <time>2020-09-23T10:16:37.478Z</time>
      </trkpt>
      <trkpt lat="65.72243" lon="21.75463">
        <ele>32.741735</ele>
        <time>2020-09-23T10:16:39.463Z</time>
      </trkpt>
      <trkpt lat="65.72235" lon="21.75483">
        <ele>32.448602</ele>
        <time>2020-09-23T10:16:41.472Z</time>
      </trkpt>
      <trkpt lat="65.72226" lon="21.75501">
        <ele>32.162531</ele>
        <time>2020-09-23T10:16:43.492Z</time>
      </trkpt>
      <trkpt lat="65.72217" lon="21.75518">
        <ele>31.883615</ele>
        <time>2020-09-23T10:16:45.499Z</time>
      </trkpt>
      <trkpt lat="65.72208" lon="21.75534">
        <ele>31.603797</ele>
        <time>2020-09-23T10:16:47.463Z</time>
      </trkpt>
      <trkpt lat="65.72199" lon="21.75549">
        <ele>31.329142</ele>
        <time>2020-09-23T10:16:49.472Z</time>
      </trkpt>
      <trkpt lat="65.72189" lon="21.75563">
        <ele>31.051928</ele>
        <time>2020-09-23T10:16:51.470Z</time>
      </trkpt>
      <trkpt lat="65.72179" lon="21.75576">
        <ele>30.77228</ele>
        <time>2020-09-23T10:16:53.497Z</time>
      </trkpt>
      <trkpt lat="65.7217" lon="21.7559">
        <ele>30.500296</ele>
        <time>2020-09-23T10:16:55.492Z</time>
      </trkpt>
      <trkpt lat="65.7216" lon="21.75602">
        <ele>30.234958</ele>
        <time>2020-09-23T10:16:57.458Z</time>
      </trkpt>
      <trkpt lat="65.72151" lon="21.75612">
        <ele>29.974194</ele>
        <time>2020-09-23T10:16:59.466Z</time>
      </trkpt>
      <trkpt lat="65.72141" lon="21.75623">
        <ele>29.705523</ele>
        <time>2020-09-23T10:17:01.458Z</time>
      </trkpt>
      <trkpt lat="65.72129" lon="21.7563">
        <ele>29.408969</ele>
        <time>2020-09-23T10:17:03.492Z</time>
      </trkpt>
      <trkpt lat="65.72118" lon="21.75636">
        <ele>29.123959</ele>
        <time>2020-09-23T10:17:05.460Z</time>
      </trkpt>
      <trkpt lat="65.72108" lon="21.75642">
        <ele>28.864463</ele>
        <time>2020-09-23T10:17:07.481Z</time>
      </trkpt>
      <trkpt lat="65.72098" lon="21.75647">
        <ele>28.607601</ele>
        <time>2020-09-23T10:17:09.501Z</time>
      </trkpt>
      <trkpt lat="65.72087" lon="21.7565">
        <ele>28.647831</ele>
        <time>2020-09-23T10:17:11.491Z</time>
      </trkpt>
      <trkpt lat="65.72077" lon="21.7565">
        <ele>28.747587</ele>
        <time>2020-09-23T10:17:13.472Z</time>
      </trkpt>
      <trkpt lat="65.72067" lon="21.7565">
        <ele>28.843509</ele>
        <time>2020-09-23T10:17:15.473Z</time>
      </trkpt>
      <trkpt lat="65.72057" lon="21.75651">
        <ele>28.93198</ele>
        <time>2020-09-23T10:17:17.473Z</time>
      </trkpt>
      <trkpt lat="65.72045" lon="21.75654">
        <ele>29.056207</ele>
        <time>2020-09-23T10:17:20.471Z</time>
      </trkpt>
      <trkpt lat="65.72033" lon="21.75656">
        <ele>29.171553</ele>
        <time>2020-09-23T10:17:23.467Z</time>
      </trkpt>
      <trkpt lat="65.7202" lon="21.75655">
        <ele>29.288704</ele>
        <time>2020-09-23T10:17:26.466Z</time>
      </trkpt>
      <trkpt lat="65.72009" lon="21.75656">
        <ele>29.401106</ele>
        <time>2020-09-23T10:17:29.460Z</time>
      </trkpt>
      <trkpt lat="65.71997" lon="21.75656">
        <ele>29.516214</ele>
        <time>2020-09-23T10:17:32.474Z</time>
      </trkpt>
      <trkpt lat="65.71984" lon="21.75654">
        <ele>29.633528</ele>
        <time>2020-09-23T10:17:35.462Z</time>
      </trkpt>
      <trkpt lat="65.71973" lon="21.75653">
        <ele>29.741974</ele>
        <time>2020-09-23T10:17:38.469Z</time>
      </trkpt>
      <trkpt lat="65.71962" lon="21.75653">
        <ele>29.853265</ele>
        <time>2020-09-23T10:17:41.462Z</time>
      </trkpt>
      <trkpt lat="65.7195" lon="21.75654">
        <ele>29.966504</ele>
        <time>2020-09-23T10:17:44.468Z</time>
      </trkpt>
      <trkpt lat="65.71938" lon="21.75657">
        <ele>30.081107</ele>
        <time>2020-09-23T10:17:47.462Z</time>
      </trkpt>
      <trkpt lat="65.71926" lon="21.75663">
        <ele>30.194092</ele>
        <time>2020-09-23T10:17:50.458Z</time>
      </trkpt>
      <trkpt lat="65.71916" lon="21.7567">
        <ele>30.278365</ele>
        <time>2020-09-23T10:17:53.486Z</time>
      </trkpt>
      <trkpt lat="65.71905" lon="21.7568">
        <ele>30.199306</ele>
        <time>2020-09-23T10:17:56.464Z</time>
      </trkpt>
      <trkpt lat="65.71893" lon="21.75686">
        <ele>30.116441</ele>
        <time>2020-09-23T10:17:59.487Z</time>
      </trkpt>
      <trkpt lat="65.71881" lon="21.7569">
        <ele>30.029636</ele>
        <time>2020-09-23T10:18:02.481Z</time>
      </trkpt>
      <trkpt lat="65.71868" lon="21.75691">
        <ele>29.94621</ele>
        <time>2020-09-23T10:18:05.478Z</time>
      </trkpt>
      <trkpt lat="65.71857" lon="21.75693">
        <ele>29.866797</ele>
        <time>2020-09-23T10:18:08.475Z</time>
      </trkpt>
      <trkpt lat="65.71845" lon="21.75698">
        <ele>29.785886</ele>
        <time>2020-09-23T10:18:11.490Z</time>
      </trkpt>
      <trkpt lat="65.71833" lon="21.75701">
        <ele>29.703388</ele>
        <time>2020-09-23T10:18:14.465Z</time>
      </trkpt>
      <trkpt lat="65.71822" lon="21.75704">
        <ele>29.620922</ele>
        <time>2020-09-23T10:18:17.494Z</time>
      </trkpt>
      <trkpt lat="65.71811" lon="21.75712">
        <ele>29.54274</ele>
        <time>2020-09-23T10:18:20.483Z</time>
      </trkpt>
      <trkpt lat="65.71801" lon="21.75724">
        <ele>29.466425</ele>
        <time>2020-09-23T10:18:23.475Z</time>
      </trkpt>
      <trkpt lat="65.7179" lon="21.75733">
        <ele>29.390845</ele>
        <time>2020-09-23T10:18:26.483Z</time>
      </trkpt>
      <trkpt lat="65.71779" lon="21.7574">
        <ele>29.312971</ele>
        <time>2020-09-23T10:18:29.486Z</time>
      </trkpt>
      <trkpt lat="65.71769" lon="21.75747">
        <ele>29.235667</ele>
        <time>2020-09-23T10:18:32.501Z</time>
      </trkpt>
      <trkpt lat="65.71757" lon="21.75753">
        <ele>29.15562</ele>
        <time>2020-09-23T10:18:35.502Z</time>
      </trkpt>
      <trkpt lat="65.71746" lon="21.75761">
        <ele>29.076537</ele>
        <time>2020-09-23T10:18:38.458Z</time>
      </trkpt>
      <trkpt lat="65.71735" lon="21.75771">
        <ele>29.085891</ele>
        <time>2020-09-23T10:18:41.493Z</time>
      </trkpt>
      <trkpt lat="65.71725" lon="21.75782">
        <ele>29.139823</ele>
        <time>2020-09-23T10:18:44.456Z</time>
      </trkpt>
      <trkpt lat="65.71715" lon="21.75793">
        <ele>29.193011</ele>
        <time>2020-09-23T10:18:47.464Z</time>
      </trkpt>
      <trkpt lat="65.71706" lon="21.75806">
        <ele>29.24378</ele>
        <time>2020-09-23T10:18:50.472Z</time>
      </trkpt>
      <trkpt lat="65.71696" lon="21.75817">
        <ele>29.296992</ele>
        <time>2020-09-23T10:18:53.468Z</time>
      </trkpt>
      <trkpt lat="65.71686" lon="21.7583">
        <ele>29.349086</ele>
        <time>2020-09-23T10:18:56.464Z</time>
      </trkpt>
      <trkpt lat="65.71677" lon="21.75844">
        <ele>29.40034</ele>
        <time>2020-09-23T10:18:59.501Z</time>
      </trkpt>
      <trkpt lat="65.71667" lon="21.75857">
        <ele>29.454439</ele>
        <time>2020-09-23T10:19:02.471Z</time>
      </trkpt>
      <trkpt lat="65.71656" lon="21.75867">
        <ele>29.512746</ele>
        <time>2020-09-23T10:19:05.476Z</time>
      </trkpt>
      <trkpt lat="65.71645" lon="21.75878">
        <ele>29.570841</ele>
        <time>2020-09-23T10:19:08.469Z</time>
      </trkpt>
      <trkpt lat="65.71634" lon="21.75888">
        <ele>29.627446</ele>
        <time>2020-09-23T10:19:11.471Z</time>
      </trkpt>
      <trkpt lat="65.71623" lon="21.75899">
        <ele>29.68315</ele>
        <time>2020-09-23T10:19:14.472Z</time>
      </trkpt>
      <trkpt lat="65.71613" lon="21.75911">
        <ele>29.737633</ele>
        <time>2020-09-23T10:19:17.470Z</time>
      </trkpt>
      <trkpt lat="65.71603" lon="21.75922">
        <ele>29.789868</ele>
        <time>2020-09-23T10:19:20.491Z</time>
      </trkpt>
      <trkpt lat="65.71594" lon="21.75934">
        <ele>29.839606</ele>
        <time>2020-09-23T10:19:23.464Z</time>
      </trkpt>
      <trkpt lat="65.71585" lon="21.75947">
        <ele>29.890062</ele>
        <time>2020-09-23T10:19:26.460Z</time>
      </trkpt>
      <trkpt lat="65.71576" lon="21.7596">
        <ele>29.901041</ele>
        <time>2020-09-23T10:19:29.479Z</time>
      </trkpt>
      <trkpt lat="65.71566" lon="21.75972">
        <ele>29.875413</ele>
        <time>2020-09-23T10:19:32.463Z</time>
      </trkpt>
      <trkpt lat="65.71555" lon="21.75983">
        <ele>29.848958</ele>
        <time>2020-09-23T10:19:35.472Z</time>
      </trkpt>
      <trkpt lat="65.71544" lon="21.75992">
        <ele>29.822399</ele>
        <time>2020-09-23T10:19:38.476Z</time>
      </trkpt>
      <trkpt lat="65.71533" lon="21.75999">
        <ele>29.795334</ele>
        <time>2020-09-23T10:19:41.470Z</time>
      </trkpt>
      <trkpt lat="65.71522" lon="21.76008">
        <ele>29.768181</ele>
        <time>2020-09-23T10:19:44.463Z</time>
      </trkpt>
      <trkpt lat="65.71511" lon="21.76018">
        <ele>29.741463</ele>
        <time>2020-09-23T10:19:47.493Z</time>
      </trkpt>
      <trkpt lat="65.71501" lon="21.7603">
        <ele>29.71545</ele>
        <time>2020-09-23T10:19:50.481Z</time>
      </trkpt>
      <trkpt lat="65.7149" lon="21.7604">
        <ele>29.689063</ele>
        <time>2020-09-23T10:19:53.477Z</time>
      </trkpt>
      <trkpt lat="65.71479" lon="21.76052">
        <ele>29.662036</ele>
        <time>2020-09-23T10:19:56.469Z</time>
      </trkpt>
      <trkpt lat="65.71469" lon="21.76063">
        <ele>29.634934</ele>
        <time>2020-09-23T10:19:59.457Z</time>
      </trkpt>
      <trkpt lat="65.71457" lon="21.76074">
        <ele>29.605911</ele>
        <time>2020-09-23T10:20:02.471Z</time>
      </trkpt>
      <trkpt lat="65.71446" lon="21.76085">
        <ele>29.578523</ele>
        <time>2020-09-23T10:20:05.511Z</time>
      </trkpt>
      <trkpt lat="65.71435" lon="21.76099">
        <ele>29.551152</ele>
        <time>2020-09-23T10:20:08.470Z</time>
      </trkpt>
      <trkpt lat="65.71424" lon="21.76111">
        <ele>29.523151</ele>
        <time>2020-09-23T10:20:11.451Z</time>
      </trkpt>
      <trkpt lat="65.71412" lon="21.76122">
        <ele>29.574779</ele>
        <time>2020-09-23T10:20:14.485Z</time>
      </trkpt>
      <trkpt lat="65.71401" lon="21.76133">
        <ele>29.95926</ele>
        <time>2020-09-23T10:20:17.502Z</time>
      </trkpt>
      <trkpt lat="65.71389" lon="21.7614">
        <ele>30.346779</ele>
        <time>2020-09-23T10:20:20.495Z</time>
      </trkpt>
      <trkpt lat="65.71377" lon="21.76149">
        <ele>30.703133</ele>
        <time>2020-09-23T10:20:23.487Z</time>
      </trkpt>
      <trkpt lat="65.71366" lon="21.76154">
        <ele>31.049646</ele>
        <time>2020-09-23T10:20:26.461Z</time>
      </trkpt>
      <trkpt lat="65.71356" lon="21.76158">
        <ele>31.366556</ele>
        <time>2020-09-23T10:20:29.500Z</time>
      </trkpt>
      <trkpt lat="65.71346" lon="21.76155">
        <ele>31.691096</ele>
        <time>2020-09-23T10:20:32.505Z</time>
      </trkpt>
      <trkpt lat="65.71334" lon="21.76153">
        <ele>32.041057</ele>
        <time>2020-09-23T10:20:36.484Z</time>
      </trkpt>
      <trkpt lat="65.71323" lon="21.76151">
        <ele>32.38606</ele>
        <time>2020-09-23T10:20:40.495Z</time>
      </trkpt>
      <trkpt lat="65.71312" lon="21.76147">
        <ele>32.740735</ele>
        <time>2020-09-23T10:20:44.483Z</time>
      </trkpt>
      <trkpt lat="65.71301" lon="21.7614">
        <ele>33.076558</ele>
        <time>2020-09-23T10:20:48.455Z</time>
      </trkpt>
      <trkpt lat="65.71292" lon="21.76137">
        <ele>33.363971</ele>
        <time>2020-09-23T10:20:52.469Z</time>
      </trkpt>
      <trkpt lat="65.71282" lon="21.76136">
        <ele>33.658312</ele>
        <time>2020-09-23T10:20:56.494Z</time>
      </trkpt>
      <trkpt lat="65.71272" lon="21.76132">
        <ele>33.973533</ele>
        <time>2020-09-23T10:21:00.473Z</time>
      </trkpt>
      <trkpt lat="65.71262" lon="21.76126">
        <ele>34.284825</ele>
        <time>2020-09-23T10:21:04.461Z</time>
      </trkpt>
      <trkpt lat="65.71252" lon="21.76127">
        <ele>34.60984</ele>
        <time>2020-09-23T10:21:09.465Z</time>
      </trkpt>
      <trkpt lat="65.71241" lon="21.76122">
        <ele>34.930628</ele>
        <time>2020-09-23T10:21:13.467Z</time>
      </trkpt>
      <trkpt lat="65.71232" lon="21.76119">
        <ele>35.210067</ele>
        <time>2020-09-23T10:21:17.494Z</time>
      </trkpt>
      <trkpt lat="65.71223" lon="21.76116">
        <ele>35.474942</ele>
        <time>2020-09-23T10:21:21.497Z</time>
      </trkpt>
      <trkpt lat="65.71212" lon="21.76111">
        <ele>35.79254</ele>
        <time>2020-09-23T10:21:26.465Z</time>
      </trkpt>
      <trkpt lat="65.71202" lon="21.7611">
        <ele>36.087942</ele>
        <time>2020-09-23T10:21:31.487Z</time>
      </trkpt>
      <trkpt lat="65.71191" lon="21.7611">
        <ele>36.39728</ele>
        <time>2020-09-23T10:21:36.478Z</time>
      </trkpt>
      <trkpt lat="65.71181" lon="21.76106">
        <ele>36.692728</ele>
        <time>2020-09-23T10:21:40.470Z</time>
      </trkpt>
      <trkpt lat="65.7117" lon="21.76102">
        <ele>36.999268</ele>
        <time>2020-09-23T10:21:45.471Z</time>
      </trkpt>
      <trkpt lat="65.7116" lon="21.76103">
        <ele>37.305752</ele>
        <time>2020-09-23T10:21:50.483Z</time>
      </trkpt>
      <trkpt lat="65.71151" lon="21.76102">
        <ele>37.566254</ele>
        <time>2020-09-23T10:21:54.466Z</time>
      </trkpt>
      <trkpt lat="65.71141" lon="21.76096">
        <ele>37.857549</ele>
        <time>2020-09-23T10:21:58.482Z</time>
      </trkpt>
      <trkpt lat="65.71131" lon="21.76094">
        <ele>38.159435</ele>
        <time>2020-09-23T10:22:03.466Z</time>
      </trkpt>
      <trkpt lat="65.7112" lon="21.76093">
        <ele>38.480351</ele>
        <time>2020-09-23T10:22:08.479Z</time>
      </trkpt>
      <trkpt lat="65.71109" lon="21.76092">
        <ele>38.78723</ele>
        <time>2020-09-23T10:22:12.471Z</time>
      </trkpt>
      <trkpt lat="65.71097" lon="21.7609">
        <ele>39.123173</ele>
        <time>2020-09-23T10:22:16.459Z</time>
      </trkpt>
      <trkpt lat="65.71087" lon="21.76084">
        <ele>39.433011</ele>
        <time>2020-09-23T10:22:19.479Z</time>
      </trkpt>
      <trkpt lat="65.71076" lon="21.7608">
        <ele>39.763291</ele>
        <time>2020-09-23T10:22:22.504Z</time>
      </trkpt>
      <trkpt lat="65.71065" lon="21.76077">
        <ele>40.062901</ele>
        <time>2020-09-23T10:22:25.484Z</time>
      </trkpt>
      <trkpt lat="65.71055" lon="21.76075">
        <ele>40.178075</ele>
        <time>2020-09-23T10:22:28.457Z</time>
      </trkpt>
      <trkpt lat="65.71046" lon="21.76071">
        <ele>40.104859</ele>
        <time>2020-09-23T10:22:31.500Z</time>
      </trkpt>
      <trkpt lat="65.71033" lon="21.76069">
        <ele>40.015908</ele>
        <time>2020-09-23T10:22:35.479Z</time>
      </trkpt>
      <trkpt lat="65.71023" lon="21.76066">
        <ele>39.937847</ele>
        <time>2020-09-23T10:22:38.493Z</time>
      </trkpt>
      <trkpt lat="65.71012" lon="21.76062">
        <ele>39.854719</ele>
        <time>2020-09-23T10:22:41.475Z</time>
      </trkpt>
      <trkpt lat="65.71001" lon="21.76059">
        <ele>39.777145</ele>
        <time>2020-09-23T10:22:44.462Z</time>
      </trkpt>
      <trkpt lat="65.70991" lon="21.76055">
        <ele>39.700858</ele>
        <time>2020-09-23T10:22:47.511Z</time>
      </trkpt>
      <trkpt lat="65.70981" lon="21.76055">
        <ele>39.628319</ele>
        <time>2020-09-23T10:22:50.491Z</time>
      </trkpt>
      <trkpt lat="65.70972" lon="21.76056">
        <ele>39.559366</ele>
        <time>2020-09-23T10:22:53.495Z</time>
      </trkpt>
      <trkpt lat="65.7096" lon="21.76056">
        <ele>39.474359</ele>
        <time>2020-09-23T10:22:56.480Z</time>
      </trkpt>
      <trkpt lat="65.70948" lon="21.76055">
        <ele>39.387079</ele>
        <time>2020-09-23T10:22:59.466Z</time>
      </trkpt>
      <trkpt lat="65.70935" lon="21.76052">
        <ele>39.289756</ele>
        <time>2020-09-23T10:23:02.465Z</time>
      </trkpt>
      <trkpt lat="65.70922" lon="21.76052">
        <ele>39.195931</ele>
        <time>2020-09-23T10:23:05.462Z</time>
      </trkpt>
      <trkpt lat="65.7091" lon="21.76056">
        <ele>39.108029</ele>
        <time>2020-09-23T10:23:08.475Z</time>
      </trkpt>
      <trkpt lat="65.70897" lon="21.76063">
        <ele>39.012093</ele>
        <time>2020-09-23T10:23:11.456Z</time>
      </trkpt>
      <trkpt lat="65.70888" lon="21.76069">
        <ele>38.94347</ele>
        <time>2020-09-23T10:23:13.480Z</time>
      </trkpt>
      <trkpt lat="65.70879" lon="21.76073">
        <ele>38.752196</ele>
        <time>2020-09-23T10:23:15.493Z</time>
      </trkpt>
      <trkpt lat="65.70868" lon="21.76076">
        <ele>38.301169</ele>
        <time>2020-09-23T10:23:17.487Z</time>
      </trkpt>
      <trkpt lat="65.70858" lon="21.7608">
        <ele>37.865355</ele>
        <time>2020-09-23T10:23:19.461Z</time>
      </trkpt>
      <trkpt lat="65.70848" lon="21.76085">
        <ele>37.435102</ele>
        <time>2020-09-23T10:23:21.466Z</time>
      </trkpt>
      <trkpt lat="65.70839" lon="21.76091">
        <ele>37.002585</ele>
        <time>2020-09-23T10:23:23.480Z</time>
      </trkpt>
      <trkpt lat="65.70829" lon="21.76096">
        <ele>36.57085</ele>
        <time>2020-09-23T10:23:25.474Z</time>
      </trkpt>
      <trkpt lat="65.70819" lon="21.761">
        <ele>36.125365</ele>
        <time>2020-09-23T10:23:27.513Z</time>
      </trkpt>
      <trkpt lat="65.70808" lon="21.76104">
        <ele>35.68134</ele>
        <time>2020-09-23T10:23:29.479Z</time>
      </trkpt>
      <trkpt lat="65.70798" lon="21.76109">
        <ele>35.217004</ele>
        <time>2020-09-23T10:23:31.463Z</time>
      </trkpt>
      <trkpt lat="65.70787" lon="21.76117">
        <ele>34.73861</ele>
        <time>2020-09-23T10:23:33.479Z</time>
      </trkpt>
      <trkpt lat="65.70776" lon="21.76125">
        <ele>34.24173</ele>
        <time>2020-09-23T10:23:35.510Z</time>
      </trkpt>
      <trkpt lat="65.70764" lon="21.76132">
        <ele>33.726888</ele>
        <time>2020-09-23T10:23:37.482Z</time>
      </trkpt>
      <trkpt lat="65.70753" lon="21.76138">
        <ele>33.219556</ele>
        <time>2020-09-23T10:23:39.477Z</time>
      </trkpt>
      <trkpt lat="65.70741" lon="21.76146">
        <ele>32.703375</ele>
        <time>2020-09-23T10:23:41.475Z</time>
      </trkpt>
      <trkpt lat="65.7073" lon="21.76156">
        <ele>32.170454</ele>
        <time>2020-09-23T10:23:43.467Z</time>
      </trkpt>
      <trkpt lat="65.70718" lon="21.76167">
        <ele>31.618545</ele>
        <time>2020-09-23T10:23:45.483Z</time>
      </trkpt>
      <trkpt lat="65.70706" lon="21.76178">
        <ele>31.15449</ele>
        <time>2020-09-23T10:23:47.496Z</time>
      </trkpt>
      <trkpt lat="65.70695" lon="21.76191">
        <ele>31.119671</ele>
        <time>2020-09-23T10:23:49.476Z</time>
      </trkpt>
      <trkpt lat="65.70683" lon="21.76202">
        <ele>31.084731</ele>
        <time>2020-09-23T10:23:51.490Z</time>
      </trkpt>
      <trkpt lat="65.7067" lon="21.7621">
        <ele>31.047906</ele>
        <time>2020-09-23T10:23:53.468Z</time>
      </trkpt>
      <trkpt lat="65.70659" lon="21.76222">
        <ele>31.013518</ele>
        <time>2020-09-23T10:23:55.462Z</time>
      </trkpt>
      <trkpt lat="65.7065" lon="21.76237">
        <ele>30.981348</ele>
        <time>2020-09-23T10:23:57.460Z</time>
      </trkpt>
      <trkpt lat="65.7064" lon="21.76251">
        <ele>30.951049</ele>
        <time>2020-09-23T10:23:59.500Z</time>
      </trkpt>
      <trkpt lat="65.70631" lon="21.76267">
        <ele>30.919223</ele>
        <time>2020-09-23T10:24:01.474Z</time>
      </trkpt>
      <trkpt lat="65.70623" lon="21.76284">
        <ele>30.887963</ele>
        <time>2020-09-23T10:24:03.512Z</time>
      </trkpt>
      <trkpt lat="65.70615" lon="21.76301">
        <ele>30.858219</ele>
        <time>2020-09-23T10:24:05.467Z</time>
      </trkpt>
      <trkpt lat="65.70606" lon="21.76317">
        <ele>30.828708</ele>
        <time>2020-09-23T10:24:07.495Z</time>
      </trkpt>
      <trkpt lat="65.70599" lon="21.76333">
        <ele>30.80027</ele>
        <time>2020-09-23T10:24:09.476Z</time>
      </trkpt>
      <trkpt lat="65.70592" lon="21.76351">
        <ele>30.771656</ele>
        <time>2020-09-23T10:24:11.493Z</time>
      </trkpt>
      <trkpt lat="65.70585" lon="21.76368">
        <ele>30.743173</ele>
        <time>2020-09-23T10:24:13.476Z</time>
      </trkpt>
      <trkpt lat="65.70577" lon="21.76385">
        <ele>30.715174</ele>
        <time>2020-09-23T10:24:15.483Z</time>
      </trkpt>
      <trkpt lat="65.70571" lon="21.76402">
        <ele>30.687925</ele>
        <time>2020-09-23T10:24:17.475Z</time>
      </trkpt>
      <trkpt lat="65.70564" lon="21.76419">
        <ele>30.660786</ele>
        <time>2020-09-23T10:24:19.474Z</time>
      </trkpt>
      <trkpt lat="65.70557" lon="21.76434">
        <ele>30.774668</ele>
        <time>2020-09-23T10:24:21.494Z</time>
      </trkpt>
      <trkpt lat="65.70551" lon="21.76451">
        <ele>30.929028</ele>
        <time>2020-09-23T10:24:23.470Z</time>
      </trkpt>
      <trkpt lat="65.70546" lon="21.76471">
        <ele>31.08542</ele>
        <time>2020-09-23T10:24:25.463Z</time>
      </trkpt>
      <trkpt lat="65.7054" lon="21.76488">
        <ele>31.235041</ele>
        <time>2020-09-23T10:24:27.467Z</time>
      </trkpt>
      <trkpt lat="65.70533" lon="21.76512">
        <ele>31.439188</ele>
        <time>2020-09-23T10:24:30.473Z</time>
      </trkpt>
      <trkpt lat="65.70525" lon="21.76531">
        <ele>31.632617</ele>
        <time>2020-09-23T10:24:33.474Z</time>
      </trkpt>
      <trkpt lat="65.70516" lon="21.7655">
        <ele>31.824611</ele>
        <time>2020-09-23T10:24:36.462Z</time>
      </trkpt>
      <trkpt lat="65.70509" lon="21.76569">
        <ele>32.000904</ele>
        <time>2020-09-23T10:24:39.458Z</time>
      </trkpt>
      <trkpt lat="65.70503" lon="21.76591">
        <ele>32.187914</ele>
        <time>2020-09-23T10:24:42.486Z</time>
      </trkpt>
      <trkpt lat="65.70496" lon="21.76612">
        <ele>32.368093</ele>
        <time>2020-09-23T10:24:45.475Z</time>
      </trkpt>
      <trkpt lat="65.70491" lon="21.76633">
        <ele>32.534389</ele>
        <time>2020-09-23T10:24:48.475Z</time>
      </trkpt>
      <trkpt lat="65.70485" lon="21.76652">
        <ele>32.69744</ele>
        <time>2020-09-23T10:24:51.480Z</time>
      </trkpt>
      <trkpt lat="65.7048" lon="21.76672">
        <ele>32.866246</ele>
        <time>2020-09-23T10:24:54.461Z</time>
      </trkpt>
      <trkpt lat="65.70474" lon="21.76694">
        <ele>33.043062</ele>
        <time>2020-09-23T10:24:57.508Z</time>
      </trkpt>
      <trkpt lat="65.70468" lon="21.76715">
        <ele>33.212437</ele>
        <time>2020-09-23T10:25:00.464Z</time>
      </trkpt>
      <trkpt lat="65.70461" lon="21.76733">
        <ele>33.380414</ele>
        <time>2020-09-23T10:25:03.504Z</time>
      </trkpt>
      <trkpt lat="65.70453" lon="21.76749">
        <ele>33.554245</ele>
        <time>2020-09-23T10:25:06.474Z</time>
      </trkpt>
      <trkpt lat="65.70445" lon="21.76766">
        <ele>33.646925</ele>
        <time>2020-09-23T10:25:09.478Z</time>
      </trkpt>
      <trkpt lat="65.70436" lon="21.76779">
        <ele>33.623673</ele>
        <time>2020-09-23T10:25:12.474Z</time>
      </trkpt>
      <trkpt lat="65.70426" lon="21.76793">
        <ele>33.600876</ele>
        <time>2020-09-23T10:25:15.485Z</time>
      </trkpt>
      <trkpt lat="65.70417" lon="21.76804">
        <ele>33.579505</ele>
        <time>2020-09-23T10:25:18.464Z</time>
      </trkpt>
      <trkpt lat="65.70408" lon="21.76815">
        <ele>33.556303</ele>
        <time>2020-09-23T10:25:21.477Z</time>
      </trkpt>
      <trkpt lat="65.70398" lon="21.76828">
        <ele>33.533732</ele>
        <time>2020-09-23T10:25:24.486Z</time>
      </trkpt>
      <trkpt lat="65.70389" lon="21.76838">
        <ele>33.511612</ele>
        <time>2020-09-23T10:25:27.485Z</time>
      </trkpt>
      <trkpt lat="65.70378" lon="21.76841">
        <ele>33.487909</ele>
        <time>2020-09-23T10:25:30.501Z</time>
      </trkpt>
      <trkpt lat="65.70366" lon="21.76845">
        <ele>33.463842</ele>
        <time>2020-09-23T10:25:33.458Z</time>
      </trkpt>
      <trkpt lat="65.70355" lon="21.76851">
        <ele>33.43806</ele>
        <time>2020-09-23T10:25:36.476Z</time>
      </trkpt>
      <trkpt lat="65.70343" lon="21.76857">
        <ele>33.41238</ele>
        <time>2020-09-23T10:25:39.484Z</time>
      </trkpt>
      <trkpt lat="65.70331" lon="21.7686">
        <ele>33.387372</ele>
        <time>2020-09-23T10:25:42.478Z</time>
      </trkpt>
      <trkpt lat="65.7032" lon="21.76864">
        <ele>33.364393</ele>
        <time>2020-09-23T10:25:45.498Z</time>
      </trkpt>
      <trkpt lat="65.70311" lon="21.76872">
        <ele>33.343523</ele>
        <time>2020-09-23T10:25:48.471Z</time>
      </trkpt>
      <trkpt lat="65.70301" lon="21.76879">
        <ele>33.322413</ele>
        <time>2020-09-23T10:25:51.481Z</time>
      </trkpt>
      <trkpt lat="65.70292" lon="21.76885">
        <ele>33.300768</ele>
        <time>2020-09-23T10:25:54.503Z</time>
      </trkpt>
      <trkpt lat="65.70281" lon="21.76893">
        <ele>33.277776</ele>
        <time>2020-09-23T10:25:57.490Z</time>
      </trkpt>
      <trkpt lat="65.70271" lon="21.76904">
        <ele>33.176082</ele>
        <time>2020-09-23T10:26:00.498Z</time>
      </trkpt>
      <trkpt lat="65.7026" lon="21.76915">
        <ele>33.059283</ele>
        <time>2020-09-23T10:26:03.475Z</time>
      </trkpt>
      <trkpt lat="65.70249" lon="21.76928">
        <ele>32.94228</ele>
        <time>2020-09-23T10:26:06.475Z</time>
      </trkpt>
      <trkpt lat="65.70239" lon="21.7694">
        <ele>32.830238</ele>
        <time>2020-09-23T10:26:09.479Z</time>
      </trkpt>
      <trkpt lat="65.70228" lon="21.76952">
        <ele>32.712522</ele>
        <time>2020-09-23T10:26:12.495Z</time>
      </trkpt>
      <trkpt lat="65.7022" lon="21.76961">
        <ele>32.622653</ele>
        <time>2020-09-23T10:26:14.463Z</time>
      </trkpt>
      <trkpt lat="65.70208" lon="21.76974">
        <ele>32.489783</ele>
        <time>2020-09-23T10:26:17.500Z</time>
      </trkpt>
      <trkpt lat="65.70199" lon="21.76982">
        <ele>32.400941</ele>
        <time>2020-09-23T10:26:19.485Z</time>
      </trkpt>
      <trkpt lat="65.70187" lon="21.76993">
        <ele>32.270093</ele>
        <time>2020-09-23T10:26:22.484Z</time>
      </trkpt>
      <trkpt lat="65.70175" lon="21.77005">
        <ele>32.142621</ele>
        <time>2020-09-23T10:26:25.460Z</time>
      </trkpt>
      <trkpt lat="65.70163" lon="21.77019">
        <ele>32.014086</ele>
        <time>2020-09-23T10:26:28.463Z</time>
      </trkpt>
      <trkpt lat="65.70151" lon="21.77031">
        <ele>31.884948</ele>
        <time>2020-09-23T10:26:31.464Z</time>
      </trkpt>
      <trkpt lat="65.70143" lon="21.7704">
        <ele>31.793439</ele>
        <time>2020-09-23T10:26:33.487Z</time>
      </trkpt>
      <trkpt lat="65.70131" lon="21.77054">
        <ele>31.662412</ele>
        <time>2020-09-23T10:26:36.527Z</time>
      </trkpt>
      <trkpt lat="65.70118" lon="21.77066">
        <ele>31.530378</ele>
        <time>2020-09-23T10:26:39.478Z</time>
      </trkpt>
      <trkpt lat="65.70108" lon="21.77079">
        <ele>31.45098</ele>
        <time>2020-09-23T10:26:42.483Z</time>
      </trkpt>
      <trkpt lat="65.70098" lon="21.77095">
        <ele>31.386104</ele>
        <time>2020-09-23T10:26:45.469Z</time>
      </trkpt>
      <trkpt lat="65.70087" lon="21.7711">
        <ele>31.318786</ele>
        <time>2020-09-23T10:26:48.483Z</time>
      </trkpt>
      <trkpt lat="65.70076" lon="21.77121">
        <ele>31.249115</ele>
        <time>2020-09-23T10:26:51.462Z</time>
      </trkpt>
      <trkpt lat="65.70065" lon="21.77133">
        <ele>31.182883</ele>
        <time>2020-09-23T10:26:54.472Z</time>
      </trkpt>
      <trkpt lat="65.70054" lon="21.77144">
        <ele>31.116713</ele>
        <time>2020-09-23T10:26:57.476Z</time>
      </trkpt>
      <trkpt lat="65.70043" lon="21.77158">
        <ele>31.050883</ele>
        <time>2020-09-23T10:27:00.466Z</time>
      </trkpt>
      <trkpt lat="65.70033" lon="21.7717">
        <ele>30.986347</ele>
        <time>2020-09-23T10:27:03.464Z</time>
      </trkpt>
      <trkpt lat="65.70022" lon="21.77185">
        <ele>30.918586</ele>
        <time>2020-09-23T10:27:06.460Z</time>
      </trkpt>
      <trkpt lat="65.70011" lon="21.77197">
        <ele>30.852469</ele>
        <time>2020-09-23T10:27:09.485Z</time>
      </trkpt>
      <trkpt lat="65.7" lon="21.77208">
        <ele>30.786128</ele>
        <time>2020-09-23T10:27:12.500Z</time>
      </trkpt>
      <trkpt lat="65.69988" lon="21.77219">
        <ele>30.716708</ele>
        <time>2020-09-23T10:27:15.478Z</time>
      </trkpt>
      <trkpt lat="65.69977" lon="21.7723">
        <ele>30.648211</ele>
        <time>2020-09-23T10:27:18.467Z</time>
      </trkpt>
      <trkpt lat="65.69965" lon="21.77243">
        <ele>30.578616</ele>
        <time>2020-09-23T10:27:21.457Z</time>
      </trkpt>
      <trkpt lat="65.69955" lon="21.77257">
        <ele>30.512365</ele>
        <time>2020-09-23T10:27:24.482Z</time>
      </trkpt>
      <trkpt lat="65.69945" lon="21.77273">
        <ele>30.361952</ele>
        <time>2020-09-23T10:27:27.495Z</time>
      </trkpt>
      <trkpt lat="65.69936" lon="21.7729">
        <ele>30.215181</ele>
        <time>2020-09-23T10:27:30.488Z</time>
      </trkpt>
      <trkpt lat="65.69927" lon="21.77308">
        <ele>30.063589</ele>
        <time>2020-09-23T10:27:33.554Z</time>
      </trkpt>
      <trkpt lat="65.69918" lon="21.77324">
        <ele>29.906554</ele>
        <time>2020-09-23T10:27:36.478Z</time>
      </trkpt>
      <trkpt lat="65.69906" lon="21.77338">
        <ele>29.736909</ele>
        <time>2020-09-23T10:27:39.467Z</time>
      </trkpt>
      <trkpt lat="65.69895" lon="21.77354">
        <ele>29.562958</ele>
        <time>2020-09-23T10:27:42.514Z</time>
      </trkpt>
      <trkpt lat="65.69883" lon="21.77367">
        <ele>29.393087</ele>
        <time>2020-09-23T10:27:45.497Z</time>
      </trkpt>
      <trkpt lat="65.69873" lon="21.77383">
        <ele>29.223987</ele>
        <time>2020-09-23T10:27:48.467Z</time>
      </trkpt>
      <trkpt lat="65.69862" lon="21.77398">
        <ele>29.055948</ele>
        <time>2020-09-23T10:27:51.476Z</time>
      </trkpt>
      <trkpt lat="65.69851" lon="21.77415">
        <ele>28.888217</ele>
        <time>2020-09-23T10:27:54.483Z</time>
      </trkpt>
      <trkpt lat="65.69841" lon="21.77435">
        <ele>28.714923</ele>
        <time>2020-09-23T10:27:57.476Z</time>
      </trkpt>
      <trkpt lat="65.6983" lon="21.77451">
        <ele>28.544406</ele>
        <time>2020-09-23T10:28:00.465Z</time>
      </trkpt>
      <trkpt lat="65.69819" lon="21.77467">
        <ele>28.371815</ele>
        <time>2020-09-23T10:28:03.474Z</time>
      </trkpt>
      <trkpt lat="65.69808" lon="21.77484">
        <ele>28.197238</ele>
        <time>2020-09-23T10:28:06.472Z</time>
      </trkpt>
      <trkpt lat="65.69796" lon="21.775">
        <ele>28.168223</ele>
        <time>2020-09-23T10:28:09.530Z</time>
      </trkpt>
      <trkpt lat="65.69785" lon="21.77519">
        <ele>28.277415</ele>
        <time>2020-09-23T10:28:12.526Z</time>
      </trkpt>
      <trkpt lat="65.69774" lon="21.77536">
        <ele>28.385344</ele>
        <time>2020-09-23T10:28:15.479Z</time>
      </trkpt>
      <trkpt lat="65.69766" lon="21.77547">
        <ele>28.458502</ele>
        <time>2020-09-23T10:28:17.490Z</time>
      </trkpt>
      <trkpt lat="65.69755" lon="21.77565">
        <ele>28.564972</ele>
        <time>2020-09-23T10:28:20.500Z</time>
      </trkpt>
      <trkpt lat="65.69745" lon="21.77585">
        <ele>28.667244</ele>
        <time>2020-09-23T10:28:23.505Z</time>
      </trkpt>
      <trkpt lat="65.69735" lon="21.77602">
        <ele>28.770055</ele>
        <time>2020-09-23T10:28:26.474Z</time>
      </trkpt>
      <trkpt lat="65.69724" lon="21.77618">
        <ele>28.868692</ele>
        <time>2020-09-23T10:28:29.475Z</time>
      </trkpt>
      <trkpt lat="65.69714" lon="21.77632">
        <ele>28.967392</ele>
        <time>2020-09-23T10:28:32.481Z</time>
      </trkpt>
      <trkpt lat="65.69704" lon="21.77646">
        <ele>29.056915</ele>
        <time>2020-09-23T10:28:35.464Z</time>
      </trkpt>
      <trkpt lat="65.69694" lon="21.77661">
        <ele>29.151244</ele>
        <time>2020-09-23T10:28:38.503Z</time>
      </trkpt>
      <trkpt lat="65.69684" lon="21.77679">
        <ele>29.250213</ele>
        <time>2020-09-23T10:28:41.467Z</time>
      </trkpt>
      <trkpt lat="65.69674" lon="21.77693">
        <ele>29.348005</ele>
        <time>2020-09-23T10:28:44.473Z</time>
      </trkpt>
      <trkpt lat="65.69665" lon="21.7771">
        <ele>29.43711</ele>
        <time>2020-09-23T10:28:47.466Z</time>
      </trkpt>
      <trkpt lat="65.69656" lon="21.77726">
        <ele>29.524749</ele>
        <time>2020-09-23T10:28:50.484Z</time>
      </trkpt>
      <trkpt lat="65.69647" lon="21.77739">
        <ele>29.604892</ele>
        <time>2020-09-23T10:28:53.475Z</time>
      </trkpt>
      <trkpt lat="65.69639" lon="21.7775">
        <ele>29.676564</ele>
        <time>2020-09-23T10:28:56.480Z</time>
      </trkpt>
      <trkpt lat="65.69631" lon="21.7776">
        <ele>29.747557</ele>
        <time>2020-09-23T10:28:59.453Z</time>
      </trkpt>
      <trkpt lat="65.69623" lon="21.77773">
        <ele>29.816895</ele>
        <time>2020-09-23T10:29:02.481Z</time>
      </trkpt>
      <trkpt lat="65.69615" lon="21.77784">
        <ele>29.885394</ele>
        <time>2020-09-23T10:29:05.437Z</time>
      </trkpt>
      <trkpt lat="65.69606" lon="21.77794">
        <ele>29.957065</ele>
        <time>2020-09-23T10:29:08.468Z</time>
      </trkpt>
      <trkpt lat="65.69597" lon="21.7781">
        <ele>30.044848</ele>
        <time>2020-09-23T10:29:12.508Z</time>
      </trkpt>
      <trkpt lat="65.69588" lon="21.77825">
        <ele>30.126627</ele>
        <time>2020-09-23T10:29:16.478Z</time>
      </trkpt>
      <trkpt lat="65.69578" lon="21.77842">
        <ele>30.215638</ele>
        <time>2020-09-23T10:29:20.456Z</time>
      </trkpt>
      <trkpt lat="65.69569" lon="21.77858">
        <ele>30.300625</ele>
        <time>2020-09-23T10:29:24.464Z</time>
      </trkpt>
      <trkpt lat="65.6956" lon="21.77873">
        <ele>30.385963</ele>
        <time>2020-09-23T10:29:28.487Z</time>
      </trkpt>
      <trkpt lat="65.69552" lon="21.77886">
        <ele>30.453457</ele>
        <time>2020-09-23T10:29:31.479Z</time>
      </trkpt>
      <trkpt lat="65.69543" lon="21.779">
        <ele>30.538428</ele>
        <time>2020-09-23T10:29:35.459Z</time>
      </trkpt>
      <trkpt lat="65.69533" lon="21.7791">
        <ele>30.619956</ele>
        <time>2020-09-23T10:29:39.499Z</time>
      </trkpt>
      <trkpt lat="65.69524" lon="21.77924">
        <ele>30.696978</ele>
        <time>2020-09-23T10:29:43.499Z</time>
      </trkpt>
      <trkpt lat="65.69515" lon="21.77938">
        <ele>30.776165</ele>
        <time>2020-09-23T10:29:47.494Z</time>
      </trkpt>
      <trkpt lat="65.69506" lon="21.77949">
        <ele>30.855178</ele>
        <time>2020-09-23T10:29:51.461Z</time>
      </trkpt>
      <trkpt lat="65.69497" lon="21.77963">
        <ele>30.915574</ele>
        <time>2020-09-23T10:29:55.483Z</time>
      </trkpt>
      <trkpt lat="65.69487" lon="21.77977">
        <ele>30.918539</ele>
        <time>2020-09-23T10:29:59.475Z</time>
      </trkpt>
      <trkpt lat="65.69477" lon="21.77991">
        <ele>30.921626</ele>
        <time>2020-09-23T10:30:03.470Z</time>
      </trkpt>
      <trkpt lat="65.69468" lon="21.78005">
        <ele>30.924517</ele>
        <time>2020-09-23T10:30:07.474Z</time>
      </trkpt>
      <trkpt lat="65.69458" lon="21.7802">
        <ele>30.927652</ele>
        <time>2020-09-23T10:30:11.478Z</time>
      </trkpt>
      <trkpt lat="65.69447" lon="21.78034">
        <ele>30.930773</ele>
        <time>2020-09-23T10:30:15.482Z</time>
      </trkpt>
      <trkpt lat="65.69436" lon="21.78046">
        <ele>30.933968</ele>
        <time>2020-09-23T10:30:19.459Z</time>
      </trkpt>
      <trkpt lat="65.69428" lon="21.78055">
        <ele>30.936398</ele>
        <time>2020-09-23T10:30:22.467Z</time>
      </trkpt>
      <trkpt lat="65.6942" lon="21.78064">
        <ele>30.938803</ele>
        <time>2020-09-23T10:30:25.460Z</time>
      </trkpt>
      <trkpt lat="65.6941" lon="21.78076">
        <ele>30.941676</ele>
        <time>2020-09-23T10:30:29.482Z</time>
      </trkpt>
      <trkpt lat="65.694" lon="21.78087">
        <ele>30.944559</ele>
        <time>2020-09-23T10:30:33.470Z</time>
      </trkpt>
      <trkpt lat="65.69391" lon="21.78097">
        <ele>30.947078</ele>
        <time>2020-09-23T10:30:36.473Z</time>
      </trkpt>
      <trkpt lat="65.69383" lon="21.7811">
        <ele>30.949761</ele>
        <time>2020-09-23T10:30:39.478Z</time>
      </trkpt>
      <trkpt lat="65.69373" lon="21.7812">
        <ele>30.952664</ele>
        <time>2020-09-23T10:30:42.496Z</time>
      </trkpt>
      <trkpt lat="65.69362" lon="21.78128">
        <ele>30.955493</ele>
        <time>2020-09-23T10:30:45.475Z</time>
      </trkpt>
      <trkpt lat="65.69353" lon="21.78139">
        <ele>30.958202</ele>
        <time>2020-09-23T10:30:48.480Z</time>
      </trkpt>
      <trkpt lat="65.69343" lon="21.78148">
        <ele>30.960952</ele>
        <time>2020-09-23T10:30:51.459Z</time>
      </trkpt>
      <trkpt lat="65.69334" lon="21.78158">
        <ele>30.920698</ele>
        <time>2020-09-23T10:30:54.466Z</time>
      </trkpt>
      <trkpt lat="65.69324" lon="21.78168">
        <ele>30.835491</ele>
        <time>2020-09-23T10:30:57.484Z</time>
      </trkpt>
      <trkpt lat="65.69314" lon="21.78177">
        <ele>30.751961</ele>
        <time>2020-09-23T10:31:00.462Z</time>
      </trkpt>
      <trkpt lat="65.69304" lon="21.78187">
        <ele>30.66834</ele>
        <time>2020-09-23T10:31:03.475Z</time>
      </trkpt>
      <trkpt lat="65.69294" lon="21.78197">
        <ele>30.583021</ele>
        <time>2020-09-23T10:31:06.494Z</time>
      </trkpt>
      <trkpt lat="65.69284" lon="21.78207">
        <ele>30.496227</ele>
        <time>2020-09-23T10:31:09.466Z</time>
      </trkpt>
      <trkpt lat="65.69274" lon="21.78218">
        <ele>30.406479</ele>
        <time>2020-09-23T10:31:12.466Z</time>
      </trkpt>
      <trkpt lat="65.69263" lon="21.78229">
        <ele>30.315745</ele>
        <time>2020-09-23T10:31:15.476Z</time>
      </trkpt>
      <trkpt lat="65.69252" lon="21.7824">
        <ele>30.222592</ele>
        <time>2020-09-23T10:31:18.492Z</time>
      </trkpt>
      <trkpt lat="65.69242" lon="21.78253">
        <ele>30.133961</ele>
        <time>2020-09-23T10:31:21.483Z</time>
      </trkpt>
      <trkpt lat="65.69232" lon="21.78265">
        <ele>30.04473</ele>
        <time>2020-09-23T10:31:24.473Z</time>
      </trkpt>
      <trkpt lat="65.69222" lon="21.78279">
        <ele>29.953963</ele>
        <time>2020-09-23T10:31:27.472Z</time>
      </trkpt>
      <trkpt lat="65.69212" lon="21.7829">
        <ele>29.864215</ele>
        <time>2020-09-23T10:31:30.497Z</time>
      </trkpt>
      <trkpt lat="65.69202" lon="21.783">
        <ele>29.77497</ele>
        <time>2020-09-23T10:31:33.485Z</time>
      </trkpt>
      <trkpt lat="65.69191" lon="21.78312">
        <ele>29.6836</ele>
        <time>2020-09-23T10:31:36.483Z</time>
      </trkpt>
      <trkpt lat="65.6918" lon="21.78324">
        <ele>29.589177</ele>
        <time>2020-09-23T10:31:39.513Z</time>
      </trkpt>
      <trkpt lat="65.69169" lon="21.78334">
        <ele>29.563632</ele>
        <time>2020-09-23T10:31:42.462Z</time>
      </trkpt>
      <trkpt lat="65.69157" lon="21.78344">
        <ele>29.620703</ele>
        <time>2020-09-23T10:31:45.455Z</time>
      </trkpt>
      <trkpt lat="65.69145" lon="21.78353">
        <ele>29.677913</ele>
        <time>2020-09-23T10:31:48.475Z</time>
      </trkpt>
      <trkpt lat="65.69134" lon="21.78363">
        <ele>29.732067</ele>
        <time>2020-09-23T10:31:51.475Z</time>
      </trkpt>
      <trkpt lat="65.69122" lon="21.78369">
        <ele>29.787881</ele>
        <time>2020-09-23T10:31:54.486Z</time>
      </trkpt>
      <trkpt lat="65.6911" lon="21.78374">
        <ele>29.847671</ele>
        <time>2020-09-23T10:31:57.498Z</time>
      </trkpt>
      <trkpt lat="65.69097" lon="21.78383">
        <ele>29.906864</ele>
        <time>2020-09-23T10:32:00.504Z</time>
      </trkpt>
      <trkpt lat="65.69085" lon="21.78392">
        <ele>29.965338</ele>
        <time>2020-09-23T10:32:03.478Z</time>
      </trkpt>
      <trkpt lat="65.69073" lon="21.78393">
        <ele>30.023536</ele>
        <time>2020-09-23T10:32:06.495Z</time>
      </trkpt>
      <trkpt lat="65.6906" lon="21.78391">
        <ele>30.081852</ele>
        <time>2020-09-23T10:32:09.482Z</time>
      </trkpt>
      <trkpt lat="65.69048" lon="21.78392">
        <ele>30.135912</ele>
        <time>2020-09-23T10:32:12.484Z</time>
      </trkpt>
      <trkpt lat="65.69036" lon="21.78395">
        <ele>30.191583</ele>
        <time>2020-09-23T10:32:15.468Z</time>
      </trkpt>
      <trkpt lat="65.69024" lon="21.78398">
        <ele>30.24823</ele>
        <time>2020-09-23T10:32:18.464Z</time>
      </trkpt>
      <trkpt lat="65.69012" lon="21.78401">
        <ele>30.30348</ele>
        <time>2020-09-23T10:32:21.483Z</time>
      </trkpt>
      <trkpt lat="65.69" lon="21.78404">
        <ele>30.359064</ele>
        <time>2020-09-23T10:32:24.495Z</time>
      </trkpt>
      <trkpt lat="65.68988" lon="21.78406">
        <ele>30.570799</ele>
        <time>2020-09-23T10:32:27.467Z</time>
      </trkpt>
      <trkpt lat="65.68977" lon="21.78408">
        <ele>30.810616</ele>
        <time>2020-09-23T10:32:30.495Z</time>
      </trkpt>
      <trkpt lat="65.68966" lon="21.7841">
        <ele>31.030239</ele>
        <time>2020-09-23T10:32:33.518Z</time>
      </trkpt>
      <trkpt lat="65.68956" lon="21.78413">
        <ele>31.239114</ele>
        <time>2020-09-23T10:32:36.469Z</time>
      </trkpt>
      <trkpt lat="65.68945" lon="21.78413">
        <ele>31.460253</ele>
        <time>2020-09-23T10:32:39.486Z</time>
      </trkpt>
      <trkpt lat="65.68935" lon="21.78419">
        <ele>31.663941</ele>
        <time>2020-09-23T10:32:42.464Z</time>
      </trkpt>
      <trkpt lat="65.68926" lon="21.78425">
        <ele>31.857639</ele>
        <time>2020-09-23T10:32:45.483Z</time>
      </trkpt>
      <trkpt lat="65.68917" lon="21.78427">
        <ele>32.04496</ele>
        <time>2020-09-23T10:32:48.483Z</time>
      </trkpt>
      <trkpt lat="65.68907" lon="21.78428">
        <ele>32.2297</ele>
        <time>2020-09-23T10:32:51.488Z</time>
      </trkpt>
      <trkpt lat="65.68898" lon="21.78427">
        <ele>32.420413</ele>
        <time>2020-09-23T10:32:54.486Z</time>
      </trkpt>
      <trkpt lat="65.68889" lon="21.7843">
        <ele>32.60439</ele>
        <time>2020-09-23T10:32:57.479Z</time>
      </trkpt>
      <trkpt lat="65.68878" lon="21.78437">
        <ele>32.828777</ele>
        <time>2020-09-23T10:33:01.494Z</time>
      </trkpt>
      <trkpt lat="65.68868" lon="21.78441">
        <ele>33.044403</ele>
        <time>2020-09-23T10:33:05.512Z</time>
      </trkpt>
      <trkpt lat="65.68857" lon="21.78444">
        <ele>33.275112</ele>
        <time>2020-09-23T10:33:09.473Z</time>
      </trkpt>
      <trkpt lat="65.68845" lon="21.78443">
        <ele>33.508603</ele>
        <time>2020-09-23T10:33:13.470Z</time>
      </trkpt>
      <trkpt lat="65.68835" lon="21.78441">
        <ele>33.722044</ele>
        <time>2020-09-23T10:33:17.466Z</time>
      </trkpt>
      <trkpt lat="65.68825" lon="21.78442">
        <ele>33.916871</ele>
        <time>2020-09-23T10:33:21.471Z</time>
      </trkpt>
      <trkpt lat="65.68815" lon="21.78443">
        <ele>33.988424</ele>
        <time>2020-09-23T10:33:25.471Z</time>
      </trkpt>
      <trkpt lat="65.68804" lon="21.78442">
        <ele>33.934577</ele>
        <time>2020-09-23T10:33:29.485Z</time>
      </trkpt>
      <trkpt lat="65.68795" lon="21.7844">
        <ele>33.887189</ele>
        <time>2020-09-23T10:33:32.501Z</time>
      </trkpt>
      <trkpt lat="65.68783" lon="21.78437">
        <ele>33.827803</ele>
        <time>2020-09-23T10:33:36.492Z</time>
      </trkpt>
      <trkpt lat="65.68773" lon="21.78435">
        <ele>33.77385</ele>
        <time>2020-09-23T10:33:40.484Z</time>
      </trkpt>
      <trkpt lat="65.68762" lon="21.78439">
        <ele>33.720116</ele>
        <time>2020-09-23T10:33:44.530Z</time>
      </trkpt>
      <trkpt lat="65.6875" lon="21.78438">
        <ele>33.658055</ele>
        <time>2020-09-23T10:33:48.469Z</time>
      </trkpt>
      <trkpt lat="65.68741" lon="21.78439">
        <ele>33.611852</ele>
        <time>2020-09-23T10:33:51.472Z</time>
      </trkpt>
      <trkpt lat="65.68729" lon="21.78443">
        <ele>33.549706</ele>
        <time>2020-09-23T10:33:55.500Z</time>
      </trkpt>
      <trkpt lat="65.6872" lon="21.78446">
        <ele>33.503784</ele>
        <time>2020-09-23T10:33:58.476Z</time>
      </trkpt>
      <trkpt lat="65.68709" lon="21.78447">
        <ele>33.446813</ele>
        <time>2020-09-23T10:34:02.489Z</time>
      </trkpt>
      <trkpt lat="65.68698" lon="21.78454">
        <ele>33.387452</ele>
        <time>2020-09-23T10:34:06.461Z</time>
      </trkpt>
      <trkpt lat="65.68687" lon="21.78462">
        <ele>33.325315</ele>
        <time>2020-09-23T10:34:10.461Z</time>
      </trkpt>
      <trkpt lat="65.68676" lon="21.78464">
        <ele>33.272422</ele>
        <time>2020-09-23T10:34:13.479Z</time>
      </trkpt>
      <trkpt lat="65.68666" lon="21.78466">
        <ele>33.217807</ele>
        <time>2020-09-23T10:34:16.466Z</time>
      </trkpt>
      <trkpt lat="65.68656" lon="21.7847">
        <ele>33.166231</ele>
        <time>2020-09-23T10:34:19.463Z</time>
      </trkpt>
      <trkpt lat="65.68647" lon="21.78478">
        <ele>33.117084</ele>
        <time>2020-09-23T10:34:22.476Z</time>
      </trkpt>
      <trkpt lat="65.68637" lon="21.78487">
        <ele>33.131466</ele>
        <time>2020-09-23T10:34:25.485Z</time>
      </trkpt>
      <trkpt lat="65.68629" lon="21.78499">
        <ele>33.198907</ele>
        <time>2020-09-23T10:34:28.475Z</time>
      </trkpt>
      <trkpt lat="65.6862" lon="21.78512">
        <ele>33.26761</ele>
        <time>2020-09-23T10:34:31.466Z</time>
      </trkpt>
      <trkpt lat="65.68611" lon="21.78526">
        <ele>33.339486</ele>
        <time>2020-09-23T10:34:34.483Z</time>
      </trkpt>
      <trkpt lat="65.68601" lon="21.78541">
        <ele>33.41293</ele>
        <time>2020-09-23T10:34:37.516Z</time>
      </trkpt>
      <trkpt lat="65.68593" lon="21.78559">
        <ele>33.488061</ele>
        <time>2020-09-23T10:34:40.475Z</time>
      </trkpt>
      <trkpt lat="65.68584" lon="21.78577">
        <ele>33.564638</ele>
        <time>2020-09-23T10:34:43.482Z</time>
      </trkpt>
      <trkpt lat="65.68576" lon="21.78596">
        <ele>33.640818</ele>
        <time>2020-09-23T10:34:46.477Z</time>
      </trkpt>
      <trkpt lat="65.68568" lon="21.78614">
        <ele>33.712872</ele>
        <time>2020-09-23T10:34:49.475Z</time>
      </trkpt>
      <trkpt lat="65.68561" lon="21.78636">
        <ele>33.78963</ele>
        <time>2020-09-23T10:34:52.504Z</time>
      </trkpt>
      <trkpt lat="65.68554" lon="21.78659">
        <ele>33.866849</ele>
        <time>2020-09-23T10:34:55.505Z</time>
      </trkpt>
      <trkpt lat="65.68547" lon="21.78682">
        <ele>33.94534</ele>
        <time>2020-09-23T10:34:58.478Z</time>
      </trkpt>
      <trkpt lat="65.68542" lon="21.78705">
        <ele>34.017806</ele>
        <time>2020-09-23T10:35:01.490Z</time>
      </trkpt>
      <trkpt lat="65.68536" lon="21.78728">
        <ele>34.093736</ele>
        <time>2020-09-23T10:35:04.473Z</time>
      </trkpt>
      <trkpt lat="65.68529" lon="21.78749">
        <ele>34.168352</ele>
        <time>2020-09-23T10:35:07.467Z</time>
      </trkpt>
      <trkpt lat="65.68523" lon="21.78773">
        <ele>34.242998</ele>
        <time>2020-09-23T10:35:10.514Z</time>
      </trkpt>
      <trkpt lat="65.68518" lon="21.78799">
        <ele>34.270886</ele>
        <time>2020-09-23T10:35:13.496Z</time>
      </trkpt>
      <trkpt lat="65.68513" lon="21.78824">
        <ele>34.210156</ele>
        <time>2020-09-23T10:35:16.464Z</time>
      </trkpt>
      <trkpt lat="65.68508" lon="21.78847">
        <ele>34.15211</ele>
        <time>2020-09-23T10:35:19.474Z</time>
      </trkpt>
      <trkpt lat="65.68504" lon="21.78872">
        <ele>34.09284</ele>
        <time>2020-09-23T10:35:22.527Z</time>
      </trkpt>
      <trkpt lat="65.68499" lon="21.78895">
        <ele>34.037357</ele>
        <time>2020-09-23T10:35:25.486Z</time>
      </trkpt>
      <trkpt lat="65.68495" lon="21.78916">
        <ele>33.986981</ele>
        <time>2020-09-23T10:35:28.465Z</time>
      </trkpt>
      <trkpt lat="65.68492" lon="21.78938">
        <ele>33.935806</ele>
        <time>2020-09-23T10:35:31.481Z</time>
      </trkpt>
      <trkpt lat="65.68488" lon="21.78961">
        <ele>33.879995</ele>
        <time>2020-09-23T10:35:34.460Z</time>
      </trkpt>
      <trkpt lat="65.68484" lon="21.78986">
        <ele>33.820743</ele>
        <time>2020-09-23T10:35:37.479Z</time>
      </trkpt>
      <trkpt lat="65.68479" lon="21.79012">
        <ele>33.758854</ele>
        <time>2020-09-23T10:35:40.476Z</time>
      </trkpt>
      <trkpt lat="65.68475" lon="21.7904">
        <ele>33.693666</ele>
        <time>2020-09-23T10:35:43.543Z</time>
      </trkpt>
      <trkpt lat="65.68471" lon="21.79069">
        <ele>33.626969</ele>
        <time>2020-09-23T10:35:46.473Z</time>
      </trkpt>
      <trkpt lat="65.68467" lon="21.79096">
        <ele>33.563646</ele>
        <time>2020-09-23T10:35:49.505Z</time>
      </trkpt>
      <trkpt lat="65.68462" lon="21.79122">
        <ele>33.502366</ele>
        <time>2020-09-23T10:35:52.481Z</time>
      </trkpt>
      <trkpt lat="65.68458" lon="21.79145">
        <ele>33.445544</ele>
        <time>2020-09-23T10:35:55.467Z</time>
      </trkpt>
      <trkpt lat="65.68455" lon="21.7917">
        <ele>33.389874</ele>
        <time>2020-09-23T10:35:58.483Z</time>
      </trkpt>
      <trkpt lat="65.68452" lon="21.79194">
        <ele>33.337409</ele>
        <time>2020-09-23T10:36:01.460Z</time>
      </trkpt>
      <trkpt lat="65.68448" lon="21.79218">
        <ele>33.452545</ele>
        <time>2020-09-23T10:36:04.460Z</time>
      </trkpt>
      <trkpt lat="65.68443" lon="21.79243">
        <ele>33.574221</ele>
        <time>2020-09-23T10:36:07.486Z</time>
      </trkpt>
      <trkpt lat="65.6844" lon="21.79269">
        <ele>33.69485</ele>
        <time>2020-09-23T10:36:10.490Z</time>
      </trkpt>
      <trkpt lat="65.68436" lon="21.79292">
        <ele>33.804685</ele>
        <time>2020-09-23T10:36:13.479Z</time>
      </trkpt>
      <trkpt lat="65.68432" lon="21.79316">
        <ele>33.91902</ele>
        <time>2020-09-23T10:36:16.464Z</time>
      </trkpt>
      <trkpt lat="65.68429" lon="21.79342">
        <ele>34.034846</ele>
        <time>2020-09-23T10:36:19.499Z</time>
      </trkpt>
      <trkpt lat="65.68425" lon="21.79366">
        <ele>34.152476</ele>
        <time>2020-09-23T10:36:22.479Z</time>
      </trkpt>
      <trkpt lat="65.68421" lon="21.79391">
        <ele>34.268433</ele>
        <time>2020-09-23T10:36:25.499Z</time>
      </trkpt>
      <trkpt lat="65.68417" lon="21.79414">
        <ele>34.380761</ele>
        <time>2020-09-23T10:36:28.490Z</time>
      </trkpt>
      <trkpt lat="65.68414" lon="21.7944">
        <ele>34.498272</ele>
        <time>2020-09-23T10:36:31.476Z</time>
      </trkpt>
      <trkpt lat="65.68411" lon="21.79467">
        <ele>34.62218</ele>
        <time>2020-09-23T10:36:34.473Z</time>
      </trkpt>
      <trkpt lat="65.68408" lon="21.79492">
        <ele>34.737856</ele>
        <time>2020-09-23T10:36:37.477Z</time>
      </trkpt>
      <trkpt lat="65.68404" lon="21.79515">
        <ele>34.846068</ele>
        <time>2020-09-23T10:36:40.497Z</time>
      </trkpt>
      <trkpt lat="65.684" lon="21.79536">
        <ele>34.951046</ele>
        <time>2020-09-23T10:36:43.486Z</time>
      </trkpt>
      <trkpt lat="65.68396" lon="21.79556">
        <ele>35.049157</ele>
        <time>2020-09-23T10:36:46.462Z</time>
      </trkpt>
      <trkpt lat="65.68393" lon="21.79577">
        <ele>35.145923</ele>
        <time>2020-09-23T10:36:49.479Z</time>
      </trkpt>
      <trkpt lat="65.6839" lon="21.79599">
        <ele>35.250868</ele>
        <time>2020-09-23T10:36:52.480Z</time>
      </trkpt>
      <trkpt lat="65.68387" lon="21.79625">
        <ele>35.312788</ele>
        <time>2020-09-23T10:36:55.477Z</time>
      </trkpt>
      <trkpt lat="65.68385" lon="21.79646">
        <ele>35.36</ele>
        <time>2020-09-23T10:36:58.473Z</time>
      </trkpt>
      <trkpt lat="65.68381" lon="21.79668">
        <ele>35.41066</ele>
        <time>2020-09-23T10:37:01.467Z</time>
      </trkpt>
      <trkpt lat="65.68375" lon="21.79693">
        <ele>35.470587</ele>
        <time>2020-09-23T10:37:04.460Z</time>
      </trkpt>
      <trkpt lat="65.68369" lon="21.79717">
        <ele>35.531712</ele>
        <time>2020-09-23T10:37:07.494Z</time>
      </trkpt>
      <trkpt lat="65.68362" lon="21.79739">
        <ele>35.589712</ele>
        <time>2020-09-23T10:37:10.503Z</time>
      </trkpt>
      <trkpt lat="65.68355" lon="21.79756">
        <ele>35.64014</ele>
        <time>2020-09-23T10:37:13.478Z</time>
      </trkpt>
      <trkpt lat="65.68346" lon="21.79771">
        <ele>35.696671</ele>
        <time>2020-09-23T10:37:16.501Z</time>
      </trkpt>
      <trkpt lat="65.68336" lon="21.79789">
        <ele>35.758645</ele>
        <time>2020-09-23T10:37:19.492Z</time>
      </trkpt>
      <trkpt lat="65.68325" lon="21.79806">
        <ele>35.826199</ele>
        <time>2020-09-23T10:37:22.515Z</time>
      </trkpt>
      <trkpt lat="65.68317" lon="21.79819">
        <ele>35.874636</ele>
        <time>2020-09-23T10:37:24.479Z</time>
      </trkpt>
      <trkpt lat="65.6831" lon="21.79831">
        <ele>35.923092</ele>
        <time>2020-09-23T10:37:26.488Z</time>
      </trkpt>
      <trkpt lat="65.68302" lon="21.79845">
        <ele>35.972562</ele>
        <time>2020-09-23T10:37:28.510Z</time>
      </trkpt>
      <trkpt lat="65.68295" lon="21.79859">
        <ele>36.020362</ele>
        <time>2020-09-23T10:37:30.476Z</time>
      </trkpt>
      <trkpt lat="65.68287" lon="21.79874">
        <ele>36.068703</ele>
        <time>2020-09-23T10:37:32.491Z</time>
      </trkpt>
      <trkpt lat="65.6828" lon="21.79888">
        <ele>36.117041</ele>
        <time>2020-09-23T10:37:34.468Z</time>
      </trkpt>
      <trkpt lat="65.68273" lon="21.79901">
        <ele>36.163314</ele>
        <time>2020-09-23T10:37:36.464Z</time>
      </trkpt>
      <trkpt lat="65.68262" lon="21.7992">
        <ele>36.231377</ele>
        <time>2020-09-23T10:37:39.481Z</time>
      </trkpt>
      <trkpt lat="65.68251" lon="21.79938">
        <ele>36.301673</ele>
        <time>2020-09-23T10:37:42.542Z</time>
      </trkpt>
      <trkpt lat="65.6824" lon="21.79955">
        <ele>36.373251</ele>
        <time>2020-09-23T10:37:45.495Z</time>
      </trkpt>
      <trkpt lat="65.68229" lon="21.79974">
        <ele>36.4435</ele>
        <time>2020-09-23T10:37:48.483Z</time>
      </trkpt>
      <trkpt lat="65.6822" lon="21.79993">
        <ele>36.508448</ele>
        <time>2020-09-23T10:37:51.481Z</time>
      </trkpt>
      <trkpt lat="65.68212" lon="21.80012">
        <ele>36.568519</ele>
        <time>2020-09-23T10:37:54.541Z</time>
      </trkpt>
      <trkpt lat="65.68204" lon="21.80035">
        <ele>36.632387</ele>
        <time>2020-09-23T10:37:57.486Z</time>
      </trkpt>
      <trkpt lat="65.68194" lon="21.80055">
        <ele>36.698805</ele>
        <time>2020-09-23T10:38:00.488Z</time>
      </trkpt>
      <trkpt lat="65.68184" lon="21.80072">
        <ele>36.764319</ele>
        <time>2020-09-23T10:38:03.488Z</time>
      </trkpt>
      <trkpt lat="65.68173" lon="21.80087">
        <ele>36.83205</ele>
        <time>2020-09-23T10:38:06.472Z</time>
      </trkpt>
      <trkpt lat="65.68165" lon="21.80107">
        <ele>36.893788</ele>
        <time>2020-09-23T10:38:09.501Z</time>
      </trkpt>
      <trkpt lat="65.68153" lon="21.80123">
        <ele>36.964489</ele>
        <time>2020-09-23T10:38:12.475Z</time>
      </trkpt>
      <trkpt lat="65.68145" lon="21.80134">
        <ele>37.012057</ele>
        <time>2020-09-23T10:38:14.465Z</time>
      </trkpt>
      <trkpt lat="65.68136" lon="21.80152">
        <ele>37.077574</ele>
        <time>2020-09-23T10:38:17.479Z</time>
      </trkpt>
      <trkpt lat="65.68127" lon="21.80169">
        <ele>37.135933</ele>
        <time>2020-09-23T10:38:20.488Z</time>
      </trkpt>
      <trkpt lat="65.68117" lon="21.80185">
        <ele>37.194605</ele>
        <time>2020-09-23T10:38:23.474Z</time>
      </trkpt>
      <trkpt lat="65.68109" lon="21.80198">
        <ele>37.241317</ele>
        <time>2020-09-23T10:38:25.490Z</time>
      </trkpt>
      <trkpt lat="65.68101" lon="21.80211">
        <ele>37.288811</ele>
        <time>2020-09-23T10:38:27.482Z</time>
      </trkpt>
      <trkpt lat="65.6809" lon="21.8023">
        <ele>37.351698</ele>
        <time>2020-09-23T10:38:30.475Z</time>
      </trkpt>
      <trkpt lat="65.68079" lon="21.80246">
        <ele>37.417</ele>
        <time>2020-09-23T10:38:33.488Z</time>
      </trkpt>
      <trkpt lat="65.68068" lon="21.80261">
        <ele>37.477233</ele>
        <time>2020-09-23T10:38:36.508Z</time>
      </trkpt>
      <trkpt lat="65.68058" lon="21.80274">
        <ele>37.532456</ele>
        <time>2020-09-23T10:38:39.480Z</time>
      </trkpt>
      <trkpt lat="65.68048" lon="21.80291">
        <ele>37.589943</ele>
        <time>2020-09-23T10:38:42.462Z</time>
      </trkpt>
      <trkpt lat="65.6804" lon="21.80311">
        <ele>37.647105</ele>
        <time>2020-09-23T10:38:45.460Z</time>
      </trkpt>
      <trkpt lat="65.68031" lon="21.80335">
        <ele>37.710578</ele>
        <time>2020-09-23T10:38:48.483Z</time>
      </trkpt>
      <trkpt lat="65.68025" lon="21.80352">
        <ele>37.756438</ele>
        <time>2020-09-23T10:38:50.482Z</time>
      </trkpt>
      <trkpt lat="65.68018" lon="21.80371">
        <ele>37.805378</ele>
        <time>2020-09-23T10:38:52.471Z</time>
      </trkpt>
      <trkpt lat="65.68011" lon="21.80388">
        <ele>37.854016</ele>
        <time>2020-09-23T10:38:54.481Z</time>
      </trkpt>
      <trkpt lat="65.68001" lon="21.80395">
        <ele>37.905089</ele>
        <time>2020-09-23T10:38:56.516Z</time>
      </trkpt>
      <trkpt lat="65.6799" lon="21.80388">
        <ele>37.957909</ele>
        <time>2020-09-23T10:38:58.473Z</time>
      </trkpt>
      <trkpt lat="65.67983" lon="21.80369">
        <ele>38.008415</ele>
        <time>2020-09-23T10:39:00.490Z</time>
      </trkpt>
      <trkpt lat="65.67977" lon="21.80353">
        <ele>37.926864</ele>
        <time>2020-09-23T10:39:02.481Z</time>
      </trkpt>
      <trkpt lat="65.67967" lon="21.80332">
        <ele>37.789755</ele>
        <time>2020-09-23T10:39:05.472Z</time>
      </trkpt>
      <trkpt lat="65.67957" lon="21.80311">
        <ele>37.656004</ele>
        <time>2020-09-23T10:39:08.465Z</time>
      </trkpt>
      <trkpt lat="65.67951" lon="21.80295">
        <ele>37.561067</ele>
        <time>2020-09-23T10:39:10.469Z</time>
      </trkpt>
      <trkpt lat="65.67944" lon="21.8028">
        <ele>37.465398</ele>
        <time>2020-09-23T10:39:12.490Z</time>
      </trkpt>
      <trkpt lat="65.67934" lon="21.80259">
        <ele>37.334313</ele>
        <time>2020-09-23T10:39:15.477Z</time>
      </trkpt>
      <trkpt lat="65.67925" lon="21.80238">
        <ele>37.201322</ele>
        <time>2020-09-23T10:39:18.478Z</time>
      </trkpt>
      <trkpt lat="65.67916" lon="21.80218">
        <ele>37.072991</ele>
        <time>2020-09-23T10:39:21.460Z</time>
      </trkpt>
      <trkpt lat="65.67906" lon="21.80199">
        <ele>36.947169</ele>
        <time>2020-09-23T10:39:24.471Z</time>
      </trkpt>
      <trkpt lat="65.67897" lon="21.8018">
        <ele>36.821345</ele>
        <time>2020-09-23T10:39:27.474Z</time>
      </trkpt>
      <trkpt lat="65.67888" lon="21.80157">
        <ele>36.687781</ele>
        <time>2020-09-23T10:39:30.479Z</time>
      </trkpt>
      <trkpt lat="65.67881" lon="21.80142">
        <ele>36.592547</ele>
        <time>2020-09-23T10:39:32.474Z</time>
      </trkpt>
      <trkpt lat="65.67874" lon="21.80126">
        <ele>36.494135</ele>
        <time>2020-09-23T10:39:34.465Z</time>
      </trkpt>
      <trkpt lat="65.67867" lon="21.8011">
        <ele>36.395154</ele>
        <time>2020-09-23T10:39:36.473Z</time>
      </trkpt>
      <trkpt lat="65.6786" lon="21.80094">
        <ele>36.29225</ele>
        <time>2020-09-23T10:39:38.485Z</time>
      </trkpt>
      <trkpt lat="65.67851" lon="21.80077">
        <ele>36.177145</ele>
        <time>2020-09-23T10:39:40.500Z</time>
      </trkpt>
      <trkpt lat="65.67841" lon="21.80058">
        <ele>36.035131</ele>
        <time>2020-09-23T10:39:42.476Z</time>
      </trkpt>
      <trkpt lat="65.6783" lon="21.80038">
        <ele>35.876512</ele>
        <time>2020-09-23T10:39:44.481Z</time>
      </trkpt>
      <trkpt lat="65.67819" lon="21.80018">
        <ele>35.715383</ele>
        <time>2020-09-23T10:39:46.489Z</time>
      </trkpt>
      <trkpt lat="65.67808" lon="21.8">
        <ele>35.561378</ele>
        <time>2020-09-23T10:39:48.468Z</time>
      </trkpt>
      <trkpt lat="65.67799" lon="21.79987">
        <ele>35.431573</ele>
        <time>2020-09-23T10:39:50.482Z</time>
      </trkpt>
      <trkpt lat="65.6779" lon="21.79978">
        <ele>35.32305</ele>
        <time>2020-09-23T10:39:52.488Z</time>
      </trkpt>
      <trkpt lat="65.67778" lon="21.79972">
        <ele>35.179376</ele>
        <time>2020-09-23T10:39:55.471Z</time>
      </trkpt>
      <trkpt lat="65.67766" lon="21.79967">
        <ele>35.042839</ele>
        <time>2020-09-23T10:39:58.462Z</time>
      </trkpt>
      <trkpt lat="65.67755" lon="21.79964">
        <ele>34.913064</ele>
        <time>2020-09-23T10:40:01.499Z</time>
      </trkpt>
      <trkpt lat="65.67745" lon="21.79963">
        <ele>34.792136</ele>
        <time>2020-09-23T10:40:04.534Z</time>
      </trkpt>
      <trkpt lat="65.67736" lon="21.79965">
        <ele>34.687293</ele>
        <time>2020-09-23T10:40:07.481Z</time>
      </trkpt>
      <trkpt lat="65.67726" lon="21.79964">
        <ele>34.574641</ele>
        <time>2020-09-23T10:40:10.466Z</time>
      </trkpt>
      <trkpt lat="65.67715" lon="21.79962">
        <ele>34.452399</ele>
        <time>2020-09-23T10:40:13.496Z</time>
      </trkpt>
      <trkpt lat="65.67706" lon="21.7996">
        <ele>34.338221</ele>
        <time>2020-09-23T10:40:16.484Z</time>
      </trkpt>
      <trkpt lat="65.67694" lon="21.79958">
        <ele>34.20324</ele>
        <time>2020-09-23T10:40:20.494Z</time>
      </trkpt>
      <trkpt lat="65.67682" lon="21.79956">
        <ele>34.069896</ele>
        <time>2020-09-23T10:40:24.465Z</time>
      </trkpt>
      <trkpt lat="65.67671" lon="21.7995">
        <ele>34.05559</ele>
        <time>2020-09-23T10:40:28.485Z</time>
      </trkpt>
      <trkpt lat="65.67661" lon="21.79946">
        <ele>34.043452</ele>
        <time>2020-09-23T10:40:31.491Z</time>
      </trkpt>
      <trkpt lat="65.67652" lon="21.7994">
        <ele>34.03199</ele>
        <time>2020-09-23T10:40:34.481Z</time>
      </trkpt>
      <trkpt lat="65.67641" lon="21.79931">
        <ele>34.017366</ele>
        <time>2020-09-23T10:40:38.490Z</time>
      </trkpt>
      <trkpt lat="65.6763" lon="21.79919">
        <ele>34.002655</ele>
        <time>2020-09-23T10:40:42.462Z</time>
      </trkpt>
      <trkpt lat="65.6762" lon="21.79908">
        <ele>33.988578</ele>
        <time>2020-09-23T10:40:46.495Z</time>
      </trkpt>
      <trkpt lat="65.6761" lon="21.79895">
        <ele>33.974903</ele>
        <time>2020-09-23T10:40:50.492Z</time>
      </trkpt>
      <trkpt lat="65.67601" lon="21.79882">
        <ele>33.961697</ele>
        <time>2020-09-23T10:40:54.490Z</time>
      </trkpt>
      <trkpt lat="65.67591" lon="21.79866">
        <ele>33.947738</ele>
        <time>2020-09-23T10:40:58.494Z</time>
      </trkpt>
      <trkpt lat="65.67582" lon="21.79849">
        <ele>33.933285</ele>
        <time>2020-09-23T10:41:02.464Z</time>
      </trkpt>
      <trkpt lat="65.67573" lon="21.79832">
        <ele>33.919442</ele>
        <time>2020-09-23T10:41:06.477Z</time>
      </trkpt>
      <trkpt lat="65.67565" lon="21.79816">
        <ele>33.906042</ele>
        <time>2020-09-23T10:41:10.495Z</time>
      </trkpt>
      <trkpt lat="65.67556" lon="21.79799">
        <ele>33.892006</ele>
        <time>2020-09-23T10:41:14.474Z</time>
      </trkpt>
      <trkpt lat="65.67547" lon="21.79784">
        <ele>33.878857</ele>
        <time>2020-09-23T10:41:18.465Z</time>
      </trkpt>
      <trkpt lat="65.67538" lon="21.79769">
        <ele>33.865939</ele>
        <time>2020-09-23T10:41:22.482Z</time>
      </trkpt>
      <trkpt lat="65.67527" lon="21.79763">
        <ele>33.851198</ele>
        <time>2020-09-23T10:41:26.475Z</time>
      </trkpt>
      <trkpt lat="65.67517" lon="21.7977">
        <ele>33.697656</ele>
        <time>2020-09-23T10:41:29.493Z</time>
      </trkpt>
      <trkpt lat="65.67509" lon="21.79787">
        <ele>33.504455</ele>
        <time>2020-09-23T10:41:32.476Z</time>
      </trkpt>
      <trkpt lat="65.67502" lon="21.79806">
        <ele>33.30718</ele>
        <time>2020-09-23T10:41:35.514Z</time>
      </trkpt>
      <trkpt lat="65.67496" lon="21.79824">
        <ele>33.113661</ele>
        <time>2020-09-23T10:41:38.465Z</time>
      </trkpt>
      <trkpt lat="65.67489" lon="21.79843">
        <ele>32.917066</ele>
        <time>2020-09-23T10:41:41.480Z</time>
      </trkpt>
      <trkpt lat="65.67482" lon="21.79864">
        <ele>32.70316</ele>
        <time>2020-09-23T10:41:44.495Z</time>
      </trkpt>
      <trkpt lat="65.67474" lon="21.79888">
        <ele>32.465827</ele>
        <time>2020-09-23T10:41:47.479Z</time>
      </trkpt>
      <trkpt lat="65.67466" lon="21.79912">
        <ele>32.22785</ele>
        <time>2020-09-23T10:41:50.477Z</time>
      </trkpt>
      <trkpt lat="65.67458" lon="21.79936">
        <ele>31.991121</ele>
        <time>2020-09-23T10:41:53.467Z</time>
      </trkpt>
      <trkpt lat="65.67448" lon="21.79959">
        <ele>31.732692</ele>
        <time>2020-09-23T10:41:56.483Z</time>
      </trkpt>
      <trkpt lat="65.67442" lon="21.79978">
        <ele>31.544633</ele>
        <time>2020-09-23T10:41:58.506Z</time>
      </trkpt>
      <trkpt lat="65.67436" lon="21.79996">
        <ele>31.358349</ele>
        <time>2020-09-23T10:42:00.529Z</time>
      </trkpt>
      <trkpt lat="65.6743" lon="21.80015">
        <ele>31.171361</ele>
        <time>2020-09-23T10:42:02.469Z</time>
      </trkpt>
      <trkpt lat="65.67424" lon="21.80034">
        <ele>30.98789</ele>
        <time>2020-09-23T10:42:04.477Z</time>
      </trkpt>
      <trkpt lat="65.67418" lon="21.80051">
        <ele>30.810644</ele>
        <time>2020-09-23T10:42:06.459Z</time>
      </trkpt>
      <trkpt lat="65.67412" lon="21.80068">
        <ele>30.639208</ele>
        <time>2020-09-23T10:42:08.496Z</time>
      </trkpt>
      <trkpt lat="65.67403" lon="21.80091">
        <ele>30.393795</ele>
        <time>2020-09-23T10:42:11.487Z</time>
      </trkpt>
      <trkpt lat="65.67396" lon="21.80107">
        <ele>30.243904</ele>
        <time>2020-09-23T10:42:13.483Z</time>
      </trkpt>
      <trkpt lat="65.67391" lon="21.80124">
        <ele>30.092641</ele>
        <time>2020-09-23T10:42:15.467Z</time>
      </trkpt>
      <trkpt lat="65.67385" lon="21.80141">
        <ele>29.939279</ele>
        <time>2020-09-23T10:42:17.458Z</time>
      </trkpt>
      <trkpt lat="65.67379" lon="21.80157">
        <ele>29.788882</ele>
        <time>2020-09-23T10:42:19.560Z</time>
      </trkpt>
      <trkpt lat="65.67373" lon="21.80175">
        <ele>29.633919</ele>
        <time>2020-09-23T10:42:21.489Z</time>
      </trkpt>
      <trkpt lat="65.67367" lon="21.80193">
        <ele>29.477466</ele>
        <time>2020-09-23T10:42:23.483Z</time>
      </trkpt>
      <trkpt lat="65.67361" lon="21.80211">
        <ele>29.317741</ele>
        <time>2020-09-23T10:42:25.460Z</time>
      </trkpt>
      <trkpt lat="65.67355" lon="21.80228">
        <ele>29.162777</ele>
        <time>2020-09-23T10:42:27.516Z</time>
      </trkpt>
      <trkpt lat="65.67347" lon="21.80254">
        <ele>28.938824</ele>
        <time>2020-09-23T10:42:30.473Z</time>
      </trkpt>
      <trkpt lat="65.67341" lon="21.80271">
        <ele>28.786528</ele>
        <time>2020-09-23T10:42:32.476Z</time>
      </trkpt>
      <trkpt lat="65.67335" lon="21.80288">
        <ele>28.633624</ele>
        <time>2020-09-23T10:42:34.475Z</time>
      </trkpt>
      <trkpt lat="65.67329" lon="21.80305">
        <ele>28.4834</ele>
        <time>2020-09-23T10:42:36.468Z</time>
      </trkpt>
      <trkpt lat="65.67321" lon="21.8033">
        <ele>28.260525</ele>
        <time>2020-09-23T10:42:39.482Z</time>
      </trkpt>
      <trkpt lat="65.67313" lon="21.80353">
        <ele>28.047169</ele>
        <time>2020-09-23T10:42:42.483Z</time>
      </trkpt>
      <trkpt lat="65.67304" lon="21.80377">
        <ele>27.827361</ele>
        <time>2020-09-23T10:42:45.479Z</time>
      </trkpt>
      <trkpt lat="65.67295" lon="21.804">
        <ele>27.618468</ele>
        <time>2020-09-23T10:42:48.526Z</time>
      </trkpt>
      <trkpt lat="65.67287" lon="21.80424">
        <ele>27.441973</ele>
        <time>2020-09-23T10:42:51.474Z</time>
      </trkpt>
      <trkpt lat="65.67279" lon="21.80449">
        <ele>27.414279</ele>
        <time>2020-09-23T10:42:54.470Z</time>
      </trkpt>
      <trkpt lat="65.6727" lon="21.80473">
        <ele>27.38737</ele>
        <time>2020-09-23T10:42:57.516Z</time>
      </trkpt>
      <trkpt lat="65.67262" lon="21.80497">
        <ele>27.360673</ele>
        <time>2020-09-23T10:43:00.488Z</time>
      </trkpt>
      <trkpt lat="65.67256" lon="21.80514">
        <ele>27.342136</ele>
        <time>2020-09-23T10:43:02.478Z</time>
      </trkpt>
      <trkpt lat="65.6725" lon="21.8053">
        <ele>27.32334</ele>
        <time>2020-09-23T10:43:04.481Z</time>
      </trkpt>
      <trkpt lat="65.67244" lon="21.80546">
        <ele>27.304499</ele>
        <time>2020-09-23T10:43:06.464Z</time>
      </trkpt>
      <trkpt lat="65.67235" lon="21.8057">
        <ele>27.276857</ele>
        <time>2020-09-23T10:43:09.499Z</time>
      </trkpt>
      <trkpt lat="65.67229" lon="21.80587">
        <ele>27.25783</ele>
        <time>2020-09-23T10:43:11.506Z</time>
      </trkpt>
      <trkpt lat="65.67223" lon="21.80603">
        <ele>27.238804</ele>
        <time>2020-09-23T10:43:13.470Z</time>
      </trkpt>
      <trkpt lat="65.67214" lon="21.80627">
        <ele>27.211134</ele>
        <time>2020-09-23T10:43:16.470Z</time>
      </trkpt>
      <trkpt lat="65.67204" lon="21.80649">
        <ele>27.183618</ele>
        <time>2020-09-23T10:43:19.495Z</time>
      </trkpt>
      <trkpt lat="65.67198" lon="21.80664">
        <ele>27.164788</ele>
        <time>2020-09-23T10:43:21.465Z</time>
      </trkpt>
      <trkpt lat="65.67191" lon="21.80679">
        <ele>27.146122</ele>
        <time>2020-09-23T10:43:23.485Z</time>
      </trkpt>
      <trkpt lat="65.6718" lon="21.80698">
        <ele>27.118688</ele>
        <time>2020-09-23T10:43:26.476Z</time>
      </trkpt>
      <trkpt lat="65.6717" lon="21.80717">
        <ele>27.091805</ele>
        <time>2020-09-23T10:43:29.483Z</time>
      </trkpt>
      <trkpt lat="65.67159" lon="21.80736">
        <ele>27.053367</ele>
        <time>2020-09-23T10:43:32.477Z</time>
      </trkpt>
      <trkpt lat="65.67151" lon="21.80747">
        <ele>27.017128</ele>
        <time>2020-09-23T10:43:34.475Z</time>
      </trkpt>
      <trkpt lat="65.67142" lon="21.80757">
        <ele>26.980014</ele>
        <time>2020-09-23T10:43:36.487Z</time>
      </trkpt>
      <trkpt lat="65.67134" lon="21.80768">
        <ele>26.942287</ele>
        <time>2020-09-23T10:43:38.483Z</time>
      </trkpt>
      <trkpt lat="65.67126" lon="21.80778">
        <ele>26.905172</ele>
        <time>2020-09-23T10:43:40.483Z</time>
      </trkpt>
      <trkpt lat="65.67118" lon="21.8079">
        <ele>26.868678</ele>
        <time>2020-09-23T10:43:42.464Z</time>
      </trkpt>
      <trkpt lat="65.6711" lon="21.80802">
        <ele>26.831323</ele>
        <time>2020-09-23T10:43:44.467Z</time>
      </trkpt>
      <trkpt lat="65.67102" lon="21.80814">
        <ele>26.794304</ele>
        <time>2020-09-23T10:43:46.462Z</time>
      </trkpt>
      <trkpt lat="65.67094" lon="21.80826">
        <ele>26.757037</ele>
        <time>2020-09-23T10:43:48.495Z</time>
      </trkpt>
      <trkpt lat="65.67086" lon="21.80837">
        <ele>26.720437</ele>
        <time>2020-09-23T10:43:50.479Z</time>
      </trkpt>
      <trkpt lat="65.67078" lon="21.80848">
        <ele>26.683097</ele>
        <time>2020-09-23T10:43:52.485Z</time>
      </trkpt>
      <trkpt lat="65.6707" lon="21.80858">
        <ele>26.645756</ele>
        <time>2020-09-23T10:43:54.478Z</time>
      </trkpt>
      <trkpt lat="65.67062" lon="21.80869">
        <ele>26.609044</ele>
        <time>2020-09-23T10:43:56.505Z</time>
      </trkpt>
      <trkpt lat="65.67054" lon="21.80879">
        <ele>26.57319</ele>
        <time>2020-09-23T10:43:58.517Z</time>
      </trkpt>
      <trkpt lat="65.67042" lon="21.80896">
        <ele>26.519634</ele>
        <time>2020-09-23T10:44:01.487Z</time>
      </trkpt>
      <trkpt lat="65.67035" lon="21.80908">
        <ele>26.483797</ele>
        <time>2020-09-23T10:44:03.476Z</time>
      </trkpt>
      <trkpt lat="65.67027" lon="21.80918">
        <ele>26.446927</ele>
        <time>2020-09-23T10:44:05.470Z</time>
      </trkpt>
      <trkpt lat="65.67019" lon="21.80929">
        <ele>26.410407</ele>
        <time>2020-09-23T10:44:07.481Z</time>
      </trkpt>
      <trkpt lat="65.67011" lon="21.80941">
        <ele>26.374252</ele>
        <time>2020-09-23T10:44:09.475Z</time>
      </trkpt>
      <trkpt lat="65.67" lon="21.80957">
        <ele>26.439039</ele>
        <time>2020-09-23T10:44:12.501Z</time>
      </trkpt>
      <trkpt lat="65.66988" lon="21.80971">
        <ele>26.563843</ele>
        <time>2020-09-23T10:44:15.481Z</time>
      </trkpt>
      <trkpt lat="65.66976" lon="21.80986">
        <ele>26.686403</ele>
        <time>2020-09-23T10:44:18.465Z</time>
      </trkpt>
      <trkpt lat="65.66965" lon="21.81001">
        <ele>26.803666</ele>
        <time>2020-09-23T10:44:21.486Z</time>
      </trkpt>
      <trkpt lat="65.66955" lon="21.81018">
        <ele>26.922911</ele>
        <time>2020-09-23T10:44:24.496Z</time>
      </trkpt>
      <trkpt lat="65.66944" lon="21.81033">
        <ele>27.040555</ele>
        <time>2020-09-23T10:44:27.494Z</time>
      </trkpt>
      <trkpt lat="65.66933" lon="21.81046">
        <ele>27.157095</ele>
        <time>2020-09-23T10:44:30.470Z</time>
      </trkpt>
      <trkpt lat="65.66922" lon="21.81061">
        <ele>27.270495</ele>
        <time>2020-09-23T10:44:33.503Z</time>
      </trkpt>
      <trkpt lat="65.66913" lon="21.81077">
        <ele>27.380537</ele>
        <time>2020-09-23T10:44:36.486Z</time>
      </trkpt>
      <trkpt lat="65.66903" lon="21.81091">
        <ele>27.48717</ele>
        <time>2020-09-23T10:44:39.499Z</time>
      </trkpt>
      <trkpt lat="65.66894" lon="21.81107">
        <ele>27.591515</ele>
        <time>2020-09-23T10:44:42.471Z</time>
      </trkpt>
      <trkpt lat="65.66884" lon="21.81121">
        <ele>27.695917</ele>
        <time>2020-09-23T10:44:45.484Z</time>
      </trkpt>
      <trkpt lat="65.66876" lon="21.81136">
        <ele>27.79595</ele>
        <time>2020-09-23T10:44:48.465Z</time>
      </trkpt>
      <trkpt lat="65.66867" lon="21.81151">
        <ele>27.892349</ele>
        <time>2020-09-23T10:44:51.518Z</time>
      </trkpt>
      <trkpt lat="65.66859" lon="21.81167">
        <ele>27.989045</ele>
        <time>2020-09-23T10:44:54.492Z</time>
      </trkpt>
      <trkpt lat="65.66852" lon="21.81185">
        <ele>28.199013</ele>
        <time>2020-09-23T10:44:57.470Z</time>
      </trkpt>
      <trkpt lat="65.66844" lon="21.81202">
        <ele>28.533195</ele>
        <time>2020-09-23T10:45:00.484Z</time>
      </trkpt>
      <trkpt lat="65.66837" lon="21.81218">
        <ele>28.860784</ele>
        <time>2020-09-23T10:45:03.478Z</time>
      </trkpt>
      <trkpt lat="65.66829" lon="21.81237">
        <ele>29.207448</ele>
        <time>2020-09-23T10:45:06.473Z</time>
      </trkpt>
      <trkpt lat="65.66822" lon="21.81256">
        <ele>29.549601</ele>
        <time>2020-09-23T10:45:09.494Z</time>
      </trkpt>
      <trkpt lat="65.66815" lon="21.81276">
        <ele>29.908297</ele>
        <time>2020-09-23T10:45:12.484Z</time>
      </trkpt>
      <trkpt lat="65.66808" lon="21.81296">
        <ele>30.254335</ele>
        <time>2020-09-23T10:45:15.478Z</time>
      </trkpt>
      <trkpt lat="65.66802" lon="21.81319">
        <ele>30.607927</ele>
        <time>2020-09-23T10:45:18.461Z</time>
      </trkpt>
      <trkpt lat="65.66796" lon="21.81341">
        <ele>30.966625</ele>
        <time>2020-09-23T10:45:21.471Z</time>
      </trkpt>
      <trkpt lat="65.66791" lon="21.81366">
        <ele>31.340105</ele>
        <time>2020-09-23T10:45:24.475Z</time>
      </trkpt>
      <trkpt lat="65.66785" lon="21.81388">
        <ele>31.679524</ele>
        <time>2020-09-23T10:45:27.472Z</time>
      </trkpt>
      <trkpt lat="65.66779" lon="21.81404">
        <ele>31.988314</ele>
        <time>2020-09-23T10:45:30.463Z</time>
      </trkpt>
      <trkpt lat="65.66772" lon="21.81425">
        <ele>32.327656</ele>
        <time>2020-09-23T10:45:33.487Z</time>
      </trkpt>
      <trkpt lat="65.66767" lon="21.81442">
        <ele>32.622205</ele>
        <time>2020-09-23T10:45:36.475Z</time>
      </trkpt>
      <trkpt lat="65.66761" lon="21.81458">
        <ele>32.912882</ele>
        <time>2020-09-23T10:45:39.494Z</time>
      </trkpt>
      <trkpt lat="65.66755" lon="21.81477">
        <ele>33.216512</ele>
        <time>2020-09-23T10:45:42.494Z</time>
      </trkpt>
      <trkpt lat="65.66748" lon="21.81495">
        <ele>33.549998</ele>
        <time>2020-09-23T10:45:45.473Z</time>
      </trkpt>
      <trkpt lat="65.66742" lon="21.81514">
        <ele>33.867329</ele>
        <time>2020-09-23T10:45:48.458Z</time>
      </trkpt>
      <trkpt lat="65.66737" lon="21.81533">
        <ele>34.182251</ele>
        <time>2020-09-23T10:45:51.509Z</time>
      </trkpt>
      <trkpt lat="65.6673" lon="21.81554">
        <ele>34.5555</ele>
        <time>2020-09-23T10:45:55.492Z</time>
      </trkpt>
      <trkpt lat="65.66723" lon="21.81571">
        <ele>34.882063</ele>
        <time>2020-09-23T10:45:59.474Z</time>
      </trkpt>
      <trkpt lat="65.66715" lon="21.81589">
        <ele>35.238631</ele>
        <time>2020-09-23T10:46:04.466Z</time>
      </trkpt>
      <trkpt lat="65.66708" lon="21.81605">
        <ele>35.551515</ele>
        <time>2020-09-23T10:46:08.469Z</time>
      </trkpt>
      <trkpt lat="65.66699" lon="21.81619">
        <ele>35.888105</ele>
        <time>2020-09-23T10:46:12.491Z</time>
      </trkpt>
      <trkpt lat="65.66692" lon="21.81634">
        <ele>36.211051</ele>
        <time>2020-09-23T10:46:16.482Z</time>
      </trkpt>
      <trkpt lat="65.66683" lon="21.81649">
        <ele>36.555027</ele>
        <time>2020-09-23T10:46:20.495Z</time>
      </trkpt>
      <trkpt lat="65.66673" lon="21.81658">
        <ele>36.90101</ele>
        <time>2020-09-23T10:46:24.469Z</time>
      </trkpt>
      <trkpt lat="65.66665" lon="21.81669">
        <ele>37.218772</ele>
        <time>2020-09-23T10:46:28.474Z</time>
      </trkpt>
      <trkpt lat="65.66657" lon="21.8168">
        <ele>37.521097</ele>
        <time>2020-09-23T10:46:32.485Z</time>
      </trkpt>
      <trkpt lat="65.66649" lon="21.8169">
        <ele>37.828507</ele>
        <time>2020-09-23T10:46:36.510Z</time>
      </trkpt>
      <trkpt lat="65.66639" lon="21.817">
        <ele>38.17193</ele>
        <time>2020-09-23T10:46:40.473Z</time>
      </trkpt>
      <trkpt lat="65.66629" lon="21.81708">
        <ele>38.504371</ele>
        <time>2020-09-23T10:46:44.475Z</time>
      </trkpt>
      <trkpt lat="65.66621" lon="21.81721">
        <ele>38.825527</ele>
        <time>2020-09-23T10:46:48.526Z</time>
      </trkpt>
      <trkpt lat="65.66613" lon="21.81737">
        <ele>39.182001</ele>
        <time>2020-09-23T10:46:52.476Z</time>
      </trkpt>
      <trkpt lat="65.66603" lon="21.81752">
        <ele>39.553916</ele>
        <time>2020-09-23T10:46:56.484Z</time>
      </trkpt>
      <trkpt lat="65.66595" lon="21.81761">
        <ele>39.690862</ele>
        <time>2020-09-23T10:46:59.484Z</time>
      </trkpt>
      <trkpt lat="65.66586" lon="21.8177">
        <ele>39.265666</ele>
        <time>2020-09-23T10:47:02.499Z</time>
      </trkpt>
      <trkpt lat="65.66577" lon="21.8178">
        <ele>38.843068</ele>
        <time>2020-09-23T10:47:05.481Z</time>
      </trkpt>
      <trkpt lat="65.66569" lon="21.81792">
        <ele>38.412056</ele>
        <time>2020-09-23T10:47:08.518Z</time>
      </trkpt>
      <trkpt lat="65.66559" lon="21.81804">
        <ele>37.934207</ele>
        <time>2020-09-23T10:47:11.477Z</time>
      </trkpt>
      <trkpt lat="65.66549" lon="21.81818">
        <ele>37.448922</ele>
        <time>2020-09-23T10:47:14.516Z</time>
      </trkpt>
      <trkpt lat="65.6654" lon="21.81834">
        <ele>36.958479</ele>
        <time>2020-09-23T10:47:17.478Z</time>
      </trkpt>
      <trkpt lat="65.66531" lon="21.81852">
        <ele>36.433594</ele>
        <time>2020-09-23T10:47:20.492Z</time>
      </trkpt>
      <trkpt lat="65.66522" lon="21.81871">
        <ele>35.901972</ele>
        <time>2020-09-23T10:47:23.515Z</time>
      </trkpt>
      <trkpt lat="65.66513" lon="21.81889">
        <ele>35.387353</ele>
        <time>2020-09-23T10:47:26.477Z</time>
      </trkpt>
      <trkpt lat="65.66503" lon="21.81908">
        <ele>34.855729</ele>
        <time>2020-09-23T10:47:29.479Z</time>
      </trkpt>
      <trkpt lat="65.66493" lon="21.81929">
        <ele>34.287182</ele>
        <time>2020-09-23T10:47:32.499Z</time>
      </trkpt>
      <trkpt lat="65.66485" lon="21.81951">
        <ele>33.747574</ele>
        <time>2020-09-23T10:47:35.478Z</time>
      </trkpt>
      <trkpt lat="65.66476" lon="21.81972">
        <ele>33.213167</ele>
        <time>2020-09-23T10:47:38.501Z</time>
      </trkpt>
      <trkpt lat="65.66468" lon="21.81992">
        <ele>32.699084</ele>
        <time>2020-09-23T10:47:41.485Z</time>
      </trkpt>
      <trkpt lat="65.6646" lon="21.82012">
        <ele>32.179307</ele>
        <time>2020-09-23T10:47:44.487Z</time>
      </trkpt>
      <trkpt lat="65.6645" lon="21.82032">
        <ele>31.919466</ele>
        <time>2020-09-23T10:47:47.498Z</time>
      </trkpt>
      <trkpt lat="65.66442" lon="21.82053">
        <ele>31.927398</ele>
        <time>2020-09-23T10:47:50.481Z</time>
      </trkpt>
      <trkpt lat="65.66433" lon="21.82073">
        <ele>31.935147</ele>
        <time>2020-09-23T10:47:53.496Z</time>
      </trkpt>
      <trkpt lat="65.66425" lon="21.82092">
        <ele>31.942465</ele>
        <time>2020-09-23T10:47:56.495Z</time>
      </trkpt>
      <trkpt lat="65.66418" lon="21.82112">
        <ele>31.949891</ele>
        <time>2020-09-23T10:47:59.489Z</time>
      </trkpt>
      <trkpt lat="65.66409" lon="21.82132">
        <ele>31.95765</ele>
        <time>2020-09-23T10:48:02.502Z</time>
      </trkpt>
      <trkpt lat="65.66401" lon="21.82151">
        <ele>31.965232</ele>
        <time>2020-09-23T10:48:05.499Z</time>
      </trkpt>
      <trkpt lat="65.66392" lon="21.82171">
        <ele>31.972965</ele>
        <time>2020-09-23T10:48:08.463Z</time>
      </trkpt>
      <trkpt lat="65.66384" lon="21.82189">
        <ele>31.980161</ele>
        <time>2020-09-23T10:48:11.484Z</time>
      </trkpt>
      <trkpt lat="65.66377" lon="21.82208">
        <ele>31.98687</ele>
        <time>2020-09-23T10:48:14.489Z</time>
      </trkpt>
      <trkpt lat="65.66371" lon="21.82228">
        <ele>31.993764</ele>
        <time>2020-09-23T10:48:17.470Z</time>
      </trkpt>
      <trkpt lat="65.66364" lon="21.82248">
        <ele>32.000739</ele>
        <time>2020-09-23T10:48:20.486Z</time>
      </trkpt>
      <trkpt lat="65.66357" lon="21.82268">
        <ele>32.007859</ele>
        <time>2020-09-23T10:48:23.490Z</time>
      </trkpt>
      <trkpt lat="65.66349" lon="21.82286">
        <ele>32.014894</ele>
        <time>2020-09-23T10:48:26.470Z</time>
      </trkpt>
      <trkpt lat="65.66341" lon="21.82304">
        <ele>32.02194</ele>
        <time>2020-09-23T10:48:29.492Z</time>
      </trkpt>
      <trkpt lat="65.66334" lon="21.82323">
        <ele>32.028958</ele>
        <time>2020-09-23T10:48:32.474Z</time>
      </trkpt>
      <trkpt lat="65.66327" lon="21.82341">
        <ele>32.055618</ele>
        <time>2020-09-23T10:48:35.499Z</time>
      </trkpt>
      <trkpt lat="65.6632" lon="21.82359">
        <ele>32.118015</ele>
        <time>2020-09-23T10:48:38.502Z</time>
      </trkpt>
      <trkpt lat="65.66312" lon="21.82375">
        <ele>32.180094</ele>
        <time>2020-09-23T10:48:41.478Z</time>
      </trkpt>
      <trkpt lat="65.66305" lon="21.82393">
        <ele>32.240932</ele>
        <time>2020-09-23T10:48:44.504Z</time>
      </trkpt>
      <trkpt lat="65.66298" lon="21.82409">
        <ele>32.302261</ele>
        <time>2020-09-23T10:48:47.492Z</time>
      </trkpt>
      <trkpt lat="65.6629" lon="21.82425">
        <ele>32.363262</ele>
        <time>2020-09-23T10:48:50.476Z</time>
      </trkpt>
      <trkpt lat="65.66282" lon="21.8244">
        <ele>32.426471</ele>
        <time>2020-09-23T10:48:53.486Z</time>
      </trkpt>
      <trkpt lat="65.66274" lon="21.82455">
        <ele>32.486666</ele>
        <time>2020-09-23T10:48:56.493Z</time>
      </trkpt>
      <trkpt lat="65.66266" lon="21.8247">
        <ele>32.548251</ele>
        <time>2020-09-23T10:48:59.507Z</time>
      </trkpt>
      <trkpt lat="65.66257" lon="21.82484">
        <ele>32.611008</ele>
        <time>2020-09-23T10:49:02.476Z</time>
      </trkpt>
      <trkpt lat="65.66249" lon="21.82499">
        <ele>32.671052</ele>
        <time>2020-09-23T10:49:05.487Z</time>
      </trkpt>
      <trkpt lat="65.66241" lon="21.82515">
        <ele>32.735342</ele>
        <time>2020-09-23T10:49:08.470Z</time>
      </trkpt>
      <trkpt lat="65.66232" lon="21.8253">
        <ele>32.799149</ele>
        <time>2020-09-23T10:49:11.484Z</time>
      </trkpt>
      <trkpt lat="65.66225" lon="21.82547">
        <ele>32.862211</ele>
        <time>2020-09-23T10:49:14.477Z</time>
      </trkpt>
      <trkpt lat="65.66216" lon="21.82563">
        <ele>32.926152</ele>
        <time>2020-09-23T10:49:17.494Z</time>
      </trkpt>
      <trkpt lat="65.66208" lon="21.82579">
        <ele>32.990404</ele>
        <time>2020-09-23T10:49:20.519Z</time>
      </trkpt>
      <trkpt lat="65.66199" lon="21.82596">
        <ele>33.061971</ele>
        <time>2020-09-23T10:49:23.468Z</time>
      </trkpt>
      <trkpt lat="65.66189" lon="21.82613">
        <ele>33.114573</ele>
        <time>2020-09-23T10:49:26.484Z</time>
      </trkpt>
      <trkpt lat="65.66179" lon="21.82631">
        <ele>33.08195</ele>
        <time>2020-09-23T10:49:29.492Z</time>
      </trkpt>
      <trkpt lat="65.66169" lon="21.82649">
        <ele>33.050267</ele>
        <time>2020-09-23T10:49:32.479Z</time>
      </trkpt>
      <trkpt lat="65.6616" lon="21.82666">
        <ele>33.020311</ele>
        <time>2020-09-23T10:49:35.478Z</time>
      </trkpt>
      <trkpt lat="65.66152" lon="21.82682">
        <ele>32.991375</ele>
        <time>2020-09-23T10:49:38.488Z</time>
      </trkpt>
      <trkpt lat="65.66143" lon="21.82699">
        <ele>32.962306</ele>
        <time>2020-09-23T10:49:41.513Z</time>
      </trkpt>
      <trkpt lat="65.66134" lon="21.82716">
        <ele>32.93249</ele>
        <time>2020-09-23T10:49:44.500Z</time>
      </trkpt>
      <trkpt lat="65.66125" lon="21.82735">
        <ele>32.900829</ele>
        <time>2020-09-23T10:49:47.543Z</time>
      </trkpt>
      <trkpt lat="65.66116" lon="21.82753">
        <ele>32.869991</ele>
        <time>2020-09-23T10:49:50.481Z</time>
      </trkpt>
      <trkpt lat="65.66107" lon="21.82769">
        <ele>32.840848</ele>
        <time>2020-09-23T10:49:53.476Z</time>
      </trkpt>
      <trkpt lat="65.66098" lon="21.82788">
        <ele>32.810906</ele>
        <time>2020-09-23T10:49:56.495Z</time>
      </trkpt>
      <trkpt lat="65.66091" lon="21.82808">
        <ele>32.780882</ele>
        <time>2020-09-23T10:49:59.481Z</time>
      </trkpt>
      <trkpt lat="65.66082" lon="21.82828">
        <ele>32.750123</ele>
        <time>2020-09-23T10:50:02.470Z</time>
      </trkpt>
      <trkpt lat="65.66074" lon="21.82849">
        <ele>32.719146</ele>
        <time>2020-09-23T10:50:05.477Z</time>
      </trkpt>
      <trkpt lat="65.66066" lon="21.82869">
        <ele>32.688977</ele>
        <time>2020-09-23T10:50:08.514Z</time>
      </trkpt>
      <trkpt lat="65.66059" lon="21.82887">
        <ele>32.660439</ele>
        <time>2020-09-23T10:50:11.496Z</time>
      </trkpt>
      <trkpt lat="65.66052" lon="21.82909">
        <ele>32.610137</ele>
        <time>2020-09-23T10:50:14.502Z</time>
      </trkpt>
      <trkpt lat="65.66047" lon="21.82935">
        <ele>32.541397</ele>
        <time>2020-09-23T10:50:17.467Z</time>
      </trkpt>
      <trkpt lat="65.66042" lon="21.82961">
        <ele>32.471944</ele>
        <time>2020-09-23T10:50:20.491Z</time>
      </trkpt>
      <trkpt lat="65.66037" lon="21.82985">
        <ele>32.405238</ele>
        <time>2020-09-23T10:50:23.474Z</time>
      </trkpt>
      <trkpt lat="65.66032" lon="21.83008">
        <ele>32.341533</ele>
        <time>2020-09-23T10:50:26.471Z</time>
      </trkpt>
      <trkpt lat="65.66027" lon="21.83033">
        <ele>32.276595</ele>
        <time>2020-09-23T10:50:29.485Z</time>
      </trkpt>
      <trkpt lat="65.66023" lon="21.83059">
        <ele>32.208108</ele>
        <time>2020-09-23T10:50:32.474Z</time>
      </trkpt>
      <trkpt lat="65.66018" lon="21.83084">
        <ele>32.140303</ele>
        <time>2020-09-23T10:50:35.494Z</time>
      </trkpt>
      <trkpt lat="65.66014" lon="21.83108">
        <ele>32.076714</ele>
        <time>2020-09-23T10:50:38.490Z</time>
      </trkpt>
      <trkpt lat="65.66009" lon="21.83132">
        <ele>32.011495</ele>
        <time>2020-09-23T10:50:41.487Z</time>
      </trkpt>
      <trkpt lat="65.66004" lon="21.83159">
        <ele>31.940718</ele>
        <time>2020-09-23T10:50:44.506Z</time>
      </trkpt>
      <trkpt lat="65.65998" lon="21.83186">
        <ele>31.867361</ele>
        <time>2020-09-23T10:50:47.482Z</time>
      </trkpt>
      <trkpt lat="65.65994" lon="21.83214">
        <ele>31.795201</ele>
        <time>2020-09-23T10:50:50.473Z</time>
      </trkpt>
      <trkpt lat="65.65991" lon="21.83236">
        <ele>31.739428</ele>
        <time>2020-09-23T10:50:52.467Z</time>
      </trkpt>
      <trkpt lat="65.65988" lon="21.83258">
        <ele>31.682544</ele>
        <time>2020-09-23T10:50:54.514Z</time>
      </trkpt>
      <trkpt lat="65.65985" lon="21.83279">
        <ele>31.628855</ele>
        <time>2020-09-23T10:50:56.485Z</time>
      </trkpt>
      <trkpt lat="65.65982" lon="21.83299">
        <ele>31.59134</ele>
        <time>2020-09-23T10:50:58.501Z</time>
      </trkpt>
      <trkpt lat="65.65978" lon="21.8333">
        <ele>31.609077</ele>
        <time>2020-09-23T10:51:01.469Z</time>
      </trkpt>
      <trkpt lat="65.65974" lon="21.83355">
        <ele>31.623505</ele>
        <time>2020-09-23T10:51:03.470Z</time>
      </trkpt>
      <trkpt lat="65.65971" lon="21.83379">
        <ele>31.637363</ele>
        <time>2020-09-23T10:51:05.506Z</time>
      </trkpt>
      <trkpt lat="65.65967" lon="21.83404">
        <ele>31.651917</ele>
        <time>2020-09-23T10:51:07.467Z</time>
      </trkpt>
      <trkpt lat="65.65962" lon="21.83428">
        <ele>31.666532</ele>
        <time>2020-09-23T10:51:09.471Z</time>
      </trkpt>
      <trkpt lat="65.65959" lon="21.83451">
        <ele>31.679837</ele>
        <time>2020-09-23T10:51:11.469Z</time>
      </trkpt>
      <trkpt lat="65.65956" lon="21.83472">
        <ele>31.691993</ele>
        <time>2020-09-23T10:51:13.482Z</time>
      </trkpt>
      <trkpt lat="65.65953" lon="21.83497">
        <ele>31.706114</ele>
        <time>2020-09-23T10:51:15.483Z</time>
      </trkpt>
      <trkpt lat="65.6595" lon="21.83521">
        <ele>31.720135</ele>
        <time>2020-09-23T10:51:17.507Z</time>
      </trkpt>
      <trkpt lat="65.65946" lon="21.83542">
        <ele>31.733153</ele>
        <time>2020-09-23T10:51:19.480Z</time>
      </trkpt>
      <trkpt lat="65.6594" lon="21.8357">
        <ele>31.750181</ele>
        <time>2020-09-23T10:51:22.472Z</time>
      </trkpt>
      <trkpt lat="65.65934" lon="21.83599">
        <ele>31.767879</ele>
        <time>2020-09-23T10:51:25.491Z</time>
      </trkpt>
      <trkpt lat="65.65931" lon="21.83623">
        <ele>31.782092</ele>
        <time>2020-09-23T10:51:27.521Z</time>
      </trkpt>
      <trkpt lat="65.65928" lon="21.83645">
        <ele>31.794576</ele>
        <time>2020-09-23T10:51:29.489Z</time>
      </trkpt>
      <trkpt lat="65.65924" lon="21.83665">
        <ele>31.806925</ele>
        <time>2020-09-23T10:51:31.523Z</time>
      </trkpt>
      <trkpt lat="65.6592" lon="21.83687">
        <ele>31.819606</ele>
        <time>2020-09-23T10:51:33.474Z</time>
      </trkpt>
      <trkpt lat="65.65917" lon="21.83708">
        <ele>31.763239</ele>
        <time>2020-09-23T10:51:35.476Z</time>
      </trkpt>
      <trkpt lat="65.65913" lon="21.83729">
        <ele>31.57725</ele>
        <time>2020-09-23T10:51:37.513Z</time>
      </trkpt>
      <trkpt lat="65.65908" lon="21.83757">
        <ele>31.321573</ele>
        <time>2020-09-23T10:51:40.479Z</time>
      </trkpt>
      <trkpt lat="65.65903" lon="21.83785">
        <ele>31.075617</ele>
        <time>2020-09-23T10:51:43.469Z</time>
      </trkpt>
      <trkpt lat="65.65897" lon="21.83813">
        <ele>30.815218</ele>
        <time>2020-09-23T10:51:46.473Z</time>
      </trkpt>
      <trkpt lat="65.65892" lon="21.83834">
        <ele>30.618289</ele>
        <time>2020-09-23T10:51:48.522Z</time>
      </trkpt>
      <trkpt lat="65.65887" lon="21.83858">
        <ele>30.395852</ele>
        <time>2020-09-23T10:51:50.475Z</time>
      </trkpt>
      <trkpt lat="65.65882" lon="21.83882">
        <ele>30.173414</ele>
        <time>2020-09-23T10:51:52.478Z</time>
      </trkpt>
      <trkpt lat="65.65877" lon="21.83907">
        <ele>29.942391</ele>
        <time>2020-09-23T10:51:54.482Z</time>
      </trkpt>
      <trkpt lat="65.65871" lon="21.83933">
        <ele>29.697478</ele>
        <time>2020-09-23T10:51:56.479Z</time>
      </trkpt>
      <trkpt lat="65.65865" lon="21.83957">
        <ele>29.465606</ele>
        <time>2020-09-23T10:51:58.497Z</time>
      </trkpt>
      <trkpt lat="65.65859" lon="21.83981">
        <ele>29.240023</ele>
        <time>2020-09-23T10:52:00.508Z</time>
      </trkpt>
      <trkpt lat="65.65853" lon="21.84003">
        <ele>29.016428</ele>
        <time>2020-09-23T10:52:02.500Z</time>
      </trkpt>
      <trkpt lat="65.65847" lon="21.84025">
        <ele>28.801873</ele>
        <time>2020-09-23T10:52:04.471Z</time>
      </trkpt>
      <trkpt lat="65.65841" lon="21.84047">
        <ele>28.584163</ele>
        <time>2020-09-23T10:52:06.479Z</time>
      </trkpt>
      <trkpt lat="65.65834" lon="21.84069">
        <ele>28.363732</ele>
        <time>2020-09-23T10:52:08.482Z</time>
      </trkpt>
      <trkpt lat="65.65827" lon="21.84091">
        <ele>28.127019</ele>
        <time>2020-09-23T10:52:10.469Z</time>
      </trkpt>
      <trkpt lat="65.65821" lon="21.84113">
        <ele>27.870508</ele>
        <time>2020-09-23T10:52:12.478Z</time>
      </trkpt>
      <trkpt lat="65.65814" lon="21.84135">
        <ele>27.611256</ele>
        <time>2020-09-23T10:52:14.505Z</time>
      </trkpt>
      <trkpt lat="65.65807" lon="21.84157">
        <ele>27.345309</ele>
        <time>2020-09-23T10:52:16.497Z</time>
      </trkpt>
      <trkpt lat="65.65799" lon="21.84181">
        <ele>27.075154</ele>
        <time>2020-09-23T10:52:18.490Z</time>
      </trkpt>
      <trkpt lat="65.65793" lon="21.84203">
        <ele>26.814142</ele>
        <time>2020-09-23T10:52:20.479Z</time>
      </trkpt>
      <trkpt lat="65.65786" lon="21.84224">
        <ele>26.571857</ele>
        <time>2020-09-23T10:52:22.471Z</time>
      </trkpt>
      <trkpt lat="65.6578" lon="21.84245">
        <ele>26.331967</ele>
        <time>2020-09-23T10:52:24.498Z</time>
      </trkpt>
      <trkpt lat="65.65774" lon="21.84264">
        <ele>26.109432</ele>
        <time>2020-09-23T10:52:26.480Z</time>
      </trkpt>
      <trkpt lat="65.65768" lon="21.84284">
        <ele>25.883031</ele>
        <time>2020-09-23T10:52:28.499Z</time>
      </trkpt>
      <trkpt lat="65.65762" lon="21.84302">
        <ele>25.66636</ele>
        <time>2020-09-23T10:52:30.461Z</time>
      </trkpt>
      <trkpt lat="65.65757" lon="21.8432">
        <ele>25.458956</ele>
        <time>2020-09-23T10:52:32.503Z</time>
      </trkpt>
      <trkpt lat="65.65749" lon="21.84346">
        <ele>25.154936</ele>
        <time>2020-09-23T10:52:35.500Z</time>
      </trkpt>
      <trkpt lat="65.65743" lon="21.84363">
        <ele>24.946791</ele>
        <time>2020-09-23T10:52:37.478Z</time>
      </trkpt>
      <trkpt lat="65.65738" lon="21.84382">
        <ele>24.732494</ele>
        <time>2020-09-23T10:52:39.490Z</time>
      </trkpt>
      <trkpt lat="65.65732" lon="21.844">
        <ele>24.523609</ele>
        <time>2020-09-23T10:52:41.480Z</time>
      </trkpt>
      <trkpt lat="65.65725" lon="21.84425">
        <ele>24.229864</ele>
        <time>2020-09-23T10:52:44.511Z</time>
      </trkpt>
      <trkpt lat="65.65718" lon="21.84452">
        <ele>24.132468</ele>
        <time>2020-09-23T10:52:47.480Z</time>
      </trkpt>
      <trkpt lat="65.65711" lon="21.84477">
        <ele>24.081537</ele>
        <time>2020-09-23T10:52:50.491Z</time>
      </trkpt>
      <trkpt lat="65.65704" lon="21.84501">
        <ele>24.031484</ele>
        <time>2020-09-23T10:52:53.513Z</time>
      </trkpt>
      <trkpt lat="65.65696" lon="21.84522">
        <ele>23.984106</ele>
        <time>2020-09-23T10:52:56.479Z</time>
      </trkpt>
      <trkpt lat="65.65689" lon="21.84544">
        <ele>23.938038</ele>
        <time>2020-09-23T10:52:59.502Z</time>
      </trkpt>
      <trkpt lat="65.65683" lon="21.84566">
        <ele>23.891752</ele>
        <time>2020-09-23T10:53:02.490Z</time>
      </trkpt>
      <trkpt lat="65.65677" lon="21.8459">
        <ele>23.844257</ele>
        <time>2020-09-23T10:53:05.519Z</time>
      </trkpt>
      <trkpt lat="65.6567" lon="21.84615">
        <ele>23.793973</ele>
        <time>2020-09-23T10:53:08.467Z</time>
      </trkpt>
      <trkpt lat="65.65663" lon="21.84639">
        <ele>23.744354</ele>
        <time>2020-09-23T10:53:11.499Z</time>
      </trkpt>
      <trkpt lat="65.65656" lon="21.84663">
        <ele>23.693649</ele>
        <time>2020-09-23T10:53:14.504Z</time>
      </trkpt>
      <trkpt lat="65.65648" lon="21.84689">
        <ele>23.640412</ele>
        <time>2020-09-23T10:53:17.498Z</time>
      </trkpt>
      <trkpt lat="65.65641" lon="21.84715">
        <ele>23.586939</ele>
        <time>2020-09-23T10:53:20.496Z</time>
      </trkpt>
      <trkpt lat="65.65633" lon="21.8474">
        <ele>23.5341</ele>
        <time>2020-09-23T10:53:23.523Z</time>
      </trkpt>
      <trkpt lat="65.65625" lon="21.84765">
        <ele>23.481608</ele>
        <time>2020-09-23T10:53:26.472Z</time>
      </trkpt>
      <trkpt lat="65.65619" lon="21.84789">
        <ele>23.457628</ele>
        <time>2020-09-23T10:53:29.481Z</time>
      </trkpt>
      <trkpt lat="65.65612" lon="21.84812">
        <ele>23.622829</ele>
        <time>2020-09-23T10:53:32.490Z</time>
      </trkpt>
      <trkpt lat="65.65605" lon="21.84835">
        <ele>23.785448</ele>
        <time>2020-09-23T10:53:35.485Z</time>
      </trkpt>
      <trkpt lat="65.65598" lon="21.84857">
        <ele>23.941209</ele>
        <time>2020-09-23T10:53:38.502Z</time>
      </trkpt>
      <trkpt lat="65.65591" lon="21.84879">
        <ele>24.0979</ele>
        <time>2020-09-23T10:53:41.500Z</time>
      </trkpt>
      <trkpt lat="65.65585" lon="21.849">
        <ele>24.246319</ele>
        <time>2020-09-23T10:53:44.506Z</time>
      </trkpt>
      <trkpt lat="65.65579" lon="21.84922">
        <ele>24.394363</ele>
        <time>2020-09-23T10:53:47.500Z</time>
      </trkpt>
      <trkpt lat="65.65573" lon="21.84943">
        <ele>24.544511</ele>
        <time>2020-09-23T10:53:50.487Z</time>
      </trkpt>
      <trkpt lat="65.65566" lon="21.84964">
        <ele>24.698127</ele>
        <time>2020-09-23T10:53:53.486Z</time>
      </trkpt>
      <trkpt lat="65.65559" lon="21.84984">
        <ele>24.849985</ele>
        <time>2020-09-23T10:53:56.516Z</time>
      </trkpt>
      <trkpt lat="65.65553" lon="21.85005">
        <ele>24.992095</ele>
        <time>2020-09-23T10:53:59.487Z</time>
      </trkpt>
      <trkpt lat="65.65547" lon="21.85024">
        <ele>25.127337</ele>
        <time>2020-09-23T10:54:02.475Z</time>
      </trkpt>
      <trkpt lat="65.65542" lon="21.85045">
        <ele>25.26819</ele>
        <time>2020-09-23T10:54:05.491Z</time>
      </trkpt>
      <trkpt lat="65.65536" lon="21.85064">
        <ele>25.404353</ele>
        <time>2020-09-23T10:54:08.471Z</time>
      </trkpt>
      <trkpt lat="65.6553" lon="21.85082">
        <ele>25.541092</ele>
        <time>2020-09-23T10:54:11.478Z</time>
      </trkpt>
      <trkpt lat="65.65524" lon="21.85102">
        <ele>25.68191</ele>
        <time>2020-09-23T10:54:14.504Z</time>
      </trkpt>
      <trkpt lat="65.65518" lon="21.85123">
        <ele>25.823834</ele>
        <time>2020-09-23T10:54:17.466Z</time>
      </trkpt>
      <trkpt lat="65.65512" lon="21.85144">
        <ele>25.923073</ele>
        <time>2020-09-23T10:54:20.468Z</time>
      </trkpt>
      <trkpt lat="65.65507" lon="21.85166">
        <ele>25.878793</ele>
        <time>2020-09-23T10:54:23.474Z</time>
      </trkpt>
      <trkpt lat="65.65501" lon="21.85189">
        <ele>25.833765</ele>
        <time>2020-09-23T10:54:26.472Z</time>
      </trkpt>
      <trkpt lat="65.65496" lon="21.85211">
        <ele>25.790837</ele>
        <time>2020-09-23T10:54:29.473Z</time>
      </trkpt>
      <trkpt lat="65.65491" lon="21.85234">
        <ele>25.745261</ele>
        <time>2020-09-23T10:54:32.489Z</time>
      </trkpt>
      <trkpt lat="65.65485" lon="21.85258">
        <ele>25.699885</ele>
        <time>2020-09-23T10:54:35.496Z</time>
      </trkpt>
      <trkpt lat="65.65479" lon="21.85282">
        <ele>25.650069</ele>
        <time>2020-09-23T10:54:38.495Z</time>
      </trkpt>
      <trkpt lat="65.65473" lon="21.85308">
        <ele>25.599018</ele>
        <time>2020-09-23T10:54:41.491Z</time>
      </trkpt>
      <trkpt lat="65.65466" lon="21.85333">
        <ele>25.549782</ele>
        <time>2020-09-23T10:54:44.501Z</time>
      </trkpt>
      <trkpt lat="65.6546" lon="21.85356">
        <ele>25.502696</ele>
        <time>2020-09-23T10:54:47.503Z</time>
      </trkpt>
      <trkpt lat="65.65454" lon="21.85381">
        <ele>25.451922</ele>
        <time>2020-09-23T10:54:50.491Z</time>
      </trkpt>
      <trkpt lat="65.65448" lon="21.85409">
        <ele>25.399928</ele>
        <time>2020-09-23T10:54:53.518Z</time>
      </trkpt>
      <trkpt lat="65.65444" lon="21.85428">
        <ele>25.361767</ele>
        <time>2020-09-23T10:54:55.495Z</time>
      </trkpt>
      <trkpt lat="65.65439" lon="21.85448">
        <ele>25.321812</ele>
        <time>2020-09-23T10:54:57.486Z</time>
      </trkpt>
      <trkpt lat="65.65433" lon="21.85468">
        <ele>25.281857</ele>
        <time>2020-09-23T10:54:59.490Z</time>
      </trkpt>
      <trkpt lat="65.65429" lon="21.85488">
        <ele>25.241509</ele>
        <time>2020-09-23T10:55:01.495Z</time>
      </trkpt>
      <trkpt lat="65.65423" lon="21.85509">
        <ele>25.200611</ele>
        <time>2020-09-23T10:55:03.468Z</time>
      </trkpt>
      <trkpt lat="65.65419" lon="21.85529">
        <ele>25.083258</ele>
        <time>2020-09-23T10:55:05.493Z</time>
      </trkpt>
      <trkpt lat="65.65414" lon="21.85549">
        <ele>24.941679</ele>
        <time>2020-09-23T10:55:07.464Z</time>
      </trkpt>
      <trkpt lat="65.65409" lon="21.85569">
        <ele>24.801886</ele>
        <time>2020-09-23T10:55:09.522Z</time>
      </trkpt>
      <trkpt lat="65.65403" lon="21.85589">
        <ele>24.658212</ele>
        <time>2020-09-23T10:55:11.501Z</time>
      </trkpt>
      <trkpt lat="65.65398" lon="21.85608">
        <ele>24.522121</ele>
        <time>2020-09-23T10:55:13.486Z</time>
      </trkpt>
      <trkpt lat="65.65394" lon="21.85627">
        <ele>24.389061</ele>
        <time>2020-09-23T10:55:15.491Z</time>
      </trkpt>
      <trkpt lat="65.65388" lon="21.85654">
        <ele>24.198362</ele>
        <time>2020-09-23T10:55:18.484Z</time>
      </trkpt>
      <trkpt lat="65.65382" lon="21.85681">
        <ele>24.016365</ele>
        <time>2020-09-23T10:55:21.512Z</time>
      </trkpt>
      <trkpt lat="65.65376" lon="21.85708">
        <ele>23.823899</ele>
        <time>2020-09-23T10:55:24.486Z</time>
      </trkpt>
      <trkpt lat="65.65369" lon="21.85735">
        <ele>23.636755</ele>
        <time>2020-09-23T10:55:27.490Z</time>
      </trkpt>
      <trkpt lat="65.65363" lon="21.85763">
        <ele>23.446048</ele>
        <time>2020-09-23T10:55:30.480Z</time>
      </trkpt>
      <trkpt lat="65.65356" lon="21.85791">
        <ele>23.248928</ele>
        <time>2020-09-23T10:55:33.491Z</time>
      </trkpt>
      <trkpt lat="65.6535" lon="21.85819">
        <ele>23.053983</ele>
        <time>2020-09-23T10:55:36.462Z</time>
      </trkpt>
      <trkpt lat="65.65344" lon="21.85844">
        <ele>22.875282</ele>
        <time>2020-09-23T10:55:39.495Z</time>
      </trkpt>
      <trkpt lat="65.65337" lon="21.85869">
        <ele>22.697872</ele>
        <time>2020-09-23T10:55:42.488Z</time>
      </trkpt>
      <trkpt lat="65.65331" lon="21.85893">
        <ele>22.553958</ele>
        <time>2020-09-23T10:55:45.466Z</time>
      </trkpt>
      <trkpt lat="65.65325" lon="21.85917">
        <ele>22.686536</ele>
        <time>2020-09-23T10:55:48.476Z</time>
      </trkpt>
      <trkpt lat="65.6532" lon="21.85939">
        <ele>22.810713</ele>
        <time>2020-09-23T10:55:51.519Z</time>
      </trkpt>
      <trkpt lat="65.65314" lon="21.85962">
        <ele>22.941234</ele>
        <time>2020-09-23T10:55:54.475Z</time>
      </trkpt>
      <trkpt lat="65.65308" lon="21.85984">
        <ele>23.069089</ele>
        <time>2020-09-23T10:55:57.492Z</time>
      </trkpt>
      <trkpt lat="65.65303" lon="21.86008">
        <ele>23.197521</ele>
        <time>2020-09-23T10:56:00.475Z</time>
      </trkpt>
      <trkpt lat="65.65297" lon="21.86031">
        <ele>23.32427</ele>
        <time>2020-09-23T10:56:03.480Z</time>
      </trkpt>
      <trkpt lat="65.65292" lon="21.86054">
        <ele>23.451758</ele>
        <time>2020-09-23T10:56:06.473Z</time>
      </trkpt>
      <trkpt lat="65.65287" lon="21.86076">
        <ele>23.57443</ele>
        <time>2020-09-23T10:56:09.476Z</time>
      </trkpt>
      <trkpt lat="65.65282" lon="21.86097">
        <ele>23.691199</ele>
        <time>2020-09-23T10:56:12.507Z</time>
      </trkpt>
      <trkpt lat="65.65277" lon="21.8612">
        <ele>23.811677</ele>
        <time>2020-09-23T10:56:15.502Z</time>
      </trkpt>
      <trkpt lat="65.65272" lon="21.86142">
        <ele>23.934083</ele>
        <time>2020-09-23T10:56:18.482Z</time>
      </trkpt>
      <trkpt lat="65.65267" lon="21.86163">
        <ele>24.050159</ele>
        <time>2020-09-23T10:56:21.491Z</time>
      </trkpt>
      <trkpt lat="65.65263" lon="21.86184">
        <ele>24.16426</ele>
        <time>2020-09-23T10:56:24.474Z</time>
      </trkpt>
      <trkpt lat="65.65258" lon="21.86204">
        <ele>24.274298</ele>
        <time>2020-09-23T10:56:27.487Z</time>
      </trkpt>
      <trkpt lat="65.65254" lon="21.86223">
        <ele>24.381699</ele>
        <time>2020-09-23T10:56:30.482Z</time>
      </trkpt>
      <trkpt lat="65.65247" lon="21.86246">
        <ele>24.516634</ele>
        <time>2020-09-23T10:56:34.499Z</time>
      </trkpt>
      <trkpt lat="65.65241" lon="21.86268">
        <ele>24.647229</ele>
        <time>2020-09-23T10:56:38.540Z</time>
      </trkpt>
      <trkpt lat="65.65234" lon="21.8629">
        <ele>24.818381</ele>
        <time>2020-09-23T10:56:42.486Z</time>
      </trkpt>
      <trkpt lat="65.65229" lon="21.86314">
        <ele>24.994148</ele>
        <time>2020-09-23T10:56:46.478Z</time>
      </trkpt>
      <trkpt lat="65.65224" lon="21.86339">
        <ele>25.168123</ele>
        <time>2020-09-23T10:56:50.476Z</time>
      </trkpt>
      <trkpt lat="65.65218" lon="21.86362">
        <ele>25.337113</ele>
        <time>2020-09-23T10:56:54.467Z</time>
      </trkpt>
      <trkpt lat="65.65213" lon="21.86379">
        <ele>25.47585</ele>
        <time>2020-09-23T10:56:57.489Z</time>
      </trkpt>
      <trkpt lat="65.65207" lon="21.86399">
        <ele>25.623892</ele>
        <time>2020-09-23T10:57:00.504Z</time>
      </trkpt>
      <trkpt lat="65.65201" lon="21.86421">
        <ele>25.795996</ele>
        <time>2020-09-23T10:57:04.546Z</time>
      </trkpt>
      <trkpt lat="65.65195" lon="21.86443">
        <ele>25.968817</ele>
        <time>2020-09-23T10:57:08.468Z</time>
      </trkpt>
      <trkpt lat="65.65188" lon="21.86466">
        <ele>26.141972</ele>
        <time>2020-09-23T10:57:12.496Z</time>
      </trkpt>
      <trkpt lat="65.65182" lon="21.86488">
        <ele>26.310683</ele>
        <time>2020-09-23T10:57:16.475Z</time>
      </trkpt>
      <trkpt lat="65.65176" lon="21.86512">
        <ele>26.490198</ele>
        <time>2020-09-23T10:57:20.482Z</time>
      </trkpt>
      <trkpt lat="65.6517" lon="21.86536">
        <ele>26.669149</ele>
        <time>2020-09-23T10:57:24.482Z</time>
      </trkpt>
      <trkpt lat="65.65164" lon="21.86559">
        <ele>26.836506</ele>
        <time>2020-09-23T10:57:28.486Z</time>
      </trkpt>
      <trkpt lat="65.65158" lon="21.8658">
        <ele>27.00858</ele>
        <time>2020-09-23T10:57:32.470Z</time>
      </trkpt>
      <trkpt lat="65.65152" lon="21.86602">
        <ele>27.177063</ele>
        <time>2020-09-23T10:57:36.489Z</time>
      </trkpt>
      <trkpt lat="65.65146" lon="21.86625">
        <ele>27.346603</ele>
        <time>2020-09-23T10:57:40.496Z</time>
      </trkpt>
      <trkpt lat="65.6514" lon="21.86648">
        <ele>27.450916</ele>
        <time>2020-09-23T10:57:44.486Z</time>
      </trkpt>
      <trkpt lat="65.65134" lon="21.86671">
        <ele>27.517181</ele>
        <time>2020-09-23T10:57:48.469Z</time>
      </trkpt>
      <trkpt lat="65.65128" lon="21.86695">
        <ele>27.584584</ele>
        <time>2020-09-23T10:57:52.468Z</time>
      </trkpt>
      <trkpt lat="65.65122" lon="21.86717">
        <ele>27.650175</ele>
        <time>2020-09-23T10:57:56.475Z</time>
      </trkpt>
      <trkpt lat="65.65116" lon="21.86735">
        <ele>27.703706</ele>
        <time>2020-09-23T10:57:59.486Z</time>
      </trkpt>
      <trkpt lat="65.6511" lon="21.86757">
        <ele>27.769949</ele>
        <time>2020-09-23T10:58:03.497Z</time>
      </trkpt>
      <trkpt lat="65.65104" lon="21.86781">
        <ele>27.839225</ele>
        <time>2020-09-23T10:58:07.488Z</time>
      </trkpt>
      <trkpt lat="65.65097" lon="21.86804">
        <ele>27.907135</ele>
        <time>2020-09-23T10:58:11.491Z</time>
      </trkpt>
      <trkpt lat="65.65091" lon="21.86826">
        <ele>27.971853</ele>
        <time>2020-09-23T10:58:15.517Z</time>
      </trkpt>
      <trkpt lat="65.65086" lon="21.86851">
        <ele>28.039887</ele>
        <time>2020-09-23T10:58:19.515Z</time>
      </trkpt>
      <trkpt lat="65.6508" lon="21.86875">
        <ele>28.108834</ele>
        <time>2020-09-23T10:58:23.510Z</time>
      </trkpt>
      <trkpt lat="65.65073" lon="21.86896">
        <ele>28.172867</ele>
        <time>2020-09-23T10:58:27.502Z</time>
      </trkpt>
      <trkpt lat="65.65067" lon="21.86919">
        <ele>28.239133</ele>
        <time>2020-09-23T10:58:31.483Z</time>
      </trkpt>
      <trkpt lat="65.65061" lon="21.86942">
        <ele>28.307453</ele>
        <time>2020-09-23T10:58:35.507Z</time>
      </trkpt>
      <trkpt lat="65.65055" lon="21.86964">
        <ele>28.371561</ele>
        <time>2020-09-23T10:58:39.519Z</time>
      </trkpt>
      <trkpt lat="65.65048" lon="21.86985">
        <ele>28.436718</ele>
        <time>2020-09-23T10:58:43.483Z</time>
      </trkpt>
      <trkpt lat="65.65042" lon="21.87007">
        <ele>28.533686</ele>
        <time>2020-09-23T10:58:47.486Z</time>
      </trkpt>
      <trkpt lat="65.65037" lon="21.87029">
        <ele>28.682897</ele>
        <time>2020-09-23T10:58:51.482Z</time>
      </trkpt>
      <trkpt lat="65.6503" lon="21.87052">
        <ele>28.841278</ele>
        <time>2020-09-23T10:58:55.480Z</time>
      </trkpt>
      <trkpt lat="65.65024" lon="21.87075">
        <ele>28.998099</ele>
        <time>2020-09-23T10:58:59.482Z</time>
      </trkpt>
      <trkpt lat="65.65018" lon="21.87097">
        <ele>29.142974</ele>
        <time>2020-09-23T10:59:03.527Z</time>
      </trkpt>
      <trkpt lat="65.65012" lon="21.87118">
        <ele>29.288143</ele>
        <time>2020-09-23T10:59:07.515Z</time>
      </trkpt>
      <trkpt lat="65.65007" lon="21.87142">
        <ele>29.444109</ele>
        <time>2020-09-23T10:59:11.508Z</time>
      </trkpt>
      <trkpt lat="65.65" lon="21.87166">
        <ele>29.605388</ele>
        <time>2020-09-23T10:59:15.478Z</time>
      </trkpt>
      <trkpt lat="65.64994" lon="21.87188">
        <ele>29.761801</ele>
        <time>2020-09-23T10:59:19.471Z</time>
      </trkpt>
      <trkpt lat="65.64987" lon="21.8721">
        <ele>29.916286</ele>
        <time>2020-09-23T10:59:23.472Z</time>
      </trkpt>
      <trkpt lat="65.64981" lon="21.87234">
        <ele>30.072737</ele>
        <time>2020-09-23T10:59:27.524Z</time>
      </trkpt>
      <trkpt lat="65.64975" lon="21.87258">
        <ele>30.22848</ele>
        <time>2020-09-23T10:59:31.476Z</time>
      </trkpt>
      <trkpt lat="65.6497" lon="21.87281">
        <ele>30.381796</ele>
        <time>2020-09-23T10:59:35.503Z</time>
      </trkpt>
      <trkpt lat="65.64964" lon="21.87302">
        <ele>30.528807</ele>
        <time>2020-09-23T10:59:39.499Z</time>
      </trkpt>
      <trkpt lat="65.64957" lon="21.87324">
        <ele>30.678156</ele>
        <time>2020-09-23T10:59:43.482Z</time>
      </trkpt>
      <trkpt lat="65.64951" lon="21.87345">
        <ele>30.822521</ele>
        <time>2020-09-23T10:59:47.505Z</time>
      </trkpt>
      <trkpt lat="65.64945" lon="21.87369">
        <ele>30.993184</ele>
        <time>2020-09-23T10:59:51.492Z</time>
      </trkpt>
      <trkpt lat="65.64939" lon="21.87392">
        <ele>31.17914</ele>
        <time>2020-09-23T10:59:55.532Z</time>
      </trkpt>
      <trkpt lat="65.64932" lon="21.87412">
        <ele>31.349425</ele>
        <time>2020-09-23T10:59:59.501Z</time>
      </trkpt>
      <trkpt lat="65.64926" lon="21.87435">
        <ele>31.537595</ele>
        <time>2020-09-23T11:00:03.476Z</time>
      </trkpt>
      <trkpt lat="65.6492" lon="21.87458">
        <ele>31.718874</ele>
        <time>2020-09-23T11:00:07.502Z</time>
      </trkpt>
      <trkpt lat="65.64914" lon="21.8748">
        <ele>31.89709</ele>
        <time>2020-09-23T11:00:11.480Z</time>
      </trkpt>
      <trkpt lat="65.64909" lon="21.87502">
        <ele>32.068375</ele>
        <time>2020-09-23T11:00:15.479Z</time>
      </trkpt>
      <trkpt lat="65.64903" lon="21.87525">
        <ele>32.249816</ele>
        <time>2020-09-23T11:00:19.499Z</time>
      </trkpt>
      <trkpt lat="65.64897" lon="21.87548">
        <ele>32.430466</ele>
        <time>2020-09-23T11:00:23.505Z</time>
      </trkpt>
      <trkpt lat="65.64891" lon="21.8757">
        <ele>32.606303</ele>
        <time>2020-09-23T11:00:27.501Z</time>
      </trkpt>
      <trkpt lat="65.64885" lon="21.8759">
        <ele>32.775242</ele>
        <time>2020-09-23T11:00:31.494Z</time>
      </trkpt>
      <trkpt lat="65.64877" lon="21.8761">
        <ele>32.956959</ele>
        <time>2020-09-23T11:00:35.505Z</time>
      </trkpt>
      <trkpt lat="65.6487" lon="21.87631">
        <ele>33.133979</ele>
        <time>2020-09-23T11:00:39.488Z</time>
      </trkpt>
      <trkpt lat="65.64864" lon="21.87654">
        <ele>33.32382</ele>
        <time>2020-09-23T11:00:43.498Z</time>
      </trkpt>
      <trkpt lat="65.64857" lon="21.87676">
        <ele>33.502807</ele>
        <time>2020-09-23T11:00:47.479Z</time>
      </trkpt>
      <trkpt lat="65.6485" lon="21.87695">
        <ele>33.677033</ele>
        <time>2020-09-23T11:00:51.516Z</time>
      </trkpt>
      <trkpt lat="65.64843" lon="21.87713">
        <ele>33.845483</ele>
        <time>2020-09-23T11:00:55.516Z</time>
      </trkpt>
      <trkpt lat="65.64836" lon="21.87732">
        <ele>34.028666</ele>
        <time>2020-09-23T11:00:59.479Z</time>
      </trkpt>
      <trkpt lat="65.64829" lon="21.87752">
        <ele>34.227247</ele>
        <time>2020-09-23T11:01:03.507Z</time>
      </trkpt>
      <trkpt lat="65.64822" lon="21.87771">
        <ele>34.421046</ele>
        <time>2020-09-23T11:01:07.498Z</time>
      </trkpt>
      <trkpt lat="65.64815" lon="21.87789">
        <ele>34.605668</ele>
        <time>2020-09-23T11:01:11.480Z</time>
      </trkpt>
      <trkpt lat="65.64808" lon="21.87808">
        <ele>34.785997</ele>
        <time>2020-09-23T11:01:15.465Z</time>
      </trkpt>
      <trkpt lat="65.64801" lon="21.87826">
        <ele>34.98008</ele>
        <time>2020-09-23T11:01:19.490Z</time>
      </trkpt>
      <trkpt lat="65.64793" lon="21.87845">
        <ele>35.173815</ele>
        <time>2020-09-23T11:01:23.516Z</time>
      </trkpt>
      <trkpt lat="65.64786" lon="21.87865">
        <ele>35.378468</ele>
        <time>2020-09-23T11:01:27.482Z</time>
      </trkpt>
      <trkpt lat="65.64779" lon="21.87886">
        <ele>35.579557</ele>
        <time>2020-09-23T11:01:31.480Z</time>
      </trkpt>
      <trkpt lat="65.64771" lon="21.87905">
        <ele>35.7855</ele>
        <time>2020-09-23T11:01:35.492Z</time>
      </trkpt>
      <trkpt lat="65.64763" lon="21.87925">
        <ele>35.990101</ele>
        <time>2020-09-23T11:01:39.492Z</time>
      </trkpt>
      <trkpt lat="65.64754" lon="21.87944">
        <ele>36.199143</ele>
        <time>2020-09-23T11:01:43.499Z</time>
      </trkpt>
      <trkpt lat="65.64747" lon="21.87966">
        <ele>36.408537</ele>
        <time>2020-09-23T11:01:47.499Z</time>
      </trkpt>
      <trkpt lat="65.6474" lon="21.87986">
        <ele>36.605769</ele>
        <time>2020-09-23T11:01:51.478Z</time>
      </trkpt>
      <trkpt lat="65.64732" lon="21.88006">
        <ele>36.811076</ele>
        <time>2020-09-23T11:01:55.509Z</time>
      </trkpt>
      <trkpt lat="65.64724" lon="21.88024">
        <ele>37.019152</ele>
        <time>2020-09-23T11:01:59.489Z</time>
      </trkpt>
      <trkpt lat="65.64717" lon="21.88039">
        <ele>37.152291</ele>
        <time>2020-09-23T11:02:02.481Z</time>
      </trkpt>
      <trkpt lat="65.6471" lon="21.88057">
        <ele>37.229163</ele>
        <time>2020-09-23T11:02:05.488Z</time>
      </trkpt>
      <trkpt lat="65.64703" lon="21.88076">
        <ele>37.303527</ele>
        <time>2020-09-23T11:02:08.505Z</time>
      </trkpt>
      <trkpt lat="65.64696" lon="21.88094">
        <ele>37.379158</ele>
        <time>2020-09-23T11:02:11.477Z</time>
      </trkpt>
      <trkpt lat="65.64689" lon="21.88111">
        <ele>37.454891</ele>
        <time>2020-09-23T11:02:14.491Z</time>
      </trkpt>
      <trkpt lat="65.64682" lon="21.8813">
        <ele>37.533755</ele>
        <time>2020-09-23T11:02:17.478Z</time>
      </trkpt>
      <trkpt lat="65.64676" lon="21.8815">
        <ele>37.609745</ele>
        <time>2020-09-23T11:02:20.480Z</time>
      </trkpt>
      <trkpt lat="65.64668" lon="21.88168">
        <ele>37.690946</ele>
        <time>2020-09-23T11:02:23.474Z</time>
      </trkpt>
      <trkpt lat="65.6466" lon="21.88185">
        <ele>37.767324</ele>
        <time>2020-09-23T11:02:26.473Z</time>
      </trkpt>
      <trkpt lat="65.64653" lon="21.88201">
        <ele>37.842466</ele>
        <time>2020-09-23T11:02:29.519Z</time>
      </trkpt>
      <trkpt lat="65.64645" lon="21.88217">
        <ele>37.914662</ele>
        <time>2020-09-23T11:02:32.481Z</time>
      </trkpt>
      <trkpt lat="65.64638" lon="21.88232">
        <ele>37.98554</ele>
        <time>2020-09-23T11:02:35.465Z</time>
      </trkpt>
      <trkpt lat="65.64631" lon="21.8825">
        <ele>38.06331</ele>
        <time>2020-09-23T11:02:38.466Z</time>
      </trkpt>
      <trkpt lat="65.64624" lon="21.88267">
        <ele>38.137552</ele>
        <time>2020-09-23T11:02:41.475Z</time>
      </trkpt>
      <trkpt lat="65.64616" lon="21.88286">
        <ele>38.218854</ele>
        <time>2020-09-23T11:02:44.514Z</time>
      </trkpt>
      <trkpt lat="65.64607" lon="21.88307">
        <ele>38.310911</ele>
        <time>2020-09-23T11:02:47.487Z</time>
      </trkpt>
      <trkpt lat="65.64599" lon="21.88327">
        <ele>38.398609</ele>
        <time>2020-09-23T11:02:50.508Z</time>
      </trkpt>
      <trkpt lat="65.64591" lon="21.88349">
        <ele>38.324756</ele>
        <time>2020-09-23T11:02:53.479Z</time>
      </trkpt>
      <trkpt lat="65.64582" lon="21.88372">
        <ele>37.720255</ele>
        <time>2020-09-23T11:02:56.475Z</time>
      </trkpt>
      <trkpt lat="65.64574" lon="21.88395">
        <ele>37.147251</ele>
        <time>2020-09-23T11:02:59.482Z</time>
      </trkpt>
      <trkpt lat="65.64566" lon="21.88418">
        <ele>36.551776</ele>
        <time>2020-09-23T11:03:02.494Z</time>
      </trkpt>
      <trkpt lat="65.64557" lon="21.88439">
        <ele>35.990243</ele>
        <time>2020-09-23T11:03:05.479Z</time>
      </trkpt>
      <trkpt lat="65.64549" lon="21.88461">
        <ele>35.4304</ele>
        <time>2020-09-23T11:03:08.484Z</time>
      </trkpt>
      <trkpt lat="65.64541" lon="21.88486">
        <ele>34.824575</ele>
        <time>2020-09-23T11:03:11.487Z</time>
      </trkpt>
      <trkpt lat="65.64533" lon="21.8851">
        <ele>34.21889</ele>
        <time>2020-09-23T11:03:14.519Z</time>
      </trkpt>
      <trkpt lat="65.64525" lon="21.88533">
        <ele>33.632562</ele>
        <time>2020-09-23T11:03:17.476Z</time>
      </trkpt>
      <trkpt lat="65.64517" lon="21.88556">
        <ele>33.07588</ele>
        <time>2020-09-23T11:03:20.467Z</time>
      </trkpt>
      <trkpt lat="65.6451" lon="21.88579">
        <ele>32.505861</ele>
        <time>2020-09-23T11:03:23.497Z</time>
      </trkpt>
      <trkpt lat="65.64502" lon="21.88598">
        <ele>31.98315</ele>
        <time>2020-09-23T11:03:26.512Z</time>
      </trkpt>
      <trkpt lat="65.64494" lon="21.88619">
        <ele>31.45173</ele>
        <time>2020-09-23T11:03:29.475Z</time>
      </trkpt>
      <trkpt lat="65.64487" lon="21.88642">
        <ele>30.881673</ele>
        <time>2020-09-23T11:03:32.520Z</time>
      </trkpt>
      <trkpt lat="65.64479" lon="21.88663">
        <ele>30.345282</ele>
        <time>2020-09-23T11:03:35.530Z</time>
      </trkpt>
      <trkpt lat="65.64471" lon="21.88681">
        <ele>30.117221</ele>
        <time>2020-09-23T11:03:38.484Z</time>
      </trkpt>
      <trkpt lat="65.64463" lon="21.88703">
        <ele>30.210743</ele>
        <time>2020-09-23T11:03:41.486Z</time>
      </trkpt>
      <trkpt lat="65.64454" lon="21.88724">
        <ele>30.304287</ele>
        <time>2020-09-23T11:03:44.475Z</time>
      </trkpt>
      <trkpt lat="65.64445" lon="21.88743">
        <ele>30.398143</ele>
        <time>2020-09-23T11:03:47.481Z</time>
      </trkpt>
      <trkpt lat="65.64437" lon="21.88763">
        <ele>30.492694</ele>
        <time>2020-09-23T11:03:50.506Z</time>
      </trkpt>
      <trkpt lat="65.64429" lon="21.88785">
        <ele>30.585773</ele>
        <time>2020-09-23T11:03:53.486Z</time>
      </trkpt>
      <trkpt lat="65.64421" lon="21.88806">
        <ele>30.674558</ele>
        <time>2020-09-23T11:03:56.488Z</time>
      </trkpt>
      <trkpt lat="65.64413" lon="21.88825">
        <ele>30.760831</ele>
        <time>2020-09-23T11:03:59.472Z</time>
      </trkpt>
      <trkpt lat="65.64406" lon="21.88845">
        <ele>30.845923</ele>
        <time>2020-09-23T11:04:02.501Z</time>
      </trkpt>
      <trkpt lat="65.64399" lon="21.88865">
        <ele>30.931971</ele>
        <time>2020-09-23T11:04:05.481Z</time>
      </trkpt>
      <trkpt lat="65.64392" lon="21.88885">
        <ele>31.0158</ele>
        <time>2020-09-23T11:04:08.484Z</time>
      </trkpt>
      <trkpt lat="65.64385" lon="21.88907">
        <ele>31.103506</ele>
        <time>2020-09-23T11:04:11.480Z</time>
      </trkpt>
      <trkpt lat="65.64379" lon="21.88928">
        <ele>31.188824</ele>
        <time>2020-09-23T11:04:14.486Z</time>
      </trkpt>
      <trkpt lat="65.64371" lon="21.88947">
        <ele>31.276143</ele>
        <time>2020-09-23T11:04:17.474Z</time>
      </trkpt>
      <trkpt lat="65.64363" lon="21.88969">
        <ele>31.368648</ele>
        <time>2020-09-23T11:04:20.502Z</time>
      </trkpt>
      <trkpt lat="65.64355" lon="21.88992">
        <ele>31.463132</ele>
        <time>2020-09-23T11:04:23.492Z</time>
      </trkpt>
      <trkpt lat="65.64348" lon="21.89013">
        <ele>31.653359</ele>
        <time>2020-09-23T11:04:26.501Z</time>
      </trkpt>
      <trkpt lat="65.64342" lon="21.89035">
        <ele>31.860858</ele>
        <time>2020-09-23T11:04:29.468Z</time>
      </trkpt>
      <trkpt lat="65.64335" lon="21.89056">
        <ele>32.06898</ele>
        <time>2020-09-23T11:04:32.495Z</time>
      </trkpt>
      <trkpt lat="65.64329" lon="21.89078">
        <ele>32.277402</ele>
        <time>2020-09-23T11:04:35.502Z</time>
      </trkpt>
      <trkpt lat="65.64323" lon="21.89102">
        <ele>32.497004</ele>
        <time>2020-09-23T11:04:38.473Z</time>
      </trkpt>
      <trkpt lat="65.64316" lon="21.89124">
        <ele>32.705841</ele>
        <time>2020-09-23T11:04:41.506Z</time>
      </trkpt>
      <trkpt lat="65.6431" lon="21.89147">
        <ele>32.922447</ele>
        <time>2020-09-23T11:04:44.507Z</time>
      </trkpt>
      <trkpt lat="65.64304" lon="21.89168">
        <ele>33.116932</ele>
        <time>2020-09-23T11:04:47.495Z</time>
      </trkpt>
      <trkpt lat="65.64299" lon="21.8919">
        <ele>33.317739</ele>
        <time>2020-09-23T11:04:50.492Z</time>
      </trkpt>
      <trkpt lat="65.64293" lon="21.8921">
        <ele>33.506346</ele>
        <time>2020-09-23T11:04:53.496Z</time>
      </trkpt>
      <trkpt lat="65.64287" lon="21.89232">
        <ele>33.7121</ele>
        <time>2020-09-23T11:04:56.493Z</time>
      </trkpt>
      <trkpt lat="65.6428" lon="21.89253">
        <ele>33.921265</ele>
        <time>2020-09-23T11:04:59.519Z</time>
      </trkpt>
      <trkpt lat="65.64274" lon="21.89273">
        <ele>34.109624</ele>
        <time>2020-09-23T11:05:02.490Z</time>
      </trkpt>
      <trkpt lat="65.64268" lon="21.89293">
        <ele>34.299309</ele>
        <time>2020-09-23T11:05:05.494Z</time>
      </trkpt>
      <trkpt lat="65.64263" lon="21.89313">
        <ele>34.485742</ele>
        <time>2020-09-23T11:05:08.473Z</time>
      </trkpt>
      <trkpt lat="65.64256" lon="21.89331">
        <ele>34.673244</ele>
        <time>2020-09-23T11:05:11.484Z</time>
      </trkpt>
      <trkpt lat="65.64251" lon="21.89352">
        <ele>34.863032</ele>
        <time>2020-09-23T11:05:14.486Z</time>
      </trkpt>
      <trkpt lat="65.64245" lon="21.89374">
        <ele>34.824892</ele>
        <time>2020-09-23T11:05:17.502Z</time>
      </trkpt>
      <trkpt lat="65.64239" lon="21.89395">
        <ele>34.786606</ele>
        <time>2020-09-23T11:05:20.493Z</time>
      </trkpt>
      <trkpt lat="65.64233" lon="21.89415">
        <ele>34.75175</ele>
        <time>2020-09-23T11:05:23.505Z</time>
      </trkpt>
      <trkpt lat="65.64227" lon="21.89435">
        <ele>34.714692</ele>
        <time>2020-09-23T11:05:26.474Z</time>
      </trkpt>
      <trkpt lat="65.64221" lon="21.89457">
        <ele>34.67617</ele>
        <time>2020-09-23T11:05:29.474Z</time>
      </trkpt>
      <trkpt lat="65.64215" lon="21.89479">
        <ele>34.637219</ele>
        <time>2020-09-23T11:05:32.494Z</time>
      </trkpt>
      <trkpt lat="65.64209" lon="21.895">
        <ele>34.599033</ele>
        <time>2020-09-23T11:05:35.509Z</time>
      </trkpt>
      <trkpt lat="65.64202" lon="21.89522">
        <ele>34.560144</ele>
        <time>2020-09-23T11:05:38.488Z</time>
      </trkpt>
      <trkpt lat="65.64196" lon="21.89544">
        <ele>34.520881</ele>
        <time>2020-09-23T11:05:41.475Z</time>
      </trkpt>
      <trkpt lat="65.6419" lon="21.89567">
        <ele>34.480919</ele>
        <time>2020-09-23T11:05:44.489Z</time>
      </trkpt>
      <trkpt lat="65.64183" lon="21.8959">
        <ele>34.440398</ele>
        <time>2020-09-23T11:05:47.498Z</time>
      </trkpt>
      <trkpt lat="65.64176" lon="21.89612">
        <ele>34.399274</ele>
        <time>2020-09-23T11:05:50.501Z</time>
      </trkpt>
      <trkpt lat="65.64169" lon="21.89635">
        <ele>34.357565</ele>
        <time>2020-09-23T11:05:53.493Z</time>
      </trkpt>
      <trkpt lat="65.64163" lon="21.89659">
        <ele>34.315355</ele>
        <time>2020-09-23T11:05:56.483Z</time>
      </trkpt>
      <trkpt lat="65.64156" lon="21.89684">
        <ele>34.271533</ele>
        <time>2020-09-23T11:05:59.497Z</time>
      </trkpt>
      <trkpt lat="65.64149" lon="21.8971">
        <ele>34.226465</ele>
        <time>2020-09-23T11:06:02.489Z</time>
      </trkpt>
      <trkpt lat="65.64142" lon="21.89736">
        <ele>33.917178</ele>
        <time>2020-09-23T11:06:05.509Z</time>
      </trkpt>
      <trkpt lat="65.64134" lon="21.89762">
        <ele>33.599368</ele>
        <time>2020-09-23T11:06:08.498Z</time>
      </trkpt>
      <trkpt lat="65.64126" lon="21.89788">
        <ele>33.282555</ele>
        <time>2020-09-23T11:06:11.494Z</time>
      </trkpt>
      <trkpt lat="65.6412" lon="21.89808">
        <ele>33.039604</ele>
        <time>2020-09-23T11:06:13.487Z</time>
      </trkpt>
      <trkpt lat="65.64114" lon="21.89828">
        <ele>32.793869</ele>
        <time>2020-09-23T11:06:15.475Z</time>
      </trkpt>
      <trkpt lat="65.64108" lon="21.8985">
        <ele>32.536941</ele>
        <time>2020-09-23T11:06:17.470Z</time>
      </trkpt>
      <trkpt lat="65.64103" lon="21.89871">
        <ele>32.285474</ele>
        <time>2020-09-23T11:06:19.483Z</time>
      </trkpt>
      <trkpt lat="65.64097" lon="21.89892">
        <ele>32.04195</ele>
        <time>2020-09-23T11:06:21.478Z</time>
      </trkpt>
      <trkpt lat="65.64092" lon="21.89912">
        <ele>31.801402</ele>
        <time>2020-09-23T11:06:23.495Z</time>
      </trkpt>
      <trkpt lat="65.64087" lon="21.89933">
        <ele>31.563447</ele>
        <time>2020-09-23T11:06:25.498Z</time>
      </trkpt>
      <trkpt lat="65.64081" lon="21.89953">
        <ele>31.328353</ele>
        <time>2020-09-23T11:06:27.500Z</time>
      </trkpt>
      <trkpt lat="65.64075" lon="21.89972">
        <ele>31.095039</ele>
        <time>2020-09-23T11:06:29.480Z</time>
      </trkpt>
      <trkpt lat="65.6407" lon="21.89991">
        <ele>30.869203</ele>
        <time>2020-09-23T11:06:31.478Z</time>
      </trkpt>
      <trkpt lat="65.64065" lon="21.90009">
        <ele>30.648293</ele>
        <time>2020-09-23T11:06:33.487Z</time>
      </trkpt>
      <trkpt lat="65.6406" lon="21.90028">
        <ele>30.422206</ele>
        <time>2020-09-23T11:06:35.470Z</time>
      </trkpt>
      <trkpt lat="65.64052" lon="21.90053">
        <ele>30.110969</ele>
        <time>2020-09-23T11:06:38.482Z</time>
      </trkpt>
      <trkpt lat="65.64045" lon="21.90079">
        <ele>29.835779</ele>
        <time>2020-09-23T11:06:41.490Z</time>
      </trkpt>
      <trkpt lat="65.64038" lon="21.90105">
        <ele>29.62966</ele>
        <time>2020-09-23T11:06:44.481Z</time>
      </trkpt>
      <trkpt lat="65.6403" lon="21.9013">
        <ele>29.424936</ele>
        <time>2020-09-23T11:06:47.482Z</time>
      </trkpt>
      <trkpt lat="65.64023" lon="21.90155">
        <ele>29.226416</ele>
        <time>2020-09-23T11:06:50.484Z</time>
      </trkpt>
      <trkpt lat="65.64016" lon="21.90182">
        <ele>29.017439</ele>
        <time>2020-09-23T11:06:53.479Z</time>
      </trkpt>
      <trkpt lat="65.64009" lon="21.90208">
        <ele>28.810951</ele>
        <time>2020-09-23T11:06:56.491Z</time>
      </trkpt>
      <trkpt lat="65.64002" lon="21.90232">
        <ele>28.615025</ele>
        <time>2020-09-23T11:06:59.483Z</time>
      </trkpt>
      <trkpt lat="65.63994" lon="21.90257">
        <ele>28.414514</ele>
        <time>2020-09-23T11:07:02.464Z</time>
      </trkpt>
      <trkpt lat="65.63986" lon="21.90281">
        <ele>28.210724</ele>
        <time>2020-09-23T11:07:05.490Z</time>
      </trkpt>
      <trkpt lat="65.63979" lon="21.90307">
        <ele>28.005295</ele>
        <time>2020-09-23T11:07:08.473Z</time>
      </trkpt>
      <trkpt lat="65.63972" lon="21.90334">
        <ele>27.796005</ele>
        <time>2020-09-23T11:07:11.500Z</time>
      </trkpt>
      <trkpt lat="65.63964" lon="21.90359">
        <ele>27.590977</ele>
        <time>2020-09-23T11:07:14.484Z</time>
      </trkpt>
      <trkpt lat="65.63957" lon="21.90384">
        <ele>27.388101</ele>
        <time>2020-09-23T11:07:17.492Z</time>
      </trkpt>
      <trkpt lat="65.6395" lon="21.9041">
        <ele>27.18102</ele>
        <time>2020-09-23T11:07:20.491Z</time>
      </trkpt>
      <trkpt lat="65.63945" lon="21.90428">
        <ele>27.037587</ele>
        <time>2020-09-23T11:07:22.516Z</time>
      </trkpt>
      <trkpt lat="65.63938" lon="21.90455">
        <ele>26.964482</ele>
        <time>2020-09-23T11:07:25.543Z</time>
      </trkpt>
      <trkpt lat="65.6393" lon="21.9048">
        <ele>26.89552</ele>
        <time>2020-09-23T11:07:28.485Z</time>
      </trkpt>
      <trkpt lat="65.63923" lon="21.90506">
        <ele>26.827578</ele>
        <time>2020-09-23T11:07:31.494Z</time>
      </trkpt>
      <trkpt lat="65.63918" lon="21.90524">
        <ele>26.779154</ele>
        <time>2020-09-23T11:07:33.471Z</time>
      </trkpt>
      <trkpt lat="65.63911" lon="21.90551">
        <ele>26.708618</ele>
        <time>2020-09-23T11:07:36.524Z</time>
      </trkpt>
      <trkpt lat="65.63904" lon="21.90576">
        <ele>26.641594</ele>
        <time>2020-09-23T11:07:39.466Z</time>
      </trkpt>
      <trkpt lat="65.63897" lon="21.90602">
        <ele>26.573761</ele>
        <time>2020-09-23T11:07:42.479Z</time>
      </trkpt>
      <trkpt lat="65.6389" lon="21.90627">
        <ele>26.505635</ele>
        <time>2020-09-23T11:07:45.473Z</time>
      </trkpt>
      <trkpt lat="65.63882" lon="21.90652">
        <ele>26.437794</ele>
        <time>2020-09-23T11:07:48.471Z</time>
      </trkpt>
      <trkpt lat="65.63875" lon="21.90677">
        <ele>26.369985</ele>
        <time>2020-09-23T11:07:51.507Z</time>
      </trkpt>
      <trkpt lat="65.63868" lon="21.90703">
        <ele>26.301563</ele>
        <time>2020-09-23T11:07:54.470Z</time>
      </trkpt>
      <trkpt lat="65.6386" lon="21.90728">
        <ele>26.23305</ele>
        <time>2020-09-23T11:07:57.478Z</time>
      </trkpt>
      <trkpt lat="65.63853" lon="21.90754">
        <ele>26.164946</ele>
        <time>2020-09-23T11:08:00.479Z</time>
      </trkpt>
      <trkpt lat="65.63846" lon="21.90778">
        <ele>26.09894</ele>
        <time>2020-09-23T11:08:03.476Z</time>
      </trkpt>
      <trkpt lat="65.63839" lon="21.90804">
        <ele>26.006313</ele>
        <time>2020-09-23T11:08:06.494Z</time>
      </trkpt>
      <trkpt lat="65.63832" lon="21.9083">
        <ele>25.897804</ele>
        <time>2020-09-23T11:08:09.514Z</time>
      </trkpt>
      <trkpt lat="65.63824" lon="21.90856">
        <ele>25.786915</ele>
        <time>2020-09-23T11:08:12.503Z</time>
      </trkpt>
      <trkpt lat="65.63816" lon="21.90884">
        <ele>25.675313</ele>
        <time>2020-09-23T11:08:15.475Z</time>
      </trkpt>
      <trkpt lat="65.63811" lon="21.90902">
        <ele>25.600326</ele>
        <time>2020-09-23T11:08:17.474Z</time>
      </trkpt>
      <trkpt lat="65.63804" lon="21.90929">
        <ele>25.489922</ele>
        <time>2020-09-23T11:08:20.474Z</time>
      </trkpt>
      <trkpt lat="65.63797" lon="21.90954">
        <ele>25.383002</ele>
        <time>2020-09-23T11:08:23.473Z</time>
      </trkpt>
      <trkpt lat="65.63788" lon="21.9098">
        <ele>25.27034</ele>
        <time>2020-09-23T11:08:26.475Z</time>
      </trkpt>
      <trkpt lat="65.6378" lon="21.91006">
        <ele>25.15763</ele>
        <time>2020-09-23T11:08:29.487Z</time>
      </trkpt>
      <trkpt lat="65.63775" lon="21.91024">
        <ele>25.080708</ele>
        <time>2020-09-23T11:08:31.513Z</time>
      </trkpt>
      <trkpt lat="65.63767" lon="21.91049">
        <ele>24.975441</ele>
        <time>2020-09-23T11:08:34.474Z</time>
      </trkpt>
      <trkpt lat="65.6376" lon="21.91073">
        <ele>24.870722</ele>
        <time>2020-09-23T11:08:37.478Z</time>
      </trkpt>
      <trkpt lat="65.63753" lon="21.91097">
        <ele>24.770263</ele>
        <time>2020-09-23T11:08:40.499Z</time>
      </trkpt>
      <trkpt lat="65.63745" lon="21.9112">
        <ele>24.669464</ele>
        <time>2020-09-23T11:08:43.479Z</time>
      </trkpt>
      <trkpt lat="65.63738" lon="21.91144">
        <ele>24.60644</ele>
        <time>2020-09-23T11:08:46.491Z</time>
      </trkpt>
      <trkpt lat="65.63731" lon="21.91169">
        <ele>25.318305</ele>
        <time>2020-09-23T11:08:49.486Z</time>
      </trkpt>
      <trkpt lat="65.63725" lon="21.91191">
        <ele>25.969179</ele>
        <time>2020-09-23T11:08:52.484Z</time>
      </trkpt>
      <trkpt lat="65.63718" lon="21.91212">
        <ele>26.592235</ele>
        <time>2020-09-23T11:08:55.485Z</time>
      </trkpt>
      <trkpt lat="65.63712" lon="21.91233">
        <ele>27.213767</ele>
        <time>2020-09-23T11:08:58.498Z</time>
      </trkpt>
      <trkpt lat="65.63706" lon="21.91251">
        <ele>27.772096</ele>
        <time>2020-09-23T11:09:01.517Z</time>
      </trkpt>
      <trkpt lat="65.63699" lon="21.9127">
        <ele>28.346915</ele>
        <time>2020-09-23T11:09:04.475Z</time>
      </trkpt>
      <trkpt lat="65.63694" lon="21.91287">
        <ele>28.870506</ele>
        <time>2020-09-23T11:09:07.470Z</time>
      </trkpt>
      <trkpt lat="65.63687" lon="21.91303">
        <ele>29.392799</ele>
        <time>2020-09-23T11:09:10.462Z</time>
      </trkpt>
      <trkpt lat="65.63682" lon="21.9132">
        <ele>29.912698</ele>
        <time>2020-09-23T11:09:13.500Z</time>
      </trkpt>
      <trkpt lat="65.63674" lon="21.91342">
        <ele>30.575376</ele>
        <time>2020-09-23T11:09:17.476Z</time>
      </trkpt>
      <trkpt lat="65.63667" lon="21.91363">
        <ele>31.241716</ele>
        <time>2020-09-23T11:09:21.502Z</time>
      </trkpt>
      <trkpt lat="65.63661" lon="21.91387">
        <ele>31.908835</ele>
        <time>2020-09-23T11:09:25.490Z</time>
      </trkpt>
      <trkpt lat="65.63654" lon="21.91409">
        <ele>32.56211</ele>
        <time>2020-09-23T11:09:29.476Z</time>
      </trkpt>
      <trkpt lat="65.63647" lon="21.91429">
        <ele>33.171715</ele>
        <time>2020-09-23T11:09:33.473Z</time>
      </trkpt>
      <trkpt lat="65.6364" lon="21.9145">
        <ele>33.803427</ele>
        <time>2020-09-23T11:09:37.496Z</time>
      </trkpt>
      <trkpt lat="65.63634" lon="21.9147">
        <ele>34.416682</ele>
        <time>2020-09-23T11:09:41.515Z</time>
      </trkpt>
      <trkpt lat="65.63626" lon="21.91492">
        <ele>35.001682</ele>
        <time>2020-09-23T11:09:45.468Z</time>
      </trkpt>
      <trkpt lat="65.63619" lon="21.91513">
        <ele>35.289154</ele>
        <time>2020-09-23T11:09:49.480Z</time>
      </trkpt>
      <trkpt lat="65.63614" lon="21.91534">
        <ele>35.548867</ele>
        <time>2020-09-23T11:09:53.478Z</time>
      </trkpt>
      <trkpt lat="65.63608" lon="21.91551">
        <ele>35.783627</ele>
        <time>2020-09-23T11:09:57.474Z</time>
      </trkpt>
      <trkpt lat="65.63602" lon="21.91573">
        <ele>36.070616</ele>
        <time>2020-09-23T11:10:01.508Z</time>
      </trkpt>
      <trkpt lat="65.63595" lon="21.91591">
        <ele>36.336057</ele>
        <time>2020-09-23T11:10:05.481Z</time>
      </trkpt>
      <trkpt lat="65.63588" lon="21.91608">
        <ele>36.591039</ele>
        <time>2020-09-23T11:10:09.474Z</time>
      </trkpt>
      <trkpt lat="65.63582" lon="21.9163">
        <ele>36.876236</ele>
        <time>2020-09-23T11:10:13.544Z</time>
      </trkpt>
      <trkpt lat="65.63575" lon="21.91651">
        <ele>37.154763</ele>
        <time>2020-09-23T11:10:17.479Z</time>
      </trkpt>
      <trkpt lat="65.63568" lon="21.91666">
        <ele>37.401907</ele>
        <time>2020-09-23T11:10:21.507Z</time>
      </trkpt>
      <trkpt lat="65.63562" lon="21.91684">
        <ele>37.65478</ele>
        <time>2020-09-23T11:10:25.514Z</time>
      </trkpt>
      <trkpt lat="65.63557" lon="21.91705">
        <ele>37.912247</ele>
        <time>2020-09-23T11:10:29.478Z</time>
      </trkpt>
      <trkpt lat="65.63555" lon="21.91726">
        <ele>38.148033</ele>
        <time>2020-09-23T11:10:33.508Z</time>
      </trkpt>
      <trkpt lat="65.63557" lon="21.91752">
        <ele>38.425216</ele>
        <time>2020-09-23T11:10:37.486Z</time>
      </trkpt>
      <trkpt lat="65.63558" lon="21.91777">
        <ele>38.690056</ele>
        <time>2020-09-23T11:10:41.494Z</time>
      </trkpt>
      <trkpt lat="65.63553" lon="21.91797">
        <ele>38.937382</ele>
        <time>2020-09-23T11:10:45.519Z</time>
      </trkpt>
      <trkpt lat="65.63549" lon="21.91816">
        <ele>39.177255</ele>
        <time>2020-09-23T11:10:49.514Z</time>
      </trkpt>
      <trkpt lat="65.63544" lon="21.91839">
        <ele>39.44735</ele>
        <time>2020-09-23T11:10:54.477Z</time>
      </trkpt>
      <trkpt lat="65.63538" lon="21.91861">
        <ele>39.723134</ele>
        <time>2020-09-23T11:10:59.518Z</time>
      </trkpt>
      <trkpt lat="65.63534" lon="21.91881">
        <ele>39.945269</ele>
        <time>2020-09-23T11:11:04.489Z</time>
      </trkpt>
      <trkpt lat="65.6353" lon="21.91902">
        <ele>40.176127</ele>
        <time>2020-09-23T11:11:09.481Z</time>
      </trkpt>
      <trkpt lat="65.63524" lon="21.91919">
        <ele>40.405765</ele>
        <time>2020-09-23T11:28:21.542Z</time>
      </trkpt>
      <trkpt lat="65.6352" lon="21.91939">
        <ele>40.6285</ele>
        <time>2020-09-23T11:28:28.473Z</time>
      </trkpt>
      <trkpt lat="65.63514" lon="21.91963">
        <ele>40.904851</ele>
        <time>2020-09-23T11:28:33.480Z</time>
      </trkpt>
      <trkpt lat="65.63509" lon="21.91982">
        <ele>41.135388</ele>
        <time>2020-09-23T11:28:37.520Z</time>
      </trkpt>
      <trkpt lat="65.63503" lon="21.91998">
        <ele>41.359033</ele>
        <time>2020-09-23T11:28:41.491Z</time>
      </trkpt>
      <trkpt lat="65.63497" lon="21.92015">
        <ele>41.581702</ele>
        <time>2020-09-23T11:28:45.516Z</time>
      </trkpt>
      <trkpt lat="65.63492" lon="21.92039">
        <ele>41.849208</ele>
        <time>2020-09-23T11:28:50.477Z</time>
      </trkpt>
      <trkpt lat="65.63487" lon="21.92058">
        <ele>42.077907</ele>
        <time>2020-09-23T11:28:54.485Z</time>
      </trkpt>
      <trkpt lat="65.6348" lon="21.92078">
        <ele>42.329306</ele>
        <time>2020-09-23T11:28:58.485Z</time>
      </trkpt>
      <trkpt lat="65.63474" lon="21.92098">
        <ele>42.580025</ele>
        <time>2020-09-23T11:29:02.522Z</time>
      </trkpt>
      <trkpt lat="65.63468" lon="21.92119">
        <ele>42.846136</ele>
        <time>2020-09-23T11:29:06.478Z</time>
      </trkpt>
      <trkpt lat="65.63461" lon="21.9214">
        <ele>43.116383</ele>
        <time>2020-09-23T11:29:10.535Z</time>
      </trkpt>
      <trkpt lat="65.63456" lon="21.92159">
        <ele>43.341451</ele>
        <time>2020-09-23T11:29:13.518Z</time>
      </trkpt>
      <trkpt lat="65.63449" lon="21.92182">
        <ele>43.623712</ele>
        <time>2020-09-23T11:29:17.496Z</time>
      </trkpt>
      <trkpt lat="65.63443" lon="21.92205">
        <ele>43.902474</ele>
        <time>2020-09-23T11:29:21.499Z</time>
      </trkpt>
      <trkpt lat="65.63437" lon="21.92226">
        <ele>44.133202</ele>
        <time>2020-09-23T11:29:25.490Z</time>
      </trkpt>
      <trkpt lat="65.63431" lon="21.92249">
        <ele>44.367234</ele>
        <time>2020-09-23T11:29:29.492Z</time>
      </trkpt>
      <trkpt lat="65.63425" lon="21.92271">
        <ele>44.59792</ele>
        <time>2020-09-23T11:29:33.498Z</time>
      </trkpt>
      <trkpt lat="65.63418" lon="21.92294">
        <ele>44.845568</ele>
        <time>2020-09-23T11:29:37.503Z</time>
      </trkpt>
      <trkpt lat="65.63411" lon="21.92317">
        <ele>45.098601</ele>
        <time>2020-09-23T11:29:41.482Z</time>
      </trkpt>
      <trkpt lat="65.63406" lon="21.92336">
        <ele>45.289193</ele>
        <time>2020-09-23T11:29:44.505Z</time>
      </trkpt>
      <trkpt lat="65.63399" lon="21.9236">
        <ele>45.5457</ele>
        <time>2020-09-23T11:29:48.519Z</time>
      </trkpt>
      <trkpt lat="65.63394" lon="21.92381">
        <ele>45.763889</ele>
        <time>2020-09-23T11:29:51.476Z</time>
      </trkpt>
      <trkpt lat="65.63387" lon="21.92403">
        <ele>45.997197</ele>
        <time>2020-09-23T11:29:54.476Z</time>
      </trkpt>
      <trkpt lat="65.63381" lon="21.92425">
        <ele>46.227885</ele>
        <time>2020-09-23T11:29:57.499Z</time>
      </trkpt>
      <trkpt lat="65.63375" lon="21.92446">
        <ele>46.453767</ele>
        <time>2020-09-23T11:30:00.510Z</time>
      </trkpt>
      <trkpt lat="65.6337" lon="21.92464">
        <ele>46.645887</ele>
        <time>2020-09-23T11:30:03.522Z</time>
      </trkpt>
      <trkpt lat="65.63362" lon="21.92485">
        <ele>46.89572</ele>
        <time>2020-09-23T11:30:07.485Z</time>
      </trkpt>
      <trkpt lat="65.63356" lon="21.92503">
        <ele>47.097914</ele>
        <time>2020-09-23T11:30:10.509Z</time>
      </trkpt>
      <trkpt lat="65.63351" lon="21.92524">
        <ele>47.310414</ele>
        <time>2020-09-23T11:30:13.489Z</time>
      </trkpt>
      <trkpt lat="65.63345" lon="21.92544">
        <ele>47.525254</ele>
        <time>2020-09-23T11:30:16.477Z</time>
      </trkpt>
      <trkpt lat="65.63339" lon="21.92564">
        <ele>47.732933</ele>
        <time>2020-09-23T11:30:19.510Z</time>
      </trkpt>
      <trkpt lat="65.63333" lon="21.92581">
        <ele>47.709529</ele>
        <time>2020-09-23T11:30:22.513Z</time>
      </trkpt>
      <trkpt lat="65.63327" lon="21.92604">
        <ele>47.629522</ele>
        <time>2020-09-23T11:30:26.486Z</time>
      </trkpt>
      <trkpt lat="65.63321" lon="21.92621">
        <ele>47.568191</ele>
        <time>2020-09-23T11:30:29.499Z</time>
      </trkpt>
      <trkpt lat="65.63314" lon="21.92639">
        <ele>47.500176</ele>
        <time>2020-09-23T11:30:32.533Z</time>
      </trkpt>
      <trkpt lat="65.63307" lon="21.92656">
        <ele>47.432602</ele>
        <time>2020-09-23T11:30:35.499Z</time>
      </trkpt>
      <trkpt lat="65.633" lon="21.92672">
        <ele>47.367928</ele>
        <time>2020-09-23T11:30:38.486Z</time>
      </trkpt>
      <trkpt lat="65.63293" lon="21.92689">
        <ele>47.302673</ele>
        <time>2020-09-23T11:30:41.504Z</time>
      </trkpt>
      <trkpt lat="65.63285" lon="21.92709">
        <ele>47.222621</ele>
        <time>2020-09-23T11:30:45.490Z</time>
      </trkpt>
      <trkpt lat="65.63278" lon="21.92726">
        <ele>47.156295</ele>
        <time>2020-09-23T11:30:48.486Z</time>
      </trkpt>
      <trkpt lat="65.63267" lon="21.92738">
        <ele>47.072768</ele>
        <time>2020-09-23T11:30:52.483Z</time>
      </trkpt>
      <trkpt lat="65.63257" lon="21.92748">
        <ele>47.005262</ele>
        <time>2020-09-23T11:30:55.469Z</time>
      </trkpt>
      <trkpt lat="65.63249" lon="21.92755">
        <ele>46.942829</ele>
        <time>2020-09-23T11:30:58.482Z</time>
      </trkpt>
      <trkpt lat="65.6324" lon="21.92763">
        <ele>46.87957</ele>
        <time>2020-09-23T11:31:01.482Z</time>
      </trkpt>
      <trkpt lat="65.63231" lon="21.9277">
        <ele>46.812831</ele>
        <time>2020-09-23T11:31:04.487Z</time>
      </trkpt>
      <trkpt lat="65.63221" lon="21.92779">
        <ele>46.744166</ele>
        <time>2020-09-23T11:31:07.487Z</time>
      </trkpt>
      <trkpt lat="65.63211" lon="21.92786">
        <ele>46.674743</ele>
        <time>2020-09-23T11:31:10.483Z</time>
      </trkpt>
      <trkpt lat="65.63202" lon="21.92791">
        <ele>46.611397</ele>
        <time>2020-09-23T11:31:13.480Z</time>
      </trkpt>
      <trkpt lat="65.63192" lon="21.92796">
        <ele>46.54436</ele>
        <time>2020-09-23T11:31:16.533Z</time>
      </trkpt>
      <trkpt lat="65.63183" lon="21.92799">
        <ele>46.439118</ele>
        <time>2020-09-23T11:31:19.500Z</time>
      </trkpt>
      <trkpt lat="65.63174" lon="21.92804">
        <ele>46.337214</ele>
        <time>2020-09-23T11:31:22.486Z</time>
      </trkpt>
      <trkpt lat="65.63164" lon="21.92809">
        <ele>46.230124</ele>
        <time>2020-09-23T11:31:25.505Z</time>
      </trkpt>
      <trkpt lat="65.63155" lon="21.92812">
        <ele>46.130431</ele>
        <time>2020-09-23T11:31:28.527Z</time>
      </trkpt>
      <trkpt lat="65.63146" lon="21.92816">
        <ele>46.028217</ele>
        <time>2020-09-23T11:31:31.503Z</time>
      </trkpt>
      <trkpt lat="65.63137" lon="21.92819">
        <ele>45.922975</ele>
        <time>2020-09-23T11:31:34.489Z</time>
      </trkpt>
      <trkpt lat="65.63127" lon="21.92824">
        <ele>45.819712</ele>
        <time>2020-09-23T11:31:37.507Z</time>
      </trkpt>
      <trkpt lat="65.63118" lon="21.92829">
        <ele>45.720229</ele>
        <time>2020-09-23T11:31:40.488Z</time>
      </trkpt>
      <trkpt lat="65.63109" lon="21.92833">
        <ele>45.617159</ele>
        <time>2020-09-23T11:31:43.515Z</time>
      </trkpt>
      <trkpt lat="65.631" lon="21.92837">
        <ele>45.512049</ele>
        <time>2020-09-23T11:31:46.485Z</time>
      </trkpt>
      <trkpt lat="65.6309" lon="21.9284">
        <ele>45.406807</ele>
        <time>2020-09-23T11:31:49.481Z</time>
      </trkpt>
      <trkpt lat="65.63081" lon="21.92843">
        <ele>45.301881</ele>
        <time>2020-09-23T11:31:52.483Z</time>
      </trkpt>
      <trkpt lat="65.63071" lon="21.92848">
        <ele>45.188166</ele>
        <time>2020-09-23T11:31:55.513Z</time>
      </trkpt>
      <trkpt lat="65.63059" lon="21.92856">
        <ele>45.061073</ele>
        <time>2020-09-23T11:31:58.483Z</time>
      </trkpt>
      <trkpt lat="65.63048" lon="21.92861">
        <ele>44.932779</ele>
        <time>2020-09-23T11:32:01.479Z</time>
      </trkpt>
      <trkpt lat="65.63038" lon="21.92866">
        <ele>44.81723</ele>
        <time>2020-09-23T11:32:04.518Z</time>
      </trkpt>
      <trkpt lat="65.63026" lon="21.92869">
        <ele>44.692627</ele>
        <time>2020-09-23T11:32:07.465Z</time>
      </trkpt>
      <trkpt lat="65.63017" lon="21.92873">
        <ele>44.594307</ele>
        <time>2020-09-23T11:32:09.489Z</time>
      </trkpt>
      <trkpt lat="65.63006" lon="21.92877">
        <ele>44.572743</ele>
        <time>2020-09-23T11:32:12.487Z</time>
      </trkpt>
      <trkpt lat="65.62994" lon="21.92881">
        <ele>44.568649</ele>
        <time>2020-09-23T11:32:15.470Z</time>
      </trkpt>
      <trkpt lat="65.62982" lon="21.92884">
        <ele>44.564352</ele>
        <time>2020-09-23T11:32:18.489Z</time>
      </trkpt>
      <trkpt lat="65.6297" lon="21.92889">
        <ele>44.560041</ele>
        <time>2020-09-23T11:32:21.478Z</time>
      </trkpt>
      <trkpt lat="65.62958" lon="21.92893">
        <ele>44.555943</ele>
        <time>2020-09-23T11:32:24.509Z</time>
      </trkpt>
      <trkpt lat="65.62948" lon="21.92896">
        <ele>44.5522</ele>
        <time>2020-09-23T11:32:27.470Z</time>
      </trkpt>
      <trkpt lat="65.62937" lon="21.929">
        <ele>44.548434</ele>
        <time>2020-09-23T11:32:30.487Z</time>
      </trkpt>
      <trkpt lat="65.62927" lon="21.92903">
        <ele>44.544727</ele>
        <time>2020-09-23T11:32:33.492Z</time>
      </trkpt>
      <trkpt lat="65.62916" lon="21.92908">
        <ele>44.540983</ele>
        <time>2020-09-23T11:32:36.478Z</time>
      </trkpt>
      <trkpt lat="65.62905" lon="21.92912">
        <ele>44.537152</ele>
        <time>2020-09-23T11:32:39.501Z</time>
      </trkpt>
      <trkpt lat="65.62895" lon="21.92917">
        <ele>44.533302</ele>
        <time>2020-09-23T11:32:42.500Z</time>
      </trkpt>
      <trkpt lat="65.62883" lon="21.92923">
        <ele>44.529329</ele>
        <time>2020-09-23T11:32:45.491Z</time>
      </trkpt>
      <trkpt lat="65.62873" lon="21.92927">
        <ele>44.525524</ele>
        <time>2020-09-23T11:32:48.488Z</time>
      </trkpt>
      <trkpt lat="65.62862" lon="21.92931">
        <ele>44.521705</ele>
        <time>2020-09-23T11:32:51.506Z</time>
      </trkpt>
      <trkpt lat="65.62851" lon="21.92933">
        <ele>44.517972</ele>
        <time>2020-09-23T11:32:54.494Z</time>
      </trkpt>
      <trkpt lat="65.62841" lon="21.92936">
        <ele>44.514476</ele>
        <time>2020-09-23T11:32:57.501Z</time>
      </trkpt>
      <trkpt lat="65.62831" lon="21.92941">
        <ele>44.669191</ele>
        <time>2020-09-23T11:33:00.499Z</time>
      </trkpt>
      <trkpt lat="65.62822" lon="21.92947">
        <ele>44.888643</ele>
        <time>2020-09-23T11:33:03.521Z</time>
      </trkpt>
      <trkpt lat="65.62813" lon="21.92951">
        <ele>45.116292</ele>
        <time>2020-09-23T11:33:06.506Z</time>
      </trkpt>
      <trkpt lat="65.62802" lon="21.92955">
        <ele>45.365999</ele>
        <time>2020-09-23T11:33:09.482Z</time>
      </trkpt>
      <trkpt lat="65.62791" lon="21.92963">
        <ele>45.636031</ele>
        <time>2020-09-23T11:33:12.500Z</time>
      </trkpt>
      <trkpt lat="65.6278" lon="21.92971">
        <ele>45.885058</ele>
        <time>2020-09-23T11:33:15.506Z</time>
      </trkpt>
      <trkpt lat="65.6277" lon="21.9298">
        <ele>46.131508</ele>
        <time>2020-09-23T11:33:18.487Z</time>
      </trkpt>
      <trkpt lat="65.62759" lon="21.92993">
        <ele>46.410928</ele>
        <time>2020-09-23T11:33:21.512Z</time>
      </trkpt>
      <trkpt lat="65.62749" lon="21.93006">
        <ele>46.68714</ele>
        <time>2020-09-23T11:33:24.492Z</time>
      </trkpt>
      <trkpt lat="65.62739" lon="21.93017">
        <ele>46.946424</ele>
        <time>2020-09-23T11:33:27.496Z</time>
      </trkpt>
      <trkpt lat="65.62728" lon="21.93012">
        <ele>47.190665</ele>
        <time>2020-09-23T11:33:30.502Z</time>
      </trkpt>
      <trkpt lat="65.62722" lon="21.92993">
        <ele>47.430394</ele>
        <time>2020-09-23T11:33:34.498Z</time>
      </trkpt>
      <trkpt lat="65.62713" lon="21.92981">
        <ele>47.661381</ele>
        <time>2020-09-23T11:33:42.495Z</time>
      </trkpt>
      <trkpt lat="65.62703" lon="21.92986">
        <ele>47.898633</ele>
        <time>2020-09-23T11:33:46.496Z</time>
      </trkpt>
      <trkpt lat="65.62695" lon="21.92999">
        <ele>48.114106</ele>
        <time>2020-09-23T11:33:49.505Z</time>
      </trkpt>
      <trkpt lat="65.62687" lon="21.93014">
        <ele>48.347751</ele>
        <time>2020-09-23T11:33:52.527Z</time>
      </trkpt>
      <trkpt lat="65.62679" lon="21.93031">
        <ele>48.595834</ele>
        <time>2020-09-23T11:33:55.502Z</time>
      </trkpt>
      <trkpt lat="65.62671" lon="21.93049">
        <ele>48.925763</ele>
        <time>2020-09-23T11:33:58.493Z</time>
      </trkpt>
      <trkpt lat="65.62663" lon="21.93067">
        <ele>49.307747</ele>
        <time>2020-09-23T11:34:01.480Z</time>
      </trkpt>
      <trkpt lat="65.62653" lon="21.93087">
        <ele>49.715412</ele>
        <time>2020-09-23T11:34:04.521Z</time>
      </trkpt>
      <trkpt lat="65.62644" lon="21.93106">
        <ele>50.124563</ele>
        <time>2020-09-23T11:34:07.508Z</time>
      </trkpt>
      <trkpt lat="65.62635" lon="21.93126">
        <ele>50.542956</ele>
        <time>2020-09-23T11:34:10.535Z</time>
      </trkpt>
      <trkpt lat="65.62625" lon="21.93146">
        <ele>50.965081</ele>
        <time>2020-09-23T11:34:13.493Z</time>
      </trkpt>
      <trkpt lat="65.62615" lon="21.93167">
        <ele>51.40883</ele>
        <time>2020-09-23T11:34:16.487Z</time>
      </trkpt>
      <trkpt lat="65.62605" lon="21.93188">
        <ele>51.854503</ele>
        <time>2020-09-23T11:34:19.507Z</time>
      </trkpt>
      <trkpt lat="65.62594" lon="21.93209">
        <ele>52.308674</ele>
        <time>2020-09-23T11:34:22.481Z</time>
      </trkpt>
      <trkpt lat="65.62584" lon="21.93229">
        <ele>52.748037</ele>
        <time>2020-09-23T11:34:25.484Z</time>
      </trkpt>
      <trkpt lat="65.62577" lon="21.93244">
        <ele>53.047653</ele>
        <time>2020-09-23T11:34:27.490Z</time>
      </trkpt>
      <trkpt lat="65.6257" lon="21.93258">
        <ele>53.348632</ele>
        <time>2020-09-23T11:34:29.500Z</time>
      </trkpt>
      <trkpt lat="65.6256" lon="21.93277">
        <ele>53.791542</ele>
        <time>2020-09-23T11:34:32.488Z</time>
      </trkpt>
      <trkpt lat="65.62552" lon="21.93291">
        <ele>54.103154</ele>
        <time>2020-09-23T11:34:34.488Z</time>
      </trkpt>
      <trkpt lat="65.62545" lon="21.93305">
        <ele>54.424229</ele>
        <time>2020-09-23T11:34:36.477Z</time>
      </trkpt>
      <trkpt lat="65.62536" lon="21.9332">
        <ele>54.433419</ele>
        <time>2020-09-23T11:34:38.491Z</time>
      </trkpt>
      <trkpt lat="65.62528" lon="21.93334">
        <ele>53.671087</ele>
        <time>2020-09-23T11:34:40.492Z</time>
      </trkpt>
      <trkpt lat="65.6252" lon="21.93347">
        <ele>52.869987</ele>
        <time>2020-09-23T11:34:42.513Z</time>
      </trkpt>
      <trkpt lat="65.62511" lon="21.93359">
        <ele>52.060259</ele>
        <time>2020-09-23T11:34:44.506Z</time>
      </trkpt>
      <trkpt lat="65.62501" lon="21.93372">
        <ele>51.197108</ele>
        <time>2020-09-23T11:34:46.504Z</time>
      </trkpt>
      <trkpt lat="65.62491" lon="21.93387">
        <ele>50.281321</ele>
        <time>2020-09-23T11:34:48.517Z</time>
      </trkpt>
      <trkpt lat="65.62482" lon="21.93402">
        <ele>49.416303</ele>
        <time>2020-09-23T11:34:50.485Z</time>
      </trkpt>
      <trkpt lat="65.62473" lon="21.93418">
        <ele>48.535436</ele>
        <time>2020-09-23T11:34:52.538Z</time>
      </trkpt>
      <trkpt lat="65.62464" lon="21.93437">
        <ele>47.610585</ele>
        <time>2020-09-23T11:34:54.481Z</time>
      </trkpt>
      <trkpt lat="65.62455" lon="21.93455">
        <ele>46.704178</ele>
        <time>2020-09-23T11:34:56.480Z</time>
      </trkpt>
      <trkpt lat="65.62446" lon="21.93472">
        <ele>45.803996</ele>
        <time>2020-09-23T11:34:58.514Z</time>
      </trkpt>
      <trkpt lat="65.62437" lon="21.93488">
        <ele>44.934422</ele>
        <time>2020-09-23T11:35:00.499Z</time>
      </trkpt>
      <trkpt lat="65.62428" lon="21.93503">
        <ele>44.090548</ele>
        <time>2020-09-23T11:35:02.513Z</time>
      </trkpt>
      <trkpt lat="65.62418" lon="21.93519">
        <ele>43.196271</ele>
        <time>2020-09-23T11:35:04.497Z</time>
      </trkpt>
      <trkpt lat="65.62409" lon="21.93534">
        <ele>42.337492</ele>
        <time>2020-09-23T11:35:06.484Z</time>
      </trkpt>
      <trkpt lat="65.624" lon="21.93549">
        <ele>41.467763</ele>
        <time>2020-09-23T11:35:08.475Z</time>
      </trkpt>
      <trkpt lat="65.62391" lon="21.93564">
        <ele>40.626498</ele>
        <time>2020-09-23T11:35:10.508Z</time>
      </trkpt>
      <trkpt lat="65.62382" lon="21.93578">
        <ele>40.327379</ele>
        <time>2020-09-23T11:35:12.496Z</time>
      </trkpt>
      <trkpt lat="65.62372" lon="21.93593">
        <ele>40.028996</ele>
        <time>2020-09-23T11:35:14.479Z</time>
      </trkpt>
      <trkpt lat="65.62362" lon="21.93608">
        <ele>39.715584</ele>
        <time>2020-09-23T11:35:16.485Z</time>
      </trkpt>
      <trkpt lat="65.62353" lon="21.93623">
        <ele>39.404428</ele>
        <time>2020-09-23T11:35:18.499Z</time>
      </trkpt>
      <trkpt lat="65.62343" lon="21.93639">
        <ele>39.097502</ele>
        <time>2020-09-23T11:35:20.484Z</time>
      </trkpt>
      <trkpt lat="65.62334" lon="21.93654">
        <ele>38.797158</ele>
        <time>2020-09-23T11:35:22.541Z</time>
      </trkpt>
      <trkpt lat="65.62325" lon="21.93668">
        <ele>38.50737</ele>
        <time>2020-09-23T11:35:24.480Z</time>
      </trkpt>
      <trkpt lat="65.62316" lon="21.93683">
        <ele>38.213959</ele>
        <time>2020-09-23T11:35:26.516Z</time>
      </trkpt>
      <trkpt lat="65.62307" lon="21.93697">
        <ele>37.925636</ele>
        <time>2020-09-23T11:35:28.500Z</time>
      </trkpt>
      <trkpt lat="65.62298" lon="21.93712">
        <ele>37.63954</ele>
        <time>2020-09-23T11:35:30.497Z</time>
      </trkpt>
      <trkpt lat="65.62289" lon="21.93726">
        <ele>37.35306</ele>
        <time>2020-09-23T11:35:32.515Z</time>
      </trkpt>
      <trkpt lat="65.6228" lon="21.9374">
        <ele>37.068398</ele>
        <time>2020-09-23T11:35:34.505Z</time>
      </trkpt>
      <trkpt lat="65.62272" lon="21.93754">
        <ele>36.784519</ele>
        <time>2020-09-23T11:35:36.562Z</time>
      </trkpt>
      <trkpt lat="65.62263" lon="21.93768">
        <ele>36.505363</ele>
        <time>2020-09-23T11:35:38.506Z</time>
      </trkpt>
      <trkpt lat="65.62255" lon="21.93781">
        <ele>36.241312</ele>
        <time>2020-09-23T11:35:40.504Z</time>
      </trkpt>
      <trkpt lat="65.62247" lon="21.93794">
        <ele>35.984322</ele>
        <time>2020-09-23T11:35:42.498Z</time>
      </trkpt>
      <trkpt lat="65.62239" lon="21.93807">
        <ele>35.818608</ele>
        <time>2020-09-23T11:35:44.492Z</time>
      </trkpt>
      <trkpt lat="65.6223" lon="21.9382">
        <ele>35.875362</ele>
        <time>2020-09-23T11:35:46.488Z</time>
      </trkpt>
      <trkpt lat="65.62222" lon="21.93833">
        <ele>35.933564</ele>
        <time>2020-09-23T11:35:48.502Z</time>
      </trkpt>
      <trkpt lat="65.62214" lon="21.93847">
        <ele>35.99085</ele>
        <time>2020-09-23T11:35:50.541Z</time>
      </trkpt>
      <trkpt lat="65.62206" lon="21.93859">
        <ele>36.045114</ele>
        <time>2020-09-23T11:35:52.511Z</time>
      </trkpt>
      <trkpt lat="65.62198" lon="21.93872">
        <ele>36.100994</ele>
        <time>2020-09-23T11:35:54.494Z</time>
      </trkpt>
      <trkpt lat="65.6219" lon="21.93885">
        <ele>36.156229</ele>
        <time>2020-09-23T11:35:56.496Z</time>
      </trkpt>
      <trkpt lat="65.62182" lon="21.93897">
        <ele>36.209529</ele>
        <time>2020-09-23T11:35:58.479Z</time>
      </trkpt>
      <trkpt lat="65.62174" lon="21.9391">
        <ele>36.262415</ele>
        <time>2020-09-23T11:36:00.492Z</time>
      </trkpt>
      <trkpt lat="65.62167" lon="21.93922">
        <ele>36.315453</ele>
        <time>2020-09-23T11:36:02.482Z</time>
      </trkpt>
      <trkpt lat="65.62159" lon="21.93934">
        <ele>36.368464</ele>
        <time>2020-09-23T11:36:04.494Z</time>
      </trkpt>
      <trkpt lat="65.62151" lon="21.93946">
        <ele>36.421476</ele>
        <time>2020-09-23T11:36:06.477Z</time>
      </trkpt>
      <trkpt lat="65.62143" lon="21.93957">
        <ele>36.473621</ele>
        <time>2020-09-23T11:36:08.497Z</time>
      </trkpt>
      <trkpt lat="65.62136" lon="21.93968">
        <ele>36.525642</ele>
        <time>2020-09-23T11:36:10.490Z</time>
      </trkpt>
      <trkpt lat="65.62128" lon="21.9398">
        <ele>36.577912</ele>
        <time>2020-09-23T11:36:12.489Z</time>
      </trkpt>
      <trkpt lat="65.62121" lon="21.93992">
        <ele>36.629512</ele>
        <time>2020-09-23T11:36:14.497Z</time>
      </trkpt>
      <trkpt lat="65.62113" lon="21.94004">
        <ele>36.682149</ele>
        <time>2020-09-23T11:36:16.554Z</time>
      </trkpt>
      <trkpt lat="65.62105" lon="21.94016">
        <ele>36.735318</ele>
        <time>2020-09-23T11:36:18.479Z</time>
      </trkpt>
      <trkpt lat="65.62097" lon="21.94028">
        <ele>36.787875</ele>
        <time>2020-09-23T11:36:20.494Z</time>
      </trkpt>
      <trkpt lat="65.62087" lon="21.94047">
        <ele>36.881305</ele>
        <time>2020-09-23T11:36:23.484Z</time>
      </trkpt>
      <trkpt lat="65.62076" lon="21.94065">
        <ele>37.004971</ele>
        <time>2020-09-23T11:36:26.501Z</time>
      </trkpt>
      <trkpt lat="65.62065" lon="21.94083">
        <ele>37.126646</ele>
        <time>2020-09-23T11:36:29.497Z</time>
      </trkpt>
      <trkpt lat="65.62054" lon="21.94101">
        <ele>37.252197</ele>
        <time>2020-09-23T11:36:32.498Z</time>
      </trkpt>
      <trkpt lat="65.62044" lon="21.9412">
        <ele>37.37532</ele>
        <time>2020-09-23T11:36:35.495Z</time>
      </trkpt>
      <trkpt lat="65.62033" lon="21.94138">
        <ele>37.499128</ele>
        <time>2020-09-23T11:36:38.496Z</time>
      </trkpt>
      <trkpt lat="65.62022" lon="21.94155">
        <ele>37.61973</ele>
        <time>2020-09-23T11:36:41.502Z</time>
      </trkpt>
      <trkpt lat="65.62012" lon="21.94171">
        <ele>37.737858</ele>
        <time>2020-09-23T11:36:44.493Z</time>
      </trkpt>
      <trkpt lat="65.62001" lon="21.94187">
        <ele>37.855186</ele>
        <time>2020-09-23T11:36:47.475Z</time>
      </trkpt>
      <trkpt lat="65.61991" lon="21.94204">
        <ele>37.969772</ele>
        <time>2020-09-23T11:36:50.484Z</time>
      </trkpt>
      <trkpt lat="65.61981" lon="21.9422">
        <ele>38.082138</ele>
        <time>2020-09-23T11:36:53.525Z</time>
      </trkpt>
      <trkpt lat="65.61972" lon="21.94234">
        <ele>38.185933</ele>
        <time>2020-09-23T11:36:56.507Z</time>
      </trkpt>
      <trkpt lat="65.61963" lon="21.94246">
        <ele>38.282678</ele>
        <time>2020-09-23T11:36:59.500Z</time>
      </trkpt>
      <trkpt lat="65.61955" lon="21.94259">
        <ele>38.375555</ele>
        <time>2020-09-23T11:37:02.479Z</time>
      </trkpt>
      <trkpt lat="65.61946" lon="21.94271">
        <ele>38.467626</ele>
        <time>2020-09-23T11:37:05.478Z</time>
      </trkpt>
      <trkpt lat="65.61938" lon="21.94284">
        <ele>38.590371</ele>
        <time>2020-09-23T11:37:08.494Z</time>
      </trkpt>
      <trkpt lat="65.6193" lon="21.94296">
        <ele>38.810035</ele>
        <time>2020-09-23T11:37:11.482Z</time>
      </trkpt>
      <trkpt lat="65.61923" lon="21.9431">
        <ele>39.029316</ele>
        <time>2020-09-23T11:37:14.494Z</time>
      </trkpt>
      <trkpt lat="65.61915" lon="21.94322">
        <ele>39.246518</ele>
        <time>2020-09-23T11:37:17.502Z</time>
      </trkpt>
      <trkpt lat="65.61907" lon="21.94334">
        <ele>39.465186</ele>
        <time>2020-09-23T11:37:20.513Z</time>
      </trkpt>
      <trkpt lat="65.61899" lon="21.94345">
        <ele>39.679345</ele>
        <time>2020-09-23T11:37:23.490Z</time>
      </trkpt>
      <trkpt lat="65.61891" lon="21.94358">
        <ele>39.90445</ele>
        <time>2020-09-23T11:37:26.498Z</time>
      </trkpt>
      <trkpt lat="65.61883" lon="21.94372">
        <ele>40.131045</ele>
        <time>2020-09-23T11:37:29.491Z</time>
      </trkpt>
      <trkpt lat="65.61875" lon="21.94385">
        <ele>40.350328</ele>
        <time>2020-09-23T11:37:32.535Z</time>
      </trkpt>
      <trkpt lat="65.61867" lon="21.94398">
        <ele>40.560081</ele>
        <time>2020-09-23T11:37:35.495Z</time>
      </trkpt>
      <trkpt lat="65.6186" lon="21.94409">
        <ele>40.769887</ele>
        <time>2020-09-23T11:37:38.479Z</time>
      </trkpt>
      <trkpt lat="65.61852" lon="21.94421">
        <ele>40.987789</ele>
        <time>2020-09-23T11:37:41.493Z</time>
      </trkpt>
      <trkpt lat="65.61844" lon="21.94435">
        <ele>41.209756</ele>
        <time>2020-09-23T11:37:44.508Z</time>
      </trkpt>
      <trkpt lat="65.61836" lon="21.94447">
        <ele>41.430979</ele>
        <time>2020-09-23T11:37:47.485Z</time>
      </trkpt>
      <trkpt lat="65.61828" lon="21.94461">
        <ele>41.653256</ele>
        <time>2020-09-23T11:37:50.495Z</time>
      </trkpt>
      <trkpt lat="65.6182" lon="21.94474">
        <ele>41.875532</ele>
        <time>2020-09-23T11:37:53.495Z</time>
      </trkpt>
      <trkpt lat="65.61812" lon="21.94487">
        <ele>42.093157</ele>
        <time>2020-09-23T11:37:56.531Z</time>
      </trkpt>
      <trkpt lat="65.61804" lon="21.94501">
        <ele>42.323678</ele>
        <time>2020-09-23T11:37:59.518Z</time>
      </trkpt>
      <trkpt lat="65.61796" lon="21.94515">
        <ele>42.558698</ele>
        <time>2020-09-23T11:38:02.507Z</time>
      </trkpt>
      <trkpt lat="65.61787" lon="21.9453">
        <ele>42.654803</ele>
        <time>2020-09-23T11:38:05.506Z</time>
      </trkpt>
      <trkpt lat="65.61779" lon="21.94545">
        <ele>42.560202</ele>
        <time>2020-09-23T11:38:08.500Z</time>
      </trkpt>
      <trkpt lat="65.61769" lon="21.9456">
        <ele>42.458857</ele>
        <time>2020-09-23T11:38:11.479Z</time>
      </trkpt>
      <trkpt lat="65.61759" lon="21.94576">
        <ele>42.352533</ele>
        <time>2020-09-23T11:38:14.508Z</time>
      </trkpt>
      <trkpt lat="65.61748" lon="21.94592">
        <ele>42.241323</ele>
        <time>2020-09-23T11:38:17.484Z</time>
      </trkpt>
      <trkpt lat="65.61738" lon="21.94609">
        <ele>42.128034</ele>
        <time>2020-09-23T11:38:20.503Z</time>
      </trkpt>
      <trkpt lat="65.61727" lon="21.94627">
        <ele>42.014327</ele>
        <time>2020-09-23T11:38:23.499Z</time>
      </trkpt>
      <trkpt lat="65.61716" lon="21.94644">
        <ele>41.899883</ele>
        <time>2020-09-23T11:38:26.508Z</time>
      </trkpt>
      <trkpt lat="65.61709" lon="21.94656">
        <ele>41.819058</ele>
        <time>2020-09-23T11:38:28.490Z</time>
      </trkpt>
      <trkpt lat="65.61701" lon="21.94669">
        <ele>41.73678</ele>
        <time>2020-09-23T11:38:30.513Z</time>
      </trkpt>
      <trkpt lat="65.61694" lon="21.94682">
        <ele>41.65471</ele>
        <time>2020-09-23T11:38:32.501Z</time>
      </trkpt>
      <trkpt lat="65.61686" lon="21.94696">
        <ele>41.567107</ele>
        <time>2020-09-23T11:38:34.510Z</time>
      </trkpt>
      <trkpt lat="65.61677" lon="21.94709">
        <ele>41.477906</ele>
        <time>2020-09-23T11:38:36.496Z</time>
      </trkpt>
      <trkpt lat="65.61669" lon="21.94722">
        <ele>41.389303</ele>
        <time>2020-09-23T11:38:38.522Z</time>
      </trkpt>
      <trkpt lat="65.6166" lon="21.94735">
        <ele>41.299583</ele>
        <time>2020-09-23T11:38:40.495Z</time>
      </trkpt>
      <trkpt lat="65.61652" lon="21.94748">
        <ele>41.20809</ele>
        <time>2020-09-23T11:38:42.482Z</time>
      </trkpt>
      <trkpt lat="65.61643" lon="21.94764">
        <ele>41.111806</ele>
        <time>2020-09-23T11:38:44.481Z</time>
      </trkpt>
      <trkpt lat="65.61633" lon="21.9478">
        <ele>40.851718</ele>
        <time>2020-09-23T11:38:46.491Z</time>
      </trkpt>
      <trkpt lat="65.61623" lon="21.94796">
        <ele>40.555261</ele>
        <time>2020-09-23T11:38:48.480Z</time>
      </trkpt>
      <trkpt lat="65.61612" lon="21.94812">
        <ele>40.252584</ele>
        <time>2020-09-23T11:38:50.484Z</time>
      </trkpt>
      <trkpt lat="65.61602" lon="21.94829">
        <ele>39.950341</ele>
        <time>2020-09-23T11:38:52.501Z</time>
      </trkpt>
      <trkpt lat="65.61592" lon="21.94844">
        <ele>39.656464</ele>
        <time>2020-09-23T11:38:54.494Z</time>
      </trkpt>
      <trkpt lat="65.61581" lon="21.9486">
        <ele>39.35226</ele>
        <time>2020-09-23T11:38:56.486Z</time>
      </trkpt>
      <trkpt lat="65.61571" lon="21.94875">
        <ele>39.066654</ele>
        <time>2020-09-23T11:38:58.475Z</time>
      </trkpt>
      <trkpt lat="65.61561" lon="21.94891">
        <ele>38.786078</ele>
        <time>2020-09-23T11:39:00.496Z</time>
      </trkpt>
      <trkpt lat="65.61552" lon="21.94906">
        <ele>38.514666</ele>
        <time>2020-09-23T11:39:02.498Z</time>
      </trkpt>
      <trkpt lat="65.61543" lon="21.94921">
        <ele>38.242132</ele>
        <time>2020-09-23T11:39:04.501Z</time>
      </trkpt>
      <trkpt lat="65.61533" lon="21.94937">
        <ele>37.967555</ele>
        <time>2020-09-23T11:39:06.512Z</time>
      </trkpt>
      <trkpt lat="65.61524" lon="21.94952">
        <ele>37.702387</ele>
        <time>2020-09-23T11:39:08.501Z</time>
      </trkpt>
      <trkpt lat="65.61516" lon="21.94967">
        <ele>37.44547</ele>
        <time>2020-09-23T11:39:10.495Z</time>
      </trkpt>
      <trkpt lat="65.61507" lon="21.94981">
        <ele>37.189285</ele>
        <time>2020-09-23T11:39:12.497Z</time>
      </trkpt>
      <trkpt lat="65.61498" lon="21.94995">
        <ele>36.928485</ele>
        <time>2020-09-23T11:39:14.495Z</time>
      </trkpt>
      <trkpt lat="65.61489" lon="21.95008">
        <ele>36.745481</ele>
        <time>2020-09-23T11:39:16.519Z</time>
      </trkpt>
      <trkpt lat="65.6148" lon="21.95021">
        <ele>36.740961</ele>
        <time>2020-09-23T11:39:18.482Z</time>
      </trkpt>
      <trkpt lat="65.61472" lon="21.95036">
        <ele>36.736303</ele>
        <time>2020-09-23T11:39:20.505Z</time>
      </trkpt>
      <trkpt lat="65.61463" lon="21.9505">
        <ele>36.731578</ele>
        <time>2020-09-23T11:39:22.506Z</time>
      </trkpt>
      <trkpt lat="65.61454" lon="21.95065">
        <ele>36.726811</ele>
        <time>2020-09-23T11:39:24.487Z</time>
      </trkpt>
      <trkpt lat="65.61445" lon="21.95079">
        <ele>36.722127</ele>
        <time>2020-09-23T11:39:26.492Z</time>
      </trkpt>
      <trkpt lat="65.61436" lon="21.95093">
        <ele>36.717446</ele>
        <time>2020-09-23T11:39:28.497Z</time>
      </trkpt>
      <trkpt lat="65.61427" lon="21.95107">
        <ele>36.712704</ele>
        <time>2020-09-23T11:39:30.486Z</time>
      </trkpt>
      <trkpt lat="65.61419" lon="21.95121">
        <ele>36.707983</ele>
        <time>2020-09-23T11:39:32.486Z</time>
      </trkpt>
      <trkpt lat="65.61409" lon="21.95136">
        <ele>36.7031</ele>
        <time>2020-09-23T11:39:34.477Z</time>
      </trkpt>
      <trkpt lat="65.614" lon="21.95152">
        <ele>36.698108</ele>
        <time>2020-09-23T11:39:36.523Z</time>
      </trkpt>
      <trkpt lat="65.61391" lon="21.95167">
        <ele>36.693273</ele>
        <time>2020-09-23T11:39:38.524Z</time>
      </trkpt>
      <trkpt lat="65.61383" lon="21.95182">
        <ele>36.688548</ele>
        <time>2020-09-23T11:39:40.487Z</time>
      </trkpt>
      <trkpt lat="65.61374" lon="21.95196">
        <ele>36.683828</ele>
        <time>2020-09-23T11:39:42.490Z</time>
      </trkpt>
      <trkpt lat="65.61365" lon="21.9521">
        <ele>36.679233</ele>
        <time>2020-09-23T11:39:44.479Z</time>
      </trkpt>
      <trkpt lat="65.61355" lon="21.95222">
        <ele>36.674164</ele>
        <time>2020-09-23T11:39:46.521Z</time>
      </trkpt>
      <trkpt lat="65.61345" lon="21.95238">
        <ele>36.668853</ele>
        <time>2020-09-23T11:39:48.502Z</time>
      </trkpt>
      <trkpt lat="65.61335" lon="21.95255">
        <ele>36.483807</ele>
        <time>2020-09-23T11:39:50.499Z</time>
      </trkpt>
      <trkpt lat="65.61324" lon="21.95271">
        <ele>36.209974</ele>
        <time>2020-09-23T11:39:52.501Z</time>
      </trkpt>
      <trkpt lat="65.61314" lon="21.95288">
        <ele>35.934592</ele>
        <time>2020-09-23T11:39:54.519Z</time>
      </trkpt>
      <trkpt lat="65.61304" lon="21.95304">
        <ele>35.662137</ele>
        <time>2020-09-23T11:39:56.485Z</time>
      </trkpt>
      <trkpt lat="65.61294" lon="21.95321">
        <ele>35.386235</ele>
        <time>2020-09-23T11:39:58.489Z</time>
      </trkpt>
      <trkpt lat="65.61285" lon="21.95339">
        <ele>35.107032</ele>
        <time>2020-09-23T11:40:00.514Z</time>
      </trkpt>
      <trkpt lat="65.61274" lon="21.95356">
        <ele>34.827424</ele>
        <time>2020-09-23T11:40:02.477Z</time>
      </trkpt>
      <trkpt lat="65.61264" lon="21.95372">
        <ele>34.55152</ele>
        <time>2020-09-23T11:40:04.512Z</time>
      </trkpt>
      <trkpt lat="65.61254" lon="21.95387">
        <ele>34.273964</ele>
        <time>2020-09-23T11:40:06.496Z</time>
      </trkpt>
      <trkpt lat="65.61243" lon="21.95404">
        <ele>33.989967</ele>
        <time>2020-09-23T11:40:08.488Z</time>
      </trkpt>
      <trkpt lat="65.61233" lon="21.9542">
        <ele>33.703154</ele>
        <time>2020-09-23T11:40:10.496Z</time>
      </trkpt>
      <trkpt lat="65.61223" lon="21.95436">
        <ele>33.431534</ele>
        <time>2020-09-23T11:40:12.514Z</time>
      </trkpt>
      <trkpt lat="65.61213" lon="21.95452">
        <ele>33.165068</ele>
        <time>2020-09-23T11:40:14.476Z</time>
      </trkpt>
      <trkpt lat="65.61204" lon="21.95468">
        <ele>32.907697</ele>
        <time>2020-09-23T11:40:16.553Z</time>
      </trkpt>
      <trkpt lat="65.61195" lon="21.95483">
        <ele>32.657615</ele>
        <time>2020-09-23T11:40:18.491Z</time>
      </trkpt>
      <trkpt lat="65.61185" lon="21.95497">
        <ele>32.50546</ele>
        <time>2020-09-23T11:40:20.481Z</time>
      </trkpt>
      <trkpt lat="65.61177" lon="21.95511">
        <ele>32.395103</ele>
        <time>2020-09-23T11:40:22.486Z</time>
      </trkpt>
      <trkpt lat="65.61168" lon="21.95526">
        <ele>32.282055</ele>
        <time>2020-09-23T11:40:24.513Z</time>
      </trkpt>
      <trkpt lat="65.61159" lon="21.95541">
        <ele>32.169506</ele>
        <time>2020-09-23T11:40:26.495Z</time>
      </trkpt>
      <trkpt lat="65.61151" lon="21.95555">
        <ele>32.062858</ele>
        <time>2020-09-23T11:40:28.488Z</time>
      </trkpt>
      <trkpt lat="65.61142" lon="21.95569">
        <ele>31.955023</ele>
        <time>2020-09-23T11:40:30.491Z</time>
      </trkpt>
      <trkpt lat="65.61133" lon="21.95581">
        <ele>31.850565</ele>
        <time>2020-09-23T11:40:32.495Z</time>
      </trkpt>
      <trkpt lat="65.61125" lon="21.95594">
        <ele>31.746767</ele>
        <time>2020-09-23T11:40:34.501Z</time>
      </trkpt>
      <trkpt lat="65.61117" lon="21.95607">
        <ele>31.641853</ele>
        <time>2020-09-23T11:40:36.526Z</time>
      </trkpt>
      <trkpt lat="65.61108" lon="21.9562">
        <ele>31.53694</ele>
        <time>2020-09-23T11:40:38.504Z</time>
      </trkpt>
      <trkpt lat="65.611" lon="21.95633">
        <ele>31.431738</ele>
        <time>2020-09-23T11:40:40.532Z</time>
      </trkpt>
      <trkpt lat="65.61091" lon="21.95646">
        <ele>31.328624</ele>
        <time>2020-09-23T11:40:42.501Z</time>
      </trkpt>
      <trkpt lat="65.61083" lon="21.95658">
        <ele>31.226623</ele>
        <time>2020-09-23T11:40:44.481Z</time>
      </trkpt>
      <trkpt lat="65.61075" lon="21.95671">
        <ele>31.123403</ele>
        <time>2020-09-23T11:40:46.513Z</time>
      </trkpt>
      <trkpt lat="65.61067" lon="21.95684">
        <ele>31.021292</ele>
        <time>2020-09-23T11:40:48.518Z</time>
      </trkpt>
      <trkpt lat="65.61058" lon="21.95698">
        <ele>30.915748</ele>
        <time>2020-09-23T11:40:50.490Z</time>
      </trkpt>
      <trkpt lat="65.6105" lon="21.95712">
        <ele>30.812662</ele>
        <time>2020-09-23T11:40:52.507Z</time>
      </trkpt>
      <trkpt lat="65.61042" lon="21.95725">
        <ele>30.713875</ele>
        <time>2020-09-23T11:40:54.523Z</time>
      </trkpt>
      <trkpt lat="65.61035" lon="21.95738">
        <ele>30.727761</ele>
        <time>2020-09-23T11:40:56.527Z</time>
      </trkpt>
      <trkpt lat="65.61027" lon="21.9575">
        <ele>30.753233</ele>
        <time>2020-09-23T11:40:58.509Z</time>
      </trkpt>
      <trkpt lat="65.61016" lon="21.95768">
        <ele>30.789262</ele>
        <time>2020-09-23T11:41:01.489Z</time>
      </trkpt>
      <trkpt lat="65.61005" lon="21.95786">
        <ele>30.825066</ele>
        <time>2020-09-23T11:41:04.487Z</time>
      </trkpt>
      <trkpt lat="65.60994" lon="21.95802">
        <ele>30.860536</ele>
        <time>2020-09-23T11:41:07.509Z</time>
      </trkpt>
      <trkpt lat="65.60983" lon="21.9582">
        <ele>30.895473</ele>
        <time>2020-09-23T11:41:10.485Z</time>
      </trkpt>
      <trkpt lat="65.60973" lon="21.95836">
        <ele>30.928342</ele>
        <time>2020-09-23T11:41:13.502Z</time>
      </trkpt>
      <trkpt lat="65.60963" lon="21.95852">
        <ele>30.961135</ele>
        <time>2020-09-23T11:41:16.512Z</time>
      </trkpt>
      <trkpt lat="65.60953" lon="21.95869">
        <ele>30.995244</ele>
        <time>2020-09-23T11:41:19.506Z</time>
      </trkpt>
      <trkpt lat="65.60943" lon="21.95886">
        <ele>31.028902</ele>
        <time>2020-09-23T11:41:22.504Z</time>
      </trkpt>
      <trkpt lat="65.60933" lon="21.95901">
        <ele>31.061287</ele>
        <time>2020-09-23T11:41:25.521Z</time>
      </trkpt>
      <trkpt lat="65.60923" lon="21.95917">
        <ele>31.092961</ele>
        <time>2020-09-23T11:41:28.502Z</time>
      </trkpt>
      <trkpt lat="65.60913" lon="21.95933">
        <ele>31.12486</ele>
        <time>2020-09-23T11:41:31.516Z</time>
      </trkpt>
      <trkpt lat="65.60903" lon="21.95949">
        <ele>31.156615</ele>
        <time>2020-09-23T11:41:34.493Z</time>
      </trkpt>
      <trkpt lat="65.60894" lon="21.95963">
        <ele>31.186738</ele>
        <time>2020-09-23T11:41:37.483Z</time>
      </trkpt>
      <trkpt lat="65.60885" lon="21.95978">
        <ele>31.681056</ele>
        <time>2020-09-23T11:41:40.503Z</time>
      </trkpt>
      <trkpt lat="65.60876" lon="21.95991">
        <ele>32.325556</ele>
        <time>2020-09-23T11:41:43.524Z</time>
      </trkpt>
      <trkpt lat="65.60868" lon="21.96004">
        <ele>32.968861</ele>
        <time>2020-09-23T11:41:46.496Z</time>
      </trkpt>
      <trkpt lat="65.60859" lon="21.96018">
        <ele>33.583475</ele>
        <time>2020-09-23T11:41:49.492Z</time>
      </trkpt>
      <trkpt lat="65.60851" lon="21.96032">
        <ele>34.19951</ele>
        <time>2020-09-23T11:41:52.498Z</time>
      </trkpt>
      <trkpt lat="65.60843" lon="21.96044">
        <ele>34.76636</ele>
        <time>2020-09-23T11:41:55.490Z</time>
      </trkpt>
      <trkpt lat="65.60836" lon="21.96056">
        <ele>35.329447</ele>
        <time>2020-09-23T11:41:58.494Z</time>
      </trkpt>
      <trkpt lat="65.60826" lon="21.96071">
        <ele>36.047927</ele>
        <time>2020-09-23T11:42:02.476Z</time>
      </trkpt>
      <trkpt lat="65.60816" lon="21.96085">
        <ele>36.753346</ele>
        <time>2020-09-23T11:42:06.495Z</time>
      </trkpt>
      <trkpt lat="65.60807" lon="21.96098">
        <ele>37.438783</ele>
        <time>2020-09-23T11:42:10.517Z</time>
      </trkpt>
      <trkpt lat="65.60797" lon="21.96112">
        <ele>38.099158</ele>
        <time>2020-09-23T11:42:14.484Z</time>
      </trkpt>
      <trkpt lat="65.60789" lon="21.96126">
        <ele>38.728883</ele>
        <time>2020-09-23T11:42:18.499Z</time>
      </trkpt>
      <trkpt lat="65.60781" lon="21.96138">
        <ele>39.329866</ele>
        <time>2020-09-23T11:42:22.525Z</time>
      </trkpt>
      <trkpt lat="65.60772" lon="21.96152">
        <ele>39.967572</ele>
        <time>2020-09-23T11:42:26.516Z</time>
      </trkpt>
      <trkpt lat="65.60763" lon="21.96167">
        <ele>40.644519</ele>
        <time>2020-09-23T11:42:30.517Z</time>
      </trkpt>
      <trkpt lat="65.60754" lon="21.96183">
        <ele>41.33552</ele>
        <time>2020-09-23T11:42:34.496Z</time>
      </trkpt>
      <trkpt lat="65.60745" lon="21.96199">
        <ele>42.035722</ele>
        <time>2020-09-23T11:42:38.510Z</time>
      </trkpt>
      <trkpt lat="65.60736" lon="21.96217">
        <ele>42.411137</ele>
        <time>2020-09-23T11:42:42.528Z</time>
      </trkpt>
      <trkpt lat="65.60726" lon="21.96233">
        <ele>42.585906</ele>
        <time>2020-09-23T11:42:46.512Z</time>
      </trkpt>
      <trkpt lat="65.60718" lon="21.96249">
        <ele>42.748142</ele>
        <time>2020-09-23T11:42:50.500Z</time>
      </trkpt>
      <trkpt lat="65.60708" lon="21.96266">
        <ele>42.922825</ele>
        <time>2020-09-23T11:42:54.529Z</time>
      </trkpt>
      <trkpt lat="65.60702" lon="21.96281">
        <ele>43.060307</ele>
        <time>2020-09-23T11:42:57.490Z</time>
      </trkpt>
      <trkpt lat="65.60695" lon="21.96296">
        <ele>43.195713</ele>
        <time>2020-09-23T11:43:00.495Z</time>
      </trkpt>
      <trkpt lat="65.60688" lon="21.96312">
        <ele>43.33433</ele>
        <time>2020-09-23T11:43:03.485Z</time>
      </trkpt>
      <trkpt lat="65.60682" lon="21.96327">
        <ele>43.473167</ele>
        <time>2020-09-23T11:43:06.499Z</time>
      </trkpt>
      <trkpt lat="65.60674" lon="21.96343">
        <ele>43.621879</ele>
        <time>2020-09-23T11:43:09.500Z</time>
      </trkpt>
      <trkpt lat="65.60665" lon="21.96362">
        <ele>43.798251</ele>
        <time>2020-09-23T11:43:13.511Z</time>
      </trkpt>
      <trkpt lat="65.60658" lon="21.96378">
        <ele>43.943491</ele>
        <time>2020-09-23T11:43:16.500Z</time>
      </trkpt>
      <trkpt lat="65.6065" lon="21.96395">
        <ele>44.100478</ele>
        <time>2020-09-23T11:43:19.490Z</time>
      </trkpt>
      <trkpt lat="65.60643" lon="21.96414">
        <ele>44.259898</ele>
        <time>2020-09-23T11:43:22.497Z</time>
      </trkpt>
      <trkpt lat="65.60635" lon="21.96432">
        <ele>44.425164</ele>
        <time>2020-09-23T11:43:25.495Z</time>
      </trkpt>
      <trkpt lat="65.60627" lon="21.96452">
        <ele>44.593982</ele>
        <time>2020-09-23T11:43:28.488Z</time>
      </trkpt>
      <trkpt lat="65.6062" lon="21.96471">
        <ele>44.751028</ele>
        <time>2020-09-23T11:43:31.515Z</time>
      </trkpt>
      <trkpt lat="65.60612" lon="21.96492">
        <ele>44.928233</ele>
        <time>2020-09-23T11:43:34.498Z</time>
      </trkpt>
      <trkpt lat="65.60603" lon="21.96515">
        <ele>44.679181</ele>
        <time>2020-09-23T11:43:37.489Z</time>
      </trkpt>
      <trkpt lat="65.60594" lon="21.96538">
        <ele>44.234744</ele>
        <time>2020-09-23T11:43:40.489Z</time>
      </trkpt>
      <trkpt lat="65.60588" lon="21.96555">
        <ele>43.901095</ele>
        <time>2020-09-23T11:43:42.513Z</time>
      </trkpt>
      <trkpt lat="65.60581" lon="21.96572">
        <ele>43.551585</ele>
        <time>2020-09-23T11:43:44.523Z</time>
      </trkpt>
      <trkpt lat="65.60574" lon="21.9659">
        <ele>43.206206</ele>
        <time>2020-09-23T11:43:46.506Z</time>
      </trkpt>
      <trkpt lat="65.60567" lon="21.96608">
        <ele>42.869077</ele>
        <time>2020-09-23T11:43:48.511Z</time>
      </trkpt>
      <trkpt lat="65.60561" lon="21.96626">
        <ele>42.519909</ele>
        <time>2020-09-23T11:43:50.526Z</time>
      </trkpt>
      <trkpt lat="65.60555" lon="21.96645">
        <ele>42.169657</ele>
        <time>2020-09-23T11:43:52.494Z</time>
      </trkpt>
      <trkpt lat="65.60548" lon="21.96663">
        <ele>41.838149</ele>
        <time>2020-09-23T11:43:54.505Z</time>
      </trkpt>
      <trkpt lat="65.60542" lon="21.96682">
        <ele>41.487587</ele>
        <time>2020-09-23T11:43:56.485Z</time>
      </trkpt>
      <trkpt lat="65.60536" lon="21.96703">
        <ele>41.127926</ele>
        <time>2020-09-23T11:43:58.510Z</time>
      </trkpt>
      <trkpt lat="65.60531" lon="21.96724">
        <ele>40.780711</ele>
        <time>2020-09-23T11:44:00.504Z</time>
      </trkpt>
      <trkpt lat="65.60526" lon="21.96744">
        <ele>40.426554</ele>
        <time>2020-09-23T11:44:02.493Z</time>
      </trkpt>
      <trkpt lat="65.60519" lon="21.96766">
        <ele>40.049936</ele>
        <time>2020-09-23T11:44:04.482Z</time>
      </trkpt>
      <trkpt lat="65.60513" lon="21.96788">
        <ele>39.650924</ele>
        <time>2020-09-23T11:44:06.488Z</time>
      </trkpt>
      <trkpt lat="65.60506" lon="21.9681">
        <ele>39.25293</ele>
        <time>2020-09-23T11:44:08.502Z</time>
      </trkpt>
      <trkpt lat="65.60499" lon="21.96831">
        <ele>38.880274</ele>
        <time>2020-09-23T11:44:10.507Z</time>
      </trkpt>
      <trkpt lat="65.60492" lon="21.96853">
        <ele>38.597671</ele>
        <time>2020-09-23T11:44:12.496Z</time>
      </trkpt>
      <trkpt lat="65.60486" lon="21.96875">
        <ele>38.367303</ele>
        <time>2020-09-23T11:44:14.507Z</time>
      </trkpt>
      <trkpt lat="65.6048" lon="21.96898">
        <ele>38.133782</ele>
        <time>2020-09-23T11:44:16.486Z</time>
      </trkpt>
      <trkpt lat="65.60474" lon="21.9692">
        <ele>37.907798</ele>
        <time>2020-09-23T11:44:18.487Z</time>
      </trkpt>
      <trkpt lat="65.60468" lon="21.96944">
        <ele>37.671333</ele>
        <time>2020-09-23T11:44:20.485Z</time>
      </trkpt>
      <trkpt lat="65.60461" lon="21.96967">
        <ele>37.434441</ele>
        <time>2020-09-23T11:44:22.519Z</time>
      </trkpt>
      <trkpt lat="65.60455" lon="21.9699">
        <ele>37.204489</ele>
        <time>2020-09-23T11:44:24.495Z</time>
      </trkpt>
      <trkpt lat="65.60449" lon="21.97013">
        <ele>36.964764</ele>
        <time>2020-09-23T11:44:26.486Z</time>
      </trkpt>
      <trkpt lat="65.60442" lon="21.97037">
        <ele>36.720765</ele>
        <time>2020-09-23T11:44:28.490Z</time>
      </trkpt>
      <trkpt lat="65.60436" lon="21.97063">
        <ele>36.467395</ele>
        <time>2020-09-23T11:44:30.499Z</time>
      </trkpt>
      <trkpt lat="65.60429" lon="21.97088">
        <ele>36.2129</ele>
        <time>2020-09-23T11:44:32.503Z</time>
      </trkpt>
      <trkpt lat="65.60423" lon="21.97112">
        <ele>35.980834</ele>
        <time>2020-09-23T11:44:34.506Z</time>
      </trkpt>
      <trkpt lat="65.60417" lon="21.97136">
        <ele>35.740827</ele>
        <time>2020-09-23T11:44:36.499Z</time>
      </trkpt>
      <trkpt lat="65.60411" lon="21.9716">
        <ele>35.505858</ele>
        <time>2020-09-23T11:44:38.502Z</time>
      </trkpt>
      <trkpt lat="65.60406" lon="21.97182">
        <ele>35.276679</ele>
        <time>2020-09-23T11:44:40.489Z</time>
      </trkpt>
      <trkpt lat="65.604" lon="21.97205">
        <ele>35.059852</ele>
        <time>2020-09-23T11:44:42.535Z</time>
      </trkpt>
      <trkpt lat="65.60394" lon="21.97227">
        <ele>35.261827</ele>
        <time>2020-09-23T11:44:44.533Z</time>
      </trkpt>
      <trkpt lat="65.60387" lon="21.97249">
        <ele>35.466748</ele>
        <time>2020-09-23T11:44:46.518Z</time>
      </trkpt>
      <trkpt lat="65.60381" lon="21.97272">
        <ele>35.673191</ele>
        <time>2020-09-23T11:44:48.539Z</time>
      </trkpt>
      <trkpt lat="65.60375" lon="21.97294">
        <ele>35.875166</ele>
        <time>2020-09-23T11:44:50.478Z</time>
      </trkpt>
      <trkpt lat="65.60369" lon="21.97315">
        <ele>36.074416</ele>
        <time>2020-09-23T11:44:52.501Z</time>
      </trkpt>
      <trkpt lat="65.60363" lon="21.97336">
        <ele>36.274744</ele>
        <time>2020-09-23T11:44:54.483Z</time>
      </trkpt>
      <trkpt lat="65.60357" lon="21.97357">
        <ele>36.469157</ele>
        <time>2020-09-23T11:44:56.532Z</time>
      </trkpt>
      <trkpt lat="65.60351" lon="21.97377">
        <ele>36.658014</ele>
        <time>2020-09-23T11:44:58.507Z</time>
      </trkpt>
      <trkpt lat="65.60345" lon="21.97397">
        <ele>36.84904</ele>
        <time>2020-09-23T11:45:00.502Z</time>
      </trkpt>
      <trkpt lat="65.60339" lon="21.97419">
        <ele>37.049749</ele>
        <time>2020-09-23T11:45:02.498Z</time>
      </trkpt>
      <trkpt lat="65.60333" lon="21.97441">
        <ele>37.253842</ele>
        <time>2020-09-23T11:45:04.518Z</time>
      </trkpt>
      <trkpt lat="65.60327" lon="21.97465">
        <ele>37.464613</ele>
        <time>2020-09-23T11:45:06.475Z</time>
      </trkpt>
      <trkpt lat="65.60322" lon="21.97487">
        <ele>37.656646</ele>
        <time>2020-09-23T11:45:08.500Z</time>
      </trkpt>
      <trkpt lat="65.60317" lon="21.9751">
        <ele>37.859793</ele>
        <time>2020-09-23T11:45:10.516Z</time>
      </trkpt>
      <trkpt lat="65.60311" lon="21.97533">
        <ele>38.060478</ele>
        <time>2020-09-23T11:45:12.485Z</time>
      </trkpt>
      <trkpt lat="65.60306" lon="21.97554">
        <ele>38.254153</ele>
        <time>2020-09-23T11:45:14.493Z</time>
      </trkpt>
      <trkpt lat="65.60301" lon="21.97575">
        <ele>38.405213</ele>
        <time>2020-09-23T11:45:16.475Z</time>
      </trkpt>
      <trkpt lat="65.60295" lon="21.97597">
        <ele>38.450119</ele>
        <time>2020-09-23T11:45:18.482Z</time>
      </trkpt>
      <trkpt lat="65.60289" lon="21.97619">
        <ele>38.494879</ele>
        <time>2020-09-23T11:45:20.487Z</time>
      </trkpt>
      <trkpt lat="65.60283" lon="21.9764">
        <ele>38.53894</ele>
        <time>2020-09-23T11:45:22.520Z</time>
      </trkpt>
      <trkpt lat="65.60277" lon="21.9766">
        <ele>38.582571</ele>
        <time>2020-09-23T11:45:24.485Z</time>
      </trkpt>
      <trkpt lat="65.60272" lon="21.97682">
        <ele>38.626976</ele>
        <time>2020-09-23T11:45:26.503Z</time>
      </trkpt>
      <trkpt lat="65.60265" lon="21.97704">
        <ele>38.673965</ele>
        <time>2020-09-23T11:45:28.485Z</time>
      </trkpt>
      <trkpt lat="65.6026" lon="21.97725">
        <ele>38.71814</ele>
        <time>2020-09-23T11:45:30.487Z</time>
      </trkpt>
      <trkpt lat="65.60254" lon="21.97746">
        <ele>38.7615</ele>
        <time>2020-09-23T11:45:32.507Z</time>
      </trkpt>
      <trkpt lat="65.60248" lon="21.97769">
        <ele>38.807741</ele>
        <time>2020-09-23T11:45:34.524Z</time>
      </trkpt>
      <trkpt lat="65.60242" lon="21.97791">
        <ele>38.853021</ele>
        <time>2020-09-23T11:45:36.494Z</time>
      </trkpt>
      <trkpt lat="65.60236" lon="21.97813">
        <ele>38.898762</ele>
        <time>2020-09-23T11:45:38.498Z</time>
      </trkpt>
      <trkpt lat="65.6023" lon="21.97834">
        <ele>38.944786</ele>
        <time>2020-09-23T11:45:40.489Z</time>
      </trkpt>
      <trkpt lat="65.60224" lon="21.97856">
        <ele>38.990712</ele>
        <time>2020-09-23T11:45:42.490Z</time>
      </trkpt>
      <trkpt lat="65.60219" lon="21.97877">
        <ele>39.033325</ele>
        <time>2020-09-23T11:45:44.488Z</time>
      </trkpt>
      <trkpt lat="65.60213" lon="21.97897">
        <ele>39.074459</ele>
        <time>2020-09-23T11:45:46.491Z</time>
      </trkpt>
      <trkpt lat="65.60208" lon="21.97917">
        <ele>39.117093</ele>
        <time>2020-09-23T11:45:48.481Z</time>
      </trkpt>
      <trkpt lat="65.60202" lon="21.97938">
        <ele>39.122084</ele>
        <time>2020-09-23T11:45:50.490Z</time>
      </trkpt>
      <trkpt lat="65.60196" lon="21.9796">
        <ele>38.962466</ele>
        <time>2020-09-23T11:45:52.524Z</time>
      </trkpt>
      <trkpt lat="65.6019" lon="21.97981">
        <ele>38.807177</ele>
        <time>2020-09-23T11:45:54.493Z</time>
      </trkpt>
      <trkpt lat="65.60184" lon="21.98002">
        <ele>38.654686</ele>
        <time>2020-09-23T11:45:56.482Z</time>
      </trkpt>
      <trkpt lat="65.60179" lon="21.98022">
        <ele>38.505842</ele>
        <time>2020-09-23T11:45:58.498Z</time>
      </trkpt>
      <trkpt lat="65.60173" lon="21.98043">
        <ele>38.354468</ele>
        <time>2020-09-23T11:46:00.487Z</time>
      </trkpt>
      <trkpt lat="65.60167" lon="21.98064">
        <ele>38.205407</ele>
        <time>2020-09-23T11:46:02.493Z</time>
      </trkpt>
      <trkpt lat="65.60162" lon="21.98084">
        <ele>38.061716</ele>
        <time>2020-09-23T11:46:04.495Z</time>
      </trkpt>
      <trkpt lat="65.60156" lon="21.98104">
        <ele>37.912395</ele>
        <time>2020-09-23T11:46:06.504Z</time>
      </trkpt>
      <trkpt lat="65.6015" lon="21.98124">
        <ele>37.764558</ele>
        <time>2020-09-23T11:46:08.492Z</time>
      </trkpt>
      <trkpt lat="65.60145" lon="21.98146">
        <ele>37.609579</ele>
        <time>2020-09-23T11:46:10.547Z</time>
      </trkpt>
      <trkpt lat="65.60139" lon="21.98166">
        <ele>37.464743</ele>
        <time>2020-09-23T11:46:12.492Z</time>
      </trkpt>
      <trkpt lat="65.60134" lon="21.98186">
        <ele>37.324393</ele>
        <time>2020-09-23T11:46:14.504Z</time>
      </trkpt>
      <trkpt lat="65.60129" lon="21.98209">
        <ele>37.170715</ele>
        <time>2020-09-23T11:46:16.489Z</time>
      </trkpt>
      <trkpt lat="65.60124" lon="21.9823">
        <ele>37.018773</ele>
        <time>2020-09-23T11:46:18.523Z</time>
      </trkpt>
      <trkpt lat="65.60119" lon="21.98251">
        <ele>36.870751</ele>
        <time>2020-09-23T11:46:20.491Z</time>
      </trkpt>
      <trkpt lat="65.60114" lon="21.98272">
        <ele>36.725803</ele>
        <time>2020-09-23T11:46:22.526Z</time>
      </trkpt>
      <trkpt lat="65.60107" lon="21.983">
        <ele>36.530888</ele>
        <time>2020-09-23T11:46:25.496Z</time>
      </trkpt>
      <trkpt lat="65.60102" lon="21.98319">
        <ele>36.490311</ele>
        <time>2020-09-23T11:46:27.488Z</time>
      </trkpt>
      <trkpt lat="65.60097" lon="21.98338">
        <ele>36.456049</ele>
        <time>2020-09-23T11:46:29.488Z</time>
      </trkpt>
      <trkpt lat="65.6009" lon="21.98365">
        <ele>36.408029</ele>
        <time>2020-09-23T11:46:32.496Z</time>
      </trkpt>
      <trkpt lat="65.60083" lon="21.9839">
        <ele>36.360951</ele>
        <time>2020-09-23T11:46:35.499Z</time>
      </trkpt>
      <trkpt lat="65.60075" lon="21.98415">
        <ele>36.313749</ele>
        <time>2020-09-23T11:46:38.538Z</time>
      </trkpt>
      <trkpt lat="65.60068" lon="21.9844">
        <ele>36.267641</ele>
        <time>2020-09-23T11:46:41.481Z</time>
      </trkpt>
      <trkpt lat="65.60061" lon="21.98464">
        <ele>36.222851</ele>
        <time>2020-09-23T11:46:44.527Z</time>
      </trkpt>
      <trkpt lat="65.60055" lon="21.98486">
        <ele>36.181606</ele>
        <time>2020-09-23T11:46:47.536Z</time>
      </trkpt>
      <trkpt lat="65.60048" lon="21.98505">
        <ele>36.14359</ele>
        <time>2020-09-23T11:46:50.507Z</time>
      </trkpt>
      <trkpt lat="65.60042" lon="21.98526">
        <ele>36.103406</ele>
        <time>2020-09-23T11:46:53.487Z</time>
      </trkpt>
      <trkpt lat="65.60035" lon="21.98547">
        <ele>36.06366</ele>
        <time>2020-09-23T11:46:56.484Z</time>
      </trkpt>
      <trkpt lat="65.60029" lon="21.9857">
        <ele>36.022645</ele>
        <time>2020-09-23T11:46:59.493Z</time>
      </trkpt>
      <trkpt lat="65.60023" lon="21.98593">
        <ele>35.980598</ele>
        <time>2020-09-23T11:47:02.477Z</time>
      </trkpt>
      <trkpt lat="65.60018" lon="21.98615">
        <ele>35.942957</ele>
        <time>2020-09-23T11:47:05.529Z</time>
      </trkpt>
      <trkpt lat="65.60013" lon="21.98635">
        <ele>35.90623</ele>
        <time>2020-09-23T11:47:08.516Z</time>
      </trkpt>
      <trkpt lat="65.60008" lon="21.98656">
        <ele>35.868206</ele>
        <time>2020-09-23T11:47:11.495Z</time>
      </trkpt>
      <trkpt lat="65.60003" lon="21.98677">
        <ele>36.139656</ele>
        <time>2020-09-23T11:47:14.483Z</time>
      </trkpt>
      <trkpt lat="65.59997" lon="21.98698">
        <ele>36.54201</ele>
        <time>2020-09-23T11:47:17.483Z</time>
      </trkpt>
      <trkpt lat="65.59991" lon="21.98718">
        <ele>36.92765</ele>
        <time>2020-09-23T11:47:20.495Z</time>
      </trkpt>
      <trkpt lat="65.59986" lon="21.98737">
        <ele>37.279897</ele>
        <time>2020-09-23T11:47:23.491Z</time>
      </trkpt>
      <trkpt lat="65.5998" lon="21.98761">
        <ele>37.749401</ele>
        <time>2020-09-23T11:47:27.518Z</time>
      </trkpt>
      <trkpt lat="65.59974" lon="21.98781">
        <ele>38.127169</ele>
        <time>2020-09-23T11:47:30.488Z</time>
      </trkpt>
      <trkpt lat="65.59968" lon="21.988">
        <ele>38.519845</ele>
        <time>2020-09-23T11:47:33.507Z</time>
      </trkpt>
      <trkpt lat="65.59962" lon="21.9882">
        <ele>38.912523</ele>
        <time>2020-09-23T11:47:36.525Z</time>
      </trkpt>
      <trkpt lat="65.59955" lon="21.98839">
        <ele>39.303798</ele>
        <time>2020-09-23T11:47:39.494Z</time>
      </trkpt>
      <trkpt lat="65.59949" lon="21.98858">
        <ele>39.693954</ele>
        <time>2020-09-23T11:47:42.483Z</time>
      </trkpt>
      <trkpt lat="65.59942" lon="21.98876">
        <ele>40.080232</ele>
        <time>2020-09-23T11:47:45.498Z</time>
      </trkpt>
      <trkpt lat="65.59936" lon="21.98895">
        <ele>40.467764</ele>
        <time>2020-09-23T11:47:48.515Z</time>
      </trkpt>
      <trkpt lat="65.59929" lon="21.98913">
        <ele>40.859068</ele>
        <time>2020-09-23T11:47:51.480Z</time>
      </trkpt>
      <trkpt lat="65.59921" lon="21.98931">
        <ele>41.26755</ele>
        <time>2020-09-23T11:47:54.484Z</time>
      </trkpt>
      <trkpt lat="65.59913" lon="21.98948">
        <ele>41.674901</ele>
        <time>2020-09-23T11:47:57.487Z</time>
      </trkpt>
      <trkpt lat="65.59906" lon="21.98966">
        <ele>42.089395</ele>
        <time>2020-09-23T11:48:00.526Z</time>
      </trkpt>
      <trkpt lat="65.59898" lon="21.98983">
        <ele>42.495125</ele>
        <time>2020-09-23T11:48:03.478Z</time>
      </trkpt>
      <trkpt lat="65.59889" lon="21.98999">
        <ele>42.780882</ele>
        <time>2020-09-23T11:48:06.500Z</time>
      </trkpt>
      <trkpt lat="65.5988" lon="21.99015">
        <ele>42.768277</ele>
        <time>2020-09-23T11:48:09.496Z</time>
      </trkpt>
      <trkpt lat="65.59872" lon="21.99031">
        <ele>42.755487</ele>
        <time>2020-09-23T11:48:12.519Z</time>
      </trkpt>
      <trkpt lat="65.59863" lon="21.99046">
        <ele>42.743833</ele>
        <time>2020-09-23T11:48:15.506Z</time>
      </trkpt>
      <trkpt lat="65.59855" lon="21.99062">
        <ele>42.731411</ele>
        <time>2020-09-23T11:48:18.517Z</time>
      </trkpt>
      <trkpt lat="65.59846" lon="21.99081">
        <ele>42.717963</ele>
        <time>2020-09-23T11:48:21.516Z</time>
      </trkpt>
      <trkpt lat="65.59837" lon="21.99099">
        <ele>42.704402</ele>
        <time>2020-09-23T11:48:24.504Z</time>
      </trkpt>
      <trkpt lat="65.59827" lon="21.99119">
        <ele>42.688961</ele>
        <time>2020-09-23T11:48:27.500Z</time>
      </trkpt>
      <trkpt lat="65.59816" lon="21.9914">
        <ele>42.673578</ele>
        <time>2020-09-23T11:48:30.506Z</time>
      </trkpt>
      <trkpt lat="65.59806" lon="21.99159">
        <ele>42.658372</ele>
        <time>2020-09-23T11:48:33.521Z</time>
      </trkpt>
      <trkpt lat="65.59795" lon="21.99179">
        <ele>42.642806</ele>
        <time>2020-09-23T11:48:36.516Z</time>
      </trkpt>
      <trkpt lat="65.59788" lon="21.99193">
        <ele>42.632499</ele>
        <time>2020-09-23T11:48:38.541Z</time>
      </trkpt>
      <trkpt lat="65.59781" lon="21.99207">
        <ele>42.621599</ele>
        <time>2020-09-23T11:48:40.502Z</time>
      </trkpt>
      <trkpt lat="65.59774" lon="21.99222">
        <ele>42.610819</ele>
        <time>2020-09-23T11:48:42.486Z</time>
      </trkpt>
      <trkpt lat="65.59766" lon="21.99235">
        <ele>42.600123</ele>
        <time>2020-09-23T11:48:44.503Z</time>
      </trkpt>
      <trkpt lat="65.59759" lon="21.99249">
        <ele>42.58937</ele>
        <time>2020-09-23T11:48:46.546Z</time>
      </trkpt>
      <trkpt lat="65.59751" lon="21.99263">
        <ele>42.578426</ele>
        <time>2020-09-23T11:48:48.511Z</time>
      </trkpt>
      <trkpt lat="65.59743" lon="21.99275">
        <ele>42.601509</ele>
        <time>2020-09-23T11:48:50.488Z</time>
      </trkpt>
      <trkpt lat="65.59736" lon="21.99289">
        <ele>42.62799</ele>
        <time>2020-09-23T11:48:52.497Z</time>
      </trkpt>
      <trkpt lat="65.59728" lon="21.99303">
        <ele>42.655221</ele>
        <time>2020-09-23T11:48:54.504Z</time>
      </trkpt>
      <trkpt lat="65.5972" lon="21.99318">
        <ele>42.681517</ele>
        <time>2020-09-23T11:48:56.497Z</time>
      </trkpt>
      <trkpt lat="65.59713" lon="21.99332">
        <ele>42.707882</ele>
        <time>2020-09-23T11:48:58.480Z</time>
      </trkpt>
      <trkpt lat="65.59706" lon="21.99347">
        <ele>42.734254</ele>
        <time>2020-09-23T11:49:00.495Z</time>
      </trkpt>
      <trkpt lat="65.59698" lon="21.99361">
        <ele>42.761057</ele>
        <time>2020-09-23T11:49:02.489Z</time>
      </trkpt>
      <trkpt lat="65.5969" lon="21.99375">
        <ele>42.787829</ele>
        <time>2020-09-23T11:49:04.516Z</time>
      </trkpt>
      <trkpt lat="65.59682" lon="21.99389">
        <ele>42.814647</ele>
        <time>2020-09-23T11:49:06.517Z</time>
      </trkpt>
      <trkpt lat="65.59674" lon="21.99403">
        <ele>42.842334</ele>
        <time>2020-09-23T11:49:08.501Z</time>
      </trkpt>
      <trkpt lat="65.59666" lon="21.99418">
        <ele>42.869565</ele>
        <time>2020-09-23T11:49:10.502Z</time>
      </trkpt>
      <trkpt lat="65.59655" lon="21.99436">
        <ele>42.906235</ele>
        <time>2020-09-23T11:49:13.484Z</time>
      </trkpt>
      <trkpt lat="65.59648" lon="21.99449">
        <ele>42.932162</ele>
        <time>2020-09-23T11:49:15.500Z</time>
      </trkpt>
      <trkpt lat="65.5964" lon="21.99463">
        <ele>42.958676</ele>
        <time>2020-09-23T11:49:17.507Z</time>
      </trkpt>
      <trkpt lat="65.59632" lon="21.99476">
        <ele>42.98451</ele>
        <time>2020-09-23T11:49:19.482Z</time>
      </trkpt>
      <trkpt lat="65.59624" lon="21.99491">
        <ele>43.012606</ele>
        <time>2020-09-23T11:49:21.497Z</time>
      </trkpt>
      <trkpt lat="65.59616" lon="21.99506">
        <ele>43.041077</ele>
        <time>2020-09-23T11:49:23.483Z</time>
      </trkpt>
      <trkpt lat="65.59608" lon="21.99521">
        <ele>43.067873</ele>
        <time>2020-09-23T11:49:25.539Z</time>
      </trkpt>
      <trkpt lat="65.596" lon="21.99535">
        <ele>43.118813</ele>
        <time>2020-09-23T11:49:27.495Z</time>
      </trkpt>
      <trkpt lat="65.59591" lon="21.9955">
        <ele>43.179629</ele>
        <time>2020-09-23T11:49:29.481Z</time>
      </trkpt>
      <trkpt lat="65.59582" lon="21.99564">
        <ele>43.241047</ele>
        <time>2020-09-23T11:49:31.494Z</time>
      </trkpt>
      <trkpt lat="65.59573" lon="21.99579">
        <ele>43.30166</ele>
        <time>2020-09-23T11:49:33.508Z</time>
      </trkpt>
      <trkpt lat="65.59564" lon="21.99593">
        <ele>43.363514</ele>
        <time>2020-09-23T11:49:35.486Z</time>
      </trkpt>
      <trkpt lat="65.59555" lon="21.99607">
        <ele>43.423305</ele>
        <time>2020-09-23T11:49:37.487Z</time>
      </trkpt>
      <trkpt lat="65.59547" lon="21.9962">
        <ele>43.481284</ele>
        <time>2020-09-23T11:49:39.502Z</time>
      </trkpt>
      <trkpt lat="65.59538" lon="21.99634">
        <ele>43.540598</ele>
        <time>2020-09-23T11:49:41.507Z</time>
      </trkpt>
      <trkpt lat="65.59528" lon="21.99647">
        <ele>43.602811</ele>
        <time>2020-09-23T11:49:43.496Z</time>
      </trkpt>
      <trkpt lat="65.5952" lon="21.99659">
        <ele>43.660677</ele>
        <time>2020-09-23T11:49:45.500Z</time>
      </trkpt>
      <trkpt lat="65.59511" lon="21.99671">
        <ele>43.717211</ele>
        <time>2020-09-23T11:49:47.507Z</time>
      </trkpt>
      <trkpt lat="65.59503" lon="21.99684">
        <ele>43.772022</ele>
        <time>2020-09-23T11:49:49.499Z</time>
      </trkpt>
      <trkpt lat="65.59495" lon="21.99697">
        <ele>43.82764</ele>
        <time>2020-09-23T11:49:51.519Z</time>
      </trkpt>
      <trkpt lat="65.59487" lon="21.99709">
        <ele>43.881367</ele>
        <time>2020-09-23T11:49:53.526Z</time>
      </trkpt>
      <trkpt lat="65.59479" lon="21.99721">
        <ele>43.932899</ele>
        <time>2020-09-23T11:49:55.515Z</time>
      </trkpt>
      <trkpt lat="65.59468" lon="21.99736">
        <ele>44.003952</ele>
        <time>2020-09-23T11:49:58.498Z</time>
      </trkpt>
      <trkpt lat="65.59457" lon="21.99752">
        <ele>44.074642</ele>
        <time>2020-09-23T11:50:01.492Z</time>
      </trkpt>
      <trkpt lat="65.59447" lon="21.99766">
        <ele>44.485611</ele>
        <time>2020-09-23T11:50:04.488Z</time>
      </trkpt>
      <trkpt lat="65.59437" lon="21.99781">
        <ele>45.035698</ele>
        <time>2020-09-23T11:50:07.506Z</time>
      </trkpt>
      <trkpt lat="65.59427" lon="21.99796">
        <ele>45.571881</ele>
        <time>2020-09-23T11:50:10.503Z</time>
      </trkpt>
      <trkpt lat="65.59417" lon="21.9981">
        <ele>46.073713</ele>
        <time>2020-09-23T11:50:13.483Z</time>
      </trkpt>
      <trkpt lat="65.59408" lon="21.99823">
        <ele>46.570771</ele>
        <time>2020-09-23T11:50:16.501Z</time>
      </trkpt>
      <trkpt lat="65.59399" lon="21.99837">
        <ele>47.078677</ele>
        <time>2020-09-23T11:50:19.496Z</time>
      </trkpt>
      <trkpt lat="65.59389" lon="21.9985">
        <ele>47.57695</ele>
        <time>2020-09-23T11:50:22.481Z</time>
      </trkpt>
      <trkpt lat="65.5938" lon="21.99864">
        <ele>48.091592</ele>
        <time>2020-09-23T11:50:25.488Z</time>
      </trkpt>
      <trkpt lat="65.59371" lon="21.99879">
        <ele>48.590609</ele>
        <time>2020-09-23T11:50:28.500Z</time>
      </trkpt>
      <trkpt lat="65.59363" lon="21.99892">
        <ele>49.040665</ele>
        <time>2020-09-23T11:50:31.514Z</time>
      </trkpt>
      <trkpt lat="65.59355" lon="21.99905">
        <ele>49.45282</ele>
        <time>2020-09-23T11:50:34.515Z</time>
      </trkpt>
      <trkpt lat="65.59347" lon="21.99916">
        <ele>49.895904</ele>
        <time>2020-09-23T11:50:37.491Z</time>
      </trkpt>
      <trkpt lat="65.59339" lon="21.99929">
        <ele>50.332383</ele>
        <time>2020-09-23T11:50:40.489Z</time>
      </trkpt>
      <trkpt lat="65.59329" lon="21.99942">
        <ele>50.85354</ele>
        <time>2020-09-23T11:50:44.502Z</time>
      </trkpt>
      <trkpt lat="65.59321" lon="21.99954">
        <ele>51.2681</ele>
        <time>2020-09-23T11:50:47.491Z</time>
      </trkpt>
      <trkpt lat="65.59313" lon="21.99963">
        <ele>51.693786</ele>
        <time>2020-09-23T11:50:50.504Z</time>
      </trkpt>
      <trkpt lat="65.59304" lon="21.99973">
        <ele>52.132658</ele>
        <time>2020-09-23T11:50:53.516Z</time>
      </trkpt>
      <trkpt lat="65.59293" lon="21.99982">
        <ele>52.542594</ele>
        <time>2020-09-23T11:50:57.518Z</time>
      </trkpt>
      <trkpt lat="65.59283" lon="21.99988">
        <ele>52.810273</ele>
        <time>2020-09-23T11:51:00.504Z</time>
      </trkpt>
      <trkpt lat="65.59275" lon="21.99996">
        <ele>53.053897</ele>
        <time>2020-09-23T11:51:03.499Z</time>
      </trkpt>
      <trkpt lat="65.59264" lon="22.00003">
        <ele>53.350653</ele>
        <time>2020-09-23T11:51:07.540Z</time>
      </trkpt>
      <trkpt lat="65.59255" lon="22.0001">
        <ele>53.597304</ele>
        <time>2020-09-23T11:51:10.488Z</time>
      </trkpt>
      <trkpt lat="65.59246" lon="22.00016">
        <ele>53.863727</ele>
        <time>2020-09-23T11:51:13.487Z</time>
      </trkpt>
      <trkpt lat="65.59235" lon="22.00021">
        <ele>54.164791</ele>
        <time>2020-09-23T11:51:17.530Z</time>
      </trkpt>
      <trkpt lat="65.59226" lon="22.00025">
        <ele>54.414106</ele>
        <time>2020-09-23T11:51:20.483Z</time>
      </trkpt>
      <trkpt lat="65.59216" lon="22.00029">
        <ele>54.678232</ele>
        <time>2020-09-23T11:51:23.486Z</time>
      </trkpt>
      <trkpt lat="65.59206" lon="22.00034">
        <ele>54.948828</ele>
        <time>2020-09-23T11:51:26.538Z</time>
      </trkpt>
      <trkpt lat="65.59196" lon="22.00038">
        <ele>55.215418</ele>
        <time>2020-09-23T11:51:29.498Z</time>
      </trkpt>
      <trkpt lat="65.59187" lon="22.00041">
        <ele>55.464179</ele>
        <time>2020-09-23T11:51:32.522Z</time>
      </trkpt>
      <trkpt lat="65.59176" lon="22.00047">
        <ele>55.777817</ele>
        <time>2020-09-23T11:51:36.495Z</time>
      </trkpt>
      <trkpt lat="65.59166" lon="22.00051">
        <ele>56.041405</ele>
        <time>2020-09-23T11:51:39.525Z</time>
      </trkpt>
      <trkpt lat="65.59157" lon="22.00056">
        <ele>56.300737</ele>
        <time>2020-09-23T11:51:42.501Z</time>
      </trkpt>
      <trkpt lat="65.59148" lon="22.0006">
        <ele>56.549618</ele>
        <time>2020-09-23T11:51:45.515Z</time>
      </trkpt>
      <trkpt lat="65.59138" lon="22.00065">
        <ele>56.799621</ele>
        <time>2020-09-23T11:51:48.493Z</time>
      </trkpt>
      <trkpt lat="65.59129" lon="22.0007">
        <ele>57.062313</ele>
        <time>2020-09-23T11:51:51.515Z</time>
      </trkpt>
      <trkpt lat="65.5912" lon="22.00074">
        <ele>56.841041</ele>
        <time>2020-09-23T11:51:54.520Z</time>
      </trkpt>
      <trkpt lat="65.59109" lon="22.00082">
        <ele>56.086925</ele>
        <time>2020-09-23T11:51:57.505Z</time>
      </trkpt>
      <trkpt lat="65.59098" lon="22.00089">
        <ele>55.384958</ele>
        <time>2020-09-23T11:52:00.540Z</time>
      </trkpt>
      <trkpt lat="65.59089" lon="22.00095">
        <ele>54.726391</ele>
        <time>2020-09-23T11:52:03.520Z</time>
      </trkpt>
      <trkpt lat="65.59078" lon="22.00102">
        <ele>54.003103</ele>
        <time>2020-09-23T11:52:06.530Z</time>
      </trkpt>
      <trkpt lat="65.59068" lon="22.0011">
        <ele>53.274216</ele>
        <time>2020-09-23T11:52:09.474Z</time>
      </trkpt>
      <trkpt lat="65.59057" lon="22.00118">
        <ele>52.542814</ele>
        <time>2020-09-23T11:52:12.507Z</time>
      </trkpt>
      <trkpt lat="65.59047" lon="22.00128">
        <ele>51.79234</ele>
        <time>2020-09-23T11:52:15.492Z</time>
      </trkpt>
      <trkpt lat="65.59036" lon="22.00137">
        <ele>51.068515</ele>
        <time>2020-09-23T11:52:18.496Z</time>
      </trkpt>
      <trkpt lat="65.59026" lon="22.00148">
        <ele>50.332469</ele>
        <time>2020-09-23T11:52:21.500Z</time>
      </trkpt>
      <trkpt lat="65.59016" lon="22.00158">
        <ele>49.580023</ele>
        <time>2020-09-23T11:52:24.497Z</time>
      </trkpt>
      <trkpt lat="65.59005" lon="22.00169">
        <ele>48.840831</ele>
        <time>2020-09-23T11:52:27.490Z</time>
      </trkpt>
      <trkpt lat="65.58996" lon="22.0018">
        <ele>48.162147</ele>
        <time>2020-09-23T11:52:30.503Z</time>
      </trkpt>
      <trkpt lat="65.58988" lon="22.0019">
        <ele>47.545998</ele>
        <time>2020-09-23T11:52:33.481Z</time>
      </trkpt>
      <trkpt lat="65.58979" lon="22.00201">
        <ele>46.882803</ele>
        <time>2020-09-23T11:52:36.502Z</time>
      </trkpt>
      <trkpt lat="65.5897" lon="22.00212">
        <ele>46.225203</ele>
        <time>2020-09-23T11:52:39.503Z</time>
      </trkpt>
      <trkpt lat="65.58961" lon="22.00223">
        <ele>45.581853</ele>
        <time>2020-09-23T11:52:42.497Z</time>
      </trkpt>
      <trkpt lat="65.58953" lon="22.00236">
        <ele>45.343875</ele>
        <time>2020-09-23T11:52:45.501Z</time>
      </trkpt>
      <trkpt lat="65.58945" lon="22.00249">
        <ele>45.459458</ele>
        <time>2020-09-23T11:52:48.500Z</time>
      </trkpt>
      <trkpt lat="65.58938" lon="22.00263">
        <ele>45.567898</ele>
        <time>2020-09-23T11:52:51.479Z</time>
      </trkpt>
      <trkpt lat="65.5893" lon="22.00277">
        <ele>45.682696</ele>
        <time>2020-09-23T11:52:54.486Z</time>
      </trkpt>
      <trkpt lat="65.58922" lon="22.00291">
        <ele>45.794043</ele>
        <time>2020-09-23T11:52:57.503Z</time>
      </trkpt>
      <trkpt lat="65.58914" lon="22.00307">
        <ele>45.918452</ele>
        <time>2020-09-23T11:53:00.495Z</time>
      </trkpt>
      <trkpt lat="65.58905" lon="22.00322">
        <ele>46.05224</ele>
        <time>2020-09-23T11:53:03.496Z</time>
      </trkpt>
      <trkpt lat="65.58896" lon="22.00337">
        <ele>46.178715</ele>
        <time>2020-09-23T11:53:06.493Z</time>
      </trkpt>
      <trkpt lat="65.58888" lon="22.00354">
        <ele>46.298676</ele>
        <time>2020-09-23T11:53:09.495Z</time>
      </trkpt>
      <trkpt lat="65.58881" lon="22.00372">
        <ele>46.417839</ele>
        <time>2020-09-23T11:53:12.491Z</time>
      </trkpt>
      <trkpt lat="65.58874" lon="22.0039">
        <ele>46.538579</ele>
        <time>2020-09-23T11:53:15.516Z</time>
      </trkpt>
      <trkpt lat="65.58868" lon="22.00408">
        <ele>46.655949</ele>
        <time>2020-09-23T11:53:18.498Z</time>
      </trkpt>
      <trkpt lat="65.58861" lon="22.00428">
        <ele>46.780363</ele>
        <time>2020-09-23T11:53:21.495Z</time>
      </trkpt>
      <trkpt lat="65.58853" lon="22.00448">
        <ele>46.911822</ele>
        <time>2020-09-23T11:53:24.487Z</time>
      </trkpt>
      <trkpt lat="65.58846" lon="22.00468">
        <ele>47.039934</ele>
        <time>2020-09-23T11:53:27.517Z</time>
      </trkpt>
      <trkpt lat="65.58838" lon="22.00492">
        <ele>47.190573</ele>
        <time>2020-09-23T11:53:30.490Z</time>
      </trkpt>
      <trkpt lat="65.58832" lon="22.00509">
        <ele>47.296002</ele>
        <time>2020-09-23T11:53:32.486Z</time>
      </trkpt>
      <trkpt lat="65.58825" lon="22.00534">
        <ele>47.416881</ele>
        <time>2020-09-23T11:53:35.484Z</time>
      </trkpt>
      <trkpt lat="65.5882" lon="22.00559">
        <ele>47.485092</ele>
        <time>2020-09-23T11:53:38.516Z</time>
      </trkpt>
      <trkpt lat="65.58815" lon="22.00583">
        <ele>47.551035</ele>
        <time>2020-09-23T11:53:41.488Z</time>
      </trkpt>
      <trkpt lat="65.58809" lon="22.00608">
        <ele>47.62008</ele>
        <time>2020-09-23T11:53:44.502Z</time>
      </trkpt>
      <trkpt lat="65.58804" lon="22.00634">
        <ele>47.688547</ele>
        <time>2020-09-23T11:53:47.551Z</time>
      </trkpt>
      <trkpt lat="65.58798" lon="22.0066">
        <ele>47.759627</ele>
        <time>2020-09-23T11:53:50.526Z</time>
      </trkpt>
      <trkpt lat="65.58792" lon="22.00685">
        <ele>47.829432</ele>
        <time>2020-09-23T11:53:53.487Z</time>
      </trkpt>
      <trkpt lat="65.58787" lon="22.00708">
        <ele>47.893087</ele>
        <time>2020-09-23T11:53:56.506Z</time>
      </trkpt>
      <trkpt lat="65.58783" lon="22.00733">
        <ele>47.959179</ele>
        <time>2020-09-23T11:53:59.495Z</time>
      </trkpt>
      <trkpt lat="65.58779" lon="22.00759">
        <ele>48.024197</ele>
        <time>2020-09-23T11:54:02.495Z</time>
      </trkpt>
      <trkpt lat="65.58774" lon="22.00785">
        <ele>48.093196</ele>
        <time>2020-09-23T11:54:05.504Z</time>
      </trkpt>
      <trkpt lat="65.58771" lon="22.00812">
        <ele>48.159319</ele>
        <time>2020-09-23T11:54:08.493Z</time>
      </trkpt>
      <trkpt lat="65.58768" lon="22.00839">
        <ele>48.228806</ele>
        <time>2020-09-23T11:54:11.488Z</time>
      </trkpt>
      <trkpt lat="65.58764" lon="22.00868">
        <ele>48.300463</ele>
        <time>2020-09-23T11:54:14.555Z</time>
      </trkpt>
      <trkpt lat="65.58761" lon="22.00898">
        <ele>48.374601</ele>
        <time>2020-09-23T11:54:17.505Z</time>
      </trkpt>
      <trkpt lat="65.58758" lon="22.00928">
        <ele>48.423682</ele>
        <time>2020-09-23T11:54:20.503Z</time>
      </trkpt>
      <trkpt lat="65.58756" lon="22.0095">
        <ele>48.332666</ele>
        <time>2020-09-23T11:54:22.486Z</time>
      </trkpt>
      <trkpt lat="65.58754" lon="22.00982">
        <ele>48.199338</ele>
        <time>2020-09-23T11:54:25.490Z</time>
      </trkpt>
      <trkpt lat="65.58753" lon="22.01005">
        <ele>48.107592</ele>
        <time>2020-09-23T11:54:27.506Z</time>
      </trkpt>
      <trkpt lat="65.58751" lon="22.01026">
        <ele>48.018153</ele>
        <time>2020-09-23T11:54:29.512Z</time>
      </trkpt>
      <trkpt lat="65.5875" lon="22.01048">
        <ele>47.92696</ele>
        <time>2020-09-23T11:54:31.520Z</time>
      </trkpt>
      <trkpt lat="65.5875" lon="22.01072">
        <ele>47.830504</ele>
        <time>2020-09-23T11:54:33.520Z</time>
      </trkpt>
      <trkpt lat="65.58752" lon="22.01097">
        <ele>47.72919</ele>
        <time>2020-09-23T11:54:35.489Z</time>
      </trkpt>
      <trkpt lat="65.58753" lon="22.01123">
        <ele>47.619982</ele>
        <time>2020-09-23T11:54:37.496Z</time>
      </trkpt>
      <trkpt lat="65.58754" lon="22.01151">
        <ele>47.508019</ele>
        <time>2020-09-23T11:54:39.495Z</time>
      </trkpt>
      <trkpt lat="65.58755" lon="22.01178">
        <ele>47.396186</ele>
        <time>2020-09-23T11:54:41.491Z</time>
      </trkpt>
      <trkpt lat="65.58757" lon="22.01209">
        <ele>47.268565</ele>
        <time>2020-09-23T11:54:43.498Z</time>
      </trkpt>
      <trkpt lat="65.5876" lon="22.01239">
        <ele>47.141278</ele>
        <time>2020-09-23T11:54:45.520Z</time>
      </trkpt>
      <trkpt lat="65.58763" lon="22.01275">
        <ele>46.993245</ele>
        <time>2020-09-23T11:54:47.501Z</time>
      </trkpt>
      <trkpt lat="65.58766" lon="22.01309">
        <ele>46.849547</ele>
        <time>2020-09-23T11:54:49.510Z</time>
      </trkpt>
      <trkpt lat="65.58769" lon="22.01344">
        <ele>46.704498</ele>
        <time>2020-09-23T11:54:51.488Z</time>
      </trkpt>
      <trkpt lat="65.58771" lon="22.0138">
        <ele>46.204469</ele>
        <time>2020-09-23T11:54:53.504Z</time>
      </trkpt>
      <trkpt lat="65.58773" lon="22.01416">
        <ele>45.571367</ele>
        <time>2020-09-23T11:54:55.480Z</time>
      </trkpt>
      <trkpt lat="65.58775" lon="22.01451">
        <ele>44.956051</ele>
        <time>2020-09-23T11:54:57.526Z</time>
      </trkpt>
      <trkpt lat="65.58776" lon="22.01487">
        <ele>44.336727</ele>
        <time>2020-09-23T11:54:59.486Z</time>
      </trkpt>
      <trkpt lat="65.58775" lon="22.01524">
        <ele>43.686458</ele>
        <time>2020-09-23T11:55:01.497Z</time>
      </trkpt>
      <trkpt lat="65.58772" lon="22.01559">
        <ele>43.062846</ele>
        <time>2020-09-23T11:55:03.519Z</time>
      </trkpt>
      <trkpt lat="65.58768" lon="22.01591">
        <ele>42.488634</ele>
        <time>2020-09-23T11:55:05.505Z</time>
      </trkpt>
      <trkpt lat="65.58764" lon="22.01621">
        <ele>41.937595</ele>
        <time>2020-09-23T11:55:07.501Z</time>
      </trkpt>
      <trkpt lat="65.58759" lon="22.0165">
        <ele>41.389241</ele>
        <time>2020-09-23T11:55:09.507Z</time>
      </trkpt>
      <trkpt lat="65.58753" lon="22.01675">
        <ele>40.868739</ele>
        <time>2020-09-23T11:55:11.483Z</time>
      </trkpt>
      <trkpt lat="65.58746" lon="22.017">
        <ele>40.354177</ele>
        <time>2020-09-23T11:55:13.495Z</time>
      </trkpt>
      <trkpt lat="65.5874" lon="22.01727">
        <ele>39.837106</ele>
        <time>2020-09-23T11:55:15.499Z</time>
      </trkpt>
      <trkpt lat="65.58737" lon="22.01748">
        <ele>39.439869</ele>
        <time>2020-09-23T11:55:17.486Z</time>
      </trkpt>
      <trkpt lat="65.58733" lon="22.01774">
        <ele>39.032293</ele>
        <time>2020-09-23T11:55:19.541Z</time>
      </trkpt>
      <trkpt lat="65.58734" lon="22.01797">
        <ele>38.842875</ele>
        <time>2020-09-23T11:55:20.477Z</time>
      </trkpt>
      <trkpt lat="65.5873" lon="22.01824">
        <ele>38.60919</ele>
        <time>2020-09-23T11:55:22.482Z</time>
      </trkpt>
      <trkpt lat="65.58726" lon="22.01848">
        <ele>38.404051</ele>
        <time>2020-09-23T11:55:24.515Z</time>
      </trkpt>
      <trkpt lat="65.58722" lon="22.01869">
        <ele>38.205567</ele>
        <time>2020-09-23T11:55:26.523Z</time>
      </trkpt>
      <trkpt lat="65.58717" lon="22.01891">
        <ele>38.010764</ele>
        <time>2020-09-23T11:55:28.484Z</time>
      </trkpt>
      <trkpt lat="65.58713" lon="22.01919">
        <ele>37.763391</ele>
        <time>2020-09-23T11:55:31.505Z</time>
      </trkpt>
      <trkpt lat="65.5871" lon="22.01945">
        <ele>37.541213</ele>
        <time>2020-09-23T11:55:34.490Z</time>
      </trkpt>
      <trkpt lat="65.58709" lon="22.01972">
        <ele>37.319992</ele>
        <time>2020-09-23T11:55:37.482Z</time>
      </trkpt>
      <trkpt lat="65.58711" lon="22.02001">
        <ele>37.080865</ele>
        <time>2020-09-23T11:55:40.511Z</time>
      </trkpt>
      <trkpt lat="65.58713" lon="22.02033">
        <ele>36.817562</ele>
        <time>2020-09-23T11:55:43.503Z</time>
      </trkpt>
      <trkpt lat="65.58714" lon="22.02065">
        <ele>36.558597</ele>
        <time>2020-09-23T11:55:46.527Z</time>
      </trkpt>
      <trkpt lat="65.58715" lon="22.02087">
        <ele>36.374463</ele>
        <time>2020-09-23T11:55:48.496Z</time>
      </trkpt>
      <trkpt lat="65.58716" lon="22.0211">
        <ele>36.186741</ele>
        <time>2020-09-23T11:55:50.515Z</time>
      </trkpt>
      <trkpt lat="65.58717" lon="22.02132">
        <ele>36.006459</ele>
        <time>2020-09-23T11:55:52.489Z</time>
      </trkpt>
      <trkpt lat="65.58718" lon="22.02155">
        <ele>35.816589</ele>
        <time>2020-09-23T11:55:54.510Z</time>
      </trkpt>
      <trkpt lat="65.5872" lon="22.02179">
        <ele>35.615279</ele>
        <time>2020-09-23T11:55:56.490Z</time>
      </trkpt>
      <trkpt lat="65.58721" lon="22.02206">
        <ele>35.381471</ele>
        <time>2020-09-23T11:55:58.512Z</time>
      </trkpt>
      <trkpt lat="65.58721" lon="22.02232">
        <ele>35.139963</ele>
        <time>2020-09-23T11:56:00.489Z</time>
      </trkpt>
      <trkpt lat="65.58723" lon="22.0226">
        <ele>34.872986</ele>
        <time>2020-09-23T11:56:02.564Z</time>
      </trkpt>
      <trkpt lat="65.58724" lon="22.0229">
        <ele>34.589004</ele>
        <time>2020-09-23T11:56:04.520Z</time>
      </trkpt>
      <trkpt lat="65.58725" lon="22.02323">
        <ele>34.281862</ele>
        <time>2020-09-23T11:56:06.524Z</time>
      </trkpt>
      <trkpt lat="65.58725" lon="22.02356">
        <ele>33.977244</ele>
        <time>2020-09-23T11:56:08.491Z</time>
      </trkpt>
      <trkpt lat="65.58724" lon="22.02387">
        <ele>33.686616</ele>
        <time>2020-09-23T11:56:10.501Z</time>
      </trkpt>
      <trkpt lat="65.58723" lon="22.02417">
        <ele>33.413979</ele>
        <time>2020-09-23T11:56:12.510Z</time>
      </trkpt>
      <trkpt lat="65.5872" lon="22.02444">
        <ele>33.149835</ele>
        <time>2020-09-23T11:56:14.488Z</time>
      </trkpt>
      <trkpt lat="65.58716" lon="22.02471">
        <ele>32.888976</ele>
        <time>2020-09-23T11:56:16.499Z</time>
      </trkpt>
      <trkpt lat="65.58713" lon="22.02496">
        <ele>32.640476</ele>
        <time>2020-09-23T11:56:18.508Z</time>
      </trkpt>
      <trkpt lat="65.58709" lon="22.02521">
        <ele>32.391563</ele>
        <time>2020-09-23T11:56:20.530Z</time>
      </trkpt>
      <trkpt lat="65.58704" lon="22.02545">
        <ele>32.154666</ele>
        <time>2020-09-23T11:56:22.508Z</time>
      </trkpt>
      <trkpt lat="65.587" lon="22.02566">
        <ele>31.932971</ele>
        <time>2020-09-23T11:56:24.522Z</time>
      </trkpt>
      <trkpt lat="65.58697" lon="22.02587">
        <ele>31.719248</ele>
        <time>2020-09-23T11:56:26.523Z</time>
      </trkpt>
      <trkpt lat="65.58693" lon="22.0261">
        <ele>31.498814</ele>
        <time>2020-09-23T11:56:28.521Z</time>
      </trkpt>
      <trkpt lat="65.5869" lon="22.02633">
        <ele>31.500465</ele>
        <time>2020-09-23T11:56:30.509Z</time>
      </trkpt>
      <trkpt lat="65.58687" lon="22.02657">
        <ele>31.502181</ele>
        <time>2020-09-23T11:56:32.491Z</time>
      </trkpt>
      <trkpt lat="65.58684" lon="22.02681">
        <ele>31.503874</ele>
        <time>2020-09-23T11:56:34.522Z</time>
      </trkpt>
      <trkpt lat="65.58682" lon="22.02702">
        <ele>31.505366</ele>
        <time>2020-09-23T11:56:36.495Z</time>
      </trkpt>
      <trkpt lat="65.58679" lon="22.02732">
        <ele>31.507413</ele>
        <time>2020-09-23T11:56:39.515Z</time>
      </trkpt>
      <trkpt lat="65.58675" lon="22.02755">
        <ele>31.509206</ele>
        <time>2020-09-23T11:56:42.516Z</time>
      </trkpt>
      <trkpt lat="65.58669" lon="22.02778">
        <ele>31.510985</ele>
        <time>2020-09-23T11:56:45.512Z</time>
      </trkpt>
      <trkpt lat="65.58663" lon="22.02799">
        <ele>31.512777</ele>
        <time>2020-09-23T11:56:48.501Z</time>
      </trkpt>
      <trkpt lat="65.58655" lon="22.02822">
        <ele>31.514774</ele>
        <time>2020-09-23T11:56:51.525Z</time>
      </trkpt>
      <trkpt lat="65.5865" lon="22.02839">
        <ele>31.516275</ele>
        <time>2020-09-23T11:56:53.502Z</time>
      </trkpt>
      <trkpt lat="65.58643" lon="22.02856">
        <ele>31.51783</ele>
        <time>2020-09-23T11:56:55.487Z</time>
      </trkpt>
      <trkpt lat="65.58636" lon="22.02871">
        <ele>31.519388</ele>
        <time>2020-09-23T11:56:57.507Z</time>
      </trkpt>
      <trkpt lat="65.58628" lon="22.02881">
        <ele>31.52093</ele>
        <time>2020-09-23T11:56:59.483Z</time>
      </trkpt>
      <trkpt lat="65.58619" lon="22.02889">
        <ele>31.522523</ele>
        <time>2020-09-23T11:57:01.496Z</time>
      </trkpt>
      <trkpt lat="65.5861" lon="22.02896">
        <ele>31.524128</ele>
        <time>2020-09-23T11:57:03.502Z</time>
      </trkpt>
      <trkpt lat="65.58601" lon="22.02904">
        <ele>31.525729</ele>
        <time>2020-09-23T11:57:05.510Z</time>
      </trkpt>
      <trkpt lat="65.58591" lon="22.02912">
        <ele>31.527372</ele>
        <time>2020-09-23T11:57:07.499Z</time>
      </trkpt>
      <trkpt lat="65.58582" lon="22.0292">
        <ele>31.503941</ele>
        <time>2020-09-23T11:57:09.503Z</time>
      </trkpt>
      <trkpt lat="65.58573" lon="22.02927">
        <ele>31.423013</ele>
        <time>2020-09-23T11:57:11.491Z</time>
      </trkpt>
      <trkpt lat="65.58561" lon="22.0294">
        <ele>31.309244</ele>
        <time>2020-09-23T11:57:14.493Z</time>
      </trkpt>
      <trkpt lat="65.5855" lon="22.02955">
        <ele>31.197979</ele>
        <time>2020-09-23T11:57:17.496Z</time>
      </trkpt>
      <trkpt lat="65.58539" lon="22.02971">
        <ele>31.088861</ele>
        <time>2020-09-23T11:57:20.510Z</time>
      </trkpt>
      <trkpt lat="65.58529" lon="22.02991">
        <ele>30.982069</ele>
        <time>2020-09-23T11:57:23.507Z</time>
      </trkpt>
      <trkpt lat="65.5852" lon="22.03011">
        <ele>30.873633</ele>
        <time>2020-09-23T11:57:26.522Z</time>
      </trkpt>
      <trkpt lat="65.58511" lon="22.03032">
        <ele>30.768708</ele>
        <time>2020-09-23T11:57:29.497Z</time>
      </trkpt>
      <trkpt lat="65.58505" lon="22.03048">
        <ele>30.687617</ele>
        <time>2020-09-23T11:57:31.519Z</time>
      </trkpt>
      <trkpt lat="65.58498" lon="22.03064">
        <ele>30.605773</ele>
        <time>2020-09-23T11:57:33.499Z</time>
      </trkpt>
      <trkpt lat="65.58492" lon="22.03081">
        <ele>30.52526</ele>
        <time>2020-09-23T11:57:35.520Z</time>
      </trkpt>
      <trkpt lat="65.58485" lon="22.03098">
        <ele>30.444483</ele>
        <time>2020-09-23T11:57:37.514Z</time>
      </trkpt>
      <trkpt lat="65.58479" lon="22.03116">
        <ele>30.364054</ele>
        <time>2020-09-23T11:57:39.494Z</time>
      </trkpt>
      <trkpt lat="65.58473" lon="22.03132">
        <ele>30.28498</ele>
        <time>2020-09-23T11:57:41.518Z</time>
      </trkpt>
      <trkpt lat="65.58467" lon="22.0315">
        <ele>30.201242</ele>
        <time>2020-09-23T11:57:43.501Z</time>
      </trkpt>
      <trkpt lat="65.58461" lon="22.03167">
        <ele>30.121627</ele>
        <time>2020-09-23T11:57:45.500Z</time>
      </trkpt>
      <trkpt lat="65.58455" lon="22.03184">
        <ele>30.04365</ele>
        <time>2020-09-23T11:57:47.494Z</time>
      </trkpt>
      <trkpt lat="65.58446" lon="22.03207">
        <ele>29.949626</ele>
        <time>2020-09-23T11:57:50.492Z</time>
      </trkpt>
      <trkpt lat="65.58439" lon="22.03231">
        <ele>29.876362</ele>
        <time>2020-09-23T11:57:53.498Z</time>
      </trkpt>
      <trkpt lat="65.58432" lon="22.03255">
        <ele>29.80532</ele>
        <time>2020-09-23T11:57:56.511Z</time>
      </trkpt>
      <trkpt lat="65.58425" lon="22.03281">
        <ele>29.729152</ele>
        <time>2020-09-23T11:57:59.527Z</time>
      </trkpt>
      <trkpt lat="65.58418" lon="22.03306">
        <ele>29.655427</ele>
        <time>2020-09-23T11:58:02.500Z</time>
      </trkpt>
      <trkpt lat="65.58411" lon="22.0333">
        <ele>29.581143</ele>
        <time>2020-09-23T11:58:05.518Z</time>
      </trkpt>
      <trkpt lat="65.58403" lon="22.03357">
        <ele>29.500717</ele>
        <time>2020-09-23T11:58:08.519Z</time>
      </trkpt>
      <trkpt lat="65.58396" lon="22.03385">
        <ele>29.421855</ele>
        <time>2020-09-23T11:58:11.498Z</time>
      </trkpt>
      <trkpt lat="65.58389" lon="22.03411">
        <ele>29.345593</ele>
        <time>2020-09-23T11:58:14.482Z</time>
      </trkpt>
      <trkpt lat="65.58381" lon="22.03438">
        <ele>29.267307</ele>
        <time>2020-09-23T11:58:17.503Z</time>
      </trkpt>
      <trkpt lat="65.58376" lon="22.03457">
        <ele>29.21128</ele>
        <time>2020-09-23T11:58:19.524Z</time>
      </trkpt>
      <trkpt lat="65.5837" lon="22.03484">
        <ele>29.134501</ele>
        <time>2020-09-23T11:58:22.513Z</time>
      </trkpt>
      <trkpt lat="65.58364" lon="22.03501">
        <ele>29.08118</ele>
        <time>2020-09-23T11:58:24.492Z</time>
      </trkpt>
      <trkpt lat="65.58357" lon="22.03527">
        <ele>29.005706</ele>
        <time>2020-09-23T11:58:27.511Z</time>
      </trkpt>
      <trkpt lat="65.5835" lon="22.03555">
        <ele>28.926226</ele>
        <time>2020-09-23T11:58:30.543Z</time>
      </trkpt>
      <trkpt lat="65.58343" lon="22.03581">
        <ele>29.004094</ele>
        <time>2020-09-23T11:58:33.541Z</time>
      </trkpt>
      <trkpt lat="65.58338" lon="22.036">
        <ele>29.064163</ele>
        <time>2020-09-23T11:58:35.488Z</time>
      </trkpt>
      <trkpt lat="65.58333" lon="22.03619">
        <ele>29.123997</ele>
        <time>2020-09-23T11:58:37.522Z</time>
      </trkpt>
      <trkpt lat="65.58327" lon="22.03645">
        <ele>29.208711</ele>
        <time>2020-09-23T11:58:40.510Z</time>
      </trkpt>
      <trkpt lat="65.58321" lon="22.03672">
        <ele>29.291326</ele>
        <time>2020-09-23T11:58:43.507Z</time>
      </trkpt>
      <trkpt lat="65.58315" lon="22.03699">
        <ele>29.375637</ele>
        <time>2020-09-23T11:58:46.491Z</time>
      </trkpt>
      <trkpt lat="65.58309" lon="22.03727">
        <ele>29.463483</ele>
        <time>2020-09-23T11:58:49.484Z</time>
      </trkpt>
      <trkpt lat="65.58303" lon="22.03755">
        <ele>29.550356</ele>
        <time>2020-09-23T11:58:52.525Z</time>
      </trkpt>
      <trkpt lat="65.58296" lon="22.03783">
        <ele>29.638587</ele>
        <time>2020-09-23T11:58:55.487Z</time>
      </trkpt>
      <trkpt lat="65.5829" lon="22.0381">
        <ele>29.722561</ele>
        <time>2020-09-23T11:58:58.495Z</time>
      </trkpt>
      <trkpt lat="65.58284" lon="22.03838">
        <ele>29.808278</ele>
        <time>2020-09-23T11:59:01.512Z</time>
      </trkpt>
      <trkpt lat="65.58279" lon="22.03866">
        <ele>29.892717</ele>
        <time>2020-09-23T11:59:04.500Z</time>
      </trkpt>
      <trkpt lat="65.58273" lon="22.03893">
        <ele>29.976122</ele>
        <time>2020-09-23T11:59:07.484Z</time>
      </trkpt>
      <trkpt lat="65.58269" lon="22.03913">
        <ele>30.036907</ele>
        <time>2020-09-23T11:59:09.546Z</time>
      </trkpt>
      <trkpt lat="65.58265" lon="22.03932">
        <ele>30.097085</ele>
        <time>2020-09-23T11:59:11.498Z</time>
      </trkpt>
      <trkpt lat="65.58259" lon="22.0396">
        <ele>30.292916</ele>
        <time>2020-09-23T11:59:14.543Z</time>
      </trkpt>
      <trkpt lat="65.58253" lon="22.03988">
        <ele>30.516265</ele>
        <time>2020-09-23T11:59:17.502Z</time>
      </trkpt>
      <trkpt lat="65.58249" lon="22.04009">
        <ele>30.676742</ele>
        <time>2020-09-23T11:59:19.524Z</time>
      </trkpt>
      <trkpt lat="65.58245" lon="22.04028">
        <ele>30.832624</ele>
        <time>2020-09-23T11:59:21.504Z</time>
      </trkpt>
      <trkpt lat="65.58239" lon="22.04057">
        <ele>31.058652</ele>
        <time>2020-09-23T11:59:24.517Z</time>
      </trkpt>
      <trkpt lat="65.58234" lon="22.04085">
        <ele>31.278942</ele>
        <time>2020-09-23T11:59:27.493Z</time>
      </trkpt>
      <trkpt lat="65.58229" lon="22.04112">
        <ele>31.488927</ele>
        <time>2020-09-23T11:59:30.512Z</time>
      </trkpt>
      <trkpt lat="65.58225" lon="22.04139">
        <ele>31.69222</ele>
        <time>2020-09-23T11:59:33.494Z</time>
      </trkpt>
      <trkpt lat="65.5822" lon="22.04166">
        <ele>31.901223</ele>
        <time>2020-09-23T11:59:36.486Z</time>
      </trkpt>
      <trkpt lat="65.58215" lon="22.04193">
        <ele>32.113495</ele>
        <time>2020-09-23T11:59:39.491Z</time>
      </trkpt>
      <trkpt lat="65.58212" lon="22.04215">
        <ele>32.276211</ele>
        <time>2020-09-23T11:59:41.495Z</time>
      </trkpt>
      <trkpt lat="65.58209" lon="22.04237">
        <ele>32.436906</ele>
        <time>2020-09-23T11:59:43.517Z</time>
      </trkpt>
      <trkpt lat="65.58206" lon="22.04258">
        <ele>32.596381</ele>
        <time>2020-09-23T11:59:45.499Z</time>
      </trkpt>
      <trkpt lat="65.58202" lon="22.04287">
        <ele>32.817586</ele>
        <time>2020-09-23T11:59:48.523Z</time>
      </trkpt>
      <trkpt lat="65.58198" lon="22.04315">
        <ele>33.028667</ele>
        <time>2020-09-23T11:59:51.490Z</time>
      </trkpt>
      <trkpt lat="65.58194" lon="22.04343">
        <ele>33.159432</ele>
        <time>2020-09-23T11:59:54.499Z</time>
      </trkpt>
      <trkpt lat="65.5819" lon="22.04371">
        <ele>32.859336</ele>
        <time>2020-09-23T11:59:57.519Z</time>
      </trkpt>
      <trkpt lat="65.58187" lon="22.04399">
        <ele>32.550124</ele>
        <time>2020-09-23T12:00:00.494Z</time>
      </trkpt>
      <trkpt lat="65.58183" lon="22.04429">
        <ele>32.22408</ele>
        <time>2020-09-23T12:00:03.512Z</time>
      </trkpt>
      <trkpt lat="65.5818" lon="22.04459">
        <ele>31.897075</ele>
        <time>2020-09-23T12:00:06.500Z</time>
      </trkpt>
      <trkpt lat="65.58176" lon="22.04487">
        <ele>31.592409</ele>
        <time>2020-09-23T12:00:09.508Z</time>
      </trkpt>
      <trkpt lat="65.58173" lon="22.04516">
        <ele>31.276745</ele>
        <time>2020-09-23T12:00:12.533Z</time>
      </trkpt>
      <trkpt lat="65.5817" lon="22.04546">
        <ele>30.953063</ele>
        <time>2020-09-23T12:00:15.505Z</time>
      </trkpt>
      <trkpt lat="65.58168" lon="22.04578">
        <ele>30.617932</ele>
        <time>2020-09-23T12:00:18.498Z</time>
      </trkpt>
      <trkpt lat="65.58165" lon="22.04608">
        <ele>30.299349</ele>
        <time>2020-09-23T12:00:21.490Z</time>
      </trkpt>
      <trkpt lat="65.58163" lon="22.0463">
        <ele>30.066559</ele>
        <time>2020-09-23T12:00:23.496Z</time>
      </trkpt>
      <trkpt lat="65.58162" lon="22.04653">
        <ele>29.8213</ele>
        <time>2020-09-23T12:00:25.503Z</time>
      </trkpt>
      <trkpt lat="65.58162" lon="22.04677">
        <ele>29.570099</ele>
        <time>2020-09-23T12:00:27.498Z</time>
      </trkpt>
      <trkpt lat="65.58161" lon="22.047">
        <ele>29.329229</ele>
        <time>2020-09-23T12:00:29.488Z</time>
      </trkpt>
      <trkpt lat="65.58161" lon="22.04722">
        <ele>29.095518</ele>
        <time>2020-09-23T12:00:31.492Z</time>
      </trkpt>
      <trkpt lat="65.58161" lon="22.04744">
        <ele>28.863222</ele>
        <time>2020-09-23T12:00:33.487Z</time>
      </trkpt>
      <trkpt lat="65.5816" lon="22.04766">
        <ele>28.656653</ele>
        <time>2020-09-23T12:00:35.485Z</time>
      </trkpt>
      <trkpt lat="65.5816" lon="22.04788">
        <ele>28.629332</ele>
        <time>2020-09-23T12:00:37.498Z</time>
      </trkpt>
      <trkpt lat="65.58159" lon="22.0481">
        <ele>28.601012</ele>
        <time>2020-09-23T12:00:39.489Z</time>
      </trkpt>
      <trkpt lat="65.58157" lon="22.04842">
        <ele>28.560105</ele>
        <time>2020-09-23T12:00:42.517Z</time>
      </trkpt>
      <trkpt lat="65.58156" lon="22.04865">
        <ele>28.531991</ele>
        <time>2020-09-23T12:00:44.516Z</time>
      </trkpt>
      <trkpt lat="65.58155" lon="22.04888">
        <ele>28.502366</ele>
        <time>2020-09-23T12:00:46.505Z</time>
      </trkpt>
      <trkpt lat="65.58155" lon="22.0491">
        <ele>28.475005</ele>
        <time>2020-09-23T12:00:48.524Z</time>
      </trkpt>
      <trkpt lat="65.58155" lon="22.04934">
        <ele>28.445161</ele>
        <time>2020-09-23T12:00:50.486Z</time>
      </trkpt>
      <trkpt lat="65.58155" lon="22.04956">
        <ele>28.416325</ele>
        <time>2020-09-23T12:00:52.506Z</time>
      </trkpt>
      <trkpt lat="65.58155" lon="22.04989">
        <ele>28.375776</ele>
        <time>2020-09-23T12:00:55.542Z</time>
      </trkpt>
      <trkpt lat="65.58155" lon="22.0502">
        <ele>28.335862</ele>
        <time>2020-09-23T12:00:58.502Z</time>
      </trkpt>
      <trkpt lat="65.58156" lon="22.05043">
        <ele>28.307746</ele>
        <time>2020-09-23T12:01:00.542Z</time>
      </trkpt>
      <trkpt lat="65.58155" lon="22.05075">
        <ele>28.26699</ele>
        <time>2020-09-23T12:01:03.487Z</time>
      </trkpt>
      <trkpt lat="65.58154" lon="22.05098">
        <ele>28.23826</ele>
        <time>2020-09-23T12:01:05.510Z</time>
      </trkpt>
      <trkpt lat="65.58154" lon="22.05121">
        <ele>28.209554</ele>
        <time>2020-09-23T12:01:07.508Z</time>
      </trkpt>
      <trkpt lat="65.58154" lon="22.05143">
        <ele>28.181221</ele>
        <time>2020-09-23T12:01:09.513Z</time>
      </trkpt>
      <trkpt lat="65.58153" lon="22.05165">
        <ele>28.153087</ele>
        <time>2020-09-23T12:01:11.504Z</time>
      </trkpt>
      <trkpt lat="65.58153" lon="22.05188">
        <ele>28.124754</ele>
        <time>2020-09-23T12:01:13.521Z</time>
      </trkpt>
      <trkpt lat="65.58153" lon="22.05211">
        <ele>28.140101</ele>
        <time>2020-09-23T12:01:15.496Z</time>
      </trkpt>
      <trkpt lat="65.58152" lon="22.05233">
        <ele>28.18983</ele>
        <time>2020-09-23T12:01:17.502Z</time>
      </trkpt>
      <trkpt lat="65.58151" lon="22.05265">
        <ele>28.25988</ele>
        <time>2020-09-23T12:01:20.500Z</time>
      </trkpt>
      <trkpt lat="65.5815" lon="22.05287">
        <ele>28.308763</ele>
        <time>2020-09-23T12:01:22.504Z</time>
      </trkpt>
      <trkpt lat="65.58149" lon="22.0532">
        <ele>28.380896</ele>
        <time>2020-09-23T12:01:25.512Z</time>
      </trkpt>
      <trkpt lat="65.58148" lon="22.05342">
        <ele>28.429152</ele>
        <time>2020-09-23T12:01:27.545Z</time>
      </trkpt>
      <trkpt lat="65.58147" lon="22.05375">
        <ele>28.501637</ele>
        <time>2020-09-23T12:01:30.494Z</time>
      </trkpt>
      <trkpt lat="65.58146" lon="22.05407">
        <ele>28.572457</ele>
        <time>2020-09-23T12:01:33.491Z</time>
      </trkpt>
      <trkpt lat="65.58144" lon="22.05439">
        <ele>28.64313</ele>
        <time>2020-09-23T12:01:36.487Z</time>
      </trkpt>
      <trkpt lat="65.58142" lon="22.05471">
        <ele>28.71511</ele>
        <time>2020-09-23T12:01:39.510Z</time>
      </trkpt>
      <trkpt lat="65.58141" lon="22.05493">
        <ele>28.764103</ele>
        <time>2020-09-23T12:01:41.486Z</time>
      </trkpt>
      <trkpt lat="65.58139" lon="22.05515">
        <ele>28.812796</ele>
        <time>2020-09-23T12:01:43.500Z</time>
      </trkpt>
      <trkpt lat="65.58137" lon="22.05536">
        <ele>28.86091</ele>
        <time>2020-09-23T12:01:45.495Z</time>
      </trkpt>
      <trkpt lat="65.58134" lon="22.05566">
        <ele>28.92907</ele>
        <time>2020-09-23T12:01:48.494Z</time>
      </trkpt>
      <trkpt lat="65.58131" lon="22.05597">
        <ele>28.997076</ele>
        <time>2020-09-23T12:01:51.509Z</time>
      </trkpt>
      <trkpt lat="65.58128" lon="22.05627">
        <ele>29.064868</ele>
        <time>2020-09-23T12:01:54.507Z</time>
      </trkpt>
      <trkpt lat="65.58125" lon="22.05657">
        <ele>29.280647</ele>
        <time>2020-09-23T12:01:57.574Z</time>
      </trkpt>
      <trkpt lat="65.58122" lon="22.05687">
        <ele>29.507074</ele>
        <time>2020-09-23T12:02:00.531Z</time>
      </trkpt>
      <trkpt lat="65.58119" lon="22.05714">
        <ele>29.712998</ele>
        <time>2020-09-23T12:02:03.514Z</time>
      </trkpt>
      <trkpt lat="65.58116" lon="22.05742">
        <ele>29.917248</ele>
        <time>2020-09-23T12:02:06.504Z</time>
      </trkpt>
      <trkpt lat="65.58114" lon="22.05769">
        <ele>30.115789</ele>
        <time>2020-09-23T12:02:09.488Z</time>
      </trkpt>
      <trkpt lat="65.58111" lon="22.05796">
        <ele>30.32403</ele>
        <time>2020-09-23T12:02:12.522Z</time>
      </trkpt>
      <trkpt lat="65.58108" lon="22.05822">
        <ele>30.517426</ele>
        <time>2020-09-23T12:02:15.496Z</time>
      </trkpt>
      <trkpt lat="65.58106" lon="22.05845">
        <ele>30.684778</ele>
        <time>2020-09-23T12:02:18.494Z</time>
      </trkpt>
      <trkpt lat="65.58104" lon="22.05868">
        <ele>30.853179</ele>
        <time>2020-09-23T12:02:21.487Z</time>
      </trkpt>
      <trkpt lat="65.58102" lon="22.0589">
        <ele>31.020721</ele>
        <time>2020-09-23T12:02:24.508Z</time>
      </trkpt>
      <trkpt lat="65.581" lon="22.05914">
        <ele>31.196215</ele>
        <time>2020-09-23T12:02:27.486Z</time>
      </trkpt>
      <trkpt lat="65.58098" lon="22.05937">
        <ele>31.368548</ele>
        <time>2020-09-23T12:02:30.522Z</time>
      </trkpt>
      <trkpt lat="65.58096" lon="22.05959">
        <ele>31.531643</ele>
        <time>2020-09-23T12:02:33.489Z</time>
      </trkpt>
      <trkpt lat="65.58094" lon="22.05982">
        <ele>31.702238</ele>
        <time>2020-09-23T12:02:36.489Z</time>
      </trkpt>
      <trkpt lat="65.58093" lon="22.06011">
        <ele>31.909111</ele>
        <time>2020-09-23T12:02:40.491Z</time>
      </trkpt>
      <trkpt lat="65.5809" lon="22.06037">
        <ele>32.104102</ele>
        <time>2020-09-23T12:02:44.491Z</time>
      </trkpt>
      <trkpt lat="65.58088" lon="22.06064">
        <ele>32.57941</ele>
        <time>2020-09-23T12:02:48.495Z</time>
      </trkpt>
      <trkpt lat="65.58085" lon="22.06089">
        <ele>33.366021</ele>
        <time>2020-09-23T12:02:52.521Z</time>
      </trkpt>
      <trkpt lat="65.58083" lon="22.06113">
        <ele>34.091647</ele>
        <time>2020-09-23T12:02:56.509Z</time>
      </trkpt>
      <trkpt lat="65.58081" lon="22.06136">
        <ele>34.818721</ele>
        <time>2020-09-23T12:03:00.491Z</time>
      </trkpt>
      <trkpt lat="65.5808" lon="22.06158">
        <ele>35.479169</ele>
        <time>2020-09-23T12:03:04.495Z</time>
      </trkpt>
      <trkpt lat="65.58077" lon="22.06183">
        <ele>36.275782</ele>
        <time>2020-09-23T12:03:09.495Z</time>
      </trkpt>
      <trkpt lat="65.58075" lon="22.06206">
        <ele>36.997092</ele>
        <time>2020-09-23T12:03:13.529Z</time>
      </trkpt>
      <trkpt lat="65.58072" lon="22.06227">
        <ele>37.654228</ele>
        <time>2020-09-23T12:03:17.487Z</time>
      </trkpt>
      <trkpt lat="65.58071" lon="22.06249">
        <ele>38.326505</ele>
        <time>2020-09-23T12:03:21.483Z</time>
      </trkpt>
      <trkpt lat="65.58069" lon="22.06272">
        <ele>39.029123</ele>
        <time>2020-09-23T12:03:25.528Z</time>
      </trkpt>
      <trkpt lat="65.58066" lon="22.06294">
        <ele>39.723795</ele>
        <time>2020-09-23T12:03:29.487Z</time>
      </trkpt>
      <trkpt lat="65.58064" lon="22.06316">
        <ele>40.43087</ele>
        <time>2020-09-23T12:03:33.508Z</time>
      </trkpt>
      <trkpt lat="65.58063" lon="22.06338">
        <ele>41.111618</ele>
        <time>2020-09-23T12:03:37.499Z</time>
      </trkpt>
      <trkpt lat="65.58063" lon="22.06364">
        <ele>41.894012</ele>
        <time>2020-09-23T12:03:42.538Z</time>
      </trkpt>
      <trkpt lat="65.58062" lon="22.06388">
        <ele>42.610515</ele>
        <time>2020-09-23T12:03:46.538Z</time>
      </trkpt>
      <trkpt lat="65.5806" lon="22.06413">
        <ele>43.401109</ele>
        <time>2020-09-23T12:03:50.507Z</time>
      </trkpt>
      <trkpt lat="65.5806" lon="22.06437">
        <ele>44.112646</ele>
        <time>2020-09-23T12:03:54.488Z</time>
      </trkpt>
      <trkpt lat="65.5806" lon="22.06462">
        <ele>44.887102</ele>
        <time>2020-09-23T12:03:58.482Z</time>
      </trkpt>
      <trkpt lat="65.58059" lon="22.06485">
        <ele>45.505663</ele>
        <time>2020-09-23T12:04:02.494Z</time>
      </trkpt>
      <trkpt lat="65.58059" lon="22.06507">
        <ele>45.941728</ele>
        <time>2020-09-23T12:04:06.518Z</time>
      </trkpt>
      <trkpt lat="65.58058" lon="22.06531">
        <ele>46.407951</ele>
        <time>2020-09-23T12:04:10.511Z</time>
      </trkpt>
      <trkpt lat="65.58057" lon="22.06555">
        <ele>46.858</ele>
        <time>2020-09-23T12:04:14.545Z</time>
      </trkpt>
      <trkpt lat="65.58057" lon="22.06579">
        <ele>47.322431</ele>
        <time>2020-09-23T12:04:18.512Z</time>
      </trkpt>
      <trkpt lat="65.58056" lon="22.06602">
        <ele>47.756582</ele>
        <time>2020-09-23T12:04:22.533Z</time>
      </trkpt>
      <trkpt lat="65.58054" lon="22.06624">
        <ele>48.188685</ele>
        <time>2020-09-23T12:04:26.492Z</time>
      </trkpt>
      <trkpt lat="65.58053" lon="22.06647">
        <ele>48.634737</ele>
        <time>2020-09-23T12:04:30.531Z</time>
      </trkpt>
      <trkpt lat="65.58053" lon="22.06671">
        <ele>49.091664</ele>
        <time>2020-09-23T12:04:34.521Z</time>
      </trkpt>
      <trkpt lat="65.58052" lon="22.06696">
        <ele>49.582231</ele>
        <time>2020-09-23T12:04:38.512Z</time>
      </trkpt>
      <trkpt lat="65.58051" lon="22.0672">
        <ele>50.043762</ele>
        <time>2020-09-23T12:04:42.524Z</time>
      </trkpt>
      <trkpt lat="65.5805" lon="22.06744">
        <ele>50.5056</ele>
        <time>2020-09-23T12:04:46.501Z</time>
      </trkpt>
      <trkpt lat="65.58049" lon="22.06769">
        <ele>50.997154</ele>
        <time>2020-09-23T12:04:50.501Z</time>
      </trkpt>
      <trkpt lat="65.58048" lon="22.06796">
        <ele>51.51511</ele>
        <time>2020-09-23T12:04:54.503Z</time>
      </trkpt>
      <trkpt lat="65.58048" lon="22.06822">
        <ele>51.998517</ele>
        <time>2020-09-23T12:04:58.495Z</time>
      </trkpt>
      <trkpt lat="65.58048" lon="22.06851">
        <ele>52.557681</ele>
        <time>2020-09-23T12:05:02.495Z</time>
      </trkpt>
      <trkpt lat="65.58047" lon="22.06872">
        <ele>52.977065</ele>
        <time>2020-09-23T12:05:05.488Z</time>
      </trkpt>
      <trkpt lat="65.58046" lon="22.06894">
        <ele>53.394984</ele>
        <time>2020-09-23T12:05:08.552Z</time>
      </trkpt>
      <trkpt lat="65.58045" lon="22.06917">
        <ele>53.699259</ele>
        <time>2020-09-23T12:05:11.528Z</time>
      </trkpt>
      <trkpt lat="65.58044" lon="22.0694">
        <ele>53.428076</ele>
        <time>2020-09-23T12:05:14.499Z</time>
      </trkpt>
      <trkpt lat="65.58044" lon="22.06963">
        <ele>53.155284</ele>
        <time>2020-09-23T12:05:17.502Z</time>
      </trkpt>
      <trkpt lat="65.58045" lon="22.06989">
        <ele>52.858062</ele>
        <time>2020-09-23T12:05:20.559Z</time>
      </trkpt>
      <trkpt lat="65.58044" lon="22.07011">
        <ele>52.597494</ele>
        <time>2020-09-23T12:05:23.502Z</time>
      </trkpt>
      <trkpt lat="65.58043" lon="22.07034">
        <ele>52.334516</ele>
        <time>2020-09-23T12:05:26.534Z</time>
      </trkpt>
      <trkpt lat="65.5804" lon="22.0706">
        <ele>52.021329</ele>
        <time>2020-09-23T12:05:29.485Z</time>
      </trkpt>
      <trkpt lat="65.58038" lon="22.07086">
        <ele>51.715058</ele>
        <time>2020-09-23T12:05:32.487Z</time>
      </trkpt>
      <trkpt lat="65.58035" lon="22.07111">
        <ele>51.407245</ele>
        <time>2020-09-23T12:05:35.514Z</time>
      </trkpt>
      <trkpt lat="65.58033" lon="22.07139">
        <ele>51.086546</ele>
        <time>2020-09-23T12:05:38.510Z</time>
      </trkpt>
      <trkpt lat="65.58031" lon="22.07169">
        <ele>50.729292</ele>
        <time>2020-09-23T12:05:41.523Z</time>
      </trkpt>
      <trkpt lat="65.5803" lon="22.07192">
        <ele>50.459819</ele>
        <time>2020-09-23T12:05:43.497Z</time>
      </trkpt>
      <trkpt lat="65.58029" lon="22.07216">
        <ele>50.187013</ele>
        <time>2020-09-23T12:05:45.494Z</time>
      </trkpt>
      <trkpt lat="65.58029" lon="22.07239">
        <ele>49.917468</ele>
        <time>2020-09-23T12:05:47.501Z</time>
      </trkpt>
      <trkpt lat="65.58028" lon="22.07261">
        <ele>49.655906</ele>
        <time>2020-09-23T12:05:49.519Z</time>
      </trkpt>
      <trkpt lat="65.58027" lon="22.07285">
        <ele>49.372625</ele>
        <time>2020-09-23T12:05:51.498Z</time>
      </trkpt>
      <trkpt lat="65.58023" lon="22.07308">
        <ele>49.095806</ele>
        <time>2020-09-23T12:05:53.496Z</time>
      </trkpt>
      <trkpt lat="65.58017" lon="22.07327">
        <ele>48.811019</ele>
        <time>2020-09-23T12:05:55.514Z</time>
      </trkpt>
      <trkpt lat="65.58009" lon="22.07342">
        <ele>48.447345</ele>
        <time>2020-09-23T12:05:57.509Z</time>
      </trkpt>
      <trkpt lat="65.58" lon="22.07353">
        <ele>48.045537</ele>
        <time>2020-09-23T12:05:59.492Z</time>
      </trkpt>
      <trkpt lat="65.57991" lon="22.07366">
        <ele>47.651072</ele>
        <time>2020-09-23T12:06:01.532Z</time>
      </trkpt>
      <trkpt lat="65.57984" lon="22.07383">
        <ele>47.248046</ele>
        <time>2020-09-23T12:06:03.510Z</time>
      </trkpt>
      <trkpt lat="65.57978" lon="22.07401">
        <ele>46.873372</ele>
        <time>2020-09-23T12:06:05.522Z</time>
      </trkpt>
      <trkpt lat="65.57973" lon="22.07421">
        <ele>46.487085</ele>
        <time>2020-09-23T12:06:07.503Z</time>
      </trkpt>
      <trkpt lat="65.57971" lon="22.07443">
        <ele>46.116707</ele>
        <time>2020-09-23T12:06:09.498Z</time>
      </trkpt>
      <trkpt lat="65.57971" lon="22.07465">
        <ele>45.757072</ele>
        <time>2020-09-23T12:06:11.513Z</time>
      </trkpt>
      <trkpt lat="65.57972" lon="22.07488">
        <ele>45.381838</ele>
        <time>2020-09-23T12:06:13.519Z</time>
      </trkpt>
      <trkpt lat="65.57973" lon="22.0751">
        <ele>45.02089</ele>
        <time>2020-09-23T12:06:15.503Z</time>
      </trkpt>
      <trkpt lat="65.57973" lon="22.07542">
        <ele>44.490583</ele>
        <time>2020-09-23T12:06:18.501Z</time>
      </trkpt>
      <trkpt lat="65.57972" lon="22.07565">
        <ele>44.11946</ele>
        <time>2020-09-23T12:06:20.490Z</time>
      </trkpt>
      <trkpt lat="65.5797" lon="22.07587">
        <ele>43.742048</ele>
        <time>2020-09-23T12:06:22.504Z</time>
      </trkpt>
      <trkpt lat="65.57968" lon="22.0761">
        <ele>43.356178</ele>
        <time>2020-09-23T12:06:24.482Z</time>
      </trkpt>
      <trkpt lat="65.57966" lon="22.07633">
        <ele>42.970872</ele>
        <time>2020-09-23T12:06:26.492Z</time>
      </trkpt>
      <trkpt lat="65.57964" lon="22.07658">
        <ele>42.555259</ele>
        <time>2020-09-23T12:06:28.520Z</time>
      </trkpt>
      <trkpt lat="65.57962" lon="22.07684">
        <ele>42.122693</ele>
        <time>2020-09-23T12:06:30.494Z</time>
      </trkpt>
      <trkpt lat="65.57959" lon="22.07711">
        <ele>41.663108</ele>
        <time>2020-09-23T12:06:32.491Z</time>
      </trkpt>
      <trkpt lat="65.57955" lon="22.07736">
        <ele>41.735603</ele>
        <time>2020-09-23T12:06:34.519Z</time>
      </trkpt>
      <trkpt lat="65.57951" lon="22.0776">
        <ele>41.970594</ele>
        <time>2020-09-23T12:06:36.486Z</time>
      </trkpt>
      <trkpt lat="65.57947" lon="22.07783">
        <ele>42.193343</ele>
        <time>2020-09-23T12:06:38.506Z</time>
      </trkpt>
      <trkpt lat="65.57942" lon="22.07805">
        <ele>42.418084</ele>
        <time>2020-09-23T12:06:40.525Z</time>
      </trkpt>
      <trkpt lat="65.57938" lon="22.07828">
        <ele>42.641873</ele>
        <time>2020-09-23T12:06:42.511Z</time>
      </trkpt>
      <trkpt lat="65.57933" lon="22.07849">
        <ele>42.856041</ele>
        <time>2020-09-23T12:06:44.527Z</time>
      </trkpt>
      <trkpt lat="65.57928" lon="22.07872">
        <ele>43.083965</ele>
        <time>2020-09-23T12:06:46.537Z</time>
      </trkpt>
      <trkpt lat="65.57923" lon="22.07894">
        <ele>43.314041</ele>
        <time>2020-09-23T12:06:48.518Z</time>
      </trkpt>
      <trkpt lat="65.57918" lon="22.07917">
        <ele>43.540155</ele>
        <time>2020-09-23T12:06:50.483Z</time>
      </trkpt>
      <trkpt lat="65.57913" lon="22.07939">
        <ele>43.765986</ele>
        <time>2020-09-23T12:06:52.488Z</time>
      </trkpt>
      <trkpt lat="65.57907" lon="22.07962">
        <ele>44.012525</ele>
        <time>2020-09-23T12:06:54.556Z</time>
      </trkpt>
      <trkpt lat="65.57901" lon="22.07985">
        <ele>44.258698</ele>
        <time>2020-09-23T12:06:56.521Z</time>
      </trkpt>
      <trkpt lat="65.57895" lon="22.08008">
        <ele>44.506476</ele>
        <time>2020-09-23T12:06:58.501Z</time>
      </trkpt>
      <trkpt lat="65.57888" lon="22.08031">
        <ele>44.757469</ele>
        <time>2020-09-23T12:07:00.539Z</time>
      </trkpt>
      <trkpt lat="65.57881" lon="22.08054">
        <ele>45.016491</ele>
        <time>2020-09-23T12:07:02.521Z</time>
      </trkpt>
      <trkpt lat="65.57875" lon="22.08077">
        <ele>45.259608</ele>
        <time>2020-09-23T12:07:04.505Z</time>
      </trkpt>
      <trkpt lat="65.5787" lon="22.08101">
        <ele>45.450854</ele>
        <time>2020-09-23T12:07:06.486Z</time>
      </trkpt>
      <trkpt lat="65.57865" lon="22.08125">
        <ele>45.451576</ele>
        <time>2020-09-23T12:07:08.498Z</time>
      </trkpt>
      <trkpt lat="65.57859" lon="22.08148">
        <ele>45.452278</ele>
        <time>2020-09-23T12:07:10.535Z</time>
      </trkpt>
      <trkpt lat="65.57853" lon="22.08171">
        <ele>45.453003</ele>
        <time>2020-09-23T12:07:12.528Z</time>
      </trkpt>
      <trkpt lat="65.57846" lon="22.08194">
        <ele>45.453766</ele>
        <time>2020-09-23T12:07:14.524Z</time>
      </trkpt>
      <trkpt lat="65.57839" lon="22.08217">
        <ele>45.454529</ele>
        <time>2020-09-23T12:07:16.518Z</time>
      </trkpt>
      <trkpt lat="65.57833" lon="22.08241">
        <ele>45.455281</ele>
        <time>2020-09-23T12:07:18.500Z</time>
      </trkpt>
      <trkpt lat="65.57826" lon="22.08264">
        <ele>45.456024</ele>
        <time>2020-09-23T12:07:20.492Z</time>
      </trkpt>
      <trkpt lat="65.5782" lon="22.08287">
        <ele>45.456763</ele>
        <time>2020-09-23T12:07:22.496Z</time>
      </trkpt>
      <trkpt lat="65.57814" lon="22.0831">
        <ele>45.457481</ele>
        <time>2020-09-23T12:07:24.510Z</time>
      </trkpt>
      <trkpt lat="65.57808" lon="22.08334">
        <ele>45.458214</ele>
        <time>2020-09-23T12:07:26.484Z</time>
      </trkpt>
      <trkpt lat="65.57802" lon="22.08356">
        <ele>45.458911</ele>
        <time>2020-09-23T12:07:28.512Z</time>
      </trkpt>
      <trkpt lat="65.57797" lon="22.08378">
        <ele>45.459581</ele>
        <time>2020-09-23T12:07:30.492Z</time>
      </trkpt>
      <trkpt lat="65.57793" lon="22.08401">
        <ele>45.460243</ele>
        <time>2020-09-23T12:07:32.486Z</time>
      </trkpt>
      <trkpt lat="65.57788" lon="22.08424">
        <ele>45.46094</ele>
        <time>2020-09-23T12:07:34.526Z</time>
      </trkpt>
      <trkpt lat="65.57782" lon="22.08449">
        <ele>45.461694</ele>
        <time>2020-09-23T12:07:36.511Z</time>
      </trkpt>
      <trkpt lat="65.57778" lon="22.08473">
        <ele>45.412359</ele>
        <time>2020-09-23T12:07:38.497Z</time>
      </trkpt>
      <trkpt lat="65.57774" lon="22.08497">
        <ele>45.144693</ele>
        <time>2020-09-23T12:07:40.504Z</time>
      </trkpt>
      <trkpt lat="65.5777" lon="22.08521">
        <ele>44.890123</ele>
        <time>2020-09-23T12:07:42.523Z</time>
      </trkpt>
      <trkpt lat="65.57766" lon="22.08544">
        <ele>44.631911</ele>
        <time>2020-09-23T12:07:44.482Z</time>
      </trkpt>
      <trkpt lat="65.57762" lon="22.0857">
        <ele>44.349984</ele>
        <time>2020-09-23T12:07:46.513Z</time>
      </trkpt>
      <trkpt lat="65.57759" lon="22.08593">
        <ele>44.093381</ele>
        <time>2020-09-23T12:07:48.504Z</time>
      </trkpt>
      <trkpt lat="65.57756" lon="22.08616">
        <ele>43.846768</ele>
        <time>2020-09-23T12:07:50.486Z</time>
      </trkpt>
      <trkpt lat="65.57753" lon="22.08641">
        <ele>43.589876</ele>
        <time>2020-09-23T12:07:52.521Z</time>
      </trkpt>
      <trkpt lat="65.57751" lon="22.08665">
        <ele>43.335802</ele>
        <time>2020-09-23T12:07:54.506Z</time>
      </trkpt>
      <trkpt lat="65.57749" lon="22.0869">
        <ele>43.070167</ele>
        <time>2020-09-23T12:07:56.506Z</time>
      </trkpt>
      <trkpt lat="65.57747" lon="22.08717">
        <ele>42.791877</ele>
        <time>2020-09-23T12:07:58.506Z</time>
      </trkpt>
      <trkpt lat="65.57745" lon="22.08743">
        <ele>42.522218</ele>
        <time>2020-09-23T12:08:00.487Z</time>
      </trkpt>
      <trkpt lat="65.57743" lon="22.08769">
        <ele>42.255018</ele>
        <time>2020-09-23T12:08:02.505Z</time>
      </trkpt>
      <trkpt lat="65.57741" lon="22.08794">
        <ele>41.992347</ele>
        <time>2020-09-23T12:08:04.536Z</time>
      </trkpt>
      <trkpt lat="65.57739" lon="22.08818">
        <ele>41.736073</ele>
        <time>2020-09-23T12:08:06.496Z</time>
      </trkpt>
      <trkpt lat="65.57738" lon="22.08844">
        <ele>41.474423</ele>
        <time>2020-09-23T12:08:08.514Z</time>
      </trkpt>
      <trkpt lat="65.57737" lon="22.08871">
        <ele>41.196966</ele>
        <time>2020-09-23T12:08:10.511Z</time>
      </trkpt>
      <trkpt lat="65.57738" lon="22.08899">
        <ele>41.027109</ele>
        <time>2020-09-23T12:08:12.507Z</time>
      </trkpt>
      <trkpt lat="65.57737" lon="22.08925">
        <ele>41.071051</ele>
        <time>2020-09-23T12:08:14.495Z</time>
      </trkpt>
      <trkpt lat="65.57737" lon="22.08952">
        <ele>41.116189</ele>
        <time>2020-09-23T12:08:16.497Z</time>
      </trkpt>
      <trkpt lat="65.57736" lon="22.08978">
        <ele>41.159143</ele>
        <time>2020-09-23T12:08:18.518Z</time>
      </trkpt>
      <trkpt lat="65.57736" lon="22.09003">
        <ele>41.201082</ele>
        <time>2020-09-23T12:08:20.531Z</time>
      </trkpt>
      <trkpt lat="65.57737" lon="22.09027">
        <ele>41.243026</ele>
        <time>2020-09-23T12:08:22.516Z</time>
      </trkpt>
      <trkpt lat="65.57737" lon="22.09051">
        <ele>41.28352</ele>
        <time>2020-09-23T12:08:24.504Z</time>
      </trkpt>
      <trkpt lat="65.57738" lon="22.09076">
        <ele>41.32416</ele>
        <time>2020-09-23T12:08:26.490Z</time>
      </trkpt>
      <trkpt lat="65.57738" lon="22.09101">
        <ele>41.366435</ele>
        <time>2020-09-23T12:08:28.507Z</time>
      </trkpt>
      <trkpt lat="65.57738" lon="22.09127">
        <ele>41.411573</ele>
        <time>2020-09-23T12:08:30.503Z</time>
      </trkpt>
      <trkpt lat="65.57738" lon="22.09154">
        <ele>41.456738</ele>
        <time>2020-09-23T12:08:32.507Z</time>
      </trkpt>
      <trkpt lat="65.57738" lon="22.0918">
        <ele>41.500198</ele>
        <time>2020-09-23T12:08:34.519Z</time>
      </trkpt>
      <trkpt lat="65.57737" lon="22.09204">
        <ele>41.541197</ele>
        <time>2020-09-23T12:08:36.515Z</time>
      </trkpt>
      <trkpt lat="65.57737" lon="22.09229">
        <ele>41.582982</ele>
        <time>2020-09-23T12:08:38.507Z</time>
      </trkpt>
      <trkpt lat="65.57737" lon="22.09255">
        <ele>41.625768</ele>
        <time>2020-09-23T12:08:40.505Z</time>
      </trkpt>
      <trkpt lat="65.57737" lon="22.09281">
        <ele>41.670233</ele>
        <time>2020-09-23T12:08:42.491Z</time>
      </trkpt>
      <trkpt lat="65.57737" lon="22.09308">
        <ele>41.715539</ele>
        <time>2020-09-23T12:08:44.508Z</time>
      </trkpt>
      <trkpt lat="65.57736" lon="22.09334">
        <ele>41.779605</ele>
        <time>2020-09-23T12:08:46.489Z</time>
      </trkpt>
      <trkpt lat="65.57737" lon="22.09359">
        <ele>41.873975</ele>
        <time>2020-09-23T12:08:48.518Z</time>
      </trkpt>
      <trkpt lat="65.57736" lon="22.09383">
        <ele>41.965858</ele>
        <time>2020-09-23T12:08:50.522Z</time>
      </trkpt>
      <trkpt lat="65.57736" lon="22.09408">
        <ele>42.057597</ele>
        <time>2020-09-23T12:08:52.490Z</time>
      </trkpt>
      <trkpt lat="65.57735" lon="22.09431">
        <ele>42.146761</ele>
        <time>2020-09-23T12:08:54.530Z</time>
      </trkpt>
      <trkpt lat="65.57735" lon="22.09454">
        <ele>42.233391</ele>
        <time>2020-09-23T12:08:56.518Z</time>
      </trkpt>
      <trkpt lat="65.57734" lon="22.09477">
        <ele>42.320236</ele>
        <time>2020-09-23T12:08:58.541Z</time>
      </trkpt>
      <trkpt lat="65.57733" lon="22.095">
        <ele>42.405404</ele>
        <time>2020-09-23T12:09:00.506Z</time>
      </trkpt>
      <trkpt lat="65.57732" lon="22.09532">
        <ele>42.527022</ele>
        <time>2020-09-23T12:09:03.518Z</time>
      </trkpt>
      <trkpt lat="65.5773" lon="22.09554">
        <ele>42.60932</ele>
        <time>2020-09-23T12:09:05.512Z</time>
      </trkpt>
      <trkpt lat="65.57726" lon="22.09579">
        <ele>42.711104</ele>
        <time>2020-09-23T12:09:08.510Z</time>
      </trkpt>
      <trkpt lat="65.57715" lon="22.09597">
        <ele>42.830993</ele>
        <time>2020-09-23T12:09:11.486Z</time>
      </trkpt>
      <trkpt lat="65.57705" lon="22.0961">
        <ele>42.939388</ele>
        <time>2020-09-23T12:09:14.495Z</time>
      </trkpt>
      <trkpt lat="65.57699" lon="22.09631">
        <ele>43.031436</ele>
        <time>2020-09-23T12:09:17.518Z</time>
      </trkpt>
      <trkpt lat="65.57695" lon="22.09654">
        <ele>43.12558</ele>
        <time>2020-09-23T12:09:21.527Z</time>
      </trkpt>
      <trkpt lat="65.57691" lon="22.09674">
        <ele>43.211522</ele>
        <time>2020-09-23T12:09:25.542Z</time>
      </trkpt>
      <trkpt lat="65.57686" lon="22.09696">
        <ele>43.303609</ele>
        <time>2020-09-23T12:09:29.483Z</time>
      </trkpt>
      <trkpt lat="65.57683" lon="22.09721">
        <ele>43.479924</ele>
        <time>2020-09-23T12:09:33.505Z</time>
      </trkpt>
      <trkpt lat="65.5768" lon="22.09742">
        <ele>43.834682</ele>
        <time>2020-09-23T12:09:37.485Z</time>
      </trkpt>
      <trkpt lat="65.5768" lon="22.09769">
        <ele>44.260373</ele>
        <time>2020-09-23T12:09:42.499Z</time>
      </trkpt>
      <trkpt lat="65.57684" lon="22.09792">
        <ele>44.645053</ele>
        <time>2020-09-23T12:09:46.492Z</time>
      </trkpt>
      <trkpt lat="65.57686" lon="22.09814">
        <ele>45.007907</ele>
        <time>2020-09-23T12:09:50.507Z</time>
      </trkpt>
      <trkpt lat="65.57687" lon="22.09837">
        <ele>45.359584</ele>
        <time>2020-09-23T12:09:54.505Z</time>
      </trkpt>
      <trkpt lat="65.57688" lon="22.09862">
        <ele>45.757774</ele>
        <time>2020-09-23T12:09:58.517Z</time>
      </trkpt>
      <trkpt lat="65.57689" lon="22.09888">
        <ele>46.178495</ele>
        <time>2020-09-23T12:10:02.501Z</time>
      </trkpt>
      <trkpt lat="65.57689" lon="22.09913">
        <ele>46.565054</ele>
        <time>2020-09-23T12:10:06.507Z</time>
      </trkpt>
      <trkpt lat="65.57689" lon="22.09937">
        <ele>46.943449</ele>
        <time>2020-09-23T12:10:10.486Z</time>
      </trkpt>
      <trkpt lat="65.57687" lon="22.09964">
        <ele>47.375039</ele>
        <time>2020-09-23T12:10:14.488Z</time>
      </trkpt>
      <trkpt lat="65.57686" lon="22.09987">
        <ele>47.741517</ele>
        <time>2020-09-23T12:10:17.489Z</time>
      </trkpt>
      <trkpt lat="65.57687" lon="22.10015">
        <ele>48.176717</ele>
        <time>2020-09-23T12:10:20.501Z</time>
      </trkpt>
      <trkpt lat="65.57686" lon="22.10044">
        <ele>48.635841</ele>
        <time>2020-09-23T12:10:23.492Z</time>
      </trkpt>
      <trkpt lat="65.57684" lon="22.10065">
        <ele>48.982083</ele>
        <time>2020-09-23T12:10:25.512Z</time>
      </trkpt>
      <trkpt lat="65.57683" lon="22.1009">
        <ele>49.376246</ele>
        <time>2020-09-23T12:10:27.505Z</time>
      </trkpt>
      <trkpt lat="65.57681" lon="22.10115">
        <ele>49.776319</ele>
        <time>2020-09-23T12:10:29.516Z</time>
      </trkpt>
      <trkpt lat="65.5768" lon="22.10145">
        <ele>50.2207</ele>
        <time>2020-09-23T12:10:31.499Z</time>
      </trkpt>
      <trkpt lat="65.57678" lon="22.10176">
        <ele>49.778678</ele>
        <time>2020-09-23T12:10:33.507Z</time>
      </trkpt>
      <trkpt lat="65.57678" lon="22.10204">
        <ele>49.362745</ele>
        <time>2020-09-23T12:10:35.494Z</time>
      </trkpt>
      <trkpt lat="65.57676" lon="22.10231">
        <ele>48.974968</ele>
        <time>2020-09-23T12:10:37.506Z</time>
      </trkpt>
      <trkpt lat="65.57675" lon="22.10259">
        <ele>48.564129</ele>
        <time>2020-09-23T12:10:39.493Z</time>
      </trkpt>
      <trkpt lat="65.57675" lon="22.10289">
        <ele>48.144395</ele>
        <time>2020-09-23T12:10:41.498Z</time>
      </trkpt>
      <trkpt lat="65.57677" lon="22.1032">
        <ele>47.691911</ele>
        <time>2020-09-23T12:10:43.487Z</time>
      </trkpt>
      <trkpt lat="65.57679" lon="22.10355">
        <ele>47.176467</ele>
        <time>2020-09-23T12:10:45.498Z</time>
      </trkpt>
      <trkpt lat="65.57683" lon="22.10393">
        <ele>46.60994</ele>
        <time>2020-09-23T12:10:47.520Z</time>
      </trkpt>
      <trkpt lat="65.57686" lon="22.10428">
        <ele>46.098611</ele>
        <time>2020-09-23T12:10:49.496Z</time>
      </trkpt>
      <trkpt lat="65.57687" lon="22.10457">
        <ele>45.682537</ele>
        <time>2020-09-23T12:10:51.495Z</time>
      </trkpt>
      <trkpt lat="65.5769" lon="22.10488">
        <ele>45.220627</ele>
        <time>2020-09-23T12:10:53.487Z</time>
      </trkpt>
      <trkpt lat="65.57691" lon="22.10516">
        <ele>44.811729</ele>
        <time>2020-09-23T12:10:55.528Z</time>
      </trkpt>
      <trkpt lat="65.57693" lon="22.10539">
        <ele>44.479755</ele>
        <time>2020-09-23T12:10:57.504Z</time>
      </trkpt>
      <trkpt lat="65.57695" lon="22.10567">
        <ele>44.073557</ele>
        <time>2020-09-23T12:11:00.489Z</time>
      </trkpt>
      <trkpt lat="65.57696" lon="22.10591">
        <ele>43.961559</ele>
        <time>2020-09-23T12:11:03.537Z</time>
      </trkpt>
      <trkpt lat="65.57697" lon="22.10618">
        <ele>43.961352</ele>
        <time>2020-09-23T12:11:07.503Z</time>
      </trkpt>
      <trkpt lat="65.57697" lon="22.10642">
        <ele>43.961167</ele>
        <time>2020-09-23T12:11:11.500Z</time>
      </trkpt>
      <trkpt lat="65.57696" lon="22.10664">
        <ele>43.961</ele>
        <time>2020-09-23T12:11:15.558Z</time>
      </trkpt>
      <trkpt lat="65.57697" lon="22.10691">
        <ele>43.960789</ele>
        <time>2020-09-23T12:11:20.500Z</time>
      </trkpt>
      <trkpt lat="65.57698" lon="22.10717">
        <ele>43.960594</ele>
        <time>2020-09-23T12:11:24.502Z</time>
      </trkpt>
      <trkpt lat="65.57699" lon="22.10741">
        <ele>43.960414</ele>
        <time>2020-09-23T12:11:28.510Z</time>
      </trkpt>
      <trkpt lat="65.57699" lon="22.10764">
        <ele>43.960236</ele>
        <time>2020-09-23T12:11:32.495Z</time>
      </trkpt>
      <trkpt lat="65.57699" lon="22.10787">
        <ele>43.960058</ele>
        <time>2020-09-23T12:11:36.537Z</time>
      </trkpt>
      <trkpt lat="65.577" lon="22.10813">
        <ele>43.959864</ele>
        <time>2020-09-23T12:11:40.537Z</time>
      </trkpt>
      <trkpt lat="65.577" lon="22.1084">
        <ele>43.95966</ele>
        <time>2020-09-23T12:11:44.494Z</time>
      </trkpt>
      <trkpt lat="65.57701" lon="22.10867">
        <ele>43.959451</ele>
        <time>2020-09-23T12:11:48.504Z</time>
      </trkpt>
      <trkpt lat="65.57704" lon="22.10891">
        <ele>43.959265</ele>
        <time>2020-09-23T12:11:51.513Z</time>
      </trkpt>
      <trkpt lat="65.57708" lon="22.1092">
        <ele>43.95903</ele>
        <time>2020-09-23T12:11:54.497Z</time>
      </trkpt>
      <trkpt lat="65.57711" lon="22.10942">
        <ele>43.958851</ele>
        <time>2020-09-23T12:11:56.527Z</time>
      </trkpt>
      <trkpt lat="65.57715" lon="22.10964">
        <ele>43.958667</ele>
        <time>2020-09-23T12:11:58.498Z</time>
      </trkpt>
      <trkpt lat="65.5772" lon="22.10988">
        <ele>43.958469</ele>
        <time>2020-09-23T12:12:00.548Z</time>
      </trkpt>
      <trkpt lat="65.57724" lon="22.11011">
        <ele>43.739512</ele>
        <time>2020-09-23T12:12:02.501Z</time>
      </trkpt>
      <trkpt lat="65.57727" lon="22.11032">
        <ele>43.340712</ele>
        <time>2020-09-23T12:12:04.495Z</time>
      </trkpt>
      <trkpt lat="65.57729" lon="22.11057">
        <ele>42.891401</ele>
        <time>2020-09-23T12:12:06.509Z</time>
      </trkpt>
      <trkpt lat="65.57731" lon="22.11088">
        <ele>42.338744</ele>
        <time>2020-09-23T12:12:08.493Z</time>
      </trkpt>
      <trkpt lat="65.57732" lon="22.11123">
        <ele>41.739011</ele>
        <time>2020-09-23T12:12:10.491Z</time>
      </trkpt>
      <trkpt lat="65.57731" lon="22.11155">
        <ele>41.16528</ele>
        <time>2020-09-23T12:12:12.501Z</time>
      </trkpt>
      <trkpt lat="65.57732" lon="22.11185">
        <ele>40.651188</ele>
        <time>2020-09-23T12:12:14.518Z</time>
      </trkpt>
      <trkpt lat="65.57733" lon="22.11208">
        <ele>40.230563</ele>
        <time>2020-09-23T12:12:16.497Z</time>
      </trkpt>
      <trkpt lat="65.57737" lon="22.11237">
        <ele>39.700573</ele>
        <time>2020-09-23T12:12:19.528Z</time>
      </trkpt>
      <trkpt lat="65.57745" lon="22.11255">
        <ele>39.220051</ele>
        <time>2020-09-23T12:12:21.493Z</time>
      </trkpt>
      <trkpt lat="65.57755" lon="22.11277">
        <ele>38.652339</ele>
        <time>2020-09-23T12:12:23.495Z</time>
      </trkpt>
      <trkpt lat="65.57764" lon="22.11295">
        <ele>38.172976</ele>
        <time>2020-09-23T12:12:25.510Z</time>
      </trkpt>
      <trkpt lat="65.57772" lon="22.11313">
        <ele>37.696436</ele>
        <time>2020-09-23T12:12:29.495Z</time>
      </trkpt>
      <trkpt lat="65.57777" lon="22.11334">
        <ele>37.268822</ele>
        <time>2020-09-23T12:12:32.527Z</time>
      </trkpt>
      <trkpt lat="65.5778" lon="22.11361">
        <ele>36.787876</ele>
        <time>2020-09-23T12:12:35.531Z</time>
      </trkpt>
      <trkpt lat="65.57783" lon="22.11387">
        <ele>36.331519</ele>
        <time>2020-09-23T12:12:38.498Z</time>
      </trkpt>
      <trkpt lat="65.57786" lon="22.11414">
        <ele>36.419879</ele>
        <time>2020-09-23T12:12:41.493Z</time>
      </trkpt>
      <trkpt lat="65.57788" lon="22.11441">
        <ele>36.512059</ele>
        <time>2020-09-23T12:12:44.498Z</time>
      </trkpt>
      <trkpt lat="65.57791" lon="22.11469">
        <ele>36.604557</ele>
        <time>2020-09-23T12:12:47.494Z</time>
      </trkpt>
      <trkpt lat="65.57795" lon="22.11497">
        <ele>36.700201</ele>
        <time>2020-09-23T12:12:50.496Z</time>
      </trkpt>
      <trkpt lat="65.57798" lon="22.11523">
        <ele>36.791893</ele>
        <time>2020-09-23T12:12:53.490Z</time>
      </trkpt>
      <trkpt lat="65.57802" lon="22.11552">
        <ele>36.889501</ele>
        <time>2020-09-23T12:12:56.510Z</time>
      </trkpt>
      <trkpt lat="65.57804" lon="22.1158">
        <ele>36.983275</ele>
        <time>2020-09-23T12:12:59.515Z</time>
      </trkpt>
      <trkpt lat="65.57807" lon="22.11608">
        <ele>37.076181</ele>
        <time>2020-09-23T12:13:02.501Z</time>
      </trkpt>
      <trkpt lat="65.57809" lon="22.11632">
        <ele>37.155582</ele>
        <time>2020-09-23T12:13:05.510Z</time>
      </trkpt>
      <trkpt lat="65.57811" lon="22.11659">
        <ele>37.245362</ele>
        <time>2020-09-23T12:13:08.482Z</time>
      </trkpt>
      <trkpt lat="65.57814" lon="22.11688">
        <ele>37.342573</ele>
        <time>2020-09-23T12:13:11.486Z</time>
      </trkpt>
      <trkpt lat="65.57817" lon="22.11717">
        <ele>37.440915</ele>
        <time>2020-09-23T12:13:14.502Z</time>
      </trkpt>
      <trkpt lat="65.5782" lon="22.11747">
        <ele>37.542698</ele>
        <time>2020-09-23T12:13:17.496Z</time>
      </trkpt>
      <trkpt lat="65.57823" lon="22.11768">
        <ele>37.614519</ele>
        <time>2020-09-23T12:13:19.518Z</time>
      </trkpt>
      <trkpt lat="65.57826" lon="22.11798">
        <ele>37.713821</ele>
        <time>2020-09-23T12:13:22.502Z</time>
      </trkpt>
      <trkpt lat="65.57829" lon="22.11827">
        <ele>37.819407</ele>
        <time>2020-09-23T12:13:25.520Z</time>
      </trkpt>
      <trkpt lat="65.57831" lon="22.11856">
        <ele>37.929968</ele>
        <time>2020-09-23T12:13:28.546Z</time>
      </trkpt>
      <trkpt lat="65.57835" lon="22.11884">
        <ele>38.04009</ele>
        <time>2020-09-23T12:13:31.495Z</time>
      </trkpt>
      <trkpt lat="65.57837" lon="22.11911">
        <ele>38.141059</ele>
        <time>2020-09-23T12:13:34.515Z</time>
      </trkpt>
      <trkpt lat="65.5784" lon="22.11939">
        <ele>38.249092</ele>
        <time>2020-09-23T12:13:37.508Z</time>
      </trkpt>
      <trkpt lat="65.57844" lon="22.11968">
        <ele>38.360541</ele>
        <time>2020-09-23T12:13:40.493Z</time>
      </trkpt>
      <trkpt lat="65.57847" lon="22.11997">
        <ele>38.472386</ele>
        <time>2020-09-23T12:13:43.512Z</time>
      </trkpt>
      <trkpt lat="65.57849" lon="22.12025">
        <ele>38.576769</ele>
        <time>2020-09-23T12:13:46.534Z</time>
      </trkpt>
      <trkpt lat="65.57851" lon="22.12052">
        <ele>38.680647</ele>
        <time>2020-09-23T12:13:49.510Z</time>
      </trkpt>
      <trkpt lat="65.57853" lon="22.1208">
        <ele>38.785578</ele>
        <time>2020-09-23T12:13:52.506Z</time>
      </trkpt>
      <trkpt lat="65.57855" lon="22.1211">
        <ele>38.898164</ele>
        <time>2020-09-23T12:13:55.497Z</time>
      </trkpt>
      <trkpt lat="65.57859" lon="22.12138">
        <ele>39.005541</ele>
        <time>2020-09-23T12:13:58.499Z</time>
      </trkpt>
      <trkpt lat="65.57863" lon="22.12164">
        <ele>39.108472</ele>
        <time>2020-09-23T12:14:01.491Z</time>
      </trkpt>
      <trkpt lat="65.57866" lon="22.12192">
        <ele>39.21438</ele>
        <time>2020-09-23T12:14:04.508Z</time>
      </trkpt>
      <trkpt lat="65.57869" lon="22.12219">
        <ele>39.32034</ele>
        <time>2020-09-23T12:14:07.513Z</time>
      </trkpt>
      <trkpt lat="65.57872" lon="22.12245">
        <ele>39.3601</ele>
        <time>2020-09-23T12:14:10.520Z</time>
      </trkpt>
      <trkpt lat="65.57875" lon="22.12273">
        <ele>39.362507</ele>
        <time>2020-09-23T12:14:13.500Z</time>
      </trkpt>
      <trkpt lat="65.57876" lon="22.12294">
        <ele>39.364343</ele>
        <time>2020-09-23T12:14:15.490Z</time>
      </trkpt>
      <trkpt lat="65.57879" lon="22.12322">
        <ele>39.36677</ele>
        <time>2020-09-23T12:14:18.527Z</time>
      </trkpt>
      <trkpt lat="65.57882" lon="22.12346">
        <ele>39.368917</ele>
        <time>2020-09-23T12:14:21.514Z</time>
      </trkpt>
      <trkpt lat="65.57885" lon="22.12372">
        <ele>39.371194</ele>
        <time>2020-09-23T12:14:24.504Z</time>
      </trkpt>
      <trkpt lat="65.57889" lon="22.12399">
        <ele>39.373574</ele>
        <time>2020-09-23T12:14:27.495Z</time>
      </trkpt>
      <trkpt lat="65.57892" lon="22.12425">
        <ele>39.375879</ele>
        <time>2020-09-23T12:14:30.494Z</time>
      </trkpt>
      <trkpt lat="65.57895" lon="22.12452">
        <ele>39.378269</ele>
        <time>2020-09-23T12:14:33.535Z</time>
      </trkpt>
      <trkpt lat="65.57898" lon="22.1248">
        <ele>39.380725</ele>
        <time>2020-09-23T12:14:36.502Z</time>
      </trkpt>
      <trkpt lat="65.57901" lon="22.12505">
        <ele>39.382878</ele>
        <time>2020-09-23T12:14:39.519Z</time>
      </trkpt>
      <trkpt lat="65.57903" lon="22.12533">
        <ele>39.385232</ele>
        <time>2020-09-23T12:14:42.497Z</time>
      </trkpt>
      <trkpt lat="65.57905" lon="22.12559">
        <ele>39.387548</ele>
        <time>2020-09-23T12:14:45.516Z</time>
      </trkpt>
      <trkpt lat="65.57907" lon="22.12588">
        <ele>39.38998</ele>
        <time>2020-09-23T12:14:48.524Z</time>
      </trkpt>
      <trkpt lat="65.57909" lon="22.12617">
        <ele>39.39249</ele>
        <time>2020-09-23T12:14:51.487Z</time>
      </trkpt>
      <trkpt lat="65.57913" lon="22.12646">
        <ele>39.395053</ele>
        <time>2020-09-23T12:14:54.496Z</time>
      </trkpt>
      <trkpt lat="65.57917" lon="22.12676">
        <ele>39.233344</ele>
        <time>2020-09-23T12:14:57.518Z</time>
      </trkpt>
      <trkpt lat="65.5792" lon="22.12705">
        <ele>39.042758</ele>
        <time>2020-09-23T12:15:00.492Z</time>
      </trkpt>
      <trkpt lat="65.57923" lon="22.12731">
        <ele>38.878078</ele>
        <time>2020-09-23T12:15:03.493Z</time>
      </trkpt>
      <trkpt lat="65.57925" lon="22.12758">
        <ele>38.706953</ele>
        <time>2020-09-23T12:15:06.547Z</time>
      </trkpt>
      <trkpt lat="65.57928" lon="22.12785">
        <ele>38.53571</ele>
        <time>2020-09-23T12:15:09.523Z</time>
      </trkpt>
      <trkpt lat="65.57932" lon="22.12813">
        <ele>38.350616</ele>
        <time>2020-09-23T12:15:12.518Z</time>
      </trkpt>
      <trkpt lat="65.57935" lon="22.12842">
        <ele>38.170654</ele>
        <time>2020-09-23T12:15:15.487Z</time>
      </trkpt>
      <trkpt lat="65.57937" lon="22.1287">
        <ele>37.989946</ele>
        <time>2020-09-23T12:15:18.520Z</time>
      </trkpt>
      <trkpt lat="65.57939" lon="22.12898">
        <ele>37.811795</ele>
        <time>2020-09-23T12:15:21.506Z</time>
      </trkpt>
      <trkpt lat="65.57943" lon="22.12929">
        <ele>37.617046</ele>
        <time>2020-09-23T12:15:24.504Z</time>
      </trkpt>
      <trkpt lat="65.57947" lon="22.12958">
        <ele>37.423956</ele>
        <time>2020-09-23T12:15:27.496Z</time>
      </trkpt>
      <trkpt lat="65.57951" lon="22.12987">
        <ele>37.233059</ele>
        <time>2020-09-23T12:15:30.504Z</time>
      </trkpt>
      <trkpt lat="65.57956" lon="22.13016">
        <ele>37.040323</ele>
        <time>2020-09-23T12:15:33.508Z</time>
      </trkpt>
      <trkpt lat="65.57958" lon="22.13047">
        <ele>36.844329</ele>
        <time>2020-09-23T12:15:36.491Z</time>
      </trkpt>
      <trkpt lat="65.5796" lon="22.13069">
        <ele>36.708386</ele>
        <time>2020-09-23T12:15:38.487Z</time>
      </trkpt>
      <trkpt lat="65.57962" lon="22.13092">
        <ele>36.657809</ele>
        <time>2020-09-23T12:15:40.546Z</time>
      </trkpt>
      <trkpt lat="65.57965" lon="22.13115">
        <ele>36.61469</ele>
        <time>2020-09-23T12:15:42.494Z</time>
      </trkpt>
      <trkpt lat="65.57967" lon="22.13137">
        <ele>36.572115</ele>
        <time>2020-09-23T12:15:44.521Z</time>
      </trkpt>
      <trkpt lat="65.57969" lon="22.13159">
        <ele>36.529795</ele>
        <time>2020-09-23T12:15:46.490Z</time>
      </trkpt>
      <trkpt lat="65.57972" lon="22.13181">
        <ele>36.485984</ele>
        <time>2020-09-23T12:15:48.526Z</time>
      </trkpt>
      <trkpt lat="65.57974" lon="22.13205">
        <ele>36.439477</ele>
        <time>2020-09-23T12:15:50.502Z</time>
      </trkpt>
      <trkpt lat="65.57977" lon="22.1323">
        <ele>36.392538</ele>
        <time>2020-09-23T12:15:52.498Z</time>
      </trkpt>
      <trkpt lat="65.57979" lon="22.13255">
        <ele>36.34435</ele>
        <time>2020-09-23T12:15:54.499Z</time>
      </trkpt>
      <trkpt lat="65.57982" lon="22.1328">
        <ele>36.296703</ele>
        <time>2020-09-23T12:15:56.499Z</time>
      </trkpt>
      <trkpt lat="65.57985" lon="22.13305">
        <ele>36.248627</ele>
        <time>2020-09-23T12:15:58.488Z</time>
      </trkpt>
      <trkpt lat="65.57987" lon="22.13329">
        <ele>36.201871</ele>
        <time>2020-09-23T12:16:00.502Z</time>
      </trkpt>
      <trkpt lat="65.57989" lon="22.13353">
        <ele>36.156389</ele>
        <time>2020-09-23T12:16:02.503Z</time>
      </trkpt>
      <trkpt lat="65.57991" lon="22.13377">
        <ele>36.11109</ele>
        <time>2020-09-23T12:16:04.489Z</time>
      </trkpt>
      <trkpt lat="65.57994" lon="22.134">
        <ele>36.06667</ele>
        <time>2020-09-23T12:16:06.503Z</time>
      </trkpt>
      <trkpt lat="65.57996" lon="22.13421">
        <ele>36.025652</ele>
        <time>2020-09-23T12:16:08.489Z</time>
      </trkpt>
      <trkpt lat="65.57999" lon="22.13452">
        <ele>35.966064</ele>
        <time>2020-09-23T12:16:11.500Z</time>
      </trkpt>
      <trkpt lat="65.58001" lon="22.13483">
        <ele>35.908173</ele>
        <time>2020-09-23T12:16:14.499Z</time>
      </trkpt>
      <trkpt lat="65.58003" lon="22.13504">
        <ele>36.111522</ele>
        <time>2020-09-23T12:16:16.516Z</time>
      </trkpt>
      <trkpt lat="65.58005" lon="22.13525">
        <ele>36.552251</ele>
        <time>2020-09-23T12:16:18.506Z</time>
      </trkpt>
      <trkpt lat="65.58008" lon="22.13547">
        <ele>37.003972</ele>
        <time>2020-09-23T12:16:20.490Z</time>
      </trkpt>
      <trkpt lat="65.58011" lon="22.13571">
        <ele>37.500257</ele>
        <time>2020-09-23T12:16:22.520Z</time>
      </trkpt>
      <trkpt lat="65.58013" lon="22.13593">
        <ele>37.976474</ele>
        <time>2020-09-23T12:16:24.509Z</time>
      </trkpt>
      <trkpt lat="65.58015" lon="22.13617">
        <ele>38.466099</ele>
        <time>2020-09-23T12:16:26.527Z</time>
      </trkpt>
      <trkpt lat="65.58018" lon="22.13641">
        <ele>38.958445</ele>
        <time>2020-09-23T12:16:28.502Z</time>
      </trkpt>
      <trkpt lat="65.5802" lon="22.13662">
        <ele>39.396</ele>
        <time>2020-09-23T12:16:30.498Z</time>
      </trkpt>
      <trkpt lat="65.58021" lon="22.1369">
        <ele>39.954341</ele>
        <time>2020-09-23T12:16:33.502Z</time>
      </trkpt>
      <trkpt lat="65.58023" lon="22.13716">
        <ele>40.486854</ele>
        <time>2020-09-23T12:16:37.556Z</time>
      </trkpt>
      <trkpt lat="65.58024" lon="22.13738">
        <ele>40.934414</ele>
        <time>2020-09-23T12:16:41.506Z</time>
      </trkpt>
      <trkpt lat="65.58028" lon="22.1379">
        <ele>41.99431</ele>
        <time>2020-09-23T12:17:12.502Z</time>
      </trkpt>
      <trkpt lat="65.58031" lon="22.13816">
        <ele>42.534385</ele>
        <time>2020-09-23T12:17:18.542Z</time>
      </trkpt>
      <trkpt lat="65.58034" lon="22.1384">
        <ele>43.047446</ele>
        <time>2020-09-23T12:17:21.519Z</time>
      </trkpt>
      <trkpt lat="65.58039" lon="22.13869">
        <ele>43.672809</ele>
        <time>2020-09-23T12:17:24.505Z</time>
      </trkpt>
      <trkpt lat="65.58043" lon="22.13895">
        <ele>44.219558</ele>
        <time>2020-09-23T12:17:27.502Z</time>
      </trkpt>
      <trkpt lat="65.58048" lon="22.13922">
        <ele>44.972389</ele>
        <time>2020-09-23T12:17:30.492Z</time>
      </trkpt>
      <trkpt lat="65.58049" lon="22.13945">
        <ele>45.792037</ele>
        <time>2020-09-23T12:17:33.492Z</time>
      </trkpt>
      <trkpt lat="65.5805" lon="22.13971">
        <ele>46.783897</ele>
        <time>2020-09-23T12:17:37.520Z</time>
      </trkpt>
      <trkpt lat="65.58056" lon="22.13997">
        <ele>47.87636</ele>
        <time>2020-09-23T12:17:40.523Z</time>
      </trkpt>
      <trkpt lat="65.58061" lon="22.14022">
        <ele>48.866959</ele>
        <time>2020-09-23T12:17:42.541Z</time>
      </trkpt>
      <trkpt lat="65.58064" lon="22.14043">
        <ele>49.695387</ele>
        <time>2020-09-23T12:17:44.493Z</time>
      </trkpt>
      <trkpt lat="65.58065" lon="22.1407">
        <ele>50.674672</ele>
        <time>2020-09-23T12:17:47.525Z</time>
      </trkpt>
      <trkpt lat="65.58067" lon="22.14091">
        <ele>51.484649</ele>
        <time>2020-09-23T12:17:49.495Z</time>
      </trkpt>
      <trkpt lat="65.58071" lon="22.14114">
        <ele>52.360234</ele>
        <time>2020-09-23T12:17:51.495Z</time>
      </trkpt>
      <trkpt lat="65.58076" lon="22.14138">
        <ele>53.331271</ele>
        <time>2020-09-23T12:17:53.503Z</time>
      </trkpt>
      <trkpt lat="65.58078" lon="22.14166">
        <ele>54.380911</ele>
        <time>2020-09-23T12:17:56.516Z</time>
      </trkpt>
      <trkpt lat="65.58082" lon="22.14195">
        <ele>55.492064</ele>
        <time>2020-09-23T12:17:59.494Z</time>
      </trkpt>
      <trkpt lat="65.58086" lon="22.14214">
        <ele>56.291918</ele>
        <time>2020-09-23T12:18:01.515Z</time>
      </trkpt>
      <trkpt lat="65.58092" lon="22.14243">
        <ele>57.491983</ele>
        <time>2020-09-23T12:18:04.497Z</time>
      </trkpt>
      <trkpt lat="65.58097" lon="22.14272">
        <ele>58.6381</ele>
        <time>2020-09-23T12:18:07.527Z</time>
      </trkpt>
      <trkpt lat="65.58101" lon="22.143">
        <ele>59.727365</ele>
        <time>2020-09-23T12:18:10.543Z</time>
      </trkpt>
      <trkpt lat="65.58102" lon="22.14332">
        <ele>60.277575</ele>
        <time>2020-09-23T12:18:13.508Z</time>
      </trkpt>
      <trkpt lat="65.58101" lon="22.14358">
        <ele>59.523133</ele>
        <time>2020-09-23T12:18:16.507Z</time>
      </trkpt>
      <trkpt lat="65.58097" lon="22.14383">
        <ele>58.746655</ele>
        <time>2020-09-23T12:18:19.498Z</time>
      </trkpt>
      <trkpt lat="65.58089" lon="22.14405">
        <ele>57.947624</ele>
        <time>2020-09-23T12:18:22.490Z</time>
      </trkpt>
      <trkpt lat="65.58082" lon="22.14419">
        <ele>57.294967</ele>
        <time>2020-09-23T12:18:24.501Z</time>
      </trkpt>
      <trkpt lat="65.58075" lon="22.14432">
        <ele>56.672569</ele>
        <time>2020-09-23T12:18:26.504Z</time>
      </trkpt>
      <trkpt lat="65.58064" lon="22.1445">
        <ele>55.784887</ele>
        <time>2020-09-23T12:18:29.499Z</time>
      </trkpt>
      <trkpt lat="65.58058" lon="22.14465">
        <ele>55.162256</ele>
        <time>2020-09-23T12:18:31.565Z</time>
      </trkpt>
      <trkpt lat="65.58051" lon="22.14493">
        <ele>54.245173</ele>
        <time>2020-09-23T12:18:34.516Z</time>
      </trkpt>
      <trkpt lat="65.58052" lon="22.14516">
        <ele>53.579257</ele>
        <time>2020-09-23T12:18:36.498Z</time>
      </trkpt>
      <trkpt lat="65.58058" lon="22.14536">
        <ele>52.908421</ele>
        <time>2020-09-23T12:18:38.515Z</time>
      </trkpt>
      <trkpt lat="65.58065" lon="22.14554">
        <ele>52.159814</ele>
        <time>2020-09-23T12:18:41.500Z</time>
      </trkpt>
      <trkpt lat="65.5808" lon="22.14577">
        <ele>50.96368</ele>
        <time>2020-09-23T12:18:44.501Z</time>
      </trkpt>
      <trkpt lat="65.58089" lon="22.14583">
        <ele>50.333801</ele>
        <time>2020-09-23T12:18:46.500Z</time>
      </trkpt>
      <trkpt lat="65.58099" lon="22.14583">
        <ele>49.64478</ele>
        <time>2020-09-23T12:18:49.543Z</time>
      </trkpt>
      <trkpt lat="65.58111" lon="22.14585">
        <ele>48.82298</ele>
        <time>2020-09-23T12:18:53.574Z</time>
      </trkpt>
      <trkpt lat="65.5812" lon="22.14587">
        <ele>48.160232</ele>
        <time>2020-09-23T12:18:57.506Z</time>
      </trkpt>
      <trkpt lat="65.58127" lon="22.14605">
        <ele>48.53428</ele>
        <time>2020-09-23T12:19:01.512Z</time>
      </trkpt>
      <trkpt lat="65.58131" lon="22.14632">
        <ele>48.99094</ele>
        <time>2020-09-23T12:19:05.499Z</time>
      </trkpt>
      <trkpt lat="65.58131" lon="22.1466">
        <ele>49.446689</ele>
        <time>2020-09-23T12:19:09.504Z</time>
      </trkpt>
      <trkpt lat="65.58131" lon="22.14684">
        <ele>49.821265</ele>
        <time>2020-09-23T12:19:12.493Z</time>
      </trkpt>
      <trkpt lat="65.58132" lon="22.14711">
        <ele>50.263491</ele>
        <time>2020-09-23T12:19:16.498Z</time>
      </trkpt>
      <trkpt lat="65.58135" lon="22.14738">
        <ele>50.695844</ele>
        <time>2020-09-23T12:19:20.484Z</time>
      </trkpt>
      <trkpt lat="65.58136" lon="22.14759">
        <ele>51.044867</ele>
        <time>2020-09-23T12:19:23.501Z</time>
      </trkpt>
      <trkpt lat="65.58137" lon="22.14781">
        <ele>51.393303</ele>
        <time>2020-09-23T12:19:26.517Z</time>
      </trkpt>
      <trkpt lat="65.58138" lon="22.14807">
        <ele>51.812459</ele>
        <time>2020-09-23T12:19:30.521Z</time>
      </trkpt>
      <trkpt lat="65.58142" lon="22.14831">
        <ele>52.214769</ele>
        <time>2020-09-23T12:19:34.511Z</time>
      </trkpt>
      <trkpt lat="65.58145" lon="22.14856">
        <ele>52.640147</ele>
        <time>2020-09-23T12:19:38.493Z</time>
      </trkpt>
      <trkpt lat="65.58149" lon="22.14878">
        <ele>53.010754</ele>
        <time>2020-09-23T12:19:41.491Z</time>
      </trkpt>
      <trkpt lat="65.58151" lon="22.14899">
        <ele>53.35885</ele>
        <time>2020-09-23T12:19:44.496Z</time>
      </trkpt>
      <trkpt lat="65.58154" lon="22.1492">
        <ele>53.719627</ele>
        <time>2020-09-23T12:19:47.496Z</time>
      </trkpt>
      <trkpt lat="65.58157" lon="22.14948">
        <ele>54.184798</ele>
        <time>2020-09-23T12:19:51.511Z</time>
      </trkpt>
      <trkpt lat="65.5816" lon="22.14969">
        <ele>54.543164</ele>
        <time>2020-09-23T12:19:54.490Z</time>
      </trkpt>
      <trkpt lat="65.58162" lon="22.14993">
        <ele>54.933942</ele>
        <time>2020-09-23T12:19:57.501Z</time>
      </trkpt>
      <trkpt lat="65.58164" lon="22.15016">
        <ele>55.096538</ele>
        <time>2020-09-23T12:20:00.547Z</time>
      </trkpt>
      <trkpt lat="65.58167" lon="22.15038">
        <ele>55.090736</ele>
        <time>2020-09-23T12:20:03.505Z</time>
      </trkpt>
      <trkpt lat="65.58169" lon="22.15063">
        <ele>55.084426</ele>
        <time>2020-09-23T12:20:06.501Z</time>
      </trkpt>
      <trkpt lat="65.58173" lon="22.15087">
        <ele>55.077868</ele>
        <time>2020-09-23T12:20:09.511Z</time>
      </trkpt>
      <trkpt lat="65.58176" lon="22.1511">
        <ele>55.071779</ele>
        <time>2020-09-23T12:20:12.491Z</time>
      </trkpt>
      <trkpt lat="65.58178" lon="22.15138">
        <ele>55.064633</ele>
        <time>2020-09-23T12:20:15.505Z</time>
      </trkpt>
      <trkpt lat="65.5818" lon="22.15161">
        <ele>55.058711</ele>
        <time>2020-09-23T12:20:17.494Z</time>
      </trkpt>
      <trkpt lat="65.58183" lon="22.15183">
        <ele>55.052859</ele>
        <time>2020-09-23T12:20:19.538Z</time>
      </trkpt>
      <trkpt lat="65.58184" lon="22.15206">
        <ele>55.04711</ele>
        <time>2020-09-23T12:20:21.517Z</time>
      </trkpt>
      <trkpt lat="65.58185" lon="22.15228">
        <ele>55.041445</ele>
        <time>2020-09-23T12:20:23.506Z</time>
      </trkpt>
      <trkpt lat="65.58188" lon="22.15259">
        <ele>55.033473</ele>
        <time>2020-09-23T12:20:26.527Z</time>
      </trkpt>
      <trkpt lat="65.58192" lon="22.1529">
        <ele>55.025569</ele>
        <time>2020-09-23T12:20:29.507Z</time>
      </trkpt>
      <trkpt lat="65.58195" lon="22.15316">
        <ele>55.018761</ele>
        <time>2020-09-23T12:20:32.512Z</time>
      </trkpt>
      <trkpt lat="65.582" lon="22.1534">
        <ele>55.01185</ele>
        <time>2020-09-23T12:20:35.492Z</time>
      </trkpt>
      <trkpt lat="65.58204" lon="22.15372">
        <ele>55.003543</ele>
        <time>2020-09-23T12:20:38.505Z</time>
      </trkpt>
      <trkpt lat="65.58206" lon="22.15398">
        <ele>54.996983</ele>
        <time>2020-09-23T12:20:41.505Z</time>
      </trkpt>
      <trkpt lat="65.58211" lon="22.15425">
        <ele>54.939425</ele>
        <time>2020-09-23T12:20:44.496Z</time>
      </trkpt>
      <trkpt lat="65.58214" lon="22.15446">
        <ele>54.679593</ele>
        <time>2020-09-23T12:20:46.527Z</time>
      </trkpt>
      <trkpt lat="65.58217" lon="22.15468">
        <ele>54.416382</ele>
        <time>2020-09-23T12:20:48.522Z</time>
      </trkpt>
      <trkpt lat="65.58219" lon="22.15494">
        <ele>54.118503</ele>
        <time>2020-09-23T12:20:50.512Z</time>
      </trkpt>
      <trkpt lat="65.58221" lon="22.1552">
        <ele>53.819403</ele>
        <time>2020-09-23T12:20:52.533Z</time>
      </trkpt>
      <trkpt lat="65.58224" lon="22.15544">
        <ele>53.53366</ele>
        <time>2020-09-23T12:20:54.535Z</time>
      </trkpt>
      <trkpt lat="65.58227" lon="22.15567">
        <ele>53.260242</ele>
        <time>2020-09-23T12:20:56.488Z</time>
      </trkpt>
      <trkpt lat="65.5823" lon="22.15589">
        <ele>53.005831</ele>
        <time>2020-09-23T12:20:58.500Z</time>
      </trkpt>
      <trkpt lat="65.58233" lon="22.1562">
        <ele>52.636542</ele>
        <time>2020-09-23T12:21:01.523Z</time>
      </trkpt>
      <trkpt lat="65.58235" lon="22.15642">
        <ele>52.382633</ele>
        <time>2020-09-23T12:21:03.491Z</time>
      </trkpt>
      <trkpt lat="65.58237" lon="22.15671">
        <ele>52.043567</ele>
        <time>2020-09-23T12:21:06.485Z</time>
      </trkpt>
      <trkpt lat="65.58241" lon="22.15697">
        <ele>51.734129</ele>
        <time>2020-09-23T12:21:09.508Z</time>
      </trkpt>
      <trkpt lat="65.58245" lon="22.1572">
        <ele>51.456614</ele>
        <time>2020-09-23T12:21:12.498Z</time>
      </trkpt>
      <trkpt lat="65.58248" lon="22.15742">
        <ele>51.189963</ele>
        <time>2020-09-23T12:21:15.523Z</time>
      </trkpt>
      <trkpt lat="65.58251" lon="22.1577">
        <ele>50.86217</ele>
        <time>2020-09-23T12:21:19.498Z</time>
      </trkpt>
      <trkpt lat="65.58254" lon="22.15792">
        <ele>50.5966</ele>
        <time>2020-09-23T12:21:22.518Z</time>
      </trkpt>
      <trkpt lat="65.58254" lon="22.15822">
        <ele>50.260034</ele>
        <time>2020-09-23T12:21:26.500Z</time>
      </trkpt>
      <trkpt lat="65.58252" lon="22.15851">
        <ele>50.013488</ele>
        <time>2020-09-23T12:21:29.538Z</time>
      </trkpt>
      <trkpt lat="65.58252" lon="22.15878">
        <ele>49.934611</ele>
        <time>2020-09-23T12:21:32.504Z</time>
      </trkpt>
      <trkpt lat="65.58256" lon="22.15902">
        <ele>49.860149</ele>
        <time>2020-09-23T12:21:35.534Z</time>
      </trkpt>
      <trkpt lat="65.58258" lon="22.15924">
        <ele>49.795807</ele>
        <time>2020-09-23T12:21:38.496Z</time>
      </trkpt>
      <trkpt lat="65.5826" lon="22.15945">
        <ele>49.7333</ele>
        <time>2020-09-23T12:21:41.500Z</time>
      </trkpt>
      <trkpt lat="65.58263" lon="22.15972">
        <ele>49.653317</ele>
        <time>2020-09-23T12:21:45.506Z</time>
      </trkpt>
      <trkpt lat="65.58266" lon="22.15996">
        <ele>49.582796</ele>
        <time>2020-09-23T12:21:49.490Z</time>
      </trkpt>
      <trkpt lat="65.58267" lon="22.1602">
        <ele>49.512733</ele>
        <time>2020-09-23T12:21:53.509Z</time>
      </trkpt>
      <trkpt lat="65.5827" lon="22.16043">
        <ele>49.444918</ele>
        <time>2020-09-23T12:21:58.515Z</time>
      </trkpt>
      <trkpt lat="65.58274" lon="22.16064">
        <ele>49.376735</ele>
        <time>2020-09-23T12:22:02.520Z</time>
      </trkpt>
      <trkpt lat="65.58275" lon="22.16086">
        <ele>49.313766</ele>
        <time>2020-09-23T12:22:06.514Z</time>
      </trkpt>
      <trkpt lat="65.5828" lon="22.16107">
        <ele>49.243708</ele>
        <time>2020-09-23T12:22:10.502Z</time>
      </trkpt>
      <trkpt lat="65.58284" lon="22.16127">
        <ele>49.181116</ele>
        <time>2020-09-23T12:22:13.523Z</time>
      </trkpt>
      <trkpt lat="65.58286" lon="22.16149">
        <ele>49.115487</ele>
        <time>2020-09-23T12:22:16.521Z</time>
      </trkpt>
      <trkpt lat="65.58288" lon="22.16176">
        <ele>49.036154</ele>
        <time>2020-09-23T12:22:20.497Z</time>
      </trkpt>
      <trkpt lat="65.58291" lon="22.162">
        <ele>48.965485</ele>
        <time>2020-09-23T12:22:23.502Z</time>
      </trkpt>
      <trkpt lat="65.58295" lon="22.16226">
        <ele>48.885673</ele>
        <time>2020-09-23T12:22:26.500Z</time>
      </trkpt>
      <trkpt lat="65.58299" lon="22.16254">
        <ele>48.801003</ele>
        <time>2020-09-23T12:22:29.492Z</time>
      </trkpt>
      <trkpt lat="65.58303" lon="22.16282">
        <ele>48.795678</ele>
        <time>2020-09-23T12:22:32.519Z</time>
      </trkpt>
      <trkpt lat="65.58304" lon="22.16312">
        <ele>48.795678</ele>
        <time>2020-09-23T12:22:35.490Z</time>
      </trkpt>
      <trkpt lat="65.58306" lon="22.16335">
        <ele>48.795678</ele>
        <time>2020-09-23T12:22:38.513Z</time>
      </trkpt>
      <trkpt lat="65.58311" lon="22.16357">
        <ele>48.795678</ele>
        <time>2020-09-23T12:22:43.508Z</time>
      </trkpt>
      <trkpt lat="65.58322" lon="22.16367">
        <ele>48.795678</ele>
        <time>2020-09-23T12:22:48.491Z</time>
      </trkpt>
      <trkpt lat="65.58332" lon="22.16363">
        <ele>48.795678</ele>
        <time>2020-09-23T12:22:51.501Z</time>
      </trkpt>
      <trkpt lat="65.58342" lon="22.16357">
        <ele>48.795678</ele>
        <time>2020-09-23T12:22:55.500Z</time>
      </trkpt>
      <trkpt lat="65.58353" lon="22.16349">
        <ele>48.795678</ele>
        <time>2020-09-23T12:22:59.565Z</time>
      </trkpt>
      <trkpt lat="65.58364" lon="22.16353">
        <ele>48.795678</ele>
        <time>2020-09-23T12:23:04.526Z</time>
      </trkpt>
      <trkpt lat="65.58374" lon="22.16357">
        <ele>48.795678</ele>
        <time>2020-09-23T12:23:14.512Z</time>
      </trkpt>
      <trkpt lat="65.58382" lon="22.16347">
        <ele>48.795678</ele>
        <time>2020-09-23T12:23:44.499Z</time>
      </trkpt>
      <trkpt lat="65.58385" lon="22.16323">
        <ele>48.795678</ele>
        <time>2020-09-23T12:23:49.496Z</time>
      </trkpt>
      <trkpt lat="65.58388" lon="22.16303">
        <ele>48.795678</ele>
        <time>2020-09-23T12:23:54.508Z</time>
      </trkpt>
      <trkpt lat="65.58388" lon="22.16277">
        <ele>48.795678</ele>
        <time>2020-09-23T12:23:59.504Z</time>
      </trkpt>
      <trkpt lat="65.58381" lon="22.16259">
        <ele>48.795678</ele>
        <time>2020-09-23T12:24:03.503Z</time>
      </trkpt>
      <trkpt lat="65.58379" lon="22.16234">
        <ele>48.795678</ele>
        <time>2020-09-23T12:24:08.518Z</time>
      </trkpt>
      <trkpt lat="65.58378" lon="22.16208">
        <ele>48.795678</ele>
        <time>2020-09-23T12:24:12.524Z</time>
      </trkpt>
      <trkpt lat="65.58373" lon="22.16184">
        <ele>48.795678</ele>
        <time>2020-09-23T12:24:16.500Z</time>
      </trkpt>
      <trkpt lat="65.58367" lon="22.16164">
        <ele>48.795678</ele>
        <time>2020-09-23T12:24:19.547Z</time>
      </trkpt>
      <trkpt lat="65.58363" lon="22.16143">
        <ele>48.795678</ele>
        <time>2020-09-23T12:24:23.511Z</time>
      </trkpt>
      <trkpt lat="65.58363" lon="22.16121">
        <ele>48.795678</ele>
        <time>2020-09-23T12:24:27.528Z</time>
      </trkpt>
      <trkpt lat="65.58366" lon="22.16098">
        <ele>48.795678</ele>
        <time>2020-09-23T12:24:31.504Z</time>
      </trkpt>
      <trkpt lat="65.58365" lon="22.16075">
        <ele>48.795678</ele>
        <time>2020-09-23T12:24:36.503Z</time>
      </trkpt>
      <trkpt lat="65.5837" lon="22.16057">
        <ele>48.795678</ele>
        <time>2020-09-23T12:24:42.526Z</time>
      </trkpt>
      <trkpt lat="65.58374" lon="22.16043">
        <ele>48.795678</ele>
        <time>2020-09-23T12:25:51.111Z</time>
      </trkpt>
    </trkseg>
  </trk>
</gpx>